GFSWCAN_prec_precacc12_009.txt.gz
Total_Precipitation_Accumulation
0.20 0.32 0.40 0.21 0.18 0.18 0.16 0.10 0.08 0.10 0.07 0.02 0.00 0.00 0.00 0.00 0.00 0.05 0.01 0.00 0.00 0.00 0.00 0.00 0.00 0.00 0.00 0.00 0.00 0.00 0.00 0.00 0.00 0.00 0.00 0.00 0.00 0.00 0.00 0.00 0.00 0.00 0.00 0.00 0.00 0.00 0.00 0.00 0.00 0.00 0.00 0.00 0.00 0.00
0.32 0.38 0.31 0.20 0.18 0.17 0.13 0.07 0.07 0.04 0.01 0.00 0.00 0.00 0.00 0.00 0.00 0.06 0.02 0.00 0.00 0.00 0.00 0.00 0.00 0.00 0.00 0.00 0.00 0.00 0.00 0.00 0.00 0.00 0.00 0.01 0.00 0.00 0.00 0.00 0.00 0.00 0.00 0.00 0.00 0.00 0.00 0.00 0.00 0.00 0.00 0.00 0.00 0.00
0.30 0.29 0.23 0.17 0.13 0.10 0.07 0.04 0.03 0.01 0.00 0.00 0.00 0.00 0.00 0.00 0.00 0.06 0.03 0.01 0.02 0.02 0.02 0.00 0.00 0.00 0.00 0.00 0.00 0.00 0.00 0.00 0.00 0.00 0.00 0.00 0.00 0.00 0.00 0.00 0.00 0.00 0.00 0.00 0.00 0.00 0.00 0.00 0.00 0.00 0.00 0.00 0.00 0.00
0.18 0.15 0.14 0.09 0.05 0.05 0.03 0.01 0.01 0.01 0.00 0.00 0.00 0.00 0.00 0.00 0.00 0.05 0.01 0.02 0.03 0.03 0.05 0.01 0.00 0.00 0.00 0.00 0.00 0.00 0.00 0.00 0.00 0.00 0.00 0.01 0.01 0.00 0.00 0.00 0.00 0.00 0.00 0.00 0.00 0.00 0.00 0.00 0.00 0.00 0.00 0.00 0.00 0.00
0.05 0.03 0.01 0.01 0.00 0.01 0.01 0.01 0.00 0.00 0.01 0.01 0.02 0.00 0.00 0.00 0.01 0.02 0.01 0.02 0.04 0.06 0.04 0.02 0.02 0.01 0.00 0.00 0.00 0.00 0.00 0.00 0.00 0.00 0.01 0.01 0.00 0.00 0.00 0.00 0.00 0.00 0.00 0.00 0.00 0.00 0.00 0.00 0.00 0.00 0.00 0.00 0.00 0.00
0.00 0.00 0.00 0.00 0.01 0.01 0.01 0.01 0.03 0.02 0.02 0.03 0.05 0.04 0.02 0.00 0.01 0.01 0.06 0.02 0.02 0.03 0.05 0.03 0.02 0.01 0.00 0.00 0.00 0.00 0.00 0.00 0.00 0.00 0.00 0.00 0.00 0.00 0.00 0.00 0.00 0.00 0.00 0.00 0.00 0.00 0.00 0.00 0.00 0.00 0.00 0.00 0.00 0.00
0.00 0.00 0.00 0.00 0.01 0.02 0.03 0.04 0.06 0.07 0.06 0.06 0.06 0.08 0.09 0.04 0.01 0.02 0.03 0.01 0.02 0.02 0.05 0.04 0.03 0.01 0.01 0.00 0.00 0.00 0.00 0.00 0.00 0.00 0.00 0.00 0.00 0.00 0.00 0.00 0.00 0.00 0.00 0.00 0.00 0.00 0.00 0.00 0.00 0.00 0.00 0.00 0.00 0.00
0.00 0.00 0.00 0.00 0.00 0.01 0.02 0.03 0.05 0.05 0.03 0.03 0.03 0.05 0.11 0.07 0.03 0.01 0.03 0.01 0.01 0.00 0.03 0.03 0.01 0.01 0.01 0.01 0.01 0.00 0.00 0.00 0.00 0.00 0.00 0.00 0.00 0.00 0.00 0.00 0.00 0.00 0.00 0.00 0.00 0.00 0.00 0.00 0.00 0.00 0.00 0.00 0.00 0.00
0.00 0.00 0.00 0.00 0.01 0.00 0.00 0.00 0.01 0.01 0.00 0.00 0.01 0.02 0.04 0.03 0.04 0.01 0.03 0.00 0.01 0.01 0.01 0.01 0.01 0.02 0.01 0.01 0.01 0.00 0.00 0.00 0.00 0.00 0.00 0.00 0.00 0.00 0.00 0.00 0.00 0.00 0.00 0.00 0.00 0.00 0.00 0.00 0.00 0.00 0.00 0.00 0.00 0.01
0.00 0.00 0.00 0.00 0.03 0.02 0.00 0.00 0.00 0.00 0.00 0.00 0.00 0.02 0.03 0.00 0.00 0.00 0.01 0.00 0.00 0.00 0.00 0.00 0.00 0.01 0.01 0.02 0.01 0.00 0.00 0.00 0.00 0.00 0.00 0.00 0.00 0.00 0.00 0.00 0.00 0.00 0.00 0.00 0.00 0.00 0.00 0.00 0.00 0.00 0.00 0.00 0.02 0.05
0.02 0.01 0.01 0.00 0.01 0.07 0.02 0.00 0.00 0.00 0.00 0.00 0.00 0.04 0.01 0.00 0.00 0.00 0.00 0.00 0.00 0.00 0.00 0.00 0.00 0.00 0.00 0.00 0.01 0.00 0.00 0.00 0.00 0.00 0.00 0.00 0.00 0.00 0.00 0.00 0.00 0.00 0.00 0.00 0.00 0.00 0.00 0.00 0.00 0.01 0.03 0.04 0.03 0.01
0.08 0.02 0.00 0.00 0.00 0.04 0.05 0.00 0.00 0.00 0.00 0.00 0.00 0.01 0.00 0.00 0.00 0.00 0.00 0.00 0.00 0.00 0.00 0.00 0.00 0.00 0.00 0.00 0.00 0.00 0.00 0.00 0.00 0.00 0.00 0.01 0.00 0.00 0.00 0.00 0.00 0.00 0.00 0.00 0.00 0.00 0.00 0.00 0.01 0.01 0.01 0.00 0.00 0.00
0.11 0.10 0.06 0.02 0.00 0.00 0.03 0.01 0.00 0.00 0.00 0.00 0.00 0.00 0.00 0.00 0.00 0.00 0.00 0.00 0.00 0.00 0.00 0.00 0.00 0.00 0.00 0.00 0.00 0.01 0.00 0.00 0.00 0.00 0.01 0.01 0.01 0.03 0.01 0.00 0.00 0.00 0.00 0.00 0.00 0.00 0.00 0.00 0.00 0.00 0.00 0.00 0.00 0.00
0.01 0.04 0.08 0.08 0.05 0.01 0.01 0.01 0.00 0.00 0.00 0.00 0.01 0.00 0.00 0.00 0.00 0.00 0.00 0.00 0.00 0.00 0.00 0.00 0.00 0.00 0.00 0.01 0.02 0.03 0.06 0.07 0.07 0.03 0.01 0.03 0.06 0.03 0.01 0.00 0.00 0.00 0.00 0.00 0.00 0.00 0.00 0.00 0.00 0.00 0.00 0.00 0.00 0.00
0.00 0.00 0.00 0.03 0.06 0.04 0.03 0.01 0.00 0.00 0.01 0.06 0.03 0.05 0.01 0.00 0.00 0.00 0.00 0.00 0.00 0.00 0.00 0.00 0.01 0.02 0.03 0.07 0.06 0.07 0.06 0.05 0.03 0.01 0.02 0.05 0.05 0.01 0.00 0.00 0.00 0.00 0.00 0.00 0.00 0.00 0.00 0.00 0.00 0.00 0.00 0.00 0.00 0.00
0.00 0.00 0.00 0.00 0.00 0.00 0.02 0.02 0.02 0.04 0.08 0.08 0.08 0.06 0.03 0.01 0.01 0.02 0.01 0.01 0.01 0.01 0.01 0.03 0.04 0.06 0.08 0.08 0.07 0.04 0.05 0.02 0.01 0.01 0.03 0.04 0.02 0.02 0.00 0.00 0.00 0.00 0.00 0.00 0.00 0.00 0.00 0.00 0.00 0.00 0.00 0.00 0.00 0.00
0.00 0.00 0.00 0.00 0.00 0.00 0.00 0.00 0.00 0.03 0.07 0.06 0.08 0.11 0.09 0.08 0.10 0.10 0.08 0.07 0.06 0.06 0.09 0.09 0.08 0.08 0.11 0.09 0.06 0.04 0.06 0.04 0.05 0.04 0.03 0.01 0.00 0.00 0.00 0.00 0.00 0.00 0.00 0.00 0.00 0.00 0.00 0.00 0.00 0.00 0.00 0.00 0.00 0.00
0.00 0.00 0.00 0.00 0.00 0.00 0.00 0.00 0.00 0.00 0.01 0.02 0.03 0.04 0.02 0.03 0.04 0.04 0.02 0.02 0.02 0.03 0.05 0.05 0.04 0.06 0.07 0.05 0.04 0.02 0.01 0.01 0.00 0.01 0.01 0.00 0.00 0.00 0.00 0.00 0.00 0.00 0.00 0.00 0.00 0.00 0.00 0.00 0.00 0.00 0.00 0.00 0.00 0.00
0.00 0.00 0.00 0.00 0.00 0.00 0.00 0.00 0.00 0.00 0.01 0.02 0.03 0.02 0.01 0.01 0.00 0.00 0.00 0.00 0.00 0.00 0.00 0.00 0.00 0.00 0.00 0.00 0.00 0.00 0.00 0.00 0.00 0.00 0.00 0.00 0.00 0.00 0.00 0.00 0.00 0.00 0.00 0.00 0.00 0.00 0.00 0.00 0.00 0.00 0.00 0.00 0.00 0.00
0.00 0.00 0.00 0.00 0.00 0.00 0.00 0.00 0.00 0.00 0.00 0.01 0.01 0.00 0.00 0.00 0.00 0.01 0.00 0.00 0.00 0.00 0.00 0.00 0.00 0.00 0.00 0.00 0.00 0.00 0.00 0.00 0.00 0.00 0.00 0.00 0.00 0.00 0.00 0.00 0.00 0.00 0.00 0.00 0.00 0.00 0.00 0.00 0.00 0.00 0.00 0.00 0.00 0.00
0.00 0.00 0.00 0.00 0.00 0.00 0.00 0.00 0.00 0.00 0.00 0.00 0.00 0.00 0.00 0.00 0.00 0.00 0.00 0.00 0.00 0.00 0.00 0.00 0.00 0.00 0.00 0.00 0.00 0.00 0.00 0.00 0.00 0.00 0.00 0.00 0.00 0.00 0.01 0.00 0.00 0.00 0.00 0.00 0.00 0.00 0.00 0.00 0.00 0.00 0.00 0.00 0.00 0.00
0.00 0.00 0.00 0.00 0.00 0.00 0.00 0.00 0.00 0.00 0.00 0.00 0.00 0.00 0.00 0.00 0.00 0.00 0.00 0.01 0.01 0.01 0.01 0.01 0.01 0.02 0.02 0.01 0.00 0.00 0.00 0.00 0.00 0.01 0.01 0.02 0.01 0.01 0.00 0.00 0.00 0.00 0.00 0.00 0.00 0.00 0.00 0.00 0.00 0.00 0.00 0.00 0.00 0.00
0.00 0.00 0.00 0.00 0.00 0.00 0.00 0.00 0.00 0.00 0.00 0.00 0.00 0.00 0.00 0.00 0.00 0.00 0.01 0.02 0.03 0.03 0.03 0.02 0.03 0.06 0.10 0.13 0.12 0.12 0.14 0.13 0.13 0.14 0.12 0.08 0.06 0.04 0.01 0.00 0.00 0.00 0.00 0.00 0.00 0.00 0.00 0.00 0.00 0.00 0.00 0.00 0.00 0.00
0.00 0.00 0.00 0.00 0.00 0.00 0.00 0.00 0.00 0.00 0.00 0.00 0.00 0.00 0.00 0.00 0.00 0.01 0.01 0.01 0.02 0.01 0.04 0.04 0.05 0.07 0.11 0.14 0.17 0.22 0.25 0.21 0.17 0.14 0.10 0.06 0.03 0.01 0.00 0.00 0.00 0.00 0.00 0.00 0.00 0.00 0.00 0.00 0.00 0.00 0.00 0.00 0.00 0.00
0.00 0.00 0.00 0.00 0.00 0.00 0.00 0.00 0.00 0.00 0.00 0.00 0.00 0.00 0.00 0.00 0.01 0.01 0.01 0.02 0.03 0.05 0.11 0.15 0.15 0.15 0.16 0.19 0.19 0.16 0.12 0.08 0.05 0.04 0.03 0.01 0.00 0.00 0.00 0.00 0.00 0.00 0.00 0.00 0.00 0.00 0.00 0.00 0.00 0.00 0.00 0.00 0.00 0.00
0.00 0.00 0.00 0.00 0.00 0.00 0.00 0.00 0.00 0.00 0.01 0.01 0.01 0.01 0.01 0.02 0.02 0.02 0.02 0.03 0.05 0.08 0.12 0.17 0.19 0.17 0.15 0.12 0.08 0.06 0.04 0.01 0.01 0.00 0.00 0.00 0.00 0.00 0.00 0.00 0.00 0.00 0.00 0.00 0.00 0.00 0.00 0.00 0.00 0.00 0.00 0.00 0.00 0.01
0.00 0.01 0.00 0.00 0.00 0.00 0.00 0.01 0.01 0.01 0.02 0.02 0.02 0.02 0.04 0.05 0.03 0.03 0.04 0.05 0.09 0.12 0.14 0.14 0.11 0.09 0.07 0.05 0.03 0.02 0.01 0.00 0.00 0.00 0.00 0.00 0.00 0.00 0.00 0.00 0.00 0.00 0.00 0.00 0.00 0.00 0.00 0.00 0.00 0.00 0.00 0.01 0.01 0.01
0.00 0.00 0.00 0.00 0.00 0.01 0.01 0.02 0.02 0.03 0.04 0.03 0.02 0.02 0.02 0.03 0.05 0.04 0.05 0.06 0.07 0.08 0.07 0.06 0.05 0.02 0.02 0.02 0.02 0.01 0.00 0.00 0.00 0.00 0.00 0.00 0.00 0.00 0.00 0.00 0.00 0.00 0.00 0.00 0.00 0.00 0.00 0.01 0.01 0.01 0.01 0.00 0.00 0.00
0.01 0.01 0.01 0.00 0.01 0.02 0.03 0.03 0.02 0.02 0.02 0.02 0.02 0.02 0.02 0.02 0.02 0.02 0.03 0.04 0.04 0.04 0.03 0.02 0.03 0.02 0.01 0.00 0.00 0.00 0.00 0.00 0.00 0.00 0.00 0.00 0.00 0.00 0.00 0.00 0.00 0.00 0.00 0.00 0.00 0.00 0.00 0.01 0.01 0.00 0.00 0.00 0.00 0.00
0.00 0.00 0.00 0.00 0.00 0.01 0.02 0.01 0.02 0.02 0.01 0.01 0.02 0.01 0.01 0.02 0.03 0.04 0.04 0.04 0.04 0.04 0.04 0.04 0.03 0.02 0.01 0.00 0.00 0.00 0.00 0.00 0.00 0.00 0.00 0.00 0.00 0.00 0.00 0.00 0.00 0.00 0.00 0.00 0.00 0.00 0.00 0.00 0.00 0.00 0.00 0.00 0.00 0.00
0.00 0.00 0.01 0.00 0.00 0.01 0.01 0.01 0.02 0.05 0.03 0.02 0.02 0.02 0.03 0.03 0.04 0.03 0.03 0.03 0.03 0.03 0.02 0.02 0.01 0.00 0.00 0.00 0.00 0.00 0.00 0.00 0.00 0.00 0.00 0.00 0.00 0.00 0.00 0.00 0.00 0.00 0.00 0.00 0.00 0.00 0.00 0.00 0.00 0.00 0.00 0.00 0.00 0.00
0.00 0.00 0.00 0.00 0.01 0.01 0.00 0.00 0.01 0.03 0.03 0.03 0.02 0.02 0.02 0.02 0.02 0.02 0.02 0.02 0.01 0.01 0.00 0.00 0.00 0.00 0.00 0.00 0.00 0.00 0.00 0.00 0.00 0.00 0.00 0.00 0.00 0.00 0.00 0.00 0.00 0.00 0.00 0.00 0.00 0.00 0.00 0.00 0.00 0.00 0.00 0.00 0.00 0.00
0.01 0.00 0.00 0.01 0.01 0.01 0.01 0.00 0.00 0.00 0.01 0.01 0.02 0.02 0.02 0.02 0.02 0.02 0.02 0.01 0.01 0.00 0.00 0.00 0.00 0.00 0.00 0.00 0.00 0.00 0.00 0.00 0.00 0.00 0.00 0.00 0.00 0.00 0.00 0.00 0.00 0.00 0.00 0.00 0.00 0.00 0.00 0.00 0.00 0.00 0.00 0.00 0.00 0.00

GFSWCAN_prec_precacc12_012.txt.gz
Total_Precipitation_Accumulation
0.21 0.32 0.41 0.21 0.18 0.19 0.16 0.11 0.10 0.12 0.11 0.07 0.06 0.05 0.05 0.01 0.00 0.11 0.10 0.17 0.27 0.01 0.00 0.00 0.00 0.00 0.00 0.00 0.02 0.00 0.00 0.00 0.00 0.00 0.01 0.00 0.00 0.00 0.00 0.00 0.00 0.00 0.00 0.00 0.00 0.00 0.00 0.00 0.00 0.00 0.00 0.00 0.00 0.00
0.33 0.38 0.31 0.20 0.18 0.17 0.13 0.09 0.12 0.09 0.08 0.04 0.03 0.02 0.01 0.00 0.00 0.15 0.16 0.04 0.08 0.06 0.00 0.00 0.00 0.00 0.00 0.00 0.00 0.00 0.00 0.00 0.00 0.00 0.01 0.02 0.00 0.00 0.00 0.00 0.00 0.00 0.00 0.00 0.00 0.00 0.00 0.00 0.00 0.00 0.00 0.00 0.00 0.00
0.32 0.31 0.26 0.18 0.15 0.13 0.10 0.13 0.12 0.07 0.06 0.04 0.02 0.01 0.00 0.00 0.01 0.18 0.19 0.06 0.07 0.03 0.03 0.01 0.00 0.00 0.00 0.00 0.00 0.00 0.00 0.00 0.00 0.00 0.00 0.01 0.01 0.00 0.00 0.00 0.00 0.00 0.00 0.00 0.00 0.00 0.00 0.00 0.00 0.00 0.00 0.00 0.00 0.00
0.28 0.26 0.23 0.15 0.12 0.13 0.16 0.12 0.07 0.06 0.04 0.03 0.01 0.00 0.00 0.00 0.01 0.17 0.18 0.11 0.06 0.03 0.07 0.03 0.00 0.00 0.00 0.00 0.00 0.00 0.00 0.00 0.00 0.00 0.00 0.01 0.01 0.00 0.00 0.00 0.00 0.00 0.00 0.00 0.00 0.00 0.00 0.00 0.00 0.00 0.00 0.00 0.00 0.00
0.25 0.20 0.16 0.14 0.12 0.15 0.13 0.05 0.05 0.03 0.02 0.03 0.04 0.01 0.00 0.00 0.02 0.14 0.10 0.06 0.05 0.06 0.05 0.03 0.02 0.01 0.00 0.00 0.00 0.00 0.00 0.00 0.00 0.00 0.01 0.01 0.00 0.00 0.00 0.00 0.00 0.00 0.00 0.00 0.00 0.00 0.00 0.00 0.00 0.00 0.00 0.00 0.00 0.00
0.22 0.18 0.13 0.08 0.09 0.08 0.03 0.02 0.03 0.03 0.03 0.04 0.05 0.04 0.02 0.01 0.03 0.11 0.16 0.05 0.04 0.03 0.07 0.04 0.02 0.01 0.00 0.00 0.00 0.00 0.00 0.00 0.00 0.00 0.00 0.00 0.00 0.00 0.00 0.00 0.00 0.00 0.00 0.00 0.00 0.00 0.00 0.00 0.00 0.00 0.00 0.00 0.00 0.00
0.16 0.12 0.07 0.06 0.03 0.03 0.04 0.04 0.07 0.08 0.06 0.06 0.06 0.09 0.10 0.05 0.05 0.13 0.10 0.04 0.03 0.02 0.10 0.08 0.04 0.01 0.01 0.00 0.00 0.00 0.00 0.00 0.00 0.00 0.00 0.00 0.00 0.00 0.00 0.00 0.00 0.00 0.00 0.00 0.00 0.00 0.00 0.00 0.00 0.00 0.00 0.00 0.00 0.00
0.06 0.08 0.07 0.05 0.05 0.06 0.05 0.06 0.06 0.06 0.03 0.03 0.04 0.06 0.12 0.08 0.07 0.09 0.04 0.01 0.01 0.01 0.10 0.11 0.03 0.01 0.01 0.01 0.01 0.00 0.00 0.01 0.00 0.00 0.00 0.00 0.00 0.00 0.00 0.00 0.00 0.00 0.00 0.00 0.00 0.00 0.00 0.00 0.00 0.00 0.00 0.00 0.00 0.00
0.02 0.01 0.01 0.02 0.06 0.06 0.04 0.05 0.04 0.03 0.02 0.00 0.01 0.02 0.06 0.08 0.12 0.05 0.03 0.01 0.02 0.05 0.10 0.05 0.02 0.02 0.01 0.01 0.01 0.00 0.00 0.01 0.00 0.00 0.00 0.00 0.00 0.00 0.00 0.00 0.00 0.00 0.00 0.00 0.00 0.00 0.00 0.00 0.00 0.00 0.00 0.00 0.00 0.01
0.01 0.00 0.00 0.00 0.04 0.06 0.05 0.03 0.01 0.01 0.01 0.00 0.01 0.07 0.13 0.05 0.03 0.01 0.03 0.02 0.10 0.06 0.03 0.01 0.02 0.02 0.02 0.03 0.02 0.02 0.00 0.00 0.00 0.00 0.00 0.00 0.00 0.00 0.00 0.00 0.00 0.00 0.00 0.00 0.00 0.00 0.00 0.00 0.00 0.00 0.00 0.01 0.02 0.05
0.02 0.02 0.01 0.00 0.01 0.07 0.03 0.01 0.01 0.01 0.01 0.01 0.03 0.06 0.04 0.01 0.01 0.01 0.05 0.02 0.11 0.10 0.01 0.00 0.00 0.01 0.01 0.03 0.04 0.02 0.01 0.00 0.00 0.00 0.00 0.00 0.00 0.00 0.00 0.00 0.00 0.00 0.00 0.00 0.00 0.00 0.00 0.00 0.00 0.01 0.03 0.04 0.03 0.01
0.10 0.04 0.02 0.00 0.00 0.05 0.05 0.01 0.01 0.01 0.01 0.02 0.01 0.02 0.02 0.01 0.02 0.02 0.04 0.01 0.02 0.01 0.00 0.00 0.00 0.00 0.00 0.01 0.01 0.02 0.00 0.00 0.00 0.00 0.01 0.01 0.00 0.00 0.00 0.00 0.00 0.00 0.00 0.00 0.00 0.00 0.00 0.00 0.01 0.01 0.01 0.00 0.00 0.00
0.11 0.10 0.06 0.02 0.01 0.01 0.03 0.01 0.00 0.00 0.00 0.00 0.01 0.03 0.04 0.03 0.01 0.00 0.00 0.01 0.00 0.00 0.00 0.00 0.00 0.00 0.00 0.00 0.00 0.01 0.00 0.00 0.00 0.01 0.01 0.01 0.01 0.03 0.01 0.00 0.00 0.00 0.00 0.00 0.00 0.00 0.00 0.00 0.00 0.00 0.00 0.00 0.00 0.00
0.01 0.04 0.08 0.08 0.06 0.02 0.01 0.01 0.00 0.00 0.00 0.00 0.02 0.02 0.02 0.01 0.00 0.00 0.00 0.00 0.00 0.00 0.00 0.00 0.00 0.00 0.00 0.01 0.02 0.03 0.07 0.07 0.07 0.03 0.01 0.03 0.06 0.03 0.01 0.00 0.00 0.00 0.00 0.00 0.00 0.00 0.00 0.00 0.00 0.00 0.00 0.00 0.00 0.00
0.00 0.00 0.00 0.03 0.06 0.04 0.03 0.01 0.00 0.00 0.01 0.08 0.05 0.07 0.02 0.00 0.00 0.00 0.00 0.00 0.00 0.00 0.00 0.00 0.01 0.02 0.03 0.07 0.06 0.07 0.06 0.05 0.03 0.01 0.02 0.05 0.05 0.02 0.01 0.00 0.00 0.00 0.00 0.00 0.00 0.00 0.00 0.00 0.00 0.00 0.00 0.00 0.00 0.00
0.00 0.00 0.00 0.00 0.00 0.00 0.02 0.02 0.02 0.06 0.15 0.19 0.16 0.10 0.04 0.01 0.02 0.02 0.01 0.01 0.01 0.01 0.01 0.03 0.04 0.07 0.08 0.08 0.07 0.05 0.05 0.03 0.02 0.02 0.04 0.05 0.04 0.04 0.02 0.00 0.00 0.00 0.00 0.00 0.00 0.00 0.00 0.00 0.00 0.00 0.00 0.00 0.00 0.00
0.00 0.00 0.00 0.00 0.00 0.00 0.00 0.00 0.01 0.05 0.12 0.10 0.16 0.19 0.12 0.10 0.13 0.12 0.09 0.07 0.06 0.06 0.10 0.09 0.08 0.08 0.11 0.10 0.07 0.06 0.07 0.06 0.07 0.07 0.06 0.04 0.04 0.02 0.00 0.00 0.00 0.00 0.00 0.00 0.00 0.00 0.00 0.00 0.00 0.00 0.00 0.00 0.00 0.00
0.00 0.00 0.00 0.00 0.00 0.00 0.00 0.00 0.00 0.00 0.02 0.05 0.06 0.10 0.07 0.08 0.08 0.06 0.05 0.04 0.04 0.05 0.07 0.08 0.07 0.11 0.15 0.14 0.12 0.09 0.09 0.07 0.05 0.03 0.02 0.02 0.01 0.00 0.00 0.00 0.00 0.00 0.00 0.00 0.00 0.00 0.00 0.00 0.00 0.00 0.00 0.00 0.00 0.00
0.00 0.00 0.00 0.00 0.00 0.00 0.00 0.00 0.00 0.02 0.04 0.04 0.06 0.04 0.02 0.02 0.00 0.00 0.00 0.00 0.00 0.00 0.01 0.02 0.03 0.05 0.06 0.04 0.03 0.02 0.01 0.00 0.00 0.00 0.00 0.00 0.00 0.00 0.00 0.00 0.00 0.00 0.00 0.00 0.00 0.00 0.00 0.00 0.00 0.00 0.00 0.00 0.00 0.00
0.00 0.00 0.00 0.00 0.00 0.00 0.00 0.00 0.00 0.00 0.02 0.03 0.02 0.01 0.00 0.00 0.00 0.01 0.00 0.00 0.00 0.00 0.00 0.01 0.02 0.01 0.01 0.01 0.01 0.01 0.01 0.01 0.00 0.00 0.00 0.00 0.00 0.00 0.00 0.00 0.00 0.00 0.00 0.00 0.00 0.00 0.00 0.00 0.00 0.00 0.00 0.00 0.00 0.00
0.00 0.00 0.00 0.00 0.00 0.00 0.00 0.00 0.00 0.00 0.00 0.00 0.00 0.00 0.00 0.00 0.00 0.00 0.00 0.00 0.00 0.01 0.02 0.03 0.03 0.02 0.01 0.00 0.01 0.01 0.02 0.03 0.04 0.01 0.00 0.00 0.01 0.01 0.01 0.02 0.01 0.01 0.00 0.00 0.00 0.00 0.00 0.00 0.00 0.00 0.00 0.00 0.00 0.00
0.00 0.00 0.00 0.00 0.00 0.00 0.00 0.00 0.00 0.00 0.00 0.00 0.00 0.00 0.00 0.01 0.01 0.00 0.00 0.01 0.02 0.04 0.04 0.04 0.03 0.03 0.02 0.02 0.01 0.01 0.02 0.02 0.04 0.06 0.05 0.04 0.06 0.05 0.05 0.05 0.03 0.02 0.01 0.00 0.00 0.00 0.00 0.00 0.00 0.00 0.00 0.00 0.00 0.00
0.00 0.00 0.00 0.00 0.00 0.00 0.00 0.00 0.00 0.00 0.00 0.00 0.00 0.01 0.01 0.01 0.00 0.00 0.02 0.03 0.04 0.05 0.05 0.03 0.03 0.07 0.10 0.13 0.12 0.13 0.16 0.15 0.17 0.19 0.19 0.16 0.15 0.14 0.10 0.06 0.03 0.01 0.00 0.00 0.00 0.00 0.00 0.00 0.00 0.00 0.00 0.00 0.00 0.00
0.00 0.00 0.00 0.00 0.00 0.00 0.00 0.00 0.00 0.00 0.00 0.00 0.00 0.01 0.00 0.00 0.00 0.01 0.02 0.02 0.03 0.02 0.04 0.05 0.06 0.08 0.12 0.15 0.18 0.23 0.27 0.24 0.20 0.18 0.16 0.12 0.10 0.07 0.03 0.01 0.00 0.00 0.00 0.00 0.00 0.00 0.00 0.00 0.00 0.00 0.00 0.00 0.00 0.00
0.00 0.00 0.00 0.00 0.00 0.00 0.00 0.00 0.00 0.00 0.00 0.00 0.01 0.01 0.00 0.01 0.01 0.02 0.02 0.04 0.04 0.06 0.12 0.16 0.15 0.16 0.17 0.20 0.20 0.18 0.15 0.10 0.08 0.06 0.05 0.03 0.01 0.00 0.00 0.00 0.00 0.00 0.00 0.00 0.00 0.00 0.00 0.00 0.00 0.00 0.00 0.00 0.00 0.00
0.00 0.01 0.00 0.00 0.00 0.00 0.00 0.01 0.00 0.00 0.01 0.01 0.01 0.01 0.01 0.02 0.03 0.03 0.03 0.05 0.07 0.09 0.13 0.18 0.21 0.18 0.16 0.13 0.09 0.07 0.05 0.02 0.01 0.00 0.00 0.00 0.00 0.00 0.00 0.00 0.00 0.00 0.00 0.00 0.00 0.00 0.00 0.00 0.00 0.00 0.00 0.00 0.01 0.01
0.00 0.01 0.01 0.00 0.00 0.00 0.01 0.01 0.01 0.02 0.02 0.03 0.03 0.02 0.04 0.07 0.04 0.04 0.05 0.06 0.10 0.13 0.15 0.15 0.12 0.09 0.07 0.05 0.04 0.03 0.01 0.00 0.00 0.00 0.00 0.00 0.00 0.00 0.00 0.00 0.00 0.00 0.00 0.00 0.00 0.00 0.00 0.00 0.00 0.00 0.01 0.01 0.01 0.01
0.01 0.01 0.01 0.00 0.01 0.01 0.02 0.02 0.03 0.04 0.05 0.04 0.03 0.03 0.03 0.04 0.06 0.05 0.06 0.08 0.08 0.09 0.07 0.07 0.05 0.03 0.02 0.03 0.03 0.02 0.00 0.00 0.00 0.00 0.00 0.00 0.00 0.00 0.00 0.00 0.00 0.00 0.00 0.00 0.00 0.00 0.01 0.01 0.01 0.01 0.01 0.01 0.01 0.01
0.01 0.01 0.01 0.00 0.01 0.02 0.03 0.03 0.03 0.03 0.03 0.02 0.04 0.03 0.02 0.02 0.04 0.04 0.04 0.06 0.06 0.06 0.04 0.04 0.04 0.03 0.02 0.01 0.00 0.00 0.00 0.00 0.00 0.00 0.00 0.00 0.00 0.01 0.00 0.00 0.00 0.00 0.00 0.00 0.00 0.00 0.00 0.01 0.01 0.01 0.00 0.00 0.01 0.01
0.01 0.01 0.01 0.00 0.00 0.02 0.03 0.02 0.04 0.03 0.01 0.01 0.02 0.02 0.02 0.03 0.05 0.06 0.06 0.06 0.06 0.06 0.06 0.05 0.05 0.04 0.02 0.01 0.00 0.00 0.00 0.00 0.00 0.00 0.00 0.00 0.00 0.00 0.00 0.00 0.01 0.00 0.01 0.00 0.00 0.00 0.00 0.00 0.00 0.00 0.01 0.01 0.01 0.00
0.00 0.01 0.01 0.01 0.01 0.01 0.01 0.01 0.02 0.05 0.04 0.03 0.03 0.04 0.04 0.04 0.05 0.04 0.04 0.05 0.04 0.04 0.04 0.03 0.01 0.01 0.00 0.00 0.00 0.00 0.00 0.00 0.00 0.00 0.00 0.00 0.00 0.00 0.01 0.01 0.01 0.01 0.01 0.00 0.00 0.00 0.00 0.00 0.00 0.00 0.00 0.00 0.00 0.00
0.00 0.01 0.01 0.00 0.02 0.01 0.00 0.01 0.01 0.04 0.04 0.04 0.03 0.03 0.03 0.04 0.03 0.03 0.02 0.03 0.03 0.01 0.01 0.01 0.00 0.00 0.00 0.00 0.00 0.00 0.00 0.00 0.00 0.00 0.00 0.00 0.00 0.01 0.01 0.01 0.01 0.01 0.01 0.00 0.00 0.00 0.00 0.00 0.00 0.00 0.00 0.00 0.00 0.00
0.01 0.00 0.00 0.01 0.01 0.01 0.01 0.00 0.00 0.01 0.02 0.02 0.03 0.03 0.03 0.03 0.03 0.04 0.03 0.02 0.01 0.01 0.00 0.00 0.00 0.00 0.00 0.00 0.00 0.00 0.00 0.00 0.00 0.00 0.00 0.00 0.00 0.00 0.00 0.01 0.01 0.00 0.00 0.00 0.00 0.00 0.00 0.00 0.00 0.00 0.00 0.00 0.00 0.00

GFSWCAN_prec_precacc12_015.txt.gz
Total_Precipitation_Accumulation
0.14 0.25 0.39 0.21 0.18 0.19 0.17 0.14 0.17 0.17 0.15 0.10 0.08 0.07 0.08 0.05 0.05 0.15 0.13 0.25 0.55 0.16 0.02 0.00 0.00 0.00 0.00 0.00 0.02 0.02 0.04 0.01 0.00 0.00 0.01 0.00 0.00 0.00 0.00 0.00 0.00 0.00 0.00 0.00 0.00 0.00 0.00 0.00 0.00 0.00 0.00 0.00 0.00 0.00
0.32 0.38 0.31 0.20 0.19 0.18 0.14 0.10 0.13 0.10 0.11 0.06 0.03 0.02 0.02 0.02 0.03 0.16 0.18 0.16 0.33 0.36 0.13 0.00 0.00 0.00 0.00 0.00 0.00 0.00 0.00 0.00 0.00 0.00 0.01 0.02 0.00 0.00 0.00 0.00 0.00 0.00 0.00 0.00 0.00 0.00 0.00 0.00 0.00 0.00 0.00 0.00 0.00 0.00
0.32 0.31 0.26 0.18 0.15 0.13 0.11 0.14 0.12 0.08 0.08 0.04 0.02 0.01 0.01 0.01 0.02 0.19 0.24 0.15 0.74 0.50 0.40 0.05 0.00 0.00 0.00 0.00 0.00 0.00 0.00 0.00 0.00 0.00 0.00 0.01 0.01 0.00 0.00 0.00 0.00 0.00 0.00 0.00 0.00 0.00 0.00 0.00 0.00 0.00 0.00 0.00 0.00 0.00
0.28 0.26 0.23 0.15 0.12 0.13 0.16 0.12 0.06 0.07 0.04 0.03 0.01 0.01 0.01 0.01 0.02 0.26 0.26 0.44 1.42 0.50 0.36 0.09 0.00 0.00 0.00 0.00 0.00 0.00 0.00 0.00 0.00 0.00 0.00 0.01 0.01 0.00 0.00 0.00 0.00 0.00 0.00 0.00 0.00 0.00 0.00 0.00 0.00 0.00 0.00 0.00 0.00 0.00
0.25 0.21 0.16 0.14 0.13 0.15 0.13 0.05 0.06 0.05 0.03 0.03 0.03 0.01 0.01 0.01 0.06 0.24 0.27 0.80 1.04 0.61 0.26 0.07 0.01 0.01 0.00 0.00 0.00 0.00 0.01 0.00 0.00 0.00 0.01 0.01 0.00 0.00 0.00 0.00 0.00 0.00 0.00 0.00 0.00 0.00 0.00 0.00 0.00 0.00 0.00 0.00 0.00 0.00
0.24 0.20 0.15 0.11 0.11 0.09 0.05 0.06 0.06 0.05 0.04 0.05 0.06 0.04 0.03 0.03 0.16 0.34 0.61 0.58 0.36 0.26 0.17 0.07 0.03 0.01 0.00 0.00 0.00 0.00 0.00 0.01 0.00 0.00 0.00 0.00 0.00 0.00 0.00 0.00 0.00 0.00 0.00 0.00 0.00 0.00 0.00 0.00 0.00 0.00 0.00 0.00 0.00 0.00
0.33 0.25 0.16 0.09 0.06 0.06 0.06 0.08 0.11 0.11 0.09 0.08 0.07 0.10 0.11 0.10 0.25 0.40 0.28 0.25 0.21 0.09 0.12 0.10 0.05 0.02 0.01 0.01 0.00 0.00 0.00 0.01 0.01 0.00 0.00 0.00 0.00 0.00 0.00 0.00 0.00 0.00 0.00 0.00 0.00 0.00 0.00 0.00 0.00 0.00 0.00 0.00 0.00 0.00
0.27 0.21 0.14 0.09 0.08 0.09 0.09 0.10 0.11 0.10 0.06 0.07 0.06 0.08 0.16 0.21 0.40 0.39 0.07 0.08 0.10 0.04 0.10 0.14 0.04 0.02 0.01 0.03 0.02 0.00 0.01 0.03 0.02 0.00 0.00 0.00 0.00 0.00 0.00 0.00 0.00 0.00 0.00 0.00 0.00 0.00 0.00 0.00 0.00 0.00 0.00 0.00 0.00 0.00
0.11 0.08 0.07 0.06 0.08 0.09 0.07 0.09 0.08 0.06 0.06 0.03 0.03 0.06 0.16 0.27 0.42 0.18 0.04 0.02 0.03 0.05 0.11 0.08 0.04 0.03 0.02 0.02 0.01 0.01 0.01 0.02 0.00 0.00 0.00 0.00 0.00 0.00 0.00 0.00 0.00 0.00 0.00 0.00 0.00 0.00 0.00 0.00 0.00 0.00 0.00 0.00 0.00 0.00
0.04 0.03 0.05 0.06 0.08 0.09 0.10 0.06 0.03 0.04 0.04 0.03 0.04 0.12 0.20 0.09 0.06 0.02 0.03 0.02 0.10 0.06 0.04 0.04 0.06 0.04 0.03 0.03 0.02 0.02 0.01 0.00 0.00 0.00 0.00 0.00 0.00 0.00 0.00 0.00 0.00 0.00 0.00 0.00 0.00 0.00 0.00 0.00 0.00 0.00 0.00 0.00 0.00 0.01
0.03 0.04 0.04 0.04 0.06 0.08 0.08 0.05 0.03 0.02 0.03 0.07 0.07 0.11 0.06 0.03 0.03 0.02 0.05 0.02 0.11 0.10 0.01 0.01 0.02 0.04 0.02 0.05 0.05 0.03 0.01 0.01 0.00 0.00 0.00 0.00 0.00 0.00 0.00 0.00 0.00 0.00 0.00 0.00 0.00 0.00 0.00 0.00 0.00 0.00 0.00 0.01 0.00 0.00
0.05 0.03 0.03 0.02 0.03 0.06 0.07 0.03 0.03 0.04 0.07 0.05 0.02 0.03 0.03 0.04 0.04 0.02 0.04 0.01 0.03 0.04 0.01 0.00 0.00 0.01 0.00 0.02 0.04 0.05 0.03 0.01 0.00 0.00 0.00 0.00 0.00 0.00 0.00 0.00 0.00 0.00 0.00 0.00 0.00 0.00 0.00 0.00 0.00 0.00 0.00 0.00 0.00 0.00
0.05 0.03 0.02 0.01 0.02 0.03 0.06 0.05 0.06 0.04 0.01 0.00 0.01 0.03 0.05 0.07 0.05 0.01 0.00 0.01 0.00 0.00 0.01 0.01 0.01 0.03 0.01 0.00 0.02 0.05 0.09 0.05 0.01 0.01 0.00 0.00 0.00 0.01 0.00 0.00 0.00 0.00 0.00 0.00 0.00 0.00 0.00 0.00 0.00 0.00 0.00 0.00 0.00 0.00
0.01 0.02 0.05 0.06 0.08 0.04 0.02 0.02 0.00 0.00 0.00 0.01 0.02 0.02 0.03 0.03 0.00 0.00 0.00 0.00 0.00 0.00 0.00 0.00 0.00 0.01 0.01 0.00 0.01 0.01 0.02 0.03 0.04 0.02 0.01 0.01 0.02 0.01 0.01 0.00 0.00 0.00 0.00 0.00 0.00 0.00 0.00 0.00 0.00 0.00 0.00 0.00 0.00 0.00
0.00 0.00 0.00 0.03 0.07 0.04 0.04 0.01 0.00 0.00 0.02 0.09 0.06 0.07 0.02 0.01 0.00 0.00 0.00 0.00 0.01 0.00 0.00 0.00 0.00 0.00 0.00 0.01 0.01 0.04 0.03 0.03 0.02 0.01 0.01 0.01 0.02 0.01 0.01 0.00 0.00 0.00 0.00 0.00 0.00 0.00 0.00 0.00 0.00 0.00 0.00 0.00 0.00 0.00
0.00 0.00 0.00 0.00 0.00 0.00 0.02 0.02 0.02 0.06 0.18 0.23 0.19 0.11 0.06 0.02 0.02 0.02 0.01 0.00 0.01 0.01 0.01 0.01 0.01 0.04 0.05 0.04 0.05 0.04 0.05 0.03 0.02 0.01 0.01 0.02 0.04 0.04 0.02 0.01 0.01 0.01 0.00 0.00 0.00 0.00 0.00 0.00 0.00 0.00 0.00 0.00 0.00 0.00
0.00 0.00 0.00 0.00 0.00 0.00 0.00 0.00 0.04 0.16 0.25 0.17 0.26 0.31 0.21 0.15 0.16 0.15 0.11 0.07 0.05 0.06 0.10 0.09 0.08 0.08 0.11 0.10 0.08 0.06 0.08 0.07 0.07 0.07 0.06 0.05 0.06 0.04 0.02 0.01 0.00 0.00 0.00 0.00 0.00 0.00 0.00 0.00 0.00 0.00 0.00 0.00 0.00 0.00
0.00 0.00 0.00 0.00 0.00 0.00 0.00 0.00 0.01 0.01 0.05 0.11 0.12 0.22 0.19 0.22 0.20 0.16 0.13 0.11 0.09 0.09 0.11 0.13 0.12 0.16 0.19 0.17 0.16 0.14 0.12 0.11 0.07 0.06 0.06 0.07 0.02 0.01 0.00 0.00 0.00 0.00 0.00 0.00 0.00 0.00 0.00 0.00 0.00 0.00 0.00 0.00 0.00 0.00
0.00 0.00 0.00 0.00 0.00 0.00 0.00 0.00 0.00 0.03 0.09 0.09 0.11 0.08 0.04 0.04 0.02 0.04 0.03 0.02 0.01 0.01 0.03 0.04 0.07 0.11 0.14 0.12 0.11 0.09 0.05 0.01 0.01 0.01 0.02 0.01 0.00 0.00 0.00 0.01 0.01 0.01 0.00 0.00 0.00 0.00 0.00 0.00 0.00 0.00 0.00 0.00 0.00 0.00
0.00 0.00 0.00 0.00 0.00 0.00 0.00 0.00 0.00 0.01 0.06 0.07 0.06 0.02 0.01 0.01 0.00 0.00 0.00 0.00 0.00 0.00 0.00 0.02 0.06 0.08 0.05 0.05 0.04 0.03 0.03 0.02 0.01 0.01 0.01 0.02 0.02 0.03 0.04 0.02 0.01 0.01 0.00 0.00 0.00 0.00 0.00 0.00 0.00 0.00 0.00 0.00 0.00 0.00
0.00 0.00 0.00 0.00 0.00 0.00 0.00 0.00 0.00 0.00 0.01 0.01 0.00 0.00 0.00 0.00 0.00 0.00 0.00 0.00 0.00 0.02 0.05 0.08 0.07 0.05 0.03 0.03 0.05 0.06 0.07 0.08 0.10 0.04 0.02 0.02 0.02 0.03 0.05 0.06 0.05 0.04 0.04 0.04 0.03 0.01 0.00 0.00 0.00 0.00 0.00 0.00 0.00 0.00
0.00 0.00 0.00 0.00 0.00 0.00 0.00 0.00 0.00 0.00 0.00 0.00 0.00 0.00 0.01 0.01 0.01 0.00 0.00 0.01 0.04 0.08 0.07 0.06 0.05 0.03 0.02 0.02 0.02 0.03 0.06 0.08 0.11 0.15 0.12 0.09 0.09 0.08 0.09 0.09 0.07 0.08 0.07 0.05 0.03 0.01 0.00 0.00 0.00 0.00 0.00 0.00 0.00 0.00
0.00 0.00 0.00 0.00 0.00 0.00 0.00 0.00 0.00 0.00 0.00 0.00 0.01 0.01 0.01 0.01 0.00 0.01 0.02 0.03 0.07 0.10 0.08 0.04 0.02 0.03 0.05 0.08 0.09 0.11 0.13 0.13 0.18 0.24 0.24 0.22 0.20 0.19 0.15 0.12 0.10 0.07 0.03 0.01 0.00 0.00 0.00 0.00 0.00 0.00 0.00 0.00 0.00 0.00
0.00 0.00 0.00 0.00 0.00 0.00 0.00 0.00 0.00 0.00 0.00 0.00 0.00 0.01 0.01 0.00 0.00 0.01 0.02 0.04 0.06 0.03 0.04 0.05 0.07 0.07 0.07 0.10 0.15 0.20 0.24 0.22 0.20 0.19 0.18 0.14 0.12 0.09 0.06 0.04 0.01 0.01 0.00 0.00 0.00 0.00 0.00 0.00 0.00 0.00 0.00 0.00 0.00 0.00
0.00 0.00 0.00 0.00 0.00 0.00 0.00 0.00 0.01 0.00 0.00 0.00 0.01 0.01 0.00 0.01 0.02 0.02 0.03 0.06 0.03 0.03 0.06 0.08 0.07 0.09 0.13 0.16 0.18 0.17 0.15 0.10 0.08 0.07 0.06 0.04 0.03 0.01 0.00 0.00 0.00 0.00 0.00 0.00 0.00 0.00 0.00 0.00 0.00 0.00 0.00 0.00 0.00 0.00
0.00 0.01 0.00 0.00 0.00 0.00 0.00 0.01 0.01 0.01 0.01 0.01 0.01 0.01 0.00 0.01 0.02 0.03 0.03 0.06 0.05 0.05 0.07 0.10 0.13 0.11 0.11 0.10 0.08 0.07 0.05 0.02 0.01 0.00 0.00 0.00 0.00 0.00 0.00 0.00 0.00 0.00 0.00 0.00 0.00 0.00 0.00 0.00 0.00 0.00 0.00 0.00 0.01 0.01
0.01 0.01 0.00 0.00 0.00 0.00 0.01 0.01 0.01 0.01 0.02 0.02 0.02 0.01 0.02 0.04 0.03 0.04 0.04 0.03 0.05 0.07 0.07 0.07 0.06 0.05 0.05 0.05 0.04 0.03 0.01 0.00 0.00 0.00 0.00 0.00 0.00 0.00 0.00 0.00 0.00 0.00 0.00 0.00 0.00 0.00 0.00 0.00 0.00 0.00 0.00 0.01 0.01 0.01
0.01 0.01 0.01 0.00 0.00 0.00 0.01 0.02 0.02 0.03 0.03 0.01 0.03 0.02 0.02 0.03 0.05 0.05 0.06 0.06 0.05 0.04 0.04 0.03 0.03 0.02 0.03 0.03 0.04 0.02 0.01 0.00 0.00 0.00 0.00 0.00 0.00 0.00 0.00 0.00 0.00 0.00 0.00 0.00 0.00 0.00 0.01 0.01 0.01 0.01 0.01 0.01 0.00 0.01
0.01 0.01 0.00 0.00 0.00 0.01 0.02 0.03 0.03 0.03 0.02 0.01 0.04 0.04 0.02 0.03 0.06 0.07 0.06 0.07 0.07 0.08 0.05 0.04 0.05 0.04 0.02 0.01 0.00 0.00 0.00 0.00 0.00 0.00 0.00 0.01 0.01 0.01 0.00 0.00 0.00 0.00 0.00 0.00 0.00 0.00 0.00 0.01 0.02 0.01 0.00 0.01 0.01 0.02
0.00 0.00 0.00 0.00 0.00 0.02 0.03 0.03 0.05 0.03 0.01 0.01 0.02 0.02 0.02 0.04 0.07 0.06 0.06 0.06 0.06 0.07 0.05 0.05 0.05 0.04 0.04 0.02 0.01 0.00 0.00 0.00 0.00 0.00 0.00 0.00 0.00 0.00 0.01 0.01 0.01 0.00 0.01 0.00 0.00 0.00 0.00 0.00 0.00 0.00 0.01 0.01 0.01 0.01
0.00 0.00 0.01 0.01 0.01 0.01 0.02 0.01 0.03 0.04 0.03 0.02 0.03 0.04 0.04 0.05 0.05 0.03 0.03 0.06 0.04 0.05 0.05 0.03 0.01 0.01 0.00 0.00 0.00 0.00 0.01 0.00 0.00 0.00 0.00 0.00 0.00 0.00 0.01 0.01 0.01 0.01 0.01 0.01 0.01 0.00 0.00 0.00 0.01 0.01 0.00 0.01 0.00 0.00
0.00 0.01 0.01 0.00 0.02 0.01 0.00 0.01 0.02 0.06 0.06 0.04 0.04 0.03 0.04 0.05 0.03 0.03 0.02 0.04 0.03 0.02 0.01 0.01 0.01 0.00 0.00 0.00 0.00 0.00 0.00 0.00 0.00 0.00 0.00 0.00 0.00 0.01 0.00 0.00 0.01 0.01 0.01 0.01 0.00 0.00 0.01 0.01 0.01 0.01 0.01 0.00 0.00 0.00
0.01 0.00 0.00 0.00 0.01 0.01 0.01 0.00 0.01 0.02 0.02 0.02 0.02 0.03 0.03 0.03 0.03 0.04 0.03 0.02 0.01 0.01 0.01 0.01 0.01 0.01 0.00 0.00 0.00 0.00 0.00 0.00 0.00 0.00 0.01 0.01 0.00 0.00 0.00 0.00 0.01 0.00 0.00 0.00 0.00 0.00 0.00 0.01 0.01 0.01 0.00 0.00 0.00 0.00

GFSWCAN_prec_precacc12_021.txt.gz
Total_Precipitation_Accumulation
0.17 0.16 0.14 0.12 0.09 0.05 0.04 0.06 0.14 0.11 0.13 0.11 0.10 0.09 0.10 0.09 0.10 0.20 0.32 0.45 0.79 0.44 0.09 0.10 0.02 0.00 0.01 0.00 0.03 0.03 0.14 0.11 0.09 0.08 0.02 0.00 0.00 0.00 0.00 0.00 0.00 0.00 0.00 0.00 0.00 0.00 0.00 0.00 0.00 0.00 0.00 0.00 0.00 0.00
0.06 0.06 0.05 0.03 0.02 0.01 0.02 0.05 0.14 0.13 0.18 0.10 0.08 0.05 0.06 0.07 0.07 0.19 0.34 0.30 0.53 0.65 0.23 0.11 0.02 0.00 0.00 0.00 0.01 0.01 0.06 0.03 0.04 0.03 0.01 0.01 0.00 0.00 0.00 0.00 0.00 0.00 0.00 0.00 0.00 0.00 0.00 0.00 0.00 0.00 0.00 0.00 0.00 0.00
0.05 0.04 0.03 0.02 0.02 0.04 0.04 0.12 0.16 0.12 0.13 0.08 0.06 0.04 0.05 0.05 0.04 0.17 0.35 0.31 0.94 0.63 0.50 0.14 0.06 0.01 0.00 0.00 0.01 0.03 0.01 0.03 0.05 0.04 0.03 0.02 0.01 0.00 0.00 0.00 0.00 0.00 0.00 0.00 0.00 0.00 0.00 0.00 0.00 0.00 0.00 0.00 0.00 0.00
0.13 0.13 0.10 0.07 0.08 0.09 0.13 0.13 0.10 0.10 0.08 0.06 0.04 0.04 0.05 0.05 0.04 0.27 0.39 0.62 1.60 0.68 0.88 0.41 0.08 0.05 0.01 0.00 0.00 0.02 0.02 0.01 0.03 0.07 0.02 0.00 0.01 0.00 0.00 0.00 0.00 0.00 0.00 0.00 0.00 0.00 0.00 0.00 0.00 0.00 0.00 0.00 0.00 0.00
0.20 0.19 0.16 0.14 0.13 0.15 0.13 0.07 0.08 0.09 0.06 0.06 0.05 0.05 0.07 0.06 0.12 0.39 0.46 0.91 1.17 0.76 0.67 0.76 0.10 0.09 0.08 0.03 0.00 0.05 0.05 0.02 0.03 0.05 0.02 0.01 0.00 0.00 0.00 0.00 0.00 0.00 0.00 0.00 0.00 0.00 0.00 0.00 0.00 0.00 0.00 0.00 0.00 0.00
0.24 0.20 0.15 0.11 0.11 0.08 0.05 0.06 0.06 0.09 0.07 0.07 0.07 0.10 0.10 0.10 0.27 0.62 0.93 0.78 0.72 0.51 0.56 0.82 0.34 0.11 0.13 0.07 0.04 0.04 0.11 0.11 0.05 0.03 0.01 0.00 0.00 0.00 0.00 0.00 0.00 0.00 0.00 0.00 0.00 0.00 0.00 0.00 0.00 0.00 0.00 0.00 0.00 0.00
0.33 0.25 0.16 0.08 0.05 0.05 0.04 0.06 0.07 0.09 0.11 0.14 0.11 0.12 0.11 0.13 0.36 0.81 0.84 0.74 0.59 0.39 0.34 0.56 0.62 0.25 0.16 0.09 0.12 0.32 0.12 0.11 0.13 0.06 0.01 0.00 0.00 0.00 0.00 0.00 0.00 0.00 0.00 0.00 0.00 0.00 0.00 0.00 0.00 0.00 0.00 0.00 0.00 0.00
0.28 0.21 0.14 0.09 0.07 0.08 0.07 0.08 0.09 0.10 0.10 0.12 0.13 0.09 0.12 0.22 0.58 0.89 0.70 0.86 0.59 0.31 0.23 0.29 0.51 0.38 0.15 0.12 0.10 0.30 0.33 0.16 0.13 0.07 0.06 0.02 0.01 0.00 0.00 0.00 0.00 0.00 0.00 0.00 0.00 0.00 0.00 0.00 0.00 0.00 0.00 0.00 0.00 0.00
0.16 0.10 0.08 0.08 0.10 0.10 0.08 0.10 0.10 0.09 0.08 0.08 0.08 0.16 0.37 0.59 0.92 0.86 0.76 0.95 0.62 0.39 0.29 0.13 0.15 0.36 0.19 0.14 0.08 0.12 0.27 0.17 0.07 0.07 0.03 0.05 0.05 0.00 0.00 0.00 0.00 0.00 0.00 0.00 0.00 0.00 0.00 0.00 0.00 0.00 0.00 0.00 0.00 0.00
0.11 0.08 0.07 0.08 0.10 0.12 0.12 0.10 0.09 0.09 0.09 0.14 0.31 0.46 0.61 0.75 0.83 0.70 0.78 0.69 0.55 0.32 0.25 0.12 0.08 0.16 0.19 0.15 0.11 0.07 0.05 0.03 0.02 0.03 0.02 0.02 0.02 0.00 0.00 0.00 0.00 0.00 0.00 0.00 0.00 0.00 0.00 0.00 0.00 0.00 0.00 0.00 0.00 0.00
0.04 0.06 0.05 0.06 0.08 0.09 0.09 0.10 0.09 0.11 0.23 0.35 0.38 0.55 0.68 0.74 0.91 0.88 0.67 0.39 0.34 0.21 0.10 0.14 0.09 0.11 0.13 0.19 0.17 0.06 0.02 0.01 0.00 0.00 0.00 0.00 0.00 0.00 0.00 0.00 0.00 0.00 0.00 0.00 0.00 0.00 0.00 0.00 0.00 0.00 0.00 0.00 0.00 0.00
0.07 0.06 0.05 0.04 0.04 0.05 0.06 0.08 0.11 0.18 0.28 0.28 0.42 0.51 0.78 0.81 0.61 0.45 0.28 0.11 0.08 0.06 0.02 0.02 0.02 0.07 0.07 0.11 0.10 0.07 0.03 0.01 0.01 0.00 0.00 0.00 0.00 0.00 0.00 0.00 0.00 0.00 0.00 0.00 0.00 0.00 0.00 0.00 0.00 0.00 0.00 0.00 0.00 0.00
0.07 0.05 0.04 0.02 0.03 0.04 0.07 0.13 0.22 0.34 0.29 0.27 0.33 0.52 0.45 0.31 0.20 0.09 0.03 0.01 0.00 0.00 0.00 0.01 0.01 0.07 0.07 0.04 0.07 0.05 0.09 0.05 0.01 0.00 0.00 0.00 0.00 0.00 0.00 0.00 0.00 0.00 0.00 0.01 0.02 0.00 0.00 0.00 0.00 0.00 0.00 0.00 0.00 0.00
0.09 0.06 0.07 0.12 0.17 0.16 0.19 0.20 0.26 0.27 0.24 0.20 0.25 0.18 0.08 0.07 0.02 0.01 0.01 0.01 0.01 0.01 0.01 0.00 0.00 0.05 0.15 0.09 0.12 0.08 0.04 0.01 0.02 0.01 0.00 0.00 0.00 0.00 0.00 0.00 0.00 0.00 0.00 0.00 0.00 0.00 0.00 0.00 0.00 0.00 0.00 0.00 0.00 0.00
0.16 0.19 0.20 0.22 0.18 0.12 0.10 0.15 0.21 0.16 0.06 0.05 0.07 0.08 0.02 0.02 0.02 0.03 0.02 0.01 0.02 0.02 0.00 0.01 0.03 0.02 0.06 0.13 0.11 0.08 0.07 0.03 0.01 0.00 0.00 0.00 0.00 0.00 0.00 0.01 0.01 0.01 0.01 0.02 0.02 0.01 0.00 0.00 0.00 0.00 0.00 0.00 0.00 0.00
0.13 0.12 0.10 0.13 0.10 0.06 0.03 0.05 0.02 0.04 0.11 0.15 0.13 0.09 0.05 0.03 0.03 0.03 0.04 0.03 0.02 0.01 0.00 0.01 0.05 0.02 0.05 0.01 0.02 0.03 0.02 0.02 0.02 0.00 0.01 0.01 0.02 0.04 0.03 0.04 0.07 0.07 0.05 0.02 0.01 0.00 0.00 0.00 0.00 0.00 0.00 0.00 0.00 0.00
0.02 0.01 0.01 0.01 0.00 0.00 0.00 0.00 0.04 0.15 0.21 0.15 0.24 0.27 0.17 0.10 0.10 0.10 0.09 0.04 0.01 0.00 0.01 0.00 0.02 0.03 0.03 0.04 0.05 0.06 0.07 0.08 0.07 0.06 0.06 0.08 0.11 0.11 0.10 0.12 0.09 0.04 0.01 0.00 0.00 0.00 0.00 0.00 0.00 0.00 0.00 0.00 0.00 0.00
0.00 0.00 0.00 0.00 0.00 0.00 0.00 0.01 0.02 0.05 0.11 0.19 0.21 0.35 0.30 0.33 0.29 0.26 0.25 0.18 0.14 0.13 0.13 0.18 0.18 0.19 0.22 0.20 0.21 0.27 0.28 0.26 0.19 0.12 0.11 0.13 0.10 0.08 0.08 0.08 0.09 0.05 0.00 0.00 0.00 0.00 0.00 0.00 0.00 0.00 0.00 0.00 0.00 0.00
0.00 0.00 0.00 0.00 0.00 0.00 0.01 0.00 0.00 0.06 0.20 0.23 0.23 0.17 0.13 0.17 0.18 0.21 0.21 0.19 0.15 0.10 0.10 0.11 0.14 0.21 0.28 0.30 0.34 0.32 0.25 0.13 0.05 0.04 0.07 0.09 0.08 0.08 0.10 0.12 0.12 0.10 0.06 0.03 0.00 0.00 0.00 0.00 0.01 0.00 0.00 0.00 0.00 0.00
0.00 0.00 0.00 0.00 0.00 0.00 0.00 0.00 0.00 0.03 0.15 0.21 0.18 0.07 0.03 0.05 0.02 0.00 0.00 0.00 0.00 0.00 0.02 0.10 0.21 0.25 0.24 0.24 0.22 0.20 0.15 0.10 0.06 0.05 0.09 0.12 0.13 0.12 0.14 0.11 0.09 0.07 0.06 0.06 0.06 0.05 0.05 0.06 0.05 0.01 0.00 0.00 0.00 0.00
0.00 0.00 0.00 0.00 0.00 0.00 0.00 0.00 0.01 0.01 0.03 0.04 0.04 0.01 0.01 0.00 0.00 0.00 0.00 0.00 0.00 0.04 0.13 0.21 0.21 0.19 0.16 0.16 0.17 0.18 0.19 0.19 0.21 0.13 0.10 0.09 0.12 0.09 0.13 0.15 0.13 0.11 0.10 0.13 0.11 0.11 0.10 0.06 0.04 0.01 0.00 0.00 0.00 0.00
0.00 0.00 0.00 0.00 0.00 0.00 0.00 0.00 0.00 0.00 0.00 0.00 0.00 0.00 0.00 0.01 0.00 0.00 0.00 0.01 0.06 0.15 0.14 0.13 0.11 0.06 0.04 0.05 0.06 0.06 0.11 0.14 0.20 0.25 0.25 0.21 0.22 0.23 0.25 0.25 0.18 0.18 0.18 0.16 0.13 0.09 0.05 0.02 0.01 0.01 0.00 0.00 0.00 0.00
0.00 0.00 0.00 0.00 0.00 0.00 0.00 0.00 0.00 0.00 0.00 0.00 0.00 0.01 0.00 0.01 0.01 0.00 0.01 0.04 0.11 0.18 0.13 0.04 0.02 0.01 0.01 0.02 0.01 0.02 0.03 0.04 0.09 0.16 0.20 0.22 0.23 0.23 0.21 0.20 0.17 0.12 0.08 0.07 0.04 0.02 0.01 0.00 0.00 0.00 0.00 0.00 0.00 0.00
0.00 0.00 0.00 0.00 0.00 0.00 0.00 0.00 0.00 0.00 0.00 0.00 0.00 0.01 0.01 0.02 0.00 0.01 0.02 0.06 0.12 0.07 0.04 0.07 0.06 0.03 0.01 0.00 0.01 0.03 0.06 0.04 0.05 0.08 0.12 0.10 0.10 0.11 0.07 0.06 0.04 0.03 0.02 0.01 0.00 0.00 0.00 0.00 0.00 0.00 0.00 0.00 0.00 0.00
0.00 0.00 0.00 0.00 0.00 0.00 0.00 0.00 0.00 0.00 0.00 0.00 0.01 0.01 0.01 0.01 0.01 0.01 0.03 0.08 0.05 0.04 0.05 0.05 0.01 0.02 0.03 0.03 0.03 0.04 0.04 0.03 0.03 0.03 0.06 0.04 0.03 0.02 0.01 0.00 0.00 0.00 0.00 0.00 0.00 0.00 0.00 0.00 0.00 0.00 0.00 0.00 0.00 0.00
0.00 0.00 0.00 0.01 0.00 0.00 0.00 0.00 0.00 0.00 0.00 0.01 0.01 0.00 0.01 0.01 0.01 0.03 0.05 0.08 0.05 0.05 0.05 0.06 0.06 0.02 0.02 0.02 0.02 0.02 0.03 0.01 0.00 0.00 0.01 0.01 0.01 0.00 0.00 0.00 0.00 0.00 0.00 0.00 0.00 0.00 0.00 0.00 0.00 0.00 0.00 0.00 0.01 0.01
0.01 0.01 0.00 0.00 0.00 0.00 0.00 0.00 0.00 0.01 0.02 0.02 0.02 0.01 0.03 0.05 0.03 0.07 0.06 0.05 0.05 0.06 0.05 0.04 0.02 0.01 0.02 0.02 0.02 0.01 0.00 0.00 0.00 0.00 0.00 0.00 0.00 0.00 0.00 0.00 0.00 0.00 0.00 0.00 0.00 0.00 0.00 0.00 0.00 0.00 0.00 0.00 0.01 0.01
0.01 0.01 0.01 0.00 0.00 0.00 0.00 0.01 0.01 0.03 0.03 0.01 0.04 0.03 0.02 0.04 0.06 0.09 0.10 0.11 0.07 0.04 0.02 0.02 0.01 0.01 0.01 0.02 0.02 0.02 0.02 0.01 0.00 0.00 0.00 0.01 0.00 0.00 0.00 0.00 0.00 0.00 0.00 0.00 0.00 0.00 0.00 0.01 0.01 0.01 0.01 0.01 0.00 0.00
0.01 0.00 0.00 0.00 0.00 0.00 0.02 0.04 0.04 0.03 0.02 0.01 0.02 0.04 0.03 0.05 0.10 0.11 0.11 0.11 0.10 0.07 0.04 0.04 0.06 0.03 0.02 0.01 0.00 0.00 0.00 0.00 0.00 0.00 0.00 0.01 0.02 0.01 0.00 0.01 0.00 0.00 0.00 0.00 0.00 0.00 0.00 0.01 0.01 0.01 0.00 0.00 0.01 0.03
0.00 0.00 0.00 0.00 0.01 0.03 0.04 0.03 0.04 0.02 0.01 0.00 0.01 0.02 0.02 0.06 0.10 0.08 0.06 0.04 0.04 0.04 0.04 0.04 0.04 0.02 0.03 0.02 0.01 0.00 0.00 0.00 0.00 0.00 0.00 0.00 0.00 0.00 0.00 0.01 0.00 0.00 0.00 0.00 0.00 0.00 0.00 0.00 0.00 0.00 0.01 0.01 0.01 0.01
0.00 0.00 0.01 0.00 0.02 0.03 0.04 0.02 0.02 0.01 0.01 0.01 0.01 0.02 0.02 0.04 0.05 0.02 0.03 0.06 0.03 0.03 0.03 0.02 0.01 0.00 0.00 0.00 0.00 0.00 0.01 0.01 0.00 0.00 0.00 0.00 0.00 0.00 0.01 0.00 0.01 0.01 0.01 0.01 0.01 0.01 0.00 0.00 0.00 0.00 0.00 0.01 0.01 0.01
0.00 0.00 0.00 0.00 0.02 0.02 0.02 0.03 0.04 0.07 0.06 0.03 0.03 0.02 0.03 0.03 0.02 0.02 0.02 0.02 0.01 0.01 0.02 0.02 0.01 0.01 0.00 0.00 0.00 0.00 0.00 0.00 0.00 0.00 0.00 0.00 0.00 0.01 0.01 0.00 0.00 0.01 0.01 0.01 0.00 0.00 0.00 0.01 0.01 0.01 0.01 0.01 0.01 0.00
0.00 0.00 0.00 0.00 0.02 0.02 0.01 0.01 0.04 0.02 0.02 0.02 0.03 0.03 0.03 0.02 0.02 0.04 0.03 0.01 0.01 0.01 0.01 0.01 0.01 0.02 0.02 0.00 0.00 0.00 0.00 0.00 0.00 0.00 0.01 0.01 0.00 0.00 0.00 0.00 0.00 0.00 0.00 0.00 0.00 0.00 0.01 0.01 0.01 0.01 0.01 0.00 0.00 0.00

GFSWCAN_prec_precacc12_027.txt.gz
Total_Precipitation_Accumulation
0.22 0.24 0.26 0.25 0.27 0.19 0.24 0.20 0.19 0.18 0.20 0.17 0.14 0.08 0.05 0.05 0.08 0.11 0.23 0.33 0.45 0.46 0.14 0.18 0.08 0.01 0.00 0.00 0.01 0.01 0.10 0.11 0.09 0.07 0.03 0.01 0.00 0.00 0.00 0.00 0.00 0.00 0.00 0.00 0.00 0.00 0.00 0.00 0.00 0.00 0.00 0.00 0.00 0.00
0.22 0.23 0.20 0.21 0.18 0.17 0.22 0.21 0.22 0.19 0.21 0.15 0.12 0.06 0.06 0.07 0.09 0.12 0.21 0.26 0.41 0.55 0.19 0.24 0.07 0.01 0.00 0.00 0.01 0.00 0.06 0.03 0.04 0.03 0.01 0.02 0.00 0.00 0.00 0.00 0.00 0.00 0.00 0.00 0.00 0.00 0.00 0.00 0.00 0.00 0.00 0.00 0.00 0.00
0.15 0.16 0.17 0.15 0.15 0.18 0.21 0.21 0.20 0.18 0.17 0.11 0.10 0.07 0.09 0.10 0.10 0.10 0.16 0.26 0.42 0.39 0.15 0.13 0.15 0.03 0.00 0.00 0.01 0.03 0.01 0.03 0.05 0.04 0.05 0.02 0.01 0.00 0.00 0.00 0.00 0.00 0.00 0.00 0.00 0.00 0.00 0.00 0.00 0.00 0.00 0.00 0.00 0.00
0.06 0.08 0.08 0.11 0.16 0.19 0.21 0.19 0.17 0.17 0.13 0.09 0.09 0.09 0.13 0.14 0.11 0.11 0.17 0.30 0.43 0.37 0.62 0.38 0.21 0.10 0.09 0.01 0.00 0.02 0.02 0.02 0.05 0.09 0.06 0.03 0.01 0.01 0.00 0.00 0.00 0.00 0.00 0.00 0.00 0.00 0.00 0.00 0.00 0.00 0.00 0.00 0.00 0.00
0.01 0.02 0.04 0.07 0.08 0.11 0.11 0.11 0.12 0.14 0.10 0.10 0.09 0.11 0.13 0.13 0.13 0.20 0.21 0.30 0.35 0.41 0.54 0.74 0.15 0.16 0.15 0.14 0.03 0.06 0.04 0.04 0.08 0.10 0.05 0.02 0.01 0.02 0.01 0.00 0.00 0.00 0.00 0.00 0.00 0.00 0.00 0.00 0.00 0.00 0.00 0.00 0.00 0.00
0.00 0.00 0.01 0.01 0.02 0.03 0.03 0.04 0.06 0.09 0.07 0.08 0.10 0.13 0.13 0.13 0.17 0.36 0.45 0.40 0.60 0.45 0.63 0.89 0.36 0.14 0.18 0.23 0.18 0.08 0.11 0.11 0.08 0.07 0.03 0.02 0.01 0.01 0.00 0.00 0.00 0.00 0.01 0.00 0.00 0.00 0.00 0.00 0.00 0.00 0.00 0.00 0.00 0.00
0.00 0.00 0.00 0.01 0.02 0.03 0.02 0.03 0.05 0.07 0.08 0.13 0.13 0.14 0.14 0.13 0.16 0.54 0.70 0.60 0.47 0.49 0.51 0.59 0.64 0.28 0.19 0.19 0.23 0.42 0.16 0.12 0.15 0.10 0.03 0.00 0.01 0.01 0.00 0.00 0.00 0.00 0.00 0.00 0.00 0.00 0.00 0.00 0.00 0.00 0.00 0.00 0.00 0.00
0.01 0.00 0.00 0.00 0.01 0.01 0.02 0.02 0.05 0.10 0.16 0.12 0.14 0.15 0.18 0.15 0.25 0.58 0.74 0.97 0.55 0.39 0.34 0.29 0.53 0.49 0.28 0.23 0.19 0.37 0.37 0.19 0.16 0.10 0.07 0.03 0.01 0.00 0.00 0.00 0.00 0.00 0.00 0.00 0.00 0.00 0.00 0.00 0.00 0.00 0.00 0.00 0.00 0.00
0.05 0.02 0.01 0.02 0.02 0.02 0.03 0.05 0.08 0.14 0.09 0.14 0.17 0.30 0.43 0.47 0.59 0.75 0.92 1.19 0.78 0.46 0.32 0.09 0.16 0.45 0.41 0.42 0.20 0.19 0.35 0.33 0.22 0.12 0.05 0.07 0.07 0.02 0.00 0.00 0.00 0.00 0.00 0.00 0.00 0.00 0.00 0.00 0.00 0.00 0.00 0.00 0.00 0.00
0.07 0.04 0.02 0.02 0.02 0.05 0.06 0.06 0.09 0.10 0.13 0.26 0.48 0.61 0.60 0.72 0.84 0.83 1.06 1.18 0.85 0.50 0.37 0.20 0.08 0.16 0.30 0.52 0.48 0.20 0.18 0.24 0.29 0.27 0.15 0.05 0.03 0.04 0.01 0.00 0.00 0.00 0.00 0.00 0.00 0.00 0.00 0.00 0.00 0.00 0.00 0.00 0.00 0.00
0.03 0.02 0.02 0.02 0.04 0.04 0.02 0.05 0.08 0.13 0.35 0.49 0.50 0.66 0.70 0.87 0.99 1.04 0.92 0.66 0.57 0.29 0.14 0.20 0.19 0.16 0.15 0.30 0.49 0.39 0.34 0.15 0.11 0.16 0.19 0.21 0.06 0.00 0.00 0.01 0.00 0.01 0.01 0.01 0.00 0.00 0.00 0.00 0.00 0.00 0.00 0.00 0.00 0.00
0.04 0.04 0.03 0.03 0.02 0.02 0.02 0.05 0.09 0.20 0.32 0.42 0.61 0.63 0.86 0.96 0.73 0.59 0.48 0.43 0.31 0.10 0.03 0.07 0.22 0.24 0.14 0.16 0.34 0.46 0.27 0.26 0.07 0.03 0.07 0.11 0.08 0.05 0.04 0.03 0.02 0.03 0.05 0.07 0.06 0.04 0.02 0.00 0.00 0.00 0.00 0.00 0.00 0.01
0.05 0.04 0.03 0.02 0.02 0.02 0.06 0.19 0.31 0.52 0.79 0.69 0.43 0.56 0.55 0.47 0.37 0.32 0.26 0.27 0.16 0.03 0.03 0.02 0.03 0.25 0.26 0.15 0.15 0.31 0.35 0.18 0.08 0.06 0.05 0.02 0.01 0.02 0.08 0.12 0.13 0.11 0.04 0.02 0.03 0.03 0.03 0.03 0.03 0.03 0.03 0.04 0.05 0.06
0.09 0.06 0.07 0.11 0.15 0.20 0.38 0.54 0.85 1.00 0.81 0.45 0.45 0.43 0.48 0.36 0.26 0.23 0.20 0.11 0.04 0.03 0.05 0.02 0.00 0.10 0.34 0.22 0.18 0.11 0.16 0.14 0.14 0.10 0.06 0.04 0.03 0.02 0.02 0.02 0.01 0.02 0.01 0.01 0.01 0.02 0.05 0.08 0.12 0.13 0.12 0.10 0.08 0.06
0.16 0.19 0.21 0.25 0.25 0.33 0.49 0.65 0.83 0.57 0.29 0.29 0.42 0.40 0.31 0.30 0.28 0.27 0.17 0.06 0.05 0.06 0.04 0.03 0.06 0.02 0.10 0.26 0.21 0.13 0.13 0.10 0.09 0.09 0.10 0.09 0.05 0.02 0.01 0.01 0.02 0.05 0.09 0.14 0.17 0.17 0.17 0.15 0.12 0.12 0.10 0.08 0.05 0.03
0.15 0.17 0.18 0.23 0.27 0.38 0.51 0.57 0.53 0.31 0.13 0.15 0.25 0.23 0.19 0.18 0.16 0.13 0.09 0.07 0.05 0.04 0.03 0.08 0.12 0.04 0.08 0.04 0.09 0.12 0.12 0.10 0.12 0.13 0.12 0.14 0.15 0.15 0.17 0.20 0.24 0.25 0.23 0.19 0.16 0.11 0.08 0.07 0.05 0.04 0.03 0.02 0.01 0.00
0.07 0.07 0.17 0.19 0.31 0.39 0.45 0.40 0.26 0.07 0.09 0.12 0.23 0.20 0.12 0.08 0.10 0.11 0.11 0.08 0.04 0.02 0.04 0.03 0.05 0.10 0.08 0.03 0.04 0.07 0.16 0.24 0.28 0.24 0.21 0.23 0.28 0.31 0.32 0.32 0.28 0.18 0.13 0.10 0.09 0.08 0.06 0.05 0.02 0.01 0.00 0.00 0.00 0.00
0.11 0.08 0.14 0.14 0.12 0.13 0.11 0.05 0.02 0.04 0.10 0.20 0.21 0.29 0.17 0.19 0.17 0.17 0.20 0.15 0.10 0.09 0.08 0.13 0.13 0.16 0.17 0.15 0.17 0.26 0.34 0.39 0.39 0.27 0.22 0.25 0.27 0.28 0.30 0.27 0.26 0.18 0.11 0.09 0.07 0.08 0.07 0.04 0.02 0.01 0.00 0.00 0.00 0.00
0.25 0.19 0.20 0.14 0.14 0.08 0.04 0.01 0.00 0.05 0.20 0.23 0.21 0.15 0.11 0.16 0.18 0.20 0.20 0.20 0.15 0.09 0.07 0.08 0.10 0.16 0.23 0.29 0.36 0.38 0.39 0.31 0.23 0.17 0.19 0.24 0.27 0.27 0.30 0.29 0.27 0.22 0.15 0.11 0.07 0.07 0.08 0.08 0.08 0.07 0.05 0.05 0.04 0.04
0.15 0.16 0.17 0.16 0.10 0.12 0.14 0.01 0.00 0.03 0.15 0.22 0.16 0.06 0.03 0.04 0.02 0.00 0.00 0.00 0.00 0.00 0.03 0.12 0.24 0.30 0.33 0.35 0.35 0.32 0.27 0.23 0.20 0.13 0.14 0.20 0.25 0.22 0.26 0.23 0.22 0.20 0.16 0.16 0.15 0.14 0.13 0.14 0.13 0.09 0.07 0.06 0.04 0.03
0.03 0.04 0.03 0.01 0.00 0.01 0.03 0.01 0.03 0.03 0.06 0.08 0.08 0.01 0.00 0.00 0.00 0.00 0.00 0.00 0.00 0.04 0.16 0.27 0.28 0.29 0.28 0.28 0.26 0.25 0.25 0.23 0.22 0.15 0.15 0.15 0.21 0.17 0.19 0.21 0.17 0.16 0.14 0.16 0.14 0.17 0.16 0.13 0.11 0.08 0.06 0.05 0.04 0.03
0.00 0.00 0.00 0.00 0.00 0.00 0.00 0.00 0.02 0.01 0.00 0.00 0.00 0.00 0.00 0.00 0.00 0.00 0.00 0.00 0.07 0.17 0.18 0.19 0.17 0.15 0.12 0.13 0.14 0.13 0.16 0.12 0.15 0.16 0.19 0.18 0.19 0.20 0.23 0.26 0.18 0.18 0.18 0.19 0.17 0.15 0.11 0.08 0.06 0.03 0.02 0.01 0.01 0.00
0.00 0.00 0.00 0.00 0.00 0.00 0.00 0.00 0.00 0.00 0.00 0.00 0.00 0.00 0.00 0.00 0.01 0.00 0.00 0.03 0.11 0.20 0.17 0.07 0.06 0.04 0.04 0.07 0.03 0.02 0.03 0.02 0.04 0.08 0.11 0.11 0.11 0.12 0.11 0.11 0.10 0.08 0.08 0.09 0.07 0.04 0.02 0.01 0.00 0.00 0.00 0.00 0.00 0.00
0.00 0.00 0.00 0.00 0.00 0.00 0.00 0.00 0.00 0.00 0.00 0.00 0.00 0.01 0.03 0.02 0.00 0.00 0.01 0.05 0.15 0.10 0.05 0.08 0.03 0.01 0.00 0.00 0.01 0.02 0.03 0.01 0.01 0.02 0.03 0.01 0.01 0.03 0.02 0.03 0.02 0.02 0.02 0.01 0.00 0.00 0.00 0.00 0.00 0.00 0.00 0.00 0.00 0.00
0.00 0.00 0.00 0.00 0.00 0.00 0.00 0.00 0.00 0.00 0.00 0.00 0.01 0.02 0.02 0.00 0.00 0.00 0.02 0.06 0.06 0.05 0.06 0.04 0.01 0.01 0.01 0.02 0.02 0.03 0.02 0.00 0.00 0.01 0.03 0.02 0.01 0.01 0.01 0.00 0.00 0.00 0.00 0.00 0.00 0.00 0.00 0.00 0.00 0.00 0.00 0.00 0.00 0.00
0.00 0.00 0.01 0.01 0.00 0.00 0.00 0.00 0.00 0.01 0.00 0.01 0.02 0.02 0.01 0.01 0.00 0.02 0.04 0.06 0.04 0.05 0.05 0.04 0.02 0.01 0.01 0.01 0.01 0.01 0.01 0.00 0.00 0.00 0.01 0.01 0.01 0.00 0.00 0.00 0.00 0.00 0.00 0.00 0.00 0.00 0.00 0.00 0.00 0.00 0.00 0.00 0.00 0.00
0.00 0.00 0.00 0.01 0.00 0.00 0.00 0.00 0.00 0.00 0.01 0.02 0.02 0.01 0.02 0.01 0.02 0.06 0.07 0.06 0.04 0.06 0.05 0.04 0.01 0.01 0.02 0.02 0.02 0.01 0.00 0.00 0.00 0.00 0.00 0.00 0.00 0.00 0.00 0.00 0.00 0.01 0.01 0.00 0.00 0.00 0.00 0.01 0.01 0.00 0.00 0.00 0.00 0.00
0.00 0.00 0.00 0.00 0.00 0.00 0.00 0.00 0.00 0.02 0.02 0.02 0.02 0.01 0.01 0.01 0.04 0.08 0.10 0.12 0.06 0.03 0.01 0.01 0.00 0.00 0.01 0.01 0.01 0.01 0.01 0.01 0.00 0.00 0.00 0.00 0.00 0.00 0.00 0.00 0.00 0.00 0.00 0.00 0.00 0.00 0.01 0.01 0.01 0.01 0.01 0.00 0.00 0.00
0.00 0.00 0.00 0.00 0.00 0.00 0.01 0.02 0.02 0.02 0.02 0.01 0.00 0.02 0.02 0.04 0.07 0.08 0.10 0.10 0.07 0.02 0.02 0.01 0.03 0.01 0.00 0.00 0.00 0.00 0.00 0.00 0.00 0.00 0.00 0.00 0.00 0.00 0.00 0.01 0.00 0.00 0.00 0.00 0.00 0.00 0.01 0.01 0.01 0.00 0.00 0.00 0.01 0.01
0.00 0.00 0.00 0.00 0.01 0.02 0.03 0.02 0.01 0.01 0.00 0.00 0.00 0.01 0.02 0.05 0.10 0.08 0.04 0.02 0.01 0.01 0.02 0.01 0.02 0.00 0.00 0.00 0.00 0.00 0.00 0.00 0.00 0.00 0.00 0.00 0.01 0.01 0.00 0.00 0.00 0.00 0.00 0.00 0.00 0.00 0.00 0.00 0.00 0.00 0.00 0.00 0.00 0.01
0.00 0.00 0.00 0.00 0.02 0.04 0.03 0.02 0.01 0.00 0.00 0.00 0.00 0.00 0.01 0.03 0.04 0.02 0.02 0.02 0.01 0.00 0.00 0.00 0.00 0.00 0.00 0.00 0.00 0.00 0.00 0.00 0.00 0.00 0.00 0.00 0.00 0.00 0.00 0.00 0.00 0.00 0.00 0.00 0.01 0.01 0.00 0.00 0.00 0.00 0.00 0.00 0.00 0.00
0.00 0.00 0.00 0.01 0.03 0.04 0.04 0.04 0.03 0.03 0.01 0.01 0.01 0.01 0.01 0.00 0.01 0.01 0.02 0.00 0.00 0.00 0.01 0.00 0.00 0.01 0.01 0.00 0.00 0.00 0.00 0.00 0.00 0.00 0.00 0.01 0.00 0.00 0.00 0.00 0.00 0.00 0.00 0.00 0.00 0.00 0.00 0.00 0.00 0.00 0.00 0.01 0.00 0.00
0.00 0.00 0.00 0.00 0.02 0.03 0.02 0.03 0.04 0.02 0.02 0.01 0.02 0.02 0.01 0.00 0.01 0.02 0.02 0.01 0.00 0.00 0.00 0.00 0.00 0.01 0.01 0.00 0.00 0.00 0.00 0.00 0.00 0.00 0.01 0.01 0.00 0.00 0.00 0.00 0.00 0.00 0.00 0.00 0.00 0.00 0.00 0.00 0.00 0.00 0.00 0.00 0.00 0.00

GFSWCAN_prec_precacc12_030.txt.gz
Total_Precipitation_Accumulation
0.22 0.25 0.27 0.26 0.31 0.28 0.29 0.22 0.21 0.20 0.19 0.16 0.14 0.13 0.19 0.13 0.10 0.06 0.07 0.21 0.33 0.31 0.13 0.22 0.13 0.07 0.01 0.00 0.01 0.00 0.01 0.03 0.05 0.04 0.01 0.01 0.00 0.00 0.00 0.00 0.00 0.00 0.00 0.00 0.00 0.00 0.00 0.00 0.00 0.00 0.00 0.00 0.00 0.00
0.23 0.23 0.21 0.22 0.20 0.22 0.25 0.23 0.18 0.16 0.16 0.12 0.12 0.10 0.15 0.19 0.17 0.07 0.07 0.18 0.32 0.46 0.19 0.29 0.13 0.04 0.00 0.00 0.00 0.00 0.00 0.01 0.02 0.02 0.01 0.02 0.00 0.00 0.00 0.00 0.00 0.00 0.00 0.00 0.00 0.00 0.00 0.00 0.00 0.00 0.00 0.00 0.00 0.00
0.16 0.17 0.17 0.15 0.16 0.20 0.23 0.21 0.16 0.15 0.14 0.10 0.12 0.11 0.17 0.24 0.16 0.08 0.10 0.16 0.30 0.33 0.11 0.12 0.19 0.05 0.00 0.00 0.00 0.00 0.01 0.02 0.04 0.04 0.05 0.02 0.01 0.00 0.00 0.00 0.00 0.00 0.00 0.00 0.00 0.00 0.00 0.00 0.00 0.00 0.00 0.00 0.00 0.00
0.08 0.09 0.09 0.12 0.16 0.20 0.22 0.19 0.17 0.17 0.14 0.12 0.14 0.16 0.21 0.25 0.19 0.10 0.10 0.22 0.28 0.27 0.23 0.18 0.27 0.12 0.09 0.02 0.00 0.01 0.02 0.02 0.06 0.09 0.06 0.03 0.01 0.01 0.01 0.00 0.00 0.00 0.00 0.00 0.00 0.00 0.00 0.00 0.00 0.00 0.00 0.00 0.00 0.00
0.03 0.06 0.09 0.11 0.12 0.14 0.15 0.17 0.17 0.19 0.16 0.15 0.17 0.21 0.29 0.31 0.23 0.13 0.11 0.26 0.26 0.33 0.21 0.15 0.15 0.21 0.14 0.13 0.03 0.01 0.03 0.04 0.09 0.11 0.05 0.02 0.01 0.02 0.01 0.00 0.00 0.00 0.00 0.00 0.00 0.00 0.00 0.00 0.00 0.00 0.00 0.00 0.00 0.00
0.00 0.02 0.04 0.06 0.08 0.09 0.12 0.13 0.16 0.17 0.13 0.15 0.18 0.24 0.29 0.23 0.18 0.19 0.24 0.23 0.29 0.27 0.34 0.25 0.18 0.17 0.26 0.26 0.20 0.07 0.02 0.04 0.07 0.07 0.03 0.02 0.01 0.01 0.00 0.00 0.00 0.00 0.01 0.01 0.00 0.00 0.00 0.00 0.00 0.00 0.00 0.00 0.00 0.00
0.00 0.00 0.01 0.02 0.03 0.05 0.05 0.06 0.08 0.09 0.10 0.15 0.17 0.19 0.20 0.14 0.09 0.18 0.19 0.17 0.08 0.21 0.35 0.28 0.42 0.23 0.25 0.41 0.39 0.44 0.14 0.07 0.06 0.08 0.04 0.02 0.01 0.01 0.00 0.00 0.00 0.00 0.00 0.00 0.00 0.00 0.00 0.00 0.00 0.00 0.00 0.00 0.00 0.00
0.00 0.00 0.00 0.00 0.01 0.02 0.02 0.02 0.05 0.09 0.16 0.13 0.14 0.14 0.15 0.11 0.11 0.15 0.25 0.46 0.10 0.21 0.31 0.23 0.46 0.40 0.27 0.44 0.45 0.51 0.49 0.18 0.12 0.08 0.06 0.03 0.01 0.00 0.00 0.00 0.00 0.00 0.00 0.00 0.00 0.00 0.00 0.00 0.00 0.00 0.00 0.00 0.00 0.00
0.00 0.00 0.00 0.00 0.00 0.01 0.02 0.04 0.06 0.10 0.07 0.12 0.15 0.22 0.29 0.20 0.17 0.19 0.49 0.77 0.50 0.40 0.32 0.08 0.16 0.44 0.43 0.45 0.22 0.26 0.57 0.47 0.23 0.10 0.04 0.07 0.08 0.02 0.00 0.00 0.00 0.00 0.00 0.00 0.00 0.00 0.00 0.00 0.00 0.00 0.00 0.00 0.00 0.00
0.00 0.00 0.00 0.00 0.01 0.03 0.03 0.02 0.04 0.06 0.10 0.21 0.40 0.43 0.29 0.18 0.36 0.57 0.82 1.10 0.90 0.56 0.41 0.21 0.08 0.16 0.30 0.53 0.51 0.31 0.31 0.31 0.33 0.27 0.15 0.05 0.04 0.04 0.01 0.00 0.00 0.00 0.00 0.00 0.00 0.00 0.00 0.00 0.00 0.00 0.00 0.00 0.00 0.00
0.01 0.01 0.02 0.02 0.02 0.02 0.00 0.02 0.04 0.07 0.26 0.38 0.35 0.33 0.27 0.58 0.73 0.85 0.88 0.69 0.61 0.30 0.15 0.20 0.19 0.23 0.16 0.29 0.50 0.42 0.46 0.19 0.11 0.17 0.19 0.21 0.07 0.00 0.00 0.01 0.01 0.01 0.01 0.01 0.00 0.00 0.00 0.00 0.00 0.00 0.00 0.00 0.00 0.00
0.04 0.04 0.04 0.02 0.01 0.00 0.01 0.03 0.05 0.15 0.27 0.37 0.45 0.38 0.57 0.85 0.68 0.61 0.50 0.45 0.33 0.10 0.04 0.07 0.22 0.26 0.15 0.15 0.34 0.46 0.27 0.29 0.09 0.03 0.07 0.11 0.08 0.04 0.04 0.02 0.02 0.03 0.05 0.07 0.06 0.04 0.03 0.02 0.01 0.01 0.01 0.01 0.01 0.02
0.03 0.03 0.03 0.02 0.01 0.01 0.04 0.17 0.30 0.55 0.80 0.67 0.35 0.51 0.54 0.47 0.39 0.33 0.29 0.34 0.23 0.04 0.03 0.03 0.03 0.23 0.24 0.17 0.13 0.31 0.36 0.19 0.09 0.09 0.09 0.06 0.02 0.02 0.07 0.12 0.13 0.12 0.10 0.09 0.09 0.09 0.07 0.07 0.06 0.04 0.05 0.08 0.12 0.18
0.02 0.03 0.02 0.02 0.04 0.16 0.41 0.57 0.93 1.14 0.83 0.47 0.46 0.43 0.53 0.39 0.32 0.26 0.29 0.29 0.10 0.04 0.06 0.03 0.01 0.07 0.25 0.26 0.20 0.12 0.18 0.16 0.21 0.21 0.15 0.11 0.10 0.09 0.10 0.09 0.07 0.06 0.05 0.05 0.06 0.08 0.13 0.18 0.24 0.26 0.26 0.25 0.22 0.20
0.06 0.08 0.11 0.17 0.27 0.47 0.66 0.83 1.03 0.67 0.31 0.34 0.51 0.53 0.42 0.39 0.40 0.44 0.37 0.24 0.15 0.13 0.09 0.09 0.09 0.03 0.11 0.37 0.35 0.19 0.16 0.12 0.12 0.14 0.17 0.20 0.21 0.21 0.19 0.17 0.15 0.14 0.15 0.19 0.23 0.24 0.28 0.25 0.20 0.23 0.23 0.20 0.16 0.14
0.13 0.14 0.19 0.28 0.36 0.47 0.64 0.69 0.64 0.38 0.21 0.30 0.44 0.38 0.34 0.35 0.36 0.35 0.26 0.20 0.20 0.18 0.11 0.15 0.16 0.05 0.09 0.07 0.15 0.15 0.14 0.12 0.15 0.19 0.22 0.24 0.28 0.31 0.34 0.39 0.44 0.42 0.40 0.36 0.32 0.24 0.19 0.17 0.13 0.11 0.12 0.10 0.08 0.06
0.07 0.09 0.19 0.23 0.35 0.46 0.50 0.44 0.28 0.11 0.16 0.25 0.34 0.36 0.33 0.27 0.28 0.27 0.22 0.17 0.13 0.06 0.06 0.05 0.05 0.10 0.07 0.02 0.04 0.08 0.16 0.28 0.35 0.33 0.32 0.33 0.38 0.44 0.46 0.44 0.39 0.30 0.24 0.21 0.19 0.17 0.15 0.13 0.08 0.04 0.04 0.04 0.02 0.01
0.13 0.10 0.18 0.22 0.22 0.26 0.20 0.08 0.05 0.08 0.10 0.21 0.22 0.29 0.17 0.17 0.15 0.14 0.16 0.12 0.06 0.05 0.04 0.07 0.07 0.08 0.10 0.10 0.13 0.21 0.29 0.38 0.44 0.35 0.31 0.34 0.36 0.37 0.39 0.35 0.33 0.25 0.18 0.17 0.14 0.14 0.12 0.09 0.05 0.05 0.03 0.02 0.01 0.01
0.34 0.26 0.28 0.23 0.23 0.13 0.08 0.02 0.00 0.05 0.17 0.18 0.16 0.10 0.06 0.08 0.10 0.12 0.11 0.10 0.06 0.02 0.02 0.04 0.05 0.10 0.17 0.22 0.27 0.31 0.36 0.32 0.27 0.22 0.24 0.31 0.34 0.36 0.37 0.33 0.28 0.23 0.16 0.14 0.11 0.11 0.12 0.12 0.12 0.11 0.09 0.07 0.07 0.07
0.35 0.29 0.28 0.24 0.15 0.14 0.15 0.01 0.00 0.03 0.13 0.16 0.10 0.02 0.01 0.01 0.01 0.00 0.00 0.00 0.00 0.00 0.02 0.08 0.19 0.25 0.28 0.31 0.32 0.30 0.28 0.26 0.24 0.15 0.14 0.19 0.27 0.24 0.26 0.24 0.23 0.21 0.17 0.17 0.16 0.16 0.13 0.12 0.14 0.12 0.10 0.08 0.07 0.06
0.16 0.12 0.08 0.04 0.01 0.02 0.04 0.01 0.03 0.03 0.05 0.07 0.08 0.01 0.00 0.00 0.00 0.00 0.00 0.00 0.01 0.04 0.15 0.25 0.26 0.29 0.29 0.29 0.28 0.27 0.27 0.22 0.21 0.14 0.13 0.14 0.20 0.16 0.18 0.21 0.18 0.16 0.14 0.15 0.13 0.15 0.12 0.12 0.13 0.10 0.07 0.06 0.05 0.05
0.02 0.01 0.00 0.00 0.00 0.00 0.00 0.00 0.02 0.01 0.00 0.00 0.00 0.00 0.00 0.00 0.00 0.00 0.00 0.00 0.06 0.17 0.19 0.18 0.18 0.17 0.13 0.15 0.16 0.14 0.18 0.12 0.12 0.12 0.14 0.12 0.13 0.14 0.17 0.22 0.16 0.14 0.14 0.14 0.13 0.12 0.11 0.09 0.06 0.04 0.02 0.01 0.01 0.00
0.00 0.00 0.00 0.00 0.00 0.00 0.00 0.00 0.00 0.00 0.00 0.00 0.00 0.00 0.00 0.00 0.00 0.00 0.00 0.04 0.10 0.19 0.16 0.08 0.08 0.06 0.05 0.09 0.05 0.03 0.04 0.02 0.03 0.05 0.07 0.06 0.07 0.08 0.07 0.07 0.07 0.05 0.05 0.06 0.05 0.04 0.02 0.01 0.00 0.00 0.00 0.00 0.00 0.00
0.00 0.00 0.00 0.00 0.00 0.00 0.00 0.00 0.00 0.00 0.00 0.00 0.00 0.01 0.03 0.01 0.00 0.00 0.01 0.05 0.13 0.11 0.06 0.06 0.03 0.01 0.01 0.00 0.01 0.02 0.02 0.00 0.01 0.01 0.01 0.00 0.01 0.02 0.01 0.01 0.01 0.01 0.01 0.01 0.00 0.00 0.00 0.00 0.00 0.00 0.00 0.00 0.00 0.00
0.00 0.00 0.00 0.00 0.00 0.00 0.00 0.00 0.00 0.00 0.00 0.00 0.01 0.03 0.02 0.00 0.00 0.00 0.01 0.05 0.05 0.05 0.06 0.04 0.01 0.01 0.01 0.02 0.02 0.02 0.01 0.00 0.00 0.00 0.02 0.01 0.01 0.00 0.00 0.00 0.00 0.00 0.00 0.00 0.00 0.00 0.00 0.00 0.00 0.00 0.00 0.00 0.00 0.00
0.00 0.01 0.01 0.00 0.00 0.00 0.00 0.00 0.01 0.01 0.01 0.01 0.02 0.02 0.01 0.00 0.00 0.02 0.03 0.04 0.04 0.05 0.04 0.03 0.02 0.00 0.01 0.01 0.01 0.01 0.01 0.00 0.00 0.00 0.01 0.00 0.00 0.00 0.00 0.00 0.00 0.00 0.01 0.00 0.00 0.00 0.00 0.00 0.00 0.00 0.00 0.00 0.00 0.00
0.00 0.00 0.00 0.01 0.00 0.00 0.00 0.00 0.00 0.00 0.01 0.01 0.01 0.01 0.01 0.00 0.01 0.05 0.06 0.05 0.03 0.05 0.04 0.02 0.01 0.01 0.01 0.01 0.01 0.01 0.00 0.00 0.00 0.00 0.00 0.00 0.00 0.00 0.00 0.00 0.01 0.01 0.01 0.00 0.00 0.00 0.01 0.01 0.00 0.00 0.00 0.00 0.00 0.00
0.00 0.00 0.00 0.00 0.00 0.00 0.00 0.00 0.00 0.01 0.02 0.02 0.01 0.00 0.00 0.01 0.02 0.05 0.07 0.09 0.04 0.02 0.01 0.01 0.00 0.00 0.00 0.00 0.01 0.01 0.01 0.00 0.00 0.00 0.00 0.00 0.00 0.00 0.00 0.01 0.00 0.00 0.00 0.00 0.00 0.00 0.01 0.01 0.01 0.01 0.00 0.00 0.00 0.00
0.00 0.00 0.00 0.00 0.00 0.00 0.01 0.02 0.02 0.02 0.02 0.01 0.00 0.01 0.02 0.03 0.05 0.06 0.08 0.07 0.04 0.01 0.01 0.00 0.01 0.00 0.00 0.00 0.00 0.00 0.00 0.00 0.00 0.00 0.00 0.00 0.00 0.00 0.00 0.00 0.00 0.00 0.00 0.00 0.00 0.00 0.01 0.01 0.01 0.00 0.00 0.00 0.00 0.00
0.00 0.00 0.00 0.00 0.01 0.01 0.02 0.01 0.00 0.01 0.00 0.00 0.00 0.01 0.01 0.04 0.08 0.07 0.04 0.02 0.01 0.01 0.01 0.00 0.00 0.00 0.00 0.00 0.00 0.00 0.00 0.00 0.00 0.00 0.00 0.00 0.00 0.00 0.00 0.00 0.00 0.00 0.00 0.00 0.00 0.00 0.00 0.00 0.00 0.00 0.00 0.00 0.00 0.00
0.00 0.00 0.00 0.00 0.02 0.03 0.03 0.01 0.00 0.00 0.00 0.00 0.00 0.00 0.01 0.03 0.03 0.02 0.01 0.01 0.01 0.00 0.00 0.00 0.00 0.00 0.00 0.00 0.00 0.00 0.00 0.00 0.00 0.00 0.00 0.00 0.00 0.00 0.00 0.00 0.00 0.00 0.00 0.00 0.00 0.00 0.00 0.00 0.00 0.00 0.00 0.00 0.00 0.00
0.00 0.00 0.00 0.00 0.03 0.04 0.04 0.04 0.02 0.01 0.01 0.00 0.01 0.01 0.01 0.00 0.01 0.01 0.01 0.00 0.00 0.00 0.00 0.00 0.00 0.01 0.00 0.00 0.00 0.00 0.00 0.00 0.00 0.00 0.00 0.00 0.00 0.00 0.00 0.00 0.00 0.00 0.00 0.00 0.00 0.00 0.00 0.00 0.00 0.00 0.00 0.00 0.00 0.00
0.00 0.00 0.00 0.00 0.02 0.03 0.03 0.03 0.02 0.01 0.01 0.01 0.01 0.01 0.01 0.00 0.00 0.01 0.01 0.00 0.00 0.00 0.00 0.00 0.00 0.00 0.00 0.00 0.00 0.00 0.00 0.00 0.00 0.00 0.00 0.01 0.00 0.00 0.00 0.00 0.00 0.00 0.00 0.00 0.00 0.00 0.00 0.00 0.00 0.00 0.00 0.00 0.00 0.00

GFSWCAN_prec_precacc12_033.txt.gz
Total_Precipitation_Accumulation
0.09 0.11 0.14 0.15 0.24 0.25 0.30 0.31 0.27 0.26 0.23 0.18 0.18 0.15 0.30 0.30 0.35 0.16 0.06 0.15 0.26 0.25 0.16 0.23 0.17 0.11 0.02 0.01 0.04 0.02 0.05 0.03 0.02 0.00 0.01 0.02 0.01 0.00 0.00 0.00 0.04 0.02 0.01 0.01 0.01 0.02 0.00 0.00 0.00 0.00 0.00 0.00 0.00 0.00
0.20 0.19 0.17 0.19 0.21 0.24 0.26 0.26 0.24 0.19 0.18 0.13 0.13 0.10 0.21 0.31 0.48 0.17 0.04 0.14 0.24 0.35 0.21 0.25 0.13 0.09 0.02 0.00 0.00 0.02 0.02 0.00 0.00 0.00 0.00 0.02 0.02 0.01 0.00 0.00 0.00 0.02 0.03 0.03 0.00 0.00 0.00 0.00 0.00 0.00 0.00 0.00 0.00 0.00
0.15 0.17 0.17 0.16 0.16 0.20 0.25 0.24 0.17 0.17 0.15 0.10 0.12 0.12 0.24 0.45 0.46 0.11 0.04 0.10 0.25 0.30 0.08 0.09 0.17 0.05 0.01 0.00 0.00 0.03 0.01 0.00 0.00 0.00 0.02 0.01 0.01 0.01 0.00 0.00 0.00 0.00 0.00 0.00 0.00 0.00 0.00 0.00 0.00 0.00 0.00 0.00 0.00 0.00
0.08 0.08 0.09 0.12 0.17 0.21 0.23 0.19 0.16 0.17 0.14 0.11 0.14 0.18 0.36 0.51 0.32 0.08 0.04 0.10 0.23 0.20 0.10 0.09 0.27 0.10 0.09 0.02 0.00 0.00 0.00 0.00 0.02 0.02 0.04 0.02 0.01 0.01 0.01 0.00 0.00 0.00 0.00 0.00 0.00 0.00 0.00 0.00 0.00 0.00 0.00 0.00 0.00 0.00
0.05 0.07 0.08 0.10 0.12 0.14 0.15 0.16 0.17 0.18 0.14 0.15 0.19 0.29 0.48 0.43 0.24 0.08 0.06 0.19 0.18 0.24 0.14 0.06 0.10 0.15 0.11 0.13 0.03 0.01 0.01 0.04 0.06 0.07 0.04 0.02 0.01 0.02 0.01 0.00 0.00 0.00 0.00 0.00 0.00 0.00 0.00 0.00 0.00 0.00 0.00 0.00 0.00 0.00
0.03 0.04 0.05 0.06 0.08 0.09 0.12 0.13 0.15 0.14 0.13 0.18 0.23 0.34 0.34 0.21 0.13 0.13 0.20 0.21 0.22 0.20 0.25 0.18 0.08 0.11 0.21 0.23 0.19 0.06 0.01 0.03 0.06 0.07 0.05 0.02 0.01 0.01 0.00 0.00 0.00 0.00 0.01 0.01 0.00 0.00 0.00 0.00 0.00 0.00 0.00 0.00 0.00 0.00
0.02 0.02 0.03 0.04 0.05 0.07 0.08 0.09 0.10 0.10 0.11 0.17 0.23 0.21 0.16 0.12 0.06 0.13 0.15 0.11 0.07 0.19 0.33 0.21 0.14 0.11 0.22 0.41 0.37 0.21 0.07 0.04 0.08 0.10 0.06 0.03 0.01 0.01 0.00 0.00 0.00 0.00 0.00 0.00 0.00 0.00 0.00 0.00 0.00 0.00 0.00 0.00 0.00 0.00
0.01 0.01 0.02 0.02 0.04 0.05 0.05 0.05 0.06 0.11 0.18 0.13 0.11 0.13 0.15 0.11 0.07 0.13 0.12 0.19 0.05 0.19 0.30 0.24 0.24 0.28 0.45 0.72 0.52 0.32 0.26 0.15 0.10 0.06 0.03 0.04 0.04 0.02 0.00 0.00 0.00 0.00 0.00 0.00 0.00 0.00 0.00 0.00 0.00 0.00 0.00 0.00 0.00 0.00
0.01 0.01 0.01 0.01 0.01 0.02 0.04 0.06 0.07 0.12 0.09 0.12 0.15 0.22 0.25 0.16 0.11 0.16 0.21 0.26 0.20 0.23 0.22 0.12 0.25 0.36 0.63 0.71 0.48 0.34 0.47 0.41 0.22 0.09 0.03 0.04 0.04 0.06 0.01 0.00 0.00 0.00 0.00 0.00 0.00 0.00 0.00 0.00 0.00 0.00 0.00 0.00 0.00 0.00
0.00 0.01 0.00 0.00 0.01 0.03 0.03 0.03 0.03 0.06 0.09 0.17 0.29 0.32 0.20 0.08 0.18 0.28 0.36 0.60 0.52 0.33 0.24 0.21 0.17 0.26 0.28 0.63 0.66 0.43 0.42 0.42 0.35 0.27 0.15 0.06 0.03 0.04 0.01 0.00 0.00 0.00 0.00 0.00 0.00 0.00 0.00 0.00 0.00 0.00 0.00 0.00 0.00 0.00
0.01 0.01 0.02 0.03 0.02 0.02 0.01 0.00 0.02 0.05 0.16 0.23 0.23 0.21 0.11 0.36 0.41 0.38 0.34 0.37 0.41 0.20 0.07 0.09 0.17 0.28 0.14 0.26 0.47 0.57 0.71 0.27 0.15 0.20 0.23 0.24 0.08 0.01 0.00 0.00 0.01 0.01 0.01 0.01 0.00 0.00 0.00 0.00 0.00 0.00 0.00 0.00 0.00 0.00
0.04 0.05 0.05 0.03 0.02 0.01 0.01 0.00 0.01 0.07 0.15 0.25 0.29 0.23 0.31 0.40 0.33 0.22 0.29 0.37 0.30 0.09 0.04 0.07 0.21 0.26 0.14 0.09 0.30 0.47 0.37 0.41 0.12 0.05 0.12 0.16 0.10 0.05 0.04 0.02 0.02 0.03 0.04 0.07 0.06 0.04 0.03 0.02 0.01 0.01 0.01 0.01 0.01 0.03
0.02 0.03 0.02 0.02 0.02 0.02 0.04 0.12 0.19 0.31 0.58 0.54 0.21 0.16 0.21 0.25 0.26 0.27 0.28 0.34 0.23 0.04 0.03 0.03 0.04 0.23 0.24 0.16 0.10 0.31 0.36 0.21 0.12 0.14 0.17 0.12 0.04 0.03 0.08 0.12 0.13 0.12 0.10 0.08 0.07 0.08 0.08 0.08 0.08 0.06 0.07 0.11 0.16 0.25
0.01 0.01 0.01 0.01 0.03 0.12 0.33 0.44 0.71 0.90 0.62 0.31 0.25 0.28 0.53 0.41 0.36 0.27 0.31 0.31 0.10 0.04 0.06 0.06 0.01 0.07 0.26 0.28 0.15 0.10 0.21 0.19 0.24 0.25 0.19 0.13 0.13 0.12 0.13 0.14 0.12 0.12 0.13 0.14 0.15 0.17 0.22 0.26 0.33 0.41 0.45 0.46 0.41 0.41
0.01 0.01 0.03 0.06 0.16 0.37 0.58 0.69 0.83 0.52 0.31 0.36 0.48 0.53 0.47 0.47 0.46 0.47 0.38 0.25 0.16 0.13 0.11 0.11 0.10 0.10 0.15 0.43 0.35 0.17 0.15 0.12 0.14 0.17 0.20 0.25 0.26 0.26 0.26 0.28 0.30 0.33 0.38 0.43 0.45 0.45 0.47 0.42 0.33 0.38 0.39 0.35 0.28 0.25
0.02 0.07 0.14 0.17 0.32 0.45 0.67 0.67 0.63 0.37 0.27 0.34 0.49 0.45 0.41 0.43 0.43 0.41 0.30 0.22 0.22 0.21 0.17 0.23 0.24 0.07 0.08 0.09 0.20 0.19 0.15 0.13 0.17 0.23 0.27 0.31 0.35 0.38 0.41 0.45 0.48 0.48 0.49 0.47 0.45 0.37 0.31 0.27 0.20 0.18 0.19 0.16 0.15 0.11
0.05 0.11 0.24 0.29 0.42 0.48 0.52 0.44 0.28 0.16 0.27 0.36 0.45 0.47 0.46 0.42 0.43 0.40 0.33 0.28 0.24 0.15 0.16 0.12 0.10 0.10 0.07 0.02 0.04 0.09 0.19 0.31 0.37 0.37 0.37 0.39 0.44 0.48 0.49 0.43 0.39 0.33 0.30 0.29 0.26 0.23 0.21 0.19 0.12 0.07 0.08 0.10 0.07 0.06
0.13 0.11 0.20 0.23 0.23 0.28 0.20 0.08 0.06 0.11 0.17 0.31 0.29 0.38 0.29 0.31 0.30 0.27 0.26 0.22 0.16 0.08 0.06 0.04 0.04 0.06 0.09 0.09 0.12 0.18 0.24 0.33 0.40 0.35 0.34 0.39 0.41 0.42 0.42 0.36 0.34 0.28 0.24 0.23 0.19 0.19 0.18 0.14 0.09 0.10 0.08 0.06 0.03 0.03
0.36 0.30 0.33 0.27 0.26 0.13 0.09 0.06 0.01 0.07 0.18 0.17 0.16 0.12 0.08 0.10 0.08 0.07 0.05 0.05 0.04 0.01 0.00 0.02 0.03 0.07 0.13 0.17 0.20 0.22 0.29 0.29 0.29 0.27 0.27 0.33 0.36 0.37 0.35 0.30 0.25 0.22 0.16 0.15 0.13 0.13 0.15 0.14 0.14 0.12 0.11 0.08 0.08 0.08
0.43 0.38 0.36 0.29 0.18 0.15 0.16 0.07 0.01 0.03 0.11 0.11 0.04 0.00 0.01 0.01 0.00 0.00 0.00 0.00 0.00 0.00 0.02 0.05 0.14 0.19 0.21 0.24 0.25 0.24 0.25 0.26 0.24 0.16 0.15 0.19 0.26 0.23 0.24 0.22 0.21 0.20 0.15 0.14 0.14 0.13 0.11 0.10 0.12 0.11 0.10 0.09 0.08 0.07
0.26 0.16 0.11 0.05 0.05 0.04 0.06 0.04 0.04 0.03 0.04 0.06 0.05 0.00 0.00 0.00 0.00 0.00 0.00 0.00 0.01 0.03 0.12 0.20 0.20 0.23 0.23 0.23 0.22 0.21 0.21 0.18 0.18 0.12 0.12 0.13 0.18 0.15 0.16 0.17 0.15 0.12 0.10 0.11 0.09 0.10 0.08 0.08 0.10 0.09 0.07 0.07 0.06 0.05
0.04 0.01 0.00 0.00 0.00 0.00 0.00 0.00 0.02 0.02 0.00 0.00 0.00 0.00 0.00 0.00 0.00 0.00 0.00 0.00 0.06 0.16 0.18 0.16 0.16 0.15 0.12 0.13 0.15 0.13 0.16 0.10 0.09 0.07 0.08 0.06 0.06 0.06 0.08 0.13 0.09 0.08 0.08 0.09 0.08 0.07 0.07 0.06 0.05 0.03 0.02 0.01 0.01 0.00
0.00 0.00 0.00 0.00 0.00 0.00 0.00 0.00 0.00 0.00 0.00 0.00 0.00 0.00 0.00 0.00 0.00 0.00 0.01 0.03 0.08 0.16 0.14 0.09 0.08 0.06 0.05 0.09 0.04 0.03 0.03 0.02 0.02 0.03 0.03 0.02 0.03 0.04 0.04 0.04 0.03 0.03 0.03 0.03 0.03 0.02 0.01 0.00 0.00 0.00 0.00 0.00 0.00 0.00
0.00 0.00 0.00 0.00 0.00 0.00 0.00 0.00 0.00 0.00 0.00 0.00 0.00 0.01 0.02 0.00 0.00 0.00 0.01 0.04 0.11 0.09 0.05 0.05 0.03 0.01 0.01 0.00 0.01 0.01 0.01 0.00 0.00 0.00 0.00 0.00 0.00 0.00 0.00 0.00 0.00 0.00 0.00 0.00 0.00 0.00 0.00 0.00 0.00 0.00 0.00 0.00 0.00 0.00
0.00 0.00 0.00 0.00 0.00 0.00 0.00 0.00 0.00 0.00 0.00 0.00 0.01 0.03 0.01 0.00 0.00 0.00 0.01 0.04 0.05 0.05 0.05 0.03 0.01 0.01 0.01 0.01 0.02 0.01 0.00 0.00 0.00 0.00 0.01 0.00 0.00 0.00 0.00 0.00 0.00 0.00 0.00 0.00 0.00 0.00 0.00 0.00 0.00 0.00 0.00 0.00 0.00 0.00
0.00 0.01 0.00 0.00 0.00 0.00 0.00 0.00 0.01 0.01 0.01 0.01 0.02 0.02 0.00 0.00 0.00 0.02 0.02 0.04 0.04 0.04 0.04 0.03 0.02 0.00 0.01 0.00 0.00 0.00 0.00 0.00 0.00 0.00 0.00 0.00 0.00 0.00 0.00 0.00 0.00 0.00 0.01 0.00 0.00 0.00 0.00 0.00 0.00 0.00 0.00 0.00 0.00 0.00
0.00 0.00 0.00 0.01 0.00 0.00 0.00 0.00 0.00 0.00 0.01 0.01 0.01 0.00 0.00 0.00 0.01 0.04 0.05 0.04 0.03 0.04 0.03 0.02 0.01 0.01 0.01 0.01 0.01 0.00 0.00 0.00 0.00 0.00 0.00 0.00 0.00 0.00 0.00 0.00 0.01 0.01 0.01 0.00 0.01 0.00 0.01 0.00 0.00 0.00 0.00 0.00 0.00 0.01
0.00 0.00 0.00 0.00 0.00 0.00 0.00 0.00 0.00 0.01 0.02 0.01 0.00 0.00 0.00 0.00 0.02 0.04 0.05 0.05 0.02 0.01 0.00 0.00 0.00 0.01 0.01 0.00 0.01 0.01 0.00 0.00 0.00 0.00 0.00 0.00 0.00 0.00 0.00 0.01 0.00 0.00 0.00 0.00 0.00 0.01 0.01 0.01 0.01 0.01 0.00 0.00 0.00 0.00
0.00 0.00 0.00 0.00 0.00 0.00 0.01 0.01 0.01 0.01 0.02 0.00 0.00 0.00 0.01 0.02 0.04 0.05 0.06 0.04 0.02 0.01 0.01 0.00 0.00 0.00 0.00 0.00 0.00 0.00 0.00 0.00 0.00 0.00 0.00 0.00 0.00 0.00 0.01 0.00 0.01 0.00 0.00 0.00 0.00 0.00 0.01 0.01 0.01 0.00 0.00 0.00 0.00 0.00
0.00 0.00 0.00 0.00 0.00 0.01 0.01 0.01 0.01 0.01 0.00 0.00 0.00 0.01 0.01 0.03 0.06 0.05 0.03 0.02 0.01 0.01 0.01 0.00 0.00 0.00 0.00 0.00 0.00 0.00 0.00 0.00 0.00 0.00 0.00 0.00 0.01 0.01 0.01 0.01 0.01 0.01 0.01 0.01 0.00 0.00 0.00 0.00 0.00 0.00 0.00 0.00 0.00 0.00
0.00 0.00 0.00 0.00 0.02 0.02 0.01 0.00 0.00 0.00 0.00 0.00 0.00 0.00 0.01 0.02 0.03 0.02 0.01 0.01 0.00 0.00 0.00 0.00 0.00 0.00 0.00 0.00 0.00 0.00 0.00 0.00 0.00 0.00 0.00 0.00 0.00 0.00 0.00 0.01 0.01 0.01 0.01 0.00 0.00 0.00 0.00 0.00 0.00 0.00 0.00 0.00 0.00 0.00
0.00 0.00 0.00 0.00 0.03 0.04 0.03 0.03 0.00 0.00 0.00 0.00 0.00 0.01 0.01 0.00 0.01 0.01 0.01 0.00 0.00 0.01 0.00 0.00 0.01 0.01 0.00 0.00 0.00 0.00 0.00 0.00 0.00 0.00 0.00 0.01 0.01 0.00 0.00 0.00 0.01 0.00 0.00 0.00 0.00 0.00 0.00 0.00 0.00 0.00 0.00 0.00 0.00 0.00
0.00 0.00 0.00 0.00 0.02 0.03 0.03 0.02 0.01 0.01 0.01 0.01 0.01 0.01 0.01 0.00 0.00 0.01 0.01 0.00 0.00 0.00 0.00 0.00 0.00 0.00 0.00 0.00 0.00 0.00 0.00 0.00 0.00 0.00 0.00 0.00 0.00 0.00 0.00 0.00 0.00 0.00 0.00 0.00 0.00 0.00 0.00 0.00 0.00 0.00 0.00 0.00 0.00 0.00

GFSWCAN_prec_precacc12_036.txt.gz
Total_Precipitation_Accumulation
0.05 0.05 0.06 0.05 0.13 0.14 0.14 0.15 0.17 0.24 0.24 0.21 0.26 0.22 0.36 0.31 0.37 0.28 0.19 0.09 0.15 0.24 0.16 0.21 0.16 0.12 0.03 0.02 0.05 0.03 0.11 0.12 0.15 0.05 0.02 0.01 0.01 0.00 0.00 0.00 0.08 0.13 0.10 0.04 0.05 0.04 0.00 0.00 0.00 0.00 0.00 0.00 0.00 0.00
0.10 0.06 0.03 0.03 0.07 0.10 0.09 0.15 0.18 0.16 0.26 0.16 0.17 0.13 0.27 0.34 0.49 0.31 0.15 0.12 0.11 0.35 0.28 0.24 0.15 0.10 0.02 0.00 0.00 0.02 0.05 0.08 0.10 0.08 0.01 0.01 0.02 0.02 0.01 0.00 0.00 0.04 0.12 0.09 0.02 0.00 0.00 0.00 0.00 0.00 0.00 0.00 0.00 0.00
0.11 0.10 0.07 0.06 0.06 0.09 0.14 0.17 0.14 0.16 0.17 0.13 0.16 0.14 0.30 0.47 0.48 0.22 0.11 0.14 0.22 0.33 0.19 0.12 0.18 0.06 0.01 0.00 0.00 0.09 0.03 0.02 0.02 0.03 0.00 0.01 0.02 0.01 0.01 0.00 0.00 0.00 0.01 0.03 0.04 0.01 0.01 0.00 0.00 0.00 0.00 0.00 0.00 0.00
0.08 0.07 0.08 0.11 0.15 0.18 0.20 0.17 0.15 0.17 0.15 0.15 0.17 0.19 0.36 0.51 0.37 0.15 0.10 0.15 0.15 0.18 0.15 0.15 0.26 0.08 0.06 0.02 0.02 0.06 0.03 0.02 0.04 0.01 0.01 0.03 0.02 0.01 0.01 0.00 0.00 0.00 0.03 0.00 0.00 0.00 0.02 0.01 0.01 0.00 0.00 0.00 0.00 0.00
0.05 0.06 0.08 0.10 0.12 0.15 0.16 0.18 0.19 0.19 0.14 0.16 0.17 0.28 0.48 0.47 0.31 0.16 0.08 0.09 0.10 0.23 0.15 0.08 0.09 0.12 0.07 0.11 0.03 0.06 0.08 0.06 0.16 0.13 0.03 0.01 0.00 0.01 0.01 0.00 0.00 0.00 0.00 0.00 0.00 0.00 0.00 0.00 0.01 0.01 0.01 0.01 0.00 0.00
0.04 0.03 0.05 0.06 0.07 0.10 0.15 0.17 0.18 0.15 0.13 0.17 0.24 0.37 0.40 0.27 0.23 0.16 0.27 0.16 0.12 0.16 0.19 0.17 0.08 0.10 0.19 0.16 0.16 0.08 0.06 0.07 0.10 0.12 0.06 0.01 0.00 0.01 0.00 0.00 0.00 0.00 0.01 0.01 0.00 0.00 0.00 0.00 0.00 0.03 0.01 0.01 0.00 0.00
0.04 0.03 0.03 0.04 0.04 0.06 0.08 0.10 0.10 0.09 0.13 0.21 0.29 0.27 0.19 0.13 0.06 0.10 0.14 0.09 0.05 0.12 0.18 0.15 0.13 0.10 0.19 0.33 0.32 0.21 0.09 0.07 0.13 0.14 0.07 0.03 0.01 0.01 0.00 0.00 0.00 0.00 0.00 0.00 0.00 0.00 0.00 0.00 0.00 0.00 0.00 0.00 0.00 0.00
0.06 0.04 0.03 0.04 0.05 0.05 0.05 0.06 0.09 0.12 0.14 0.16 0.16 0.15 0.16 0.08 0.08 0.13 0.08 0.09 0.03 0.13 0.15 0.16 0.25 0.20 0.34 0.65 0.49 0.31 0.28 0.17 0.11 0.10 0.04 0.04 0.05 0.08 0.03 0.00 0.00 0.00 0.00 0.00 0.00 0.00 0.00 0.00 0.00 0.00 0.00 0.00 0.00 0.00
0.04 0.05 0.04 0.04 0.04 0.06 0.08 0.08 0.06 0.06 0.07 0.07 0.10 0.16 0.18 0.13 0.14 0.15 0.10 0.07 0.08 0.16 0.11 0.10 0.29 0.53 0.56 0.58 0.47 0.37 0.49 0.33 0.10 0.06 0.03 0.05 0.08 0.11 0.03 0.00 0.00 0.00 0.00 0.00 0.00 0.00 0.00 0.00 0.00 0.00 0.00 0.00 0.00 0.00
0.02 0.03 0.02 0.02 0.03 0.04 0.05 0.04 0.03 0.02 0.03 0.07 0.13 0.21 0.17 0.06 0.15 0.20 0.16 0.29 0.27 0.16 0.13 0.18 0.20 0.49 0.58 0.39 0.46 0.44 0.37 0.26 0.12 0.04 0.04 0.05 0.05 0.03 0.00 0.00 0.00 0.00 0.00 0.00 0.00 0.00 0.00 0.00 0.00 0.00 0.00 0.00 0.00 0.00
0.02 0.03 0.04 0.05 0.04 0.03 0.02 0.02 0.02 0.04 0.11 0.14 0.19 0.16 0.07 0.26 0.35 0.32 0.17 0.20 0.30 0.15 0.04 0.04 0.14 0.50 0.64 0.37 0.16 0.47 0.65 0.21 0.09 0.06 0.08 0.06 0.04 0.02 0.00 0.00 0.00 0.00 0.01 0.01 0.00 0.00 0.00 0.00 0.00 0.00 0.00 0.00 0.00 0.00
0.04 0.05 0.06 0.05 0.04 0.03 0.03 0.02 0.02 0.08 0.12 0.14 0.15 0.13 0.25 0.35 0.28 0.12 0.11 0.20 0.23 0.09 0.07 0.09 0.14 0.46 0.59 0.38 0.14 0.34 0.54 0.38 0.16 0.06 0.13 0.20 0.12 0.06 0.04 0.03 0.02 0.03 0.04 0.06 0.06 0.04 0.03 0.02 0.01 0.01 0.01 0.01 0.01 0.03
0.02 0.03 0.03 0.02 0.02 0.01 0.02 0.09 0.14 0.21 0.27 0.27 0.18 0.16 0.24 0.25 0.13 0.08 0.14 0.28 0.22 0.04 0.03 0.07 0.22 0.35 0.43 0.35 0.19 0.25 0.50 0.47 0.23 0.18 0.24 0.18 0.06 0.04 0.08 0.13 0.13 0.12 0.10 0.08 0.07 0.06 0.05 0.05 0.05 0.04 0.06 0.11 0.16 0.27
0.01 0.02 0.01 0.01 0.02 0.08 0.25 0.34 0.47 0.47 0.26 0.18 0.11 0.10 0.35 0.26 0.25 0.18 0.25 0.30 0.10 0.04 0.05 0.07 0.05 0.11 0.27 0.34 0.18 0.12 0.26 0.34 0.36 0.29 0.23 0.16 0.15 0.15 0.15 0.16 0.15 0.16 0.16 0.16 0.17 0.18 0.21 0.25 0.34 0.45 0.53 0.58 0.54 0.57
0.00 0.01 0.01 0.04 0.12 0.30 0.44 0.52 0.52 0.28 0.16 0.14 0.23 0.40 0.39 0.43 0.39 0.41 0.34 0.24 0.14 0.12 0.12 0.16 0.14 0.13 0.16 0.46 0.34 0.16 0.14 0.12 0.14 0.20 0.23 0.30 0.30 0.30 0.30 0.32 0.34 0.37 0.40 0.44 0.48 0.49 0.55 0.54 0.47 0.52 0.54 0.50 0.41 0.38
0.00 0.02 0.06 0.09 0.22 0.31 0.37 0.29 0.27 0.22 0.23 0.30 0.44 0.42 0.40 0.43 0.41 0.39 0.29 0.21 0.20 0.21 0.22 0.27 0.31 0.11 0.09 0.10 0.20 0.17 0.12 0.12 0.18 0.24 0.30 0.35 0.38 0.40 0.41 0.44 0.48 0.49 0.51 0.50 0.49 0.43 0.39 0.36 0.29 0.29 0.30 0.27 0.26 0.20
0.01 0.06 0.11 0.17 0.28 0.32 0.35 0.29 0.21 0.19 0.31 0.37 0.44 0.47 0.47 0.42 0.42 0.39 0.32 0.26 0.24 0.16 0.18 0.15 0.13 0.08 0.05 0.01 0.04 0.08 0.20 0.31 0.35 0.35 0.37 0.40 0.44 0.47 0.47 0.40 0.38 0.34 0.31 0.31 0.29 0.26 0.26 0.26 0.17 0.11 0.13 0.17 0.13 0.11
0.07 0.08 0.15 0.19 0.21 0.27 0.20 0.08 0.08 0.17 0.22 0.34 0.32 0.37 0.32 0.34 0.31 0.28 0.25 0.21 0.16 0.08 0.07 0.07 0.08 0.05 0.07 0.08 0.12 0.18 0.20 0.26 0.32 0.31 0.31 0.37 0.38 0.38 0.37 0.32 0.31 0.26 0.23 0.25 0.23 0.23 0.22 0.18 0.12 0.14 0.13 0.11 0.07 0.07
0.31 0.27 0.30 0.25 0.23 0.08 0.06 0.06 0.02 0.08 0.24 0.22 0.21 0.20 0.17 0.19 0.15 0.13 0.08 0.07 0.04 0.02 0.02 0.02 0.02 0.06 0.12 0.15 0.17 0.19 0.23 0.22 0.24 0.25 0.25 0.29 0.31 0.31 0.29 0.24 0.21 0.19 0.16 0.16 0.14 0.13 0.14 0.13 0.14 0.13 0.12 0.09 0.09 0.10
0.47 0.41 0.38 0.28 0.16 0.11 0.13 0.09 0.01 0.05 0.17 0.13 0.11 0.08 0.08 0.10 0.08 0.05 0.03 0.02 0.02 0.03 0.04 0.06 0.13 0.17 0.18 0.19 0.19 0.20 0.22 0.22 0.20 0.16 0.15 0.18 0.23 0.20 0.20 0.18 0.17 0.16 0.12 0.10 0.10 0.09 0.08 0.07 0.08 0.09 0.08 0.08 0.07 0.07
0.29 0.18 0.11 0.06 0.05 0.04 0.07 0.06 0.03 0.03 0.04 0.04 0.03 0.01 0.01 0.00 0.00 0.00 0.00 0.00 0.01 0.03 0.11 0.16 0.16 0.18 0.17 0.18 0.16 0.15 0.15 0.13 0.14 0.10 0.11 0.12 0.15 0.11 0.11 0.12 0.10 0.07 0.06 0.07 0.05 0.06 0.04 0.05 0.06 0.06 0.05 0.05 0.04 0.04
0.04 0.01 0.00 0.00 0.00 0.00 0.01 0.00 0.02 0.02 0.00 0.00 0.00 0.00 0.00 0.00 0.00 0.00 0.00 0.01 0.07 0.14 0.16 0.12 0.12 0.11 0.09 0.11 0.12 0.10 0.13 0.07 0.06 0.05 0.06 0.04 0.04 0.03 0.04 0.07 0.04 0.04 0.04 0.05 0.04 0.04 0.03 0.03 0.02 0.01 0.01 0.01 0.01 0.00
0.00 0.00 0.00 0.00 0.00 0.00 0.00 0.00 0.00 0.00 0.00 0.00 0.00 0.00 0.00 0.00 0.00 0.00 0.00 0.03 0.10 0.15 0.12 0.07 0.08 0.05 0.05 0.08 0.04 0.03 0.02 0.01 0.01 0.02 0.01 0.01 0.01 0.01 0.01 0.01 0.01 0.01 0.01 0.01 0.01 0.00 0.00 0.00 0.00 0.00 0.00 0.00 0.00 0.00
0.00 0.00 0.00 0.00 0.00 0.00 0.00 0.00 0.00 0.00 0.00 0.00 0.00 0.01 0.01 0.00 0.00 0.00 0.01 0.04 0.10 0.07 0.04 0.06 0.04 0.02 0.01 0.00 0.01 0.01 0.01 0.00 0.00 0.00 0.00 0.00 0.00 0.00 0.00 0.00 0.00 0.00 0.00 0.00 0.00 0.00 0.00 0.00 0.00 0.00 0.00 0.00 0.00 0.00
0.00 0.00 0.00 0.00 0.00 0.00 0.00 0.00 0.00 0.00 0.00 0.00 0.01 0.02 0.00 0.00 0.00 0.00 0.01 0.05 0.05 0.05 0.05 0.03 0.01 0.01 0.01 0.01 0.01 0.01 0.00 0.00 0.00 0.00 0.00 0.00 0.00 0.00 0.00 0.00 0.00 0.00 0.00 0.00 0.00 0.00 0.00 0.00 0.00 0.00 0.00 0.00 0.00 0.00
0.00 0.01 0.00 0.00 0.00 0.00 0.00 0.00 0.00 0.01 0.01 0.01 0.01 0.01 0.00 0.00 0.00 0.01 0.03 0.04 0.04 0.04 0.04 0.04 0.02 0.01 0.00 0.00 0.00 0.00 0.00 0.00 0.00 0.00 0.00 0.00 0.00 0.00 0.00 0.00 0.00 0.00 0.00 0.00 0.00 0.00 0.00 0.00 0.00 0.00 0.00 0.00 0.00 0.00
0.00 0.00 0.00 0.01 0.00 0.00 0.00 0.00 0.00 0.00 0.01 0.01 0.01 0.00 0.00 0.00 0.01 0.03 0.04 0.03 0.02 0.03 0.02 0.02 0.01 0.01 0.00 0.00 0.00 0.00 0.00 0.00 0.00 0.00 0.00 0.00 0.00 0.00 0.00 0.00 0.00 0.00 0.00 0.00 0.00 0.00 0.01 0.00 0.00 0.00 0.00 0.00 0.00 0.00
0.00 0.00 0.00 0.00 0.00 0.00 0.00 0.00 0.00 0.01 0.01 0.01 0.00 0.00 0.00 0.00 0.02 0.04 0.04 0.03 0.01 0.00 0.00 0.01 0.00 0.00 0.00 0.00 0.01 0.00 0.00 0.00 0.00 0.00 0.00 0.00 0.00 0.00 0.00 0.00 0.00 0.00 0.00 0.00 0.00 0.00 0.01 0.00 0.00 0.00 0.00 0.00 0.00 0.00
0.00 0.00 0.00 0.00 0.00 0.00 0.01 0.01 0.01 0.01 0.01 0.00 0.00 0.00 0.01 0.02 0.04 0.04 0.04 0.03 0.02 0.01 0.01 0.00 0.00 0.00 0.00 0.00 0.00 0.00 0.00 0.00 0.00 0.00 0.00 0.00 0.00 0.00 0.00 0.00 0.01 0.01 0.00 0.00 0.00 0.00 0.00 0.00 0.00 0.00 0.00 0.00 0.00 0.00
0.00 0.00 0.00 0.00 0.00 0.01 0.02 0.01 0.01 0.01 0.00 0.00 0.00 0.01 0.01 0.03 0.05 0.05 0.03 0.03 0.02 0.02 0.01 0.01 0.01 0.01 0.00 0.01 0.00 0.00 0.00 0.00 0.00 0.00 0.00 0.00 0.00 0.00 0.01 0.01 0.01 0.01 0.01 0.01 0.00 0.00 0.00 0.00 0.00 0.00 0.00 0.00 0.00 0.00
0.00 0.00 0.00 0.00 0.01 0.01 0.01 0.01 0.00 0.00 0.00 0.00 0.00 0.00 0.01 0.02 0.03 0.02 0.02 0.01 0.01 0.00 0.01 0.01 0.01 0.01 0.00 0.00 0.00 0.00 0.00 0.00 0.00 0.00 0.00 0.00 0.00 0.01 0.01 0.01 0.01 0.01 0.01 0.00 0.00 0.00 0.00 0.00 0.00 0.00 0.00 0.00 0.00 0.00
0.00 0.00 0.00 0.00 0.02 0.02 0.02 0.03 0.01 0.01 0.01 0.00 0.01 0.01 0.01 0.01 0.01 0.01 0.01 0.01 0.01 0.01 0.01 0.01 0.01 0.01 0.00 0.00 0.00 0.00 0.00 0.00 0.00 0.00 0.00 0.00 0.01 0.01 0.00 0.00 0.01 0.01 0.00 0.00 0.00 0.00 0.00 0.00 0.00 0.00 0.00 0.00 0.00 0.00
0.00 0.00 0.00 0.00 0.01 0.02 0.02 0.02 0.00 0.00 0.00 0.01 0.01 0.01 0.01 0.00 0.01 0.01 0.01 0.01 0.02 0.01 0.00 0.01 0.01 0.00 0.00 0.00 0.00 0.00 0.00 0.00 0.00 0.00 0.00 0.00 0.00 0.00 0.00 0.00 0.00 0.00 0.00 0.00 0.00 0.00 0.00 0.00 0.00 0.00 0.00 0.00 0.00 0.00

GFSWCAN_prec_precacc12_039.txt.gz
Total_Precipitation_Accumulation
0.04 0.02 0.03 0.02 0.07 0.10 0.09 0.14 0.15 0.18 0.15 0.09 0.17 0.23 0.44 0.39 0.40 0.33 0.21 0.12 0.28 0.42 0.20 0.18 0.15 0.11 0.03 0.02 0.06 0.03 0.12 0.12 0.16 0.07 0.03 0.03 0.03 0.01 0.00 0.01 0.08 0.15 0.18 0.16 0.14 0.05 0.00 0.00 0.00 0.00 0.00 0.00 0.00 0.00
0.04 0.03 0.02 0.02 0.05 0.08 0.05 0.10 0.13 0.09 0.18 0.09 0.13 0.20 0.35 0.50 0.59 0.35 0.20 0.17 0.17 0.32 0.45 0.16 0.12 0.09 0.02 0.00 0.01 0.03 0.05 0.08 0.11 0.10 0.02 0.01 0.02 0.01 0.01 0.00 0.00 0.04 0.12 0.12 0.08 0.02 0.00 0.00 0.00 0.00 0.00 0.00 0.00 0.00
0.07 0.03 0.02 0.03 0.03 0.03 0.05 0.07 0.05 0.07 0.14 0.12 0.14 0.22 0.38 0.63 0.62 0.28 0.15 0.21 0.36 0.34 0.40 0.32 0.13 0.04 0.01 0.00 0.01 0.13 0.04 0.03 0.05 0.06 0.03 0.04 0.03 0.01 0.01 0.00 0.00 0.00 0.01 0.03 0.04 0.02 0.03 0.02 0.02 0.00 0.00 0.00 0.00 0.00
0.08 0.02 0.03 0.03 0.02 0.03 0.03 0.03 0.04 0.06 0.10 0.13 0.17 0.25 0.46 0.63 0.43 0.18 0.12 0.18 0.25 0.18 0.26 0.26 0.18 0.06 0.02 0.01 0.05 0.09 0.05 0.06 0.06 0.05 0.05 0.09 0.03 0.00 0.00 0.00 0.00 0.00 0.03 0.03 0.02 0.01 0.02 0.03 0.12 0.09 0.04 0.02 0.01 0.01
0.05 0.05 0.05 0.04 0.05 0.05 0.06 0.10 0.12 0.13 0.13 0.17 0.18 0.31 0.57 0.51 0.31 0.19 0.13 0.17 0.11 0.11 0.11 0.10 0.09 0.09 0.04 0.02 0.05 0.08 0.10 0.15 0.23 0.16 0.07 0.04 0.02 0.02 0.01 0.01 0.00 0.00 0.00 0.00 0.01 0.00 0.00 0.00 0.02 0.03 0.08 0.09 0.04 0.02
0.05 0.06 0.05 0.06 0.07 0.10 0.14 0.17 0.22 0.18 0.16 0.18 0.26 0.42 0.45 0.30 0.24 0.23 0.50 0.43 0.14 0.16 0.15 0.15 0.06 0.08 0.16 0.07 0.08 0.05 0.09 0.15 0.26 0.25 0.12 0.03 0.01 0.03 0.01 0.00 0.00 0.00 0.00 0.00 0.00 0.00 0.00 0.00 0.00 0.03 0.01 0.01 0.02 0.02
0.06 0.05 0.04 0.04 0.07 0.08 0.10 0.11 0.11 0.12 0.15 0.21 0.29 0.27 0.19 0.16 0.12 0.10 0.21 0.12 0.03 0.07 0.12 0.13 0.12 0.08 0.18 0.31 0.26 0.15 0.09 0.15 0.40 0.35 0.16 0.07 0.03 0.04 0.01 0.00 0.00 0.00 0.00 0.00 0.00 0.00 0.00 0.00 0.00 0.00 0.00 0.00 0.00 0.00
0.07 0.05 0.03 0.04 0.05 0.05 0.04 0.06 0.10 0.13 0.16 0.18 0.21 0.20 0.21 0.15 0.09 0.08 0.04 0.01 0.00 0.09 0.13 0.14 0.21 0.20 0.33 0.61 0.45 0.28 0.29 0.22 0.26 0.43 0.17 0.10 0.11 0.18 0.08 0.01 0.00 0.00 0.00 0.00 0.00 0.00 0.00 0.00 0.00 0.00 0.00 0.00 0.00 0.00
0.06 0.05 0.04 0.03 0.04 0.06 0.08 0.12 0.13 0.14 0.16 0.17 0.16 0.15 0.16 0.12 0.13 0.12 0.03 0.01 0.05 0.16 0.11 0.10 0.26 0.53 0.57 0.50 0.42 0.34 0.48 0.34 0.14 0.14 0.10 0.14 0.16 0.16 0.07 0.00 0.00 0.00 0.00 0.00 0.00 0.00 0.00 0.00 0.00 0.00 0.00 0.00 0.00 0.00
0.03 0.04 0.03 0.03 0.03 0.04 0.06 0.07 0.07 0.06 0.06 0.06 0.09 0.12 0.15 0.07 0.13 0.14 0.08 0.09 0.12 0.11 0.08 0.10 0.18 0.51 0.65 0.40 0.36 0.38 0.36 0.26 0.13 0.05 0.06 0.09 0.11 0.08 0.01 0.00 0.00 0.00 0.00 0.00 0.00 0.00 0.00 0.00 0.00 0.00 0.00 0.00 0.00 0.00
0.04 0.05 0.06 0.07 0.06 0.06 0.05 0.04 0.03 0.03 0.03 0.06 0.09 0.09 0.07 0.20 0.32 0.22 0.06 0.07 0.08 0.04 0.01 0.03 0.11 0.46 0.66 0.46 0.17 0.31 0.48 0.20 0.10 0.07 0.09 0.07 0.07 0.04 0.01 0.01 0.01 0.00 0.00 0.00 0.00 0.00 0.00 0.00 0.00 0.00 0.00 0.00 0.00 0.00
0.05 0.06 0.07 0.08 0.08 0.10 0.11 0.10 0.07 0.07 0.07 0.08 0.10 0.09 0.21 0.30 0.26 0.09 0.05 0.04 0.03 0.04 0.10 0.14 0.20 0.57 0.66 0.49 0.17 0.25 0.45 0.28 0.18 0.10 0.14 0.22 0.13 0.03 0.01 0.00 0.00 0.00 0.00 0.00 0.00 0.01 0.01 0.02 0.01 0.01 0.01 0.01 0.01 0.02
0.03 0.04 0.03 0.02 0.02 0.02 0.02 0.02 0.04 0.09 0.13 0.18 0.15 0.15 0.21 0.19 0.14 0.08 0.08 0.10 0.13 0.07 0.08 0.12 0.40 0.72 0.54 0.50 0.21 0.12 0.40 0.44 0.31 0.27 0.24 0.21 0.07 0.03 0.02 0.02 0.01 0.02 0.06 0.07 0.06 0.07 0.06 0.06 0.05 0.04 0.04 0.08 0.12 0.23
0.02 0.02 0.02 0.01 0.01 0.05 0.12 0.09 0.12 0.17 0.08 0.13 0.10 0.06 0.16 0.14 0.18 0.13 0.16 0.24 0.10 0.03 0.03 0.23 0.41 0.54 0.51 0.52 0.28 0.18 0.41 0.48 0.38 0.31 0.22 0.16 0.15 0.16 0.17 0.19 0.16 0.18 0.20 0.20 0.22 0.22 0.24 0.26 0.32 0.40 0.47 0.53 0.49 0.57
0.00 0.01 0.01 0.04 0.08 0.16 0.17 0.19 0.21 0.11 0.08 0.09 0.11 0.19 0.19 0.26 0.22 0.25 0.26 0.22 0.13 0.11 0.11 0.24 0.35 0.33 0.38 0.50 0.32 0.24 0.25 0.24 0.16 0.16 0.18 0.26 0.30 0.34 0.36 0.39 0.39 0.40 0.42 0.44 0.47 0.46 0.51 0.50 0.44 0.51 0.56 0.53 0.45 0.46
0.00 0.01 0.06 0.07 0.15 0.13 0.19 0.15 0.11 0.08 0.15 0.19 0.28 0.28 0.26 0.29 0.30 0.31 0.25 0.19 0.19 0.20 0.22 0.32 0.33 0.15 0.16 0.11 0.15 0.13 0.07 0.12 0.17 0.20 0.25 0.27 0.30 0.35 0.37 0.38 0.41 0.40 0.40 0.41 0.42 0.39 0.38 0.35 0.31 0.33 0.34 0.32 0.33 0.27
0.00 0.05 0.08 0.12 0.12 0.10 0.08 0.04 0.04 0.16 0.26 0.32 0.35 0.38 0.43 0.39 0.40 0.37 0.30 0.25 0.22 0.15 0.17 0.16 0.16 0.10 0.06 0.03 0.04 0.08 0.17 0.24 0.24 0.26 0.28 0.30 0.33 0.37 0.36 0.31 0.31 0.28 0.27 0.28 0.26 0.23 0.25 0.26 0.18 0.12 0.16 0.22 0.16 0.15
0.02 0.03 0.07 0.11 0.12 0.16 0.10 0.05 0.12 0.19 0.22 0.33 0.30 0.34 0.32 0.33 0.32 0.28 0.24 0.19 0.15 0.07 0.06 0.07 0.06 0.02 0.04 0.06 0.11 0.16 0.15 0.18 0.23 0.27 0.31 0.35 0.33 0.32 0.29 0.25 0.26 0.23 0.20 0.21 0.18 0.18 0.18 0.15 0.12 0.16 0.15 0.14 0.09 0.09
0.12 0.12 0.14 0.14 0.13 0.06 0.07 0.09 0.03 0.08 0.24 0.24 0.22 0.21 0.19 0.21 0.18 0.14 0.09 0.07 0.04 0.02 0.02 0.03 0.03 0.07 0.12 0.15 0.17 0.17 0.18 0.17 0.18 0.21 0.23 0.26 0.27 0.26 0.23 0.19 0.15 0.14 0.12 0.13 0.10 0.09 0.10 0.10 0.11 0.10 0.09 0.06 0.06 0.09
0.34 0.26 0.21 0.13 0.08 0.03 0.04 0.10 0.02 0.06 0.19 0.17 0.18 0.11 0.10 0.14 0.12 0.06 0.03 0.02 0.02 0.03 0.04 0.08 0.15 0.19 0.18 0.19 0.18 0.19 0.19 0.18 0.14 0.13 0.15 0.17 0.19 0.16 0.16 0.13 0.12 0.11 0.07 0.06 0.06 0.05 0.04 0.03 0.03 0.04 0.04 0.04 0.04 0.04
0.29 0.15 0.08 0.04 0.05 0.04 0.06 0.06 0.05 0.04 0.09 0.11 0.09 0.04 0.06 0.02 0.02 0.01 0.01 0.01 0.02 0.05 0.14 0.17 0.15 0.17 0.14 0.14 0.12 0.10 0.11 0.09 0.11 0.09 0.10 0.11 0.13 0.08 0.07 0.07 0.06 0.04 0.03 0.03 0.03 0.03 0.02 0.02 0.03 0.02 0.02 0.02 0.02 0.02
0.04 0.01 0.00 0.00 0.00 0.00 0.01 0.01 0.02 0.03 0.01 0.01 0.01 0.00 0.00 0.00 0.00 0.00 0.00 0.01 0.08 0.14 0.14 0.09 0.10 0.09 0.07 0.10 0.10 0.07 0.08 0.04 0.04 0.03 0.04 0.03 0.03 0.02 0.02 0.03 0.01 0.01 0.01 0.01 0.01 0.01 0.00 0.00 0.00 0.00 0.00 0.01 0.00 0.00
0.00 0.00 0.00 0.00 0.00 0.00 0.00 0.00 0.00 0.00 0.00 0.00 0.00 0.00 0.00 0.00 0.00 0.00 0.01 0.04 0.13 0.15 0.09 0.06 0.07 0.04 0.04 0.05 0.03 0.02 0.02 0.01 0.00 0.01 0.00 0.00 0.00 0.00 0.00 0.00 0.00 0.00 0.00 0.00 0.00 0.00 0.00 0.00 0.00 0.00 0.00 0.00 0.00 0.00
0.00 0.00 0.00 0.00 0.00 0.00 0.00 0.00 0.00 0.00 0.00 0.00 0.00 0.00 0.01 0.00 0.00 0.00 0.02 0.06 0.10 0.08 0.07 0.07 0.03 0.01 0.01 0.00 0.00 0.00 0.00 0.00 0.00 0.00 0.00 0.00 0.00 0.00 0.00 0.00 0.00 0.00 0.00 0.00 0.00 0.00 0.00 0.00 0.00 0.00 0.00 0.00 0.00 0.00
0.00 0.00 0.00 0.00 0.00 0.00 0.00 0.00 0.00 0.00 0.00 0.00 0.00 0.01 0.00 0.00 0.00 0.00 0.02 0.06 0.05 0.05 0.05 0.03 0.01 0.01 0.01 0.01 0.00 0.00 0.00 0.00 0.00 0.00 0.00 0.00 0.00 0.00 0.00 0.00 0.00 0.00 0.00 0.00 0.00 0.00 0.00 0.00 0.00 0.00 0.00 0.00 0.00 0.00
0.00 0.01 0.00 0.00 0.00 0.00 0.00 0.00 0.00 0.00 0.00 0.01 0.01 0.00 0.00 0.00 0.00 0.02 0.04 0.06 0.03 0.04 0.05 0.05 0.02 0.01 0.00 0.00 0.00 0.00 0.00 0.00 0.00 0.00 0.00 0.00 0.00 0.00 0.00 0.00 0.00 0.00 0.00 0.00 0.00 0.00 0.00 0.00 0.00 0.00 0.00 0.00 0.00 0.00
0.00 0.00 0.00 0.00 0.00 0.00 0.00 0.00 0.00 0.00 0.01 0.01 0.01 0.00 0.00 0.00 0.01 0.03 0.05 0.04 0.02 0.03 0.02 0.02 0.01 0.01 0.00 0.00 0.00 0.00 0.00 0.00 0.00 0.00 0.00 0.00 0.00 0.00 0.00 0.00 0.00 0.00 0.00 0.00 0.00 0.00 0.00 0.00 0.00 0.00 0.00 0.00 0.00 0.00
0.00 0.00 0.00 0.00 0.00 0.00 0.00 0.00 0.00 0.00 0.01 0.00 0.00 0.00 0.00 0.01 0.03 0.06 0.03 0.02 0.01 0.00 0.00 0.01 0.00 0.00 0.00 0.00 0.01 0.01 0.00 0.00 0.00 0.00 0.00 0.00 0.00 0.00 0.00 0.00 0.00 0.00 0.00 0.00 0.00 0.00 0.00 0.00 0.00 0.00 0.00 0.00 0.00 0.00
0.00 0.00 0.00 0.00 0.00 0.00 0.01 0.01 0.00 0.01 0.01 0.01 0.00 0.00 0.01 0.03 0.05 0.04 0.04 0.02 0.01 0.01 0.01 0.00 0.01 0.00 0.00 0.00 0.00 0.00 0.00 0.00 0.00 0.00 0.00 0.00 0.01 0.01 0.00 0.00 0.01 0.01 0.00 0.00 0.00 0.00 0.00 0.00 0.00 0.00 0.00 0.00 0.00 0.01
0.00 0.00 0.00 0.00 0.00 0.01 0.02 0.01 0.02 0.02 0.00 0.00 0.00 0.01 0.01 0.04 0.06 0.04 0.04 0.04 0.03 0.02 0.02 0.01 0.01 0.01 0.01 0.01 0.00 0.00 0.00 0.00 0.00 0.00 0.00 0.00 0.00 0.00 0.01 0.01 0.01 0.01 0.01 0.01 0.00 0.00 0.00 0.00 0.00 0.00 0.00 0.00 0.00 0.00
0.00 0.00 0.00 0.00 0.01 0.01 0.01 0.01 0.01 0.00 0.00 0.00 0.00 0.00 0.01 0.03 0.02 0.02 0.02 0.01 0.01 0.00 0.01 0.01 0.01 0.01 0.01 0.00 0.00 0.00 0.01 0.00 0.00 0.00 0.00 0.00 0.00 0.01 0.01 0.01 0.01 0.01 0.01 0.00 0.00 0.00 0.00 0.00 0.00 0.00 0.00 0.00 0.00 0.00
0.00 0.00 0.00 0.00 0.01 0.02 0.04 0.05 0.02 0.01 0.01 0.00 0.01 0.01 0.02 0.01 0.01 0.01 0.01 0.01 0.02 0.02 0.01 0.02 0.02 0.01 0.00 0.00 0.00 0.00 0.00 0.00 0.00 0.00 0.00 0.00 0.01 0.01 0.00 0.00 0.01 0.01 0.01 0.00 0.00 0.00 0.00 0.00 0.00 0.00 0.00 0.00 0.00 0.00
0.00 0.00 0.00 0.00 0.01 0.01 0.02 0.01 0.00 0.00 0.00 0.01 0.01 0.01 0.01 0.01 0.01 0.02 0.00 0.01 0.03 0.02 0.01 0.01 0.01 0.00 0.00 0.00 0.00 0.00 0.00 0.00 0.00 0.00 0.00 0.00 0.00 0.00 0.00 0.00 0.00 0.00 0.00 0.00 0.00 0.00 0.00 0.00 0.00 0.00 0.00 0.00 0.00 0.00

GFSWCAN_prec_precacc12_042.txt.gz
Total_Precipitation_Accumulation
0.04 0.02 0.01 0.01 0.04 0.03 0.04 0.12 0.10 0.15 0.12 0.10 0.17 0.16 0.29 0.31 0.36 0.38 0.24 0.15 0.31 0.58 0.27 0.11 0.10 0.06 0.02 0.02 0.05 0.03 0.12 0.12 0.16 0.07 0.03 0.03 0.03 0.01 0.01 0.01 0.08 0.15 0.19 0.19 0.21 0.16 0.05 0.01 0.00 0.00 0.00 0.00 0.00 0.00
0.03 0.03 0.03 0.03 0.04 0.03 0.02 0.07 0.10 0.08 0.17 0.09 0.11 0.15 0.26 0.37 0.51 0.41 0.29 0.20 0.18 0.35 0.45 0.07 0.05 0.07 0.02 0.00 0.01 0.03 0.05 0.09 0.12 0.11 0.02 0.01 0.02 0.01 0.01 0.01 0.01 0.05 0.12 0.13 0.10 0.06 0.02 0.02 0.01 0.00 0.00 0.00 0.01 0.01
0.06 0.05 0.03 0.04 0.03 0.02 0.03 0.06 0.05 0.07 0.14 0.12 0.10 0.17 0.31 0.50 0.58 0.43 0.31 0.26 0.37 0.35 0.45 0.32 0.06 0.04 0.02 0.01 0.01 0.13 0.04 0.04 0.07 0.07 0.06 0.05 0.03 0.01 0.01 0.00 0.01 0.01 0.01 0.03 0.04 0.02 0.03 0.03 0.02 0.01 0.00 0.00 0.01 0.00
0.10 0.02 0.03 0.03 0.02 0.02 0.02 0.02 0.03 0.04 0.08 0.11 0.12 0.19 0.38 0.55 0.45 0.40 0.32 0.20 0.26 0.20 0.33 0.39 0.17 0.03 0.02 0.02 0.07 0.10 0.05 0.08 0.09 0.07 0.07 0.11 0.04 0.01 0.00 0.00 0.01 0.02 0.05 0.04 0.02 0.01 0.02 0.03 0.12 0.09 0.04 0.02 0.01 0.01
0.06 0.03 0.01 0.02 0.01 0.02 0.02 0.04 0.06 0.07 0.08 0.11 0.11 0.23 0.44 0.42 0.40 0.46 0.24 0.17 0.13 0.16 0.12 0.24 0.10 0.04 0.01 0.02 0.06 0.11 0.13 0.18 0.31 0.20 0.08 0.04 0.02 0.03 0.03 0.03 0.00 0.01 0.02 0.02 0.02 0.00 0.00 0.00 0.02 0.03 0.08 0.09 0.04 0.03
0.08 0.07 0.02 0.02 0.02 0.04 0.06 0.10 0.14 0.12 0.10 0.12 0.19 0.34 0.36 0.31 0.43 0.44 0.62 0.49 0.24 0.31 0.19 0.18 0.07 0.04 0.04 0.04 0.07 0.06 0.14 0.22 0.33 0.37 0.15 0.02 0.01 0.04 0.03 0.02 0.04 0.04 0.03 0.01 0.00 0.00 0.00 0.00 0.00 0.03 0.01 0.03 0.04 0.02
0.09 0.06 0.07 0.09 0.07 0.06 0.09 0.10 0.11 0.11 0.14 0.21 0.28 0.26 0.22 0.28 0.21 0.20 0.24 0.15 0.18 0.41 0.16 0.10 0.12 0.07 0.08 0.08 0.10 0.12 0.13 0.30 0.53 0.50 0.22 0.06 0.05 0.09 0.05 0.03 0.02 0.02 0.01 0.00 0.00 0.00 0.00 0.00 0.01 0.00 0.00 0.00 0.00 0.00
0.07 0.05 0.07 0.06 0.05 0.05 0.04 0.06 0.11 0.14 0.16 0.19 0.26 0.31 0.31 0.22 0.26 0.10 0.03 0.02 0.11 0.19 0.03 0.05 0.16 0.17 0.29 0.38 0.18 0.15 0.16 0.22 0.26 0.52 0.28 0.11 0.12 0.23 0.19 0.05 0.00 0.00 0.00 0.00 0.00 0.00 0.00 0.00 0.00 0.00 0.00 0.00 0.00 0.00
0.06 0.05 0.05 0.04 0.04 0.06 0.09 0.12 0.14 0.16 0.22 0.31 0.36 0.31 0.27 0.24 0.23 0.10 0.04 0.05 0.06 0.04 0.03 0.07 0.21 0.51 0.53 0.48 0.40 0.25 0.28 0.20 0.14 0.18 0.27 0.30 0.25 0.32 0.23 0.04 0.00 0.00 0.00 0.00 0.00 0.00 0.00 0.00 0.00 0.00 0.00 0.00 0.00 0.00
0.03 0.04 0.05 0.04 0.04 0.07 0.09 0.10 0.10 0.15 0.20 0.15 0.10 0.11 0.22 0.14 0.09 0.06 0.06 0.03 0.02 0.04 0.04 0.09 0.17 0.51 0.64 0.38 0.34 0.27 0.24 0.19 0.09 0.05 0.21 0.48 0.42 0.17 0.04 0.06 0.04 0.01 0.01 0.01 0.00 0.00 0.00 0.00 0.00 0.00 0.00 0.00 0.00 0.00
0.04 0.04 0.06 0.07 0.08 0.09 0.09 0.06 0.05 0.04 0.03 0.04 0.05 0.09 0.09 0.07 0.20 0.19 0.05 0.03 0.04 0.03 0.01 0.03 0.11 0.36 0.64 0.47 0.18 0.28 0.37 0.17 0.09 0.08 0.14 0.28 0.14 0.08 0.01 0.02 0.02 0.01 0.01 0.02 0.03 0.05 0.06 0.02 0.00 0.00 0.00 0.00 0.00 0.00
0.05 0.04 0.05 0.08 0.10 0.12 0.14 0.11 0.07 0.07 0.05 0.04 0.05 0.08 0.15 0.25 0.26 0.06 0.03 0.03 0.02 0.04 0.10 0.15 0.20 0.50 0.62 0.57 0.22 0.26 0.46 0.25 0.16 0.12 0.16 0.25 0.16 0.04 0.01 0.01 0.01 0.01 0.01 0.00 0.00 0.01 0.02 0.02 0.01 0.00 0.00 0.00 0.00 0.00
0.03 0.02 0.02 0.02 0.02 0.02 0.02 0.01 0.01 0.02 0.06 0.11 0.12 0.13 0.19 0.18 0.12 0.07 0.05 0.04 0.08 0.12 0.14 0.17 0.44 0.77 0.54 0.60 0.24 0.12 0.41 0.44 0.30 0.25 0.21 0.20 0.08 0.04 0.03 0.02 0.02 0.02 0.02 0.02 0.02 0.02 0.02 0.03 0.04 0.04 0.04 0.06 0.07 0.13
0.03 0.02 0.01 0.00 0.00 0.00 0.00 0.01 0.01 0.02 0.05 0.10 0.07 0.05 0.11 0.10 0.12 0.11 0.09 0.08 0.08 0.04 0.04 0.28 0.60 0.70 0.53 0.54 0.30 0.16 0.44 0.55 0.33 0.21 0.16 0.13 0.10 0.11 0.11 0.14 0.14 0.18 0.21 0.21 0.23 0.22 0.22 0.21 0.26 0.32 0.38 0.44 0.39 0.48
0.00 0.00 0.00 0.00 0.00 0.00 0.00 0.01 0.01 0.01 0.06 0.03 0.01 0.06 0.08 0.18 0.10 0.07 0.05 0.06 0.06 0.05 0.08 0.25 0.55 0.52 0.47 0.46 0.20 0.18 0.24 0.27 0.16 0.13 0.16 0.20 0.19 0.20 0.24 0.30 0.35 0.42 0.45 0.47 0.48 0.44 0.47 0.44 0.37 0.45 0.50 0.46 0.38 0.39
0.00 0.01 0.03 0.02 0.05 0.03 0.06 0.03 0.00 0.00 0.07 0.04 0.09 0.13 0.09 0.11 0.08 0.07 0.06 0.07 0.08 0.10 0.21 0.45 0.51 0.35 0.26 0.13 0.11 0.14 0.12 0.20 0.24 0.21 0.23 0.24 0.26 0.31 0.33 0.32 0.32 0.32 0.31 0.31 0.32 0.29 0.29 0.27 0.25 0.29 0.28 0.27 0.28 0.23
0.00 0.04 0.07 0.09 0.08 0.03 0.02 0.00 0.02 0.10 0.16 0.18 0.22 0.21 0.20 0.20 0.21 0.21 0.17 0.16 0.16 0.16 0.30 0.25 0.26 0.25 0.16 0.07 0.06 0.12 0.22 0.29 0.26 0.26 0.27 0.28 0.30 0.31 0.28 0.22 0.23 0.20 0.18 0.19 0.18 0.15 0.18 0.20 0.13 0.08 0.13 0.19 0.15 0.15
0.01 0.03 0.03 0.04 0.03 0.03 0.01 0.03 0.09 0.12 0.18 0.26 0.25 0.28 0.25 0.27 0.27 0.24 0.21 0.17 0.14 0.10 0.13 0.11 0.09 0.05 0.07 0.08 0.12 0.19 0.17 0.17 0.18 0.23 0.27 0.31 0.29 0.27 0.23 0.20 0.21 0.17 0.14 0.15 0.13 0.13 0.13 0.11 0.09 0.13 0.13 0.13 0.08 0.07
0.05 0.09 0.15 0.11 0.06 0.03 0.04 0.08 0.03 0.07 0.21 0.22 0.21 0.20 0.19 0.23 0.19 0.16 0.10 0.07 0.04 0.02 0.02 0.03 0.03 0.08 0.13 0.16 0.16 0.16 0.16 0.13 0.15 0.18 0.20 0.22 0.21 0.20 0.17 0.14 0.11 0.10 0.09 0.10 0.07 0.07 0.07 0.06 0.07 0.07 0.06 0.03 0.05 0.07
0.17 0.16 0.15 0.08 0.03 0.01 0.03 0.10 0.02 0.05 0.19 0.18 0.19 0.12 0.12 0.17 0.14 0.06 0.03 0.02 0.02 0.03 0.05 0.08 0.16 0.19 0.17 0.18 0.14 0.15 0.16 0.13 0.10 0.09 0.13 0.15 0.15 0.11 0.12 0.09 0.08 0.07 0.04 0.03 0.02 0.02 0.01 0.01 0.01 0.01 0.01 0.01 0.01 0.02
0.15 0.07 0.03 0.02 0.04 0.02 0.05 0.06 0.06 0.06 0.12 0.16 0.11 0.06 0.11 0.03 0.02 0.02 0.01 0.01 0.02 0.06 0.15 0.17 0.15 0.17 0.11 0.11 0.08 0.06 0.08 0.06 0.08 0.07 0.08 0.10 0.10 0.05 0.04 0.03 0.02 0.01 0.01 0.01 0.00 0.00 0.00 0.01 0.01 0.01 0.01 0.00 0.00 0.00
0.02 0.00 0.00 0.00 0.00 0.00 0.01 0.01 0.03 0.04 0.02 0.04 0.02 0.01 0.02 0.00 0.00 0.00 0.00 0.01 0.11 0.15 0.13 0.08 0.10 0.07 0.06 0.09 0.09 0.05 0.05 0.03 0.02 0.02 0.02 0.02 0.01 0.01 0.01 0.01 0.00 0.00 0.00 0.00 0.00 0.00 0.00 0.00 0.00 0.00 0.00 0.01 0.00 0.00
0.00 0.00 0.00 0.00 0.00 0.00 0.00 0.00 0.00 0.01 0.00 0.00 0.00 0.00 0.00 0.00 0.00 0.00 0.01 0.06 0.17 0.15 0.06 0.04 0.05 0.03 0.04 0.04 0.02 0.01 0.00 0.00 0.00 0.00 0.00 0.00 0.00 0.00 0.00 0.00 0.00 0.00 0.00 0.00 0.00 0.00 0.00 0.00 0.00 0.00 0.00 0.00 0.00 0.00
0.00 0.00 0.00 0.00 0.00 0.00 0.00 0.00 0.00 0.00 0.00 0.00 0.00 0.00 0.01 0.00 0.00 0.00 0.03 0.08 0.13 0.09 0.06 0.05 0.02 0.01 0.00 0.00 0.00 0.00 0.00 0.00 0.00 0.00 0.00 0.00 0.00 0.00 0.00 0.00 0.00 0.00 0.00 0.00 0.00 0.00 0.00 0.00 0.00 0.00 0.00 0.00 0.00 0.00
0.00 0.00 0.00 0.00 0.00 0.00 0.00 0.00 0.00 0.00 0.00 0.00 0.00 0.00 0.00 0.00 0.00 0.01 0.02 0.07 0.06 0.06 0.04 0.02 0.01 0.01 0.01 0.01 0.00 0.00 0.00 0.00 0.00 0.00 0.00 0.00 0.00 0.00 0.00 0.00 0.00 0.00 0.00 0.00 0.00 0.00 0.00 0.00 0.00 0.00 0.00 0.00 0.00 0.00
0.00 0.00 0.00 0.00 0.00 0.00 0.00 0.00 0.00 0.00 0.00 0.01 0.01 0.00 0.00 0.00 0.00 0.02 0.04 0.06 0.03 0.04 0.06 0.04 0.02 0.00 0.00 0.00 0.00 0.00 0.00 0.00 0.00 0.00 0.00 0.00 0.00 0.00 0.00 0.00 0.00 0.00 0.00 0.00 0.00 0.00 0.00 0.00 0.00 0.00 0.00 0.00 0.00 0.00
0.00 0.00 0.00 0.00 0.00 0.00 0.00 0.00 0.00 0.00 0.01 0.01 0.01 0.00 0.00 0.00 0.01 0.03 0.06 0.03 0.02 0.03 0.02 0.02 0.01 0.00 0.00 0.00 0.00 0.00 0.00 0.00 0.00 0.00 0.00 0.00 0.00 0.00 0.00 0.00 0.00 0.00 0.00 0.00 0.00 0.00 0.00 0.00 0.00 0.00 0.00 0.00 0.00 0.00
0.00 0.00 0.00 0.00 0.00 0.00 0.00 0.00 0.00 0.00 0.01 0.01 0.00 0.00 0.00 0.01 0.04 0.06 0.03 0.02 0.01 0.01 0.00 0.00 0.00 0.00 0.00 0.01 0.01 0.00 0.00 0.00 0.00 0.00 0.00 0.01 0.00 0.00 0.00 0.00 0.00 0.00 0.00 0.00 0.00 0.00 0.00 0.00 0.00 0.00 0.00 0.00 0.00 0.00
0.00 0.00 0.00 0.00 0.00 0.00 0.01 0.00 0.01 0.01 0.01 0.01 0.00 0.01 0.01 0.04 0.05 0.04 0.03 0.01 0.01 0.01 0.01 0.01 0.01 0.00 0.00 0.00 0.00 0.00 0.00 0.00 0.00 0.00 0.00 0.01 0.01 0.01 0.00 0.00 0.00 0.00 0.00 0.00 0.00 0.00 0.01 0.00 0.00 0.00 0.00 0.00 0.00 0.01
0.00 0.00 0.00 0.00 0.00 0.01 0.03 0.01 0.02 0.02 0.00 0.00 0.00 0.01 0.02 0.05 0.07 0.04 0.04 0.04 0.03 0.02 0.01 0.01 0.02 0.02 0.01 0.01 0.01 0.00 0.00 0.00 0.00 0.00 0.00 0.00 0.00 0.01 0.01 0.00 0.00 0.00 0.00 0.00 0.00 0.00 0.00 0.00 0.00 0.00 0.00 0.00 0.00 0.00
0.00 0.00 0.00 0.00 0.01 0.02 0.01 0.01 0.01 0.00 0.00 0.00 0.00 0.00 0.02 0.03 0.03 0.03 0.02 0.01 0.00 0.00 0.01 0.01 0.01 0.01 0.01 0.00 0.00 0.00 0.01 0.00 0.00 0.00 0.00 0.00 0.00 0.01 0.00 0.00 0.00 0.00 0.01 0.01 0.00 0.00 0.00 0.00 0.00 0.00 0.00 0.00 0.00 0.00
0.00 0.00 0.00 0.00 0.02 0.02 0.03 0.05 0.02 0.01 0.01 0.00 0.01 0.01 0.01 0.01 0.01 0.01 0.01 0.01 0.02 0.02 0.01 0.01 0.02 0.01 0.00 0.00 0.00 0.00 0.00 0.00 0.00 0.00 0.00 0.00 0.00 0.00 0.00 0.00 0.00 0.01 0.01 0.00 0.00 0.00 0.00 0.00 0.00 0.00 0.00 0.00 0.00 0.00
0.00 0.00 0.00 0.00 0.01 0.01 0.01 0.01 0.00 0.01 0.01 0.01 0.01 0.01 0.02 0.01 0.01 0.02 0.01 0.01 0.04 0.02 0.01 0.01 0.01 0.00 0.00 0.00 0.00 0.00 0.00 0.00 0.00 0.00 0.00 0.00 0.00 0.00 0.00 0.00 0.00 0.00 0.00 0.00 0.00 0.00 0.00 0.00 0.00 0.00 0.00 0.00 0.00 0.00

GFSWCAN_prec_precacc12_045.txt.gz
Total_Precipitation_Accumulation
0.05 0.03 0.02 0.02 0.01 0.02 0.02 0.03 0.03 0.09 0.08 0.08 0.14 0.17 0.21 0.15 0.12 0.29 0.24 0.23 0.39 0.65 0.23 0.06 0.04 0.01 0.00 0.01 0.02 0.01 0.07 0.09 0.14 0.08 0.07 0.04 0.02 0.01 0.01 0.00 0.04 0.13 0.18 0.17 0.20 0.16 0.05 0.02 0.05 0.07 0.04 0.00 0.00 0.00
0.03 0.03 0.03 0.03 0.03 0.02 0.02 0.05 0.04 0.04 0.15 0.08 0.11 0.17 0.22 0.26 0.22 0.35 0.36 0.22 0.21 0.38 0.41 0.07 0.04 0.01 0.01 0.00 0.01 0.01 0.03 0.08 0.12 0.11 0.02 0.01 0.00 0.00 0.00 0.00 0.01 0.03 0.09 0.10 0.10 0.06 0.02 0.02 0.03 0.02 0.01 0.01 0.01 0.01
0.07 0.06 0.04 0.05 0.04 0.02 0.02 0.04 0.05 0.06 0.14 0.12 0.10 0.17 0.26 0.30 0.31 0.47 0.43 0.31 0.38 0.44 0.47 0.31 0.05 0.02 0.01 0.01 0.01 0.10 0.03 0.04 0.07 0.07 0.06 0.06 0.03 0.00 0.00 0.00 0.01 0.01 0.01 0.02 0.04 0.02 0.03 0.03 0.02 0.01 0.00 0.01 0.01 0.00
0.14 0.07 0.05 0.04 0.02 0.02 0.01 0.02 0.02 0.03 0.07 0.12 0.14 0.18 0.24 0.30 0.32 0.47 0.43 0.26 0.26 0.21 0.35 0.37 0.14 0.02 0.01 0.02 0.08 0.10 0.05 0.09 0.10 0.08 0.08 0.12 0.05 0.01 0.00 0.00 0.01 0.02 0.05 0.04 0.02 0.01 0.02 0.03 0.12 0.09 0.04 0.02 0.02 0.01
0.14 0.06 0.03 0.03 0.03 0.02 0.02 0.03 0.04 0.05 0.08 0.11 0.10 0.16 0.24 0.30 0.39 0.57 0.32 0.20 0.13 0.14 0.10 0.23 0.10 0.03 0.01 0.01 0.07 0.15 0.14 0.17 0.32 0.22 0.09 0.04 0.03 0.05 0.04 0.04 0.00 0.02 0.04 0.06 0.03 0.02 0.00 0.00 0.02 0.03 0.08 0.10 0.04 0.03
0.09 0.06 0.02 0.03 0.02 0.04 0.06 0.08 0.12 0.10 0.09 0.09 0.14 0.22 0.26 0.37 0.64 0.74 0.86 0.60 0.24 0.29 0.23 0.22 0.13 0.04 0.03 0.03 0.07 0.07 0.17 0.24 0.35 0.40 0.20 0.04 0.02 0.08 0.06 0.05 0.04 0.04 0.05 0.02 0.00 0.01 0.02 0.01 0.02 0.03 0.01 0.03 0.04 0.02
0.08 0.05 0.08 0.08 0.05 0.06 0.07 0.06 0.07 0.08 0.09 0.14 0.19 0.24 0.25 0.46 0.39 0.31 0.31 0.19 0.19 0.45 0.37 0.27 0.12 0.06 0.03 0.05 0.07 0.10 0.16 0.36 0.56 0.53 0.36 0.17 0.08 0.12 0.06 0.04 0.02 0.03 0.02 0.02 0.01 0.02 0.04 0.02 0.02 0.00 0.01 0.00 0.00 0.00
0.07 0.06 0.07 0.06 0.04 0.03 0.02 0.04 0.10 0.12 0.13 0.16 0.27 0.37 0.40 0.30 0.29 0.10 0.03 0.02 0.16 0.43 0.29 0.21 0.10 0.10 0.10 0.08 0.07 0.13 0.19 0.38 0.44 0.56 0.31 0.30 0.32 0.28 0.21 0.07 0.02 0.00 0.00 0.01 0.01 0.01 0.01 0.01 0.00 0.00 0.00 0.00 0.00 0.00
0.06 0.05 0.05 0.05 0.04 0.05 0.08 0.12 0.14 0.18 0.26 0.38 0.45 0.37 0.35 0.36 0.31 0.11 0.07 0.11 0.21 0.26 0.16 0.07 0.08 0.32 0.22 0.12 0.08 0.14 0.27 0.27 0.29 0.26 0.30 0.35 0.54 0.43 0.28 0.08 0.07 0.04 0.01 0.00 0.00 0.00 0.00 0.00 0.00 0.00 0.00 0.00 0.00 0.00
0.04 0.05 0.06 0.05 0.05 0.07 0.10 0.14 0.17 0.21 0.24 0.20 0.18 0.27 0.50 0.46 0.26 0.23 0.32 0.30 0.26 0.14 0.03 0.02 0.06 0.29 0.50 0.16 0.10 0.12 0.14 0.11 0.08 0.05 0.20 0.51 0.52 0.21 0.05 0.07 0.07 0.06 0.05 0.02 0.00 0.00 0.00 0.00 0.00 0.00 0.00 0.00 0.00 0.00
0.06 0.06 0.08 0.08 0.09 0.10 0.10 0.09 0.07 0.06 0.04 0.05 0.10 0.28 0.33 0.16 0.11 0.11 0.10 0.07 0.04 0.01 0.00 0.02 0.07 0.27 0.56 0.36 0.10 0.12 0.11 0.09 0.06 0.06 0.11 0.33 0.24 0.15 0.03 0.03 0.05 0.09 0.07 0.07 0.09 0.10 0.09 0.07 0.03 0.01 0.01 0.02 0.02 0.02
0.05 0.04 0.05 0.07 0.09 0.12 0.13 0.11 0.07 0.05 0.03 0.02 0.03 0.02 0.02 0.09 0.10 0.03 0.01 0.01 0.01 0.04 0.08 0.14 0.19 0.50 0.61 0.56 0.21 0.24 0.36 0.13 0.14 0.14 0.12 0.21 0.17 0.08 0.05 0.04 0.04 0.06 0.07 0.05 0.02 0.03 0.04 0.06 0.08 0.06 0.03 0.02 0.02 0.02
0.03 0.02 0.02 0.01 0.02 0.02 0.01 0.00 0.00 0.00 0.06 0.06 0.05 0.07 0.15 0.16 0.11 0.06 0.04 0.03 0.09 0.13 0.16 0.17 0.43 0.76 0.53 0.69 0.28 0.13 0.42 0.43 0.28 0.23 0.15 0.16 0.07 0.04 0.03 0.03 0.03 0.04 0.04 0.04 0.04 0.05 0.04 0.05 0.05 0.04 0.05 0.07 0.06 0.09
0.04 0.02 0.01 0.00 0.00 0.00 0.00 0.00 0.00 0.00 0.04 0.06 0.06 0.05 0.06 0.06 0.09 0.11 0.08 0.07 0.09 0.06 0.08 0.31 0.63 0.72 0.55 0.70 0.31 0.16 0.45 0.53 0.30 0.18 0.12 0.12 0.09 0.10 0.10 0.11 0.11 0.14 0.15 0.14 0.17 0.17 0.18 0.19 0.22 0.24 0.27 0.33 0.27 0.35
0.00 0.00 0.00 0.00 0.00 0.00 0.00 0.00 0.00 0.00 0.00 0.00 0.00 0.03 0.03 0.12 0.06 0.05 0.06 0.07 0.07 0.07 0.12 0.30 0.59 0.49 0.44 0.51 0.15 0.15 0.23 0.26 0.14 0.11 0.15 0.19 0.17 0.17 0.19 0.22 0.24 0.26 0.25 0.27 0.31 0.29 0.34 0.35 0.29 0.36 0.41 0.37 0.31 0.33
0.00 0.00 0.01 0.00 0.00 0.00 0.00 0.00 0.00 0.00 0.00 0.00 0.03 0.06 0.03 0.03 0.01 0.02 0.04 0.08 0.08 0.11 0.23 0.44 0.43 0.33 0.24 0.13 0.03 0.08 0.10 0.18 0.23 0.19 0.22 0.20 0.23 0.30 0.32 0.31 0.32 0.32 0.28 0.27 0.26 0.24 0.24 0.23 0.22 0.26 0.25 0.23 0.24 0.20
0.00 0.02 0.01 0.01 0.00 0.00 0.00 0.00 0.02 0.05 0.05 0.06 0.10 0.08 0.06 0.05 0.05 0.08 0.07 0.07 0.08 0.14 0.28 0.25 0.27 0.26 0.16 0.07 0.05 0.10 0.19 0.29 0.28 0.27 0.24 0.23 0.26 0.30 0.29 0.24 0.24 0.19 0.15 0.14 0.13 0.10 0.13 0.14 0.09 0.06 0.10 0.15 0.11 0.11
0.03 0.05 0.03 0.03 0.01 0.01 0.00 0.02 0.07 0.09 0.09 0.13 0.14 0.14 0.09 0.09 0.09 0.08 0.09 0.09 0.13 0.20 0.25 0.21 0.15 0.07 0.09 0.08 0.11 0.19 0.19 0.21 0.20 0.23 0.26 0.28 0.24 0.23 0.18 0.15 0.15 0.12 0.10 0.10 0.08 0.07 0.07 0.06 0.05 0.09 0.09 0.09 0.06 0.05
0.06 0.10 0.14 0.09 0.04 0.02 0.02 0.04 0.02 0.04 0.16 0.17 0.16 0.14 0.13 0.16 0.15 0.13 0.08 0.05 0.03 0.03 0.03 0.03 0.05 0.09 0.15 0.17 0.16 0.17 0.16 0.11 0.13 0.16 0.16 0.18 0.16 0.14 0.12 0.10 0.08 0.07 0.07 0.07 0.05 0.04 0.04 0.04 0.05 0.05 0.05 0.02 0.04 0.06
0.14 0.13 0.11 0.05 0.01 0.00 0.01 0.05 0.01 0.05 0.17 0.18 0.19 0.12 0.12 0.17 0.14 0.06 0.03 0.02 0.02 0.03 0.05 0.09 0.17 0.19 0.16 0.18 0.11 0.12 0.13 0.09 0.05 0.06 0.10 0.11 0.11 0.07 0.09 0.07 0.06 0.05 0.03 0.02 0.01 0.01 0.01 0.01 0.00 0.00 0.00 0.00 0.01 0.01
0.06 0.02 0.00 0.00 0.00 0.00 0.03 0.04 0.06 0.06 0.12 0.16 0.10 0.06 0.11 0.03 0.02 0.02 0.01 0.01 0.02 0.06 0.16 0.19 0.16 0.17 0.09 0.09 0.06 0.04 0.05 0.04 0.05 0.04 0.06 0.08 0.08 0.03 0.02 0.01 0.01 0.00 0.00 0.00 0.00 0.00 0.00 0.01 0.01 0.00 0.00 0.00 0.00 0.00
0.00 0.00 0.00 0.00 0.00 0.00 0.01 0.00 0.04 0.04 0.02 0.06 0.03 0.01 0.02 0.00 0.00 0.00 0.00 0.01 0.11 0.14 0.14 0.09 0.10 0.07 0.05 0.08 0.08 0.04 0.04 0.02 0.01 0.01 0.01 0.01 0.01 0.01 0.01 0.00 0.00 0.00 0.00 0.00 0.00 0.00 0.00 0.00 0.00 0.00 0.00 0.01 0.00 0.00
0.00 0.00 0.00 0.00 0.00 0.00 0.01 0.00 0.01 0.02 0.01 0.01 0.00 0.00 0.00 0.00 0.00 0.00 0.01 0.07 0.19 0.16 0.06 0.04 0.06 0.03 0.04 0.04 0.01 0.01 0.00 0.00 0.00 0.00 0.00 0.00 0.00 0.00 0.00 0.00 0.00 0.00 0.00 0.00 0.00 0.00 0.00 0.00 0.00 0.00 0.00 0.00 0.00 0.00
0.00 0.00 0.00 0.00 0.00 0.00 0.00 0.00 0.00 0.00 0.00 0.00 0.00 0.00 0.00 0.00 0.00 0.00 0.04 0.10 0.15 0.10 0.06 0.04 0.01 0.00 0.00 0.00 0.00 0.00 0.00 0.00 0.00 0.00 0.00 0.00 0.00 0.00 0.00 0.00 0.00 0.00 0.00 0.00 0.00 0.00 0.00 0.00 0.00 0.00 0.00 0.00 0.00 0.00
0.00 0.00 0.00 0.00 0.00 0.00 0.00 0.00 0.00 0.00 0.00 0.00 0.00 0.01 0.00 0.00 0.00 0.00 0.02 0.08 0.06 0.05 0.03 0.01 0.01 0.01 0.01 0.01 0.00 0.00 0.00 0.00 0.00 0.00 0.00 0.00 0.00 0.00 0.00 0.00 0.00 0.00 0.00 0.00 0.00 0.00 0.00 0.00 0.00 0.00 0.00 0.00 0.00 0.00
0.00 0.00 0.00 0.00 0.00 0.00 0.00 0.00 0.00 0.00 0.00 0.00 0.00 0.00 0.00 0.00 0.00 0.02 0.04 0.06 0.03 0.04 0.04 0.03 0.01 0.00 0.00 0.00 0.00 0.00 0.00 0.00 0.00 0.00 0.00 0.00 0.00 0.00 0.00 0.00 0.00 0.00 0.00 0.00 0.00 0.00 0.00 0.00 0.00 0.00 0.00 0.00 0.00 0.00
0.00 0.00 0.00 0.00 0.00 0.00 0.00 0.00 0.00 0.00 0.00 0.01 0.01 0.00 0.00 0.00 0.01 0.03 0.06 0.03 0.01 0.02 0.01 0.01 0.00 0.00 0.00 0.00 0.00 0.00 0.00 0.00 0.00 0.00 0.00 0.00 0.00 0.00 0.00 0.00 0.00 0.00 0.00 0.00 0.00 0.00 0.00 0.00 0.00 0.00 0.00 0.00 0.00 0.00
0.00 0.00 0.00 0.00 0.00 0.00 0.00 0.00 0.00 0.00 0.01 0.01 0.00 0.00 0.00 0.01 0.03 0.06 0.02 0.02 0.01 0.00 0.00 0.00 0.00 0.00 0.00 0.01 0.01 0.00 0.00 0.00 0.00 0.00 0.00 0.01 0.00 0.00 0.00 0.00 0.00 0.00 0.00 0.00 0.00 0.00 0.00 0.00 0.00 0.00 0.00 0.00 0.00 0.00
0.00 0.00 0.00 0.00 0.00 0.00 0.01 0.00 0.01 0.01 0.01 0.01 0.00 0.01 0.01 0.04 0.04 0.03 0.02 0.01 0.01 0.01 0.01 0.00 0.01 0.00 0.00 0.00 0.00 0.00 0.00 0.00 0.00 0.00 0.00 0.01 0.01 0.01 0.00 0.00 0.00 0.00 0.00 0.00 0.00 0.00 0.01 0.00 0.00 0.00 0.00 0.00 0.00 0.01
0.00 0.00 0.00 0.00 0.01 0.01 0.04 0.02 0.02 0.01 0.00 0.00 0.00 0.01 0.02 0.07 0.09 0.03 0.03 0.03 0.02 0.01 0.01 0.01 0.02 0.01 0.01 0.01 0.00 0.00 0.00 0.00 0.00 0.00 0.00 0.00 0.00 0.01 0.01 0.00 0.00 0.00 0.00 0.00 0.00 0.00 0.00 0.00 0.00 0.00 0.00 0.00 0.00 0.00
0.00 0.00 0.00 0.00 0.01 0.02 0.01 0.01 0.00 0.00 0.00 0.00 0.00 0.00 0.02 0.04 0.04 0.04 0.03 0.02 0.00 0.00 0.00 0.01 0.01 0.01 0.00 0.00 0.00 0.00 0.01 0.00 0.00 0.00 0.00 0.00 0.00 0.01 0.00 0.00 0.00 0.00 0.00 0.00 0.00 0.00 0.00 0.00 0.00 0.00 0.00 0.00 0.00 0.00
0.00 0.00 0.00 0.00 0.02 0.02 0.03 0.05 0.01 0.01 0.01 0.00 0.00 0.00 0.01 0.01 0.01 0.01 0.02 0.02 0.02 0.02 0.01 0.01 0.01 0.01 0.00 0.00 0.00 0.00 0.00 0.00 0.00 0.00 0.00 0.00 0.00 0.00 0.00 0.00 0.00 0.01 0.00 0.00 0.00 0.00 0.00 0.00 0.00 0.00 0.00 0.00 0.00 0.00
0.00 0.00 0.00 0.00 0.01 0.01 0.01 0.01 0.00 0.01 0.00 0.00 0.01 0.01 0.02 0.01 0.01 0.02 0.01 0.01 0.04 0.02 0.00 0.01 0.00 0.00 0.00 0.00 0.00 0.00 0.00 0.00 0.00 0.00 0.00 0.00 0.00 0.00 0.00 0.00 0.00 0.00 0.00 0.00 0.00 0.00 0.00 0.00 0.00 0.00 0.00 0.00 0.00 0.00

GFSWCAN_prec_precacc12_048.txt.gz
Total_Precipitation_Accumulation
0.06 0.04 0.04 0.04 0.04 0.05 0.05 0.04 0.04 0.04 0.05 0.07 0.09 0.14 0.18 0.16 0.15 0.29 0.25 0.28 0.45 0.69 0.26 0.07 0.03 0.01 0.01 0.01 0.02 0.01 0.04 0.03 0.04 0.08 0.06 0.04 0.02 0.01 0.00 0.00 0.00 0.02 0.10 0.15 0.16 0.14 0.05 0.02 0.05 0.08 0.04 0.00 0.00 0.00
0.04 0.04 0.05 0.05 0.06 0.05 0.04 0.05 0.05 0.04 0.06 0.06 0.07 0.14 0.16 0.24 0.22 0.26 0.30 0.18 0.27 0.44 0.39 0.06 0.02 0.01 0.01 0.00 0.01 0.00 0.00 0.01 0.01 0.03 0.02 0.01 0.00 0.00 0.00 0.00 0.01 0.00 0.00 0.03 0.07 0.05 0.02 0.02 0.03 0.02 0.01 0.01 0.01 0.01
0.06 0.07 0.06 0.06 0.05 0.04 0.05 0.06 0.07 0.07 0.12 0.10 0.06 0.14 0.19 0.28 0.30 0.39 0.37 0.19 0.31 0.50 0.45 0.32 0.03 0.01 0.02 0.02 0.01 0.04 0.01 0.02 0.05 0.04 0.06 0.05 0.02 0.00 0.00 0.00 0.00 0.00 0.00 0.00 0.00 0.00 0.02 0.03 0.02 0.01 0.00 0.01 0.01 0.00
0.17 0.15 0.11 0.06 0.03 0.03 0.04 0.05 0.04 0.04 0.07 0.10 0.12 0.17 0.22 0.30 0.30 0.48 0.45 0.17 0.22 0.24 0.32 0.31 0.12 0.01 0.01 0.02 0.06 0.04 0.03 0.07 0.06 0.08 0.08 0.09 0.03 0.01 0.00 0.00 0.01 0.01 0.03 0.04 0.02 0.00 0.00 0.02 0.10 0.09 0.04 0.02 0.02 0.02
0.20 0.09 0.06 0.05 0.06 0.05 0.03 0.03 0.03 0.04 0.08 0.09 0.10 0.18 0.24 0.27 0.34 0.58 0.46 0.21 0.12 0.13 0.07 0.20 0.09 0.03 0.01 0.01 0.07 0.11 0.08 0.14 0.19 0.13 0.10 0.03 0.03 0.05 0.04 0.04 0.00 0.02 0.04 0.06 0.03 0.02 0.00 0.00 0.02 0.02 0.07 0.09 0.04 0.03
0.11 0.07 0.02 0.05 0.04 0.04 0.05 0.05 0.08 0.09 0.09 0.08 0.10 0.19 0.22 0.33 0.57 0.85 1.14 0.68 0.24 0.27 0.19 0.19 0.12 0.04 0.03 0.03 0.07 0.05 0.14 0.22 0.30 0.33 0.17 0.03 0.02 0.09 0.07 0.07 0.06 0.04 0.05 0.02 0.00 0.01 0.02 0.01 0.03 0.02 0.01 0.04 0.06 0.03
0.06 0.06 0.09 0.10 0.08 0.08 0.06 0.04 0.06 0.08 0.10 0.12 0.14 0.18 0.23 0.46 0.44 0.45 0.33 0.21 0.20 0.44 0.39 0.29 0.11 0.05 0.04 0.05 0.07 0.09 0.16 0.37 0.62 0.52 0.36 0.16 0.07 0.15 0.09 0.10 0.07 0.07 0.07 0.04 0.01 0.02 0.05 0.03 0.03 0.02 0.02 0.02 0.01 0.01
0.03 0.04 0.06 0.07 0.04 0.05 0.07 0.06 0.09 0.10 0.11 0.20 0.32 0.36 0.40 0.39 0.44 0.18 0.04 0.02 0.16 0.46 0.37 0.39 0.17 0.08 0.10 0.09 0.07 0.14 0.18 0.37 0.46 0.68 0.36 0.29 0.33 0.28 0.28 0.13 0.03 0.00 0.01 0.04 0.02 0.01 0.01 0.02 0.02 0.01 0.01 0.01 0.01 0.00
0.04 0.02 0.04 0.09 0.11 0.09 0.10 0.11 0.14 0.21 0.36 0.51 0.56 0.52 0.61 0.54 0.43 0.17 0.08 0.12 0.19 0.26 0.21 0.19 0.22 0.15 0.16 0.14 0.09 0.11 0.23 0.29 0.36 0.30 0.33 0.36 0.56 0.64 0.42 0.13 0.08 0.04 0.01 0.00 0.00 0.00 0.00 0.00 0.00 0.00 0.00 0.00 0.00 0.00
0.03 0.03 0.05 0.06 0.06 0.09 0.16 0.20 0.23 0.31 0.32 0.28 0.27 0.42 0.68 0.55 0.31 0.26 0.39 0.36 0.32 0.22 0.13 0.10 0.06 0.08 0.25 0.17 0.11 0.09 0.08 0.17 0.22 0.17 0.35 0.69 0.56 0.24 0.12 0.14 0.11 0.07 0.07 0.04 0.01 0.01 0.00 0.00 0.00 0.00 0.00 0.00 0.00 0.00
0.06 0.05 0.06 0.07 0.08 0.09 0.11 0.12 0.10 0.08 0.08 0.10 0.14 0.37 0.44 0.21 0.15 0.22 0.25 0.22 0.16 0.12 0.07 0.11 0.05 0.04 0.11 0.17 0.07 0.03 0.03 0.06 0.10 0.13 0.14 0.37 0.26 0.15 0.03 0.03 0.05 0.09 0.08 0.09 0.13 0.13 0.12 0.09 0.05 0.03 0.03 0.03 0.04 0.05
0.08 0.07 0.05 0.05 0.07 0.09 0.11 0.09 0.08 0.06 0.04 0.02 0.07 0.16 0.13 0.10 0.12 0.09 0.06 0.06 0.04 0.05 0.06 0.08 0.06 0.13 0.11 0.22 0.10 0.05 0.12 0.05 0.06 0.15 0.07 0.09 0.12 0.08 0.07 0.07 0.06 0.09 0.11 0.12 0.11 0.11 0.13 0.13 0.12 0.09 0.07 0.06 0.06 0.06
0.03 0.02 0.01 0.01 0.02 0.02 0.01 0.01 0.01 0.00 0.02 0.01 0.01 0.02 0.04 0.02 0.05 0.02 0.02 0.03 0.09 0.13 0.15 0.13 0.23 0.51 0.28 0.47 0.13 0.04 0.18 0.15 0.15 0.19 0.10 0.10 0.06 0.03 0.03 0.04 0.06 0.08 0.07 0.07 0.09 0.10 0.08 0.07 0.07 0.07 0.07 0.10 0.08 0.11
0.04 0.02 0.01 0.00 0.00 0.00 0.00 0.00 0.00 0.00 0.01 0.01 0.01 0.02 0.02 0.02 0.06 0.08 0.08 0.07 0.11 0.07 0.09 0.29 0.59 0.69 0.55 0.71 0.31 0.16 0.40 0.37 0.17 0.15 0.09 0.10 0.08 0.08 0.08 0.09 0.08 0.12 0.14 0.14 0.18 0.17 0.18 0.17 0.19 0.20 0.22 0.26 0.17 0.23
0.00 0.00 0.00 0.00 0.00 0.00 0.00 0.00 0.00 0.00 0.00 0.00 0.00 0.02 0.03 0.11 0.07 0.07 0.07 0.09 0.09 0.10 0.16 0.30 0.57 0.47 0.47 0.60 0.16 0.14 0.22 0.25 0.12 0.08 0.12 0.16 0.15 0.15 0.17 0.19 0.20 0.22 0.21 0.22 0.24 0.20 0.24 0.23 0.17 0.25 0.31 0.28 0.23 0.25
0.00 0.00 0.00 0.00 0.00 0.00 0.00 0.00 0.00 0.00 0.00 0.00 0.02 0.04 0.02 0.02 0.02 0.02 0.04 0.08 0.09 0.14 0.23 0.43 0.37 0.29 0.23 0.17 0.03 0.07 0.09 0.16 0.19 0.16 0.19 0.16 0.19 0.26 0.29 0.29 0.29 0.28 0.24 0.24 0.23 0.21 0.20 0.19 0.17 0.21 0.20 0.18 0.18 0.15
0.01 0.02 0.01 0.01 0.00 0.00 0.00 0.00 0.01 0.02 0.00 0.02 0.03 0.04 0.04 0.04 0.04 0.08 0.09 0.09 0.11 0.16 0.29 0.22 0.21 0.24 0.15 0.07 0.05 0.09 0.14 0.23 0.22 0.24 0.22 0.21 0.22 0.26 0.26 0.23 0.24 0.20 0.16 0.14 0.12 0.10 0.10 0.09 0.05 0.02 0.05 0.08 0.06 0.05
0.07 0.07 0.04 0.02 0.01 0.01 0.00 0.02 0.05 0.03 0.02 0.05 0.06 0.08 0.04 0.07 0.09 0.10 0.14 0.16 0.19 0.25 0.28 0.18 0.11 0.06 0.08 0.07 0.09 0.16 0.17 0.22 0.21 0.23 0.25 0.26 0.22 0.21 0.18 0.15 0.14 0.11 0.08 0.07 0.04 0.03 0.03 0.02 0.02 0.04 0.04 0.04 0.02 0.02
0.09 0.11 0.14 0.08 0.03 0.02 0.02 0.03 0.01 0.02 0.07 0.08 0.07 0.04 0.06 0.10 0.11 0.11 0.07 0.05 0.04 0.03 0.02 0.01 0.03 0.08 0.13 0.16 0.14 0.16 0.14 0.10 0.14 0.16 0.16 0.17 0.16 0.13 0.11 0.09 0.07 0.06 0.04 0.04 0.02 0.02 0.02 0.02 0.02 0.02 0.02 0.01 0.02 0.04
0.15 0.13 0.10 0.04 0.01 0.00 0.01 0.02 0.00 0.02 0.09 0.11 0.11 0.05 0.06 0.10 0.06 0.01 0.00 0.00 0.00 0.00 0.02 0.06 0.17 0.18 0.15 0.19 0.10 0.10 0.10 0.09 0.04 0.05 0.08 0.10 0.09 0.05 0.06 0.04 0.04 0.03 0.01 0.01 0.00 0.00 0.00 0.00 0.00 0.00 0.00 0.00 0.00 0.01
0.04 0.01 0.00 0.00 0.00 0.00 0.02 0.02 0.06 0.06 0.10 0.14 0.09 0.05 0.10 0.03 0.02 0.01 0.01 0.00 0.02 0.05 0.15 0.19 0.16 0.18 0.08 0.09 0.05 0.02 0.04 0.02 0.03 0.02 0.04 0.06 0.06 0.02 0.01 0.01 0.00 0.00 0.00 0.00 0.00 0.00 0.00 0.01 0.01 0.00 0.00 0.00 0.00 0.00
0.00 0.00 0.00 0.00 0.00 0.00 0.01 0.00 0.04 0.04 0.02 0.06 0.04 0.02 0.01 0.00 0.00 0.00 0.00 0.01 0.10 0.13 0.14 0.09 0.10 0.07 0.05 0.07 0.07 0.03 0.03 0.01 0.01 0.01 0.01 0.01 0.01 0.01 0.01 0.00 0.00 0.00 0.00 0.00 0.00 0.00 0.00 0.00 0.00 0.00 0.00 0.01 0.00 0.00
0.00 0.00 0.00 0.00 0.00 0.00 0.03 0.00 0.01 0.02 0.01 0.02 0.00 0.00 0.00 0.00 0.00 0.00 0.01 0.06 0.19 0.16 0.07 0.04 0.05 0.02 0.04 0.05 0.01 0.01 0.00 0.00 0.00 0.00 0.00 0.00 0.00 0.00 0.00 0.00 0.00 0.00 0.00 0.00 0.00 0.00 0.00 0.00 0.00 0.00 0.00 0.00 0.00 0.00
0.00 0.00 0.00 0.00 0.00 0.00 0.00 0.00 0.00 0.00 0.00 0.00 0.00 0.00 0.00 0.00 0.00 0.00 0.03 0.09 0.15 0.11 0.05 0.04 0.01 0.00 0.00 0.00 0.00 0.00 0.00 0.00 0.00 0.00 0.00 0.00 0.00 0.00 0.00 0.00 0.00 0.00 0.00 0.00 0.00 0.00 0.00 0.00 0.00 0.00 0.00 0.00 0.00 0.00
0.00 0.00 0.00 0.00 0.00 0.00 0.00 0.00 0.00 0.00 0.00 0.00 0.00 0.01 0.00 0.00 0.00 0.00 0.02 0.07 0.06 0.05 0.02 0.01 0.00 0.00 0.00 0.00 0.00 0.00 0.00 0.00 0.00 0.00 0.00 0.00 0.00 0.00 0.00 0.00 0.00 0.01 0.00 0.00 0.00 0.00 0.00 0.00 0.00 0.00 0.00 0.00 0.00 0.00
0.00 0.00 0.00 0.00 0.00 0.00 0.00 0.00 0.00 0.00 0.00 0.00 0.00 0.00 0.00 0.00 0.00 0.01 0.03 0.04 0.02 0.03 0.03 0.01 0.00 0.00 0.00 0.00 0.00 0.00 0.00 0.00 0.00 0.00 0.00 0.00 0.00 0.00 0.00 0.00 0.00 0.00 0.00 0.00 0.00 0.00 0.00 0.00 0.00 0.00 0.00 0.00 0.00 0.00
0.00 0.00 0.00 0.00 0.00 0.00 0.00 0.00 0.00 0.00 0.00 0.01 0.00 0.00 0.00 0.00 0.01 0.03 0.05 0.02 0.01 0.02 0.01 0.00 0.00 0.00 0.00 0.00 0.00 0.00 0.00 0.00 0.00 0.00 0.00 0.00 0.00 0.00 0.00 0.00 0.00 0.00 0.00 0.00 0.00 0.00 0.00 0.00 0.00 0.00 0.00 0.00 0.00 0.00
0.00 0.00 0.00 0.00 0.00 0.00 0.00 0.00 0.00 0.01 0.01 0.01 0.00 0.00 0.00 0.01 0.03 0.04 0.02 0.02 0.00 0.00 0.00 0.00 0.00 0.00 0.00 0.00 0.01 0.00 0.00 0.00 0.00 0.00 0.00 0.00 0.00 0.00 0.00 0.00 0.00 0.00 0.00 0.00 0.00 0.00 0.00 0.00 0.00 0.00 0.00 0.00 0.00 0.00
0.00 0.00 0.00 0.00 0.00 0.00 0.01 0.01 0.01 0.01 0.01 0.01 0.00 0.01 0.02 0.04 0.03 0.03 0.02 0.01 0.00 0.00 0.00 0.00 0.00 0.00 0.00 0.00 0.00 0.00 0.00 0.00 0.00 0.00 0.00 0.01 0.01 0.01 0.00 0.00 0.00 0.00 0.00 0.00 0.00 0.00 0.01 0.01 0.00 0.00 0.00 0.00 0.00 0.01
0.00 0.00 0.00 0.00 0.00 0.01 0.04 0.02 0.02 0.01 0.00 0.00 0.01 0.02 0.03 0.08 0.10 0.03 0.02 0.02 0.01 0.00 0.00 0.00 0.01 0.01 0.01 0.01 0.00 0.00 0.00 0.00 0.00 0.00 0.00 0.00 0.00 0.01 0.00 0.00 0.00 0.00 0.00 0.00 0.00 0.00 0.00 0.00 0.00 0.00 0.00 0.00 0.00 0.00
0.00 0.00 0.00 0.00 0.01 0.02 0.01 0.00 0.00 0.00 0.00 0.00 0.00 0.00 0.02 0.05 0.04 0.05 0.03 0.01 0.00 0.00 0.00 0.00 0.00 0.00 0.00 0.00 0.00 0.00 0.00 0.00 0.00 0.00 0.00 0.00 0.00 0.01 0.00 0.00 0.00 0.00 0.00 0.00 0.00 0.00 0.00 0.00 0.00 0.00 0.00 0.00 0.00 0.00
0.00 0.00 0.00 0.00 0.02 0.02 0.03 0.03 0.01 0.01 0.01 0.00 0.00 0.00 0.01 0.00 0.01 0.01 0.02 0.02 0.02 0.01 0.00 0.00 0.00 0.00 0.00 0.00 0.00 0.00 0.00 0.00 0.00 0.00 0.00 0.00 0.00 0.00 0.00 0.00 0.00 0.00 0.00 0.00 0.00 0.00 0.00 0.00 0.00 0.00 0.00 0.00 0.00 0.00
0.00 0.00 0.00 0.00 0.01 0.01 0.01 0.01 0.00 0.01 0.01 0.00 0.01 0.01 0.01 0.01 0.01 0.01 0.01 0.01 0.03 0.01 0.00 0.00 0.00 0.00 0.00 0.00 0.00 0.00 0.00 0.00 0.00 0.00 0.00 0.00 0.00 0.00 0.00 0.00 0.00 0.00 0.00 0.00 0.00 0.00 0.00 0.00 0.00 0.00 0.00 0.00 0.00 0.00

GFSWCAN_prec_precacc12_051.txt.gz
Total_Precipitation_Accumulation
0.13 0.09 0.06 0.05 0.06 0.07 0.07 0.07 0.08 0.09 0.10 0.10 0.11 0.12 0.11 0.12 0.16 0.35 0.44 0.36 0.39 0.61 0.24 0.06 0.03 0.03 0.07 0.09 0.06 0.02 0.11 0.08 0.07 0.10 0.07 0.02 0.00 0.00 0.00 0.00 0.00 0.00 0.01 0.04 0.09 0.13 0.05 0.02 0.05 0.08 0.04 0.00 0.00 0.00
0.09 0.06 0.05 0.06 0.07 0.08 0.09 0.10 0.11 0.09 0.07 0.08 0.10 0.11 0.13 0.12 0.15 0.31 0.51 0.30 0.30 0.51 0.24 0.03 0.03 0.03 0.03 0.01 0.00 0.02 0.01 0.00 0.01 0.02 0.01 0.00 0.00 0.00 0.00 0.00 0.01 0.01 0.00 0.00 0.02 0.04 0.02 0.02 0.03 0.02 0.01 0.01 0.00 0.01
0.06 0.07 0.06 0.07 0.07 0.06 0.07 0.09 0.11 0.13 0.14 0.11 0.07 0.08 0.12 0.11 0.16 0.40 0.51 0.21 0.41 0.69 0.36 0.12 0.02 0.02 0.02 0.02 0.01 0.01 0.00 0.01 0.02 0.01 0.02 0.01 0.00 0.00 0.00 0.00 0.00 0.00 0.00 0.00 0.00 0.00 0.00 0.01 0.00 0.01 0.00 0.01 0.01 0.00
0.24 0.23 0.15 0.11 0.08 0.06 0.05 0.05 0.05 0.07 0.10 0.13 0.15 0.11 0.09 0.14 0.21 0.50 0.55 0.19 0.18 0.28 0.27 0.25 0.10 0.02 0.02 0.01 0.04 0.01 0.00 0.03 0.06 0.07 0.06 0.03 0.02 0.01 0.00 0.00 0.01 0.01 0.02 0.01 0.00 0.00 0.00 0.00 0.00 0.00 0.00 0.00 0.01 0.01
0.24 0.11 0.07 0.06 0.07 0.07 0.04 0.03 0.04 0.04 0.07 0.09 0.10 0.16 0.15 0.20 0.33 0.62 0.56 0.15 0.06 0.11 0.07 0.16 0.07 0.03 0.01 0.01 0.03 0.08 0.06 0.05 0.13 0.12 0.13 0.03 0.00 0.03 0.03 0.03 0.00 0.02 0.04 0.06 0.01 0.02 0.00 0.00 0.01 0.00 0.00 0.01 0.01 0.01
0.14 0.05 0.01 0.06 0.04 0.04 0.05 0.03 0.02 0.03 0.05 0.08 0.11 0.17 0.20 0.32 0.60 0.97 1.40 0.61 0.13 0.17 0.21 0.17 0.11 0.03 0.03 0.02 0.04 0.04 0.11 0.16 0.16 0.25 0.16 0.01 0.01 0.07 0.06 0.07 0.05 0.04 0.05 0.02 0.00 0.01 0.02 0.01 0.03 0.02 0.01 0.03 0.04 0.03
0.05 0.05 0.09 0.10 0.06 0.06 0.03 0.03 0.05 0.06 0.08 0.12 0.13 0.20 0.25 0.45 0.45 0.63 0.41 0.21 0.19 0.44 0.47 0.29 0.11 0.05 0.04 0.05 0.07 0.09 0.15 0.45 0.53 0.45 0.30 0.14 0.06 0.14 0.09 0.10 0.07 0.07 0.07 0.04 0.01 0.02 0.05 0.03 0.03 0.02 0.02 0.02 0.01 0.01
0.03 0.06 0.12 0.16 0.13 0.14 0.10 0.08 0.09 0.09 0.10 0.17 0.26 0.33 0.34 0.36 0.53 0.29 0.10 0.02 0.17 0.52 0.45 0.40 0.17 0.10 0.11 0.09 0.07 0.13 0.19 0.37 0.45 0.47 0.41 0.27 0.29 0.21 0.25 0.13 0.03 0.00 0.01 0.05 0.06 0.07 0.08 0.06 0.03 0.01 0.01 0.01 0.01 0.00
0.04 0.08 0.14 0.23 0.22 0.18 0.11 0.07 0.09 0.17 0.30 0.44 0.53 0.58 0.80 0.70 0.66 0.29 0.12 0.13 0.18 0.27 0.22 0.20 0.22 0.20 0.19 0.13 0.08 0.09 0.23 0.29 0.33 0.23 0.33 0.43 0.61 0.62 0.40 0.13 0.08 0.04 0.01 0.00 0.00 0.00 0.01 0.02 0.01 0.00 0.00 0.00 0.00 0.00
0.04 0.08 0.11 0.14 0.13 0.18 0.28 0.31 0.35 0.39 0.40 0.36 0.42 0.69 0.95 0.68 0.42 0.31 0.46 0.39 0.34 0.21 0.13 0.10 0.06 0.13 0.30 0.24 0.13 0.08 0.09 0.19 0.24 0.20 0.36 0.67 0.52 0.22 0.11 0.13 0.12 0.08 0.08 0.04 0.01 0.01 0.01 0.01 0.01 0.01 0.01 0.00 0.00 0.00
0.08 0.06 0.08 0.11 0.10 0.11 0.13 0.15 0.16 0.15 0.13 0.17 0.28 0.54 0.57 0.30 0.18 0.26 0.30 0.26 0.18 0.12 0.07 0.12 0.07 0.11 0.14 0.31 0.13 0.04 0.03 0.05 0.10 0.18 0.21 0.38 0.25 0.15 0.03 0.02 0.05 0.09 0.08 0.10 0.14 0.16 0.16 0.15 0.10 0.05 0.05 0.05 0.06 0.07
0.08 0.06 0.04 0.05 0.05 0.05 0.06 0.06 0.05 0.04 0.04 0.03 0.12 0.22 0.22 0.17 0.16 0.14 0.09 0.10 0.07 0.05 0.06 0.10 0.12 0.19 0.11 0.40 0.19 0.03 0.03 0.02 0.05 0.13 0.07 0.06 0.09 0.07 0.07 0.07 0.06 0.10 0.13 0.14 0.13 0.13 0.17 0.17 0.18 0.15 0.12 0.10 0.10 0.10
0.03 0.01 0.01 0.01 0.03 0.05 0.05 0.04 0.02 0.00 0.00 0.00 0.00 0.02 0.02 0.01 0.01 0.02 0.02 0.03 0.07 0.10 0.11 0.13 0.18 0.20 0.09 0.32 0.13 0.03 0.04 0.05 0.03 0.07 0.07 0.07 0.05 0.02 0.03 0.03 0.06 0.10 0.11 0.14 0.15 0.16 0.14 0.13 0.12 0.10 0.10 0.13 0.10 0.12
0.03 0.01 0.00 0.00 0.00 0.00 0.00 0.00 0.00 0.00 0.00 0.00 0.00 0.00 0.00 0.01 0.03 0.06 0.06 0.05 0.09 0.08 0.09 0.16 0.26 0.22 0.15 0.41 0.19 0.08 0.16 0.11 0.03 0.04 0.05 0.07 0.06 0.06 0.05 0.06 0.07 0.11 0.13 0.13 0.17 0.17 0.18 0.17 0.18 0.19 0.20 0.25 0.16 0.20
0.00 0.00 0.00 0.00 0.00 0.00 0.00 0.00 0.00 0.00 0.00 0.00 0.00 0.01 0.02 0.09 0.07 0.07 0.07 0.08 0.09 0.09 0.16 0.21 0.33 0.26 0.21 0.45 0.10 0.04 0.07 0.07 0.04 0.04 0.07 0.11 0.11 0.10 0.12 0.14 0.17 0.20 0.21 0.21 0.23 0.18 0.20 0.20 0.14 0.19 0.24 0.22 0.17 0.18
0.00 0.00 0.00 0.00 0.00 0.00 0.00 0.00 0.00 0.00 0.00 0.00 0.02 0.03 0.02 0.03 0.03 0.03 0.05 0.09 0.11 0.16 0.23 0.34 0.30 0.24 0.16 0.16 0.03 0.05 0.07 0.11 0.13 0.11 0.14 0.13 0.16 0.22 0.26 0.27 0.28 0.28 0.26 0.26 0.25 0.23 0.21 0.19 0.16 0.18 0.17 0.15 0.16 0.12
0.01 0.01 0.02 0.01 0.00 0.00 0.00 0.00 0.00 0.00 0.00 0.00 0.02 0.04 0.04 0.04 0.05 0.08 0.09 0.10 0.13 0.18 0.29 0.21 0.17 0.19 0.13 0.04 0.03 0.07 0.12 0.19 0.19 0.21 0.21 0.19 0.19 0.24 0.24 0.23 0.25 0.22 0.19 0.16 0.14 0.11 0.09 0.08 0.04 0.03 0.04 0.05 0.03 0.02
0.07 0.07 0.04 0.02 0.01 0.01 0.00 0.01 0.00 0.00 0.00 0.02 0.04 0.06 0.03 0.07 0.10 0.11 0.16 0.21 0.23 0.29 0.31 0.19 0.10 0.06 0.07 0.05 0.06 0.13 0.16 0.21 0.20 0.21 0.21 0.23 0.19 0.19 0.17 0.15 0.15 0.12 0.09 0.07 0.04 0.02 0.01 0.01 0.01 0.02 0.02 0.01 0.00 0.00
0.09 0.11 0.14 0.08 0.03 0.02 0.01 0.00 0.00 0.01 0.03 0.04 0.04 0.04 0.07 0.12 0.14 0.13 0.10 0.09 0.07 0.05 0.02 0.01 0.03 0.06 0.10 0.10 0.09 0.16 0.16 0.11 0.13 0.15 0.15 0.16 0.15 0.12 0.11 0.08 0.06 0.05 0.03 0.02 0.01 0.01 0.01 0.00 0.01 0.01 0.00 0.00 0.01 0.01
0.13 0.12 0.10 0.04 0.01 0.00 0.00 0.00 0.00 0.00 0.03 0.04 0.06 0.05 0.07 0.09 0.05 0.02 0.01 0.00 0.00 0.00 0.01 0.04 0.14 0.15 0.13 0.18 0.08 0.07 0.08 0.07 0.03 0.04 0.07 0.09 0.08 0.04 0.04 0.03 0.02 0.01 0.00 0.00 0.00 0.00 0.00 0.00 0.00 0.00 0.00 0.00 0.00 0.01
0.01 0.00 0.00 0.00 0.00 0.00 0.01 0.01 0.03 0.03 0.04 0.06 0.03 0.02 0.06 0.02 0.01 0.00 0.00 0.00 0.00 0.02 0.12 0.18 0.16 0.19 0.08 0.09 0.04 0.02 0.03 0.02 0.02 0.01 0.02 0.04 0.04 0.01 0.01 0.00 0.00 0.00 0.00 0.00 0.00 0.00 0.00 0.01 0.01 0.00 0.00 0.00 0.00 0.00
0.00 0.00 0.00 0.00 0.00 0.00 0.01 0.00 0.02 0.02 0.01 0.05 0.03 0.01 0.01 0.00 0.00 0.00 0.00 0.01 0.09 0.12 0.14 0.10 0.09 0.06 0.04 0.06 0.06 0.03 0.02 0.01 0.01 0.01 0.01 0.01 0.00 0.00 0.00 0.00 0.00 0.00 0.00 0.00 0.00 0.00 0.00 0.00 0.00 0.00 0.00 0.00 0.00 0.00
0.00 0.00 0.00 0.00 0.00 0.00 0.04 0.01 0.01 0.02 0.01 0.02 0.00 0.00 0.00 0.00 0.00 0.00 0.01 0.05 0.16 0.16 0.08 0.04 0.04 0.02 0.03 0.05 0.01 0.01 0.00 0.00 0.00 0.00 0.00 0.00 0.00 0.00 0.00 0.00 0.00 0.00 0.00 0.00 0.00 0.00 0.00 0.00 0.00 0.00 0.00 0.00 0.00 0.00
0.00 0.00 0.00 0.00 0.00 0.00 0.00 0.00 0.00 0.00 0.00 0.00 0.00 0.00 0.00 0.00 0.00 0.00 0.02 0.07 0.14 0.11 0.03 0.03 0.01 0.00 0.00 0.00 0.00 0.00 0.00 0.00 0.00 0.00 0.00 0.00 0.00 0.00 0.00 0.00 0.00 0.00 0.00 0.00 0.00 0.00 0.00 0.00 0.00 0.00 0.00 0.00 0.00 0.00
0.00 0.00 0.00 0.00 0.00 0.00 0.00 0.00 0.00 0.00 0.00 0.00 0.00 0.00 0.00 0.00 0.00 0.00 0.01 0.05 0.05 0.04 0.02 0.00 0.00 0.00 0.00 0.00 0.00 0.00 0.00 0.00 0.00 0.00 0.00 0.00 0.00 0.00 0.00 0.00 0.00 0.01 0.00 0.00 0.00 0.00 0.00 0.00 0.00 0.00 0.00 0.00 0.00 0.00
0.00 0.01 0.00 0.00 0.00 0.00 0.00 0.00 0.00 0.00 0.00 0.00 0.00 0.00 0.00 0.00 0.00 0.01 0.01 0.01 0.01 0.02 0.01 0.00 0.00 0.00 0.00 0.00 0.00 0.00 0.00 0.00 0.00 0.00 0.00 0.00 0.00 0.00 0.00 0.00 0.00 0.00 0.00 0.00 0.00 0.00 0.00 0.00 0.00 0.00 0.00 0.00 0.00 0.00
0.00 0.00 0.00 0.00 0.00 0.00 0.00 0.00 0.00 0.00 0.00 0.01 0.00 0.00 0.00 0.00 0.01 0.02 0.04 0.02 0.01 0.01 0.00 0.00 0.00 0.00 0.00 0.00 0.00 0.00 0.00 0.00 0.00 0.00 0.00 0.00 0.00 0.00 0.00 0.00 0.00 0.00 0.00 0.00 0.00 0.00 0.00 0.00 0.00 0.00 0.00 0.00 0.00 0.00
0.00 0.00 0.00 0.00 0.00 0.00 0.00 0.00 0.00 0.01 0.01 0.01 0.00 0.00 0.00 0.00 0.02 0.03 0.02 0.03 0.00 0.00 0.00 0.00 0.00 0.00 0.00 0.00 0.00 0.00 0.00 0.00 0.00 0.00 0.00 0.00 0.00 0.00 0.00 0.00 0.00 0.00 0.00 0.00 0.00 0.00 0.00 0.00 0.00 0.00 0.00 0.00 0.00 0.01
0.00 0.00 0.00 0.00 0.00 0.00 0.01 0.01 0.01 0.01 0.02 0.00 0.00 0.01 0.02 0.03 0.04 0.03 0.03 0.01 0.00 0.00 0.00 0.00 0.00 0.00 0.00 0.00 0.00 0.00 0.00 0.00 0.00 0.00 0.00 0.00 0.00 0.00 0.00 0.00 0.00 0.00 0.00 0.00 0.00 0.00 0.01 0.01 0.00 0.00 0.00 0.00 0.00 0.01
0.00 0.00 0.00 0.00 0.00 0.01 0.03 0.02 0.01 0.01 0.00 0.00 0.01 0.02 0.03 0.08 0.10 0.03 0.02 0.01 0.00 0.00 0.00 0.00 0.00 0.00 0.00 0.00 0.00 0.00 0.00 0.00 0.00 0.00 0.00 0.00 0.00 0.01 0.00 0.00 0.00 0.00 0.00 0.00 0.00 0.00 0.00 0.00 0.00 0.00 0.00 0.00 0.00 0.00
0.00 0.00 0.00 0.00 0.01 0.02 0.01 0.00 0.00 0.00 0.00 0.00 0.00 0.00 0.02 0.05 0.05 0.05 0.03 0.01 0.00 0.00 0.00 0.00 0.00 0.00 0.00 0.00 0.00 0.00 0.00 0.00 0.00 0.00 0.00 0.00 0.00 0.00 0.00 0.00 0.00 0.00 0.00 0.00 0.00 0.00 0.00 0.00 0.00 0.00 0.00 0.00 0.00 0.00
0.00 0.00 0.00 0.00 0.02 0.02 0.01 0.01 0.00 0.00 0.00 0.00 0.00 0.00 0.00 0.00 0.00 0.02 0.03 0.02 0.01 0.00 0.00 0.00 0.00 0.00 0.00 0.00 0.00 0.00 0.00 0.00 0.00 0.00 0.00 0.00 0.00 0.00 0.00 0.00 0.00 0.00 0.00 0.00 0.00 0.00 0.00 0.00 0.00 0.00 0.00 0.00 0.00 0.00
0.00 0.00 0.00 0.00 0.01 0.01 0.01 0.01 0.00 0.00 0.00 0.00 0.01 0.01 0.01 0.00 0.01 0.01 0.02 0.02 0.01 0.01 0.00 0.00 0.00 0.00 0.00 0.00 0.00 0.00 0.00 0.00 0.00 0.00 0.00 0.00 0.00 0.00 0.00 0.00 0.00 0.00 0.00 0.00 0.00 0.00 0.00 0.00 0.00 0.00 0.00 0.00 0.00 0.00

GFSWCAN_prec_precacc12_054.txt.gz
Total_Precipitation_Accumulation
0.18 0.19 0.18 0.15 0.13 0.12 0.09 0.07 0.08 0.09 0.10 0.10 0.11 0.12 0.13 0.12 0.15 0.34 0.44 0.37 0.40 0.53 0.19 0.07 0.03 0.04 0.08 0.14 0.16 0.09 0.22 0.21 0.18 0.15 0.09 0.03 0.01 0.00 0.00 0.01 0.01 0.01 0.01 0.02 0.02 0.03 0.00 0.00 0.05 0.08 0.04 0.00 0.00 0.00
0.18 0.15 0.12 0.10 0.10 0.09 0.10 0.11 0.11 0.10 0.09 0.10 0.12 0.14 0.15 0.14 0.14 0.29 0.47 0.31 0.36 0.62 0.27 0.03 0.05 0.04 0.02 0.02 0.05 0.13 0.05 0.01 0.01 0.03 0.02 0.01 0.00 0.00 0.00 0.00 0.00 0.01 0.00 0.00 0.00 0.00 0.00 0.00 0.02 0.02 0.01 0.01 0.00 0.00
0.12 0.12 0.13 0.11 0.08 0.06 0.07 0.09 0.12 0.15 0.17 0.14 0.10 0.11 0.15 0.14 0.16 0.32 0.45 0.23 0.51 0.95 0.44 0.10 0.02 0.01 0.01 0.02 0.03 0.07 0.02 0.01 0.01 0.01 0.03 0.02 0.01 0.00 0.00 0.00 0.00 0.00 0.00 0.00 0.00 0.00 0.00 0.00 0.00 0.00 0.00 0.01 0.00 0.00
0.23 0.26 0.18 0.13 0.10 0.09 0.06 0.06 0.06 0.09 0.12 0.15 0.18 0.14 0.11 0.14 0.17 0.38 0.50 0.27 0.31 0.42 0.24 0.13 0.01 0.01 0.00 0.02 0.05 0.03 0.03 0.03 0.04 0.07 0.07 0.04 0.02 0.00 0.00 0.00 0.00 0.00 0.00 0.01 0.00 0.00 0.00 0.00 0.00 0.00 0.00 0.00 0.01 0.01
0.24 0.09 0.07 0.06 0.07 0.07 0.05 0.05 0.05 0.04 0.07 0.12 0.13 0.18 0.15 0.18 0.24 0.51 0.57 0.25 0.10 0.10 0.10 0.02 0.00 0.00 0.00 0.00 0.03 0.09 0.09 0.05 0.08 0.13 0.19 0.09 0.02 0.03 0.02 0.01 0.00 0.01 0.02 0.04 0.01 0.02 0.00 0.00 0.01 0.00 0.00 0.00 0.00 0.01
0.12 0.04 0.03 0.06 0.05 0.04 0.05 0.03 0.02 0.02 0.04 0.08 0.14 0.17 0.18 0.28 0.54 1.04 1.56 0.78 0.09 0.08 0.18 0.08 0.07 0.01 0.00 0.00 0.02 0.04 0.11 0.15 0.14 0.19 0.15 0.03 0.02 0.07 0.06 0.05 0.02 0.01 0.02 0.01 0.00 0.01 0.02 0.01 0.03 0.02 0.01 0.02 0.02 0.03
0.04 0.06 0.08 0.05 0.06 0.07 0.04 0.02 0.03 0.05 0.07 0.10 0.14 0.19 0.21 0.43 0.58 0.66 0.43 0.25 0.08 0.13 0.38 0.23 0.06 0.02 0.02 0.03 0.03 0.07 0.12 0.34 0.47 0.33 0.27 0.17 0.06 0.12 0.08 0.09 0.06 0.05 0.06 0.04 0.02 0.02 0.05 0.03 0.02 0.02 0.02 0.02 0.01 0.01
0.04 0.09 0.14 0.15 0.16 0.20 0.11 0.08 0.08 0.08 0.09 0.16 0.23 0.24 0.33 0.48 0.56 0.30 0.12 0.02 0.08 0.40 0.48 0.40 0.16 0.09 0.10 0.09 0.06 0.11 0.22 0.42 0.60 0.51 0.37 0.29 0.31 0.20 0.18 0.09 0.03 0.00 0.01 0.05 0.06 0.07 0.08 0.06 0.03 0.02 0.01 0.01 0.01 0.00
0.09 0.12 0.16 0.25 0.25 0.20 0.11 0.08 0.09 0.17 0.28 0.34 0.36 0.54 1.06 0.77 0.67 0.32 0.22 0.15 0.20 0.32 0.26 0.20 0.23 0.20 0.20 0.13 0.09 0.11 0.24 0.46 0.46 0.36 0.24 0.29 0.60 0.50 0.25 0.09 0.07 0.04 0.01 0.00 0.00 0.00 0.01 0.02 0.02 0.01 0.00 0.00 0.00 0.00
0.10 0.14 0.15 0.17 0.19 0.26 0.30 0.33 0.36 0.34 0.31 0.30 0.46 0.90 1.14 0.65 0.37 0.37 0.70 0.57 0.48 0.26 0.13 0.11 0.06 0.13 0.35 0.29 0.15 0.09 0.11 0.21 0.30 0.26 0.26 0.31 0.22 0.14 0.08 0.08 0.08 0.07 0.07 0.04 0.01 0.01 0.01 0.02 0.01 0.01 0.01 0.02 0.01 0.01
0.09 0.11 0.12 0.11 0.11 0.14 0.21 0.25 0.27 0.23 0.15 0.23 0.45 0.73 0.62 0.39 0.24 0.36 0.43 0.31 0.20 0.13 0.07 0.12 0.08 0.11 0.16 0.38 0.12 0.03 0.04 0.07 0.13 0.21 0.17 0.19 0.18 0.12 0.03 0.01 0.04 0.09 0.07 0.08 0.11 0.12 0.12 0.14 0.11 0.07 0.07 0.08 0.09 0.10
0.06 0.06 0.07 0.06 0.07 0.07 0.09 0.12 0.08 0.06 0.07 0.06 0.18 0.31 0.41 0.30 0.22 0.17 0.10 0.11 0.07 0.05 0.06 0.10 0.12 0.19 0.10 0.39 0.25 0.03 0.04 0.02 0.07 0.12 0.06 0.03 0.06 0.06 0.07 0.06 0.06 0.10 0.13 0.15 0.13 0.14 0.17 0.17 0.19 0.17 0.15 0.14 0.14 0.15
0.01 0.01 0.01 0.04 0.05 0.06 0.06 0.06 0.03 0.00 0.00 0.00 0.01 0.04 0.03 0.01 0.01 0.02 0.03 0.05 0.06 0.06 0.06 0.10 0.18 0.26 0.16 0.43 0.51 0.08 0.06 0.06 0.03 0.07 0.06 0.05 0.04 0.02 0.02 0.03 0.05 0.09 0.11 0.14 0.16 0.17 0.15 0.15 0.14 0.13 0.12 0.15 0.13 0.13
0.01 0.00 0.00 0.00 0.00 0.00 0.00 0.00 0.00 0.00 0.00 0.00 0.00 0.00 0.00 0.01 0.03 0.05 0.05 0.04 0.06 0.06 0.09 0.15 0.19 0.22 0.19 0.39 0.31 0.09 0.10 0.03 0.01 0.03 0.03 0.05 0.04 0.04 0.04 0.05 0.04 0.08 0.10 0.11 0.14 0.14 0.15 0.14 0.16 0.17 0.19 0.23 0.16 0.18
0.00 0.00 0.00 0.00 0.00 0.00 0.00 0.00 0.00 0.00 0.00 0.00 0.00 0.01 0.02 0.07 0.07 0.07 0.07 0.06 0.06 0.08 0.16 0.19 0.16 0.11 0.09 0.32 0.06 0.03 0.04 0.02 0.01 0.02 0.05 0.08 0.07 0.06 0.07 0.09 0.10 0.13 0.15 0.16 0.18 0.16 0.17 0.18 0.14 0.17 0.22 0.22 0.17 0.18
0.00 0.00 0.00 0.00 0.00 0.00 0.00 0.00 0.00 0.00 0.00 0.00 0.02 0.03 0.02 0.03 0.03 0.03 0.05 0.08 0.08 0.14 0.17 0.14 0.08 0.04 0.05 0.11 0.01 0.01 0.00 0.01 0.04 0.05 0.08 0.07 0.08 0.11 0.14 0.16 0.19 0.21 0.21 0.22 0.24 0.23 0.23 0.22 0.19 0.20 0.19 0.16 0.16 0.13
0.00 0.01 0.01 0.00 0.00 0.00 0.00 0.00 0.00 0.00 0.00 0.00 0.02 0.04 0.04 0.03 0.04 0.07 0.09 0.10 0.12 0.15 0.15 0.10 0.06 0.04 0.02 0.00 0.01 0.01 0.03 0.08 0.10 0.12 0.13 0.12 0.13 0.17 0.19 0.19 0.21 0.20 0.18 0.17 0.15 0.13 0.11 0.10 0.07 0.05 0.04 0.05 0.03 0.01
0.06 0.06 0.03 0.00 0.00 0.00 0.00 0.00 0.00 0.00 0.00 0.02 0.03 0.05 0.03 0.06 0.10 0.11 0.16 0.22 0.24 0.26 0.24 0.15 0.07 0.02 0.02 0.01 0.02 0.08 0.13 0.19 0.17 0.17 0.17 0.19 0.16 0.16 0.15 0.13 0.13 0.11 0.09 0.08 0.06 0.04 0.02 0.01 0.00 0.01 0.01 0.00 0.00 0.00
0.07 0.07 0.05 0.01 0.00 0.00 0.00 0.00 0.00 0.00 0.01 0.03 0.05 0.05 0.07 0.12 0.14 0.14 0.12 0.12 0.08 0.06 0.03 0.02 0.03 0.05 0.08 0.09 0.08 0.15 0.16 0.11 0.13 0.14 0.13 0.15 0.14 0.12 0.11 0.09 0.07 0.06 0.04 0.02 0.01 0.00 0.00 0.00 0.01 0.00 0.00 0.00 0.00 0.01
0.10 0.09 0.06 0.01 0.00 0.00 0.00 0.00 0.00 0.00 0.01 0.03 0.07 0.07 0.07 0.09 0.06 0.05 0.03 0.01 0.00 0.00 0.01 0.04 0.13 0.15 0.13 0.17 0.08 0.07 0.09 0.08 0.03 0.04 0.06 0.08 0.07 0.05 0.04 0.03 0.02 0.01 0.00 0.00 0.00 0.00 0.00 0.00 0.00 0.00 0.00 0.00 0.00 0.00
0.01 0.00 0.00 0.00 0.00 0.00 0.00 0.00 0.01 0.01 0.03 0.05 0.06 0.04 0.05 0.02 0.02 0.02 0.01 0.00 0.00 0.02 0.11 0.17 0.17 0.19 0.09 0.10 0.06 0.02 0.03 0.03 0.02 0.01 0.01 0.03 0.03 0.01 0.01 0.00 0.00 0.00 0.00 0.00 0.00 0.00 0.00 0.00 0.00 0.00 0.00 0.00 0.00 0.00
0.00 0.00 0.00 0.00 0.00 0.00 0.00 0.00 0.01 0.01 0.01 0.02 0.02 0.00 0.00 0.00 0.00 0.00 0.00 0.01 0.07 0.11 0.14 0.11 0.09 0.05 0.03 0.05 0.06 0.02 0.02 0.01 0.00 0.00 0.00 0.00 0.00 0.00 0.00 0.00 0.00 0.00 0.00 0.00 0.00 0.00 0.00 0.00 0.00 0.00 0.00 0.00 0.00 0.00
0.00 0.00 0.00 0.00 0.00 0.00 0.04 0.01 0.01 0.02 0.01 0.01 0.00 0.00 0.00 0.00 0.00 0.00 0.00 0.03 0.12 0.16 0.10 0.04 0.04 0.02 0.02 0.04 0.01 0.01 0.01 0.00 0.00 0.00 0.00 0.00 0.00 0.00 0.00 0.00 0.00 0.00 0.00 0.00 0.00 0.00 0.00 0.00 0.00 0.00 0.00 0.00 0.00 0.00
0.00 0.00 0.00 0.00 0.00 0.00 0.00 0.00 0.00 0.00 0.00 0.00 0.00 0.00 0.00 0.00 0.00 0.00 0.01 0.04 0.10 0.10 0.04 0.04 0.02 0.00 0.00 0.00 0.00 0.00 0.00 0.00 0.00 0.00 0.00 0.00 0.00 0.00 0.00 0.00 0.00 0.00 0.00 0.00 0.00 0.00 0.00 0.00 0.00 0.00 0.00 0.00 0.00 0.00
0.00 0.00 0.00 0.00 0.00 0.00 0.00 0.00 0.00 0.00 0.00 0.00 0.00 0.00 0.00 0.00 0.00 0.00 0.00 0.03 0.05 0.04 0.02 0.01 0.00 0.00 0.00 0.00 0.00 0.00 0.00 0.00 0.00 0.00 0.00 0.00 0.00 0.00 0.00 0.00 0.00 0.01 0.00 0.00 0.00 0.00 0.00 0.00 0.00 0.00 0.00 0.00 0.00 0.00
0.00 0.01 0.00 0.00 0.00 0.00 0.00 0.00 0.00 0.00 0.00 0.00 0.00 0.00 0.00 0.00 0.00 0.00 0.00 0.01 0.01 0.01 0.00 0.00 0.00 0.00 0.00 0.00 0.00 0.00 0.00 0.00 0.00 0.00 0.00 0.00 0.00 0.00 0.00 0.00 0.00 0.00 0.00 0.00 0.00 0.00 0.00 0.00 0.00 0.00 0.00 0.00 0.00 0.00
0.00 0.00 0.00 0.00 0.00 0.00 0.00 0.00 0.00 0.00 0.00 0.01 0.00 0.00 0.00 0.00 0.00 0.02 0.03 0.01 0.01 0.01 0.00 0.00 0.00 0.00 0.00 0.00 0.00 0.00 0.00 0.00 0.00 0.00 0.00 0.00 0.00 0.00 0.00 0.00 0.00 0.00 0.00 0.00 0.00 0.00 0.00 0.00 0.00 0.00 0.00 0.00 0.00 0.00
0.00 0.00 0.00 0.00 0.00 0.00 0.00 0.00 0.00 0.01 0.01 0.01 0.00 0.00 0.00 0.00 0.02 0.03 0.02 0.03 0.00 0.00 0.00 0.00 0.00 0.00 0.00 0.00 0.00 0.00 0.00 0.00 0.00 0.00 0.00 0.00 0.00 0.00 0.00 0.00 0.00 0.00 0.00 0.00 0.00 0.00 0.00 0.00 0.00 0.00 0.00 0.00 0.00 0.00
0.00 0.00 0.00 0.00 0.00 0.00 0.01 0.01 0.01 0.01 0.02 0.00 0.00 0.01 0.02 0.03 0.04 0.03 0.04 0.01 0.00 0.00 0.00 0.00 0.00 0.00 0.00 0.00 0.00 0.00 0.00 0.00 0.00 0.00 0.00 0.00 0.00 0.00 0.00 0.00 0.00 0.00 0.00 0.00 0.00 0.00 0.01 0.01 0.01 0.00 0.00 0.00 0.00 0.01
0.00 0.00 0.00 0.00 0.00 0.01 0.03 0.02 0.02 0.01 0.01 0.00 0.01 0.01 0.02 0.07 0.10 0.04 0.02 0.01 0.00 0.00 0.00 0.00 0.00 0.00 0.00 0.00 0.00 0.00 0.00 0.00 0.00 0.00 0.00 0.00 0.00 0.00 0.00 0.00 0.00 0.00 0.00 0.00 0.00 0.00 0.00 0.00 0.00 0.00 0.00 0.00 0.00 0.00
0.00 0.00 0.00 0.00 0.01 0.02 0.02 0.01 0.00 0.00 0.00 0.00 0.00 0.00 0.02 0.05 0.05 0.05 0.03 0.01 0.00 0.00 0.00 0.00 0.00 0.00 0.00 0.00 0.00 0.00 0.00 0.00 0.00 0.00 0.00 0.00 0.00 0.00 0.00 0.00 0.00 0.00 0.00 0.00 0.00 0.00 0.00 0.00 0.00 0.00 0.00 0.00 0.00 0.00
0.00 0.00 0.00 0.00 0.02 0.02 0.01 0.00 0.00 0.00 0.00 0.00 0.00 0.00 0.00 0.00 0.00 0.02 0.03 0.02 0.01 0.00 0.00 0.00 0.00 0.00 0.00 0.00 0.00 0.00 0.00 0.00 0.00 0.00 0.00 0.00 0.00 0.00 0.00 0.00 0.00 0.00 0.00 0.00 0.00 0.00 0.00 0.00 0.00 0.00 0.00 0.00 0.00 0.00
0.00 0.00 0.00 0.00 0.01 0.01 0.01 0.01 0.00 0.00 0.00 0.00 0.01 0.01 0.00 0.00 0.00 0.01 0.02 0.01 0.01 0.01 0.00 0.00 0.00 0.00 0.00 0.00 0.00 0.00 0.00 0.00 0.00 0.00 0.00 0.00 0.00 0.00 0.00 0.00 0.00 0.00 0.00 0.00 0.00 0.00 0.00 0.00 0.00 0.00 0.00 0.00 0.00 0.00

GFSWCAN_prec_precacc12_057.txt.gz
Total_Precipitation_Accumulation
0.17 0.18 0.19 0.20 0.21 0.22 0.21 0.17 0.16 0.13 0.10 0.09 0.10 0.10 0.12 0.12 0.16 0.34 0.44 0.33 0.37 0.46 0.18 0.07 0.04 0.05 0.11 0.18 0.20 0.14 0.33 0.30 0.26 0.21 0.09 0.06 0.03 0.01 0.02 0.07 0.03 0.01 0.02 0.02 0.03 0.04 0.01 0.00 0.00 0.02 0.04 0.01 0.00 0.00
0.17 0.16 0.15 0.15 0.16 0.17 0.17 0.17 0.16 0.14 0.10 0.09 0.11 0.12 0.12 0.13 0.13 0.27 0.43 0.31 0.39 0.57 0.26 0.04 0.05 0.05 0.03 0.02 0.08 0.18 0.15 0.05 0.03 0.07 0.05 0.05 0.03 0.02 0.01 0.03 0.04 0.03 0.00 0.01 0.00 0.00 0.00 0.00 0.03 0.01 0.00 0.00 0.00 0.00
0.12 0.12 0.13 0.14 0.13 0.13 0.12 0.11 0.11 0.13 0.15 0.13 0.09 0.10 0.13 0.13 0.15 0.28 0.35 0.21 0.55 0.86 0.44 0.12 0.04 0.01 0.01 0.03 0.06 0.14 0.06 0.13 0.06 0.06 0.10 0.07 0.05 0.02 0.02 0.01 0.02 0.01 0.00 0.02 0.03 0.01 0.00 0.00 0.00 0.00 0.00 0.00 0.00 0.00
0.24 0.23 0.17 0.12 0.10 0.09 0.08 0.07 0.06 0.08 0.11 0.14 0.17 0.13 0.11 0.14 0.19 0.36 0.44 0.26 0.35 0.46 0.27 0.14 0.01 0.01 0.01 0.03 0.07 0.05 0.04 0.07 0.08 0.11 0.13 0.10 0.06 0.02 0.02 0.01 0.00 0.00 0.00 0.00 0.01 0.00 0.00 0.00 0.00 0.00 0.00 0.00 0.00 0.01
0.20 0.07 0.05 0.04 0.05 0.07 0.06 0.05 0.05 0.04 0.07 0.11 0.13 0.19 0.17 0.19 0.25 0.45 0.52 0.26 0.13 0.15 0.21 0.06 0.01 0.00 0.00 0.01 0.04 0.09 0.11 0.11 0.17 0.16 0.21 0.11 0.04 0.04 0.03 0.03 0.01 0.00 0.00 0.01 0.02 0.01 0.00 0.01 0.00 0.00 0.00 0.00 0.00 0.01
0.11 0.04 0.03 0.06 0.05 0.05 0.05 0.03 0.02 0.02 0.03 0.06 0.14 0.19 0.22 0.28 0.42 0.90 1.55 0.78 0.14 0.13 0.23 0.11 0.03 0.00 0.00 0.01 0.04 0.06 0.14 0.25 0.26 0.25 0.12 0.04 0.02 0.08 0.08 0.05 0.03 0.01 0.00 0.00 0.02 0.00 0.00 0.00 0.01 0.02 0.01 0.01 0.02 0.03
0.04 0.07 0.08 0.05 0.06 0.06 0.03 0.02 0.02 0.04 0.05 0.08 0.16 0.23 0.24 0.37 0.55 0.64 0.45 0.26 0.16 0.20 0.35 0.15 0.04 0.00 0.00 0.01 0.05 0.09 0.14 0.37 0.56 0.43 0.19 0.07 0.06 0.15 0.12 0.10 0.07 0.04 0.05 0.02 0.01 0.00 0.01 0.01 0.01 0.02 0.02 0.02 0.01 0.01
0.05 0.08 0.14 0.16 0.15 0.20 0.10 0.07 0.06 0.06 0.06 0.18 0.26 0.26 0.31 0.51 0.59 0.34 0.13 0.02 0.05 0.28 0.31 0.27 0.14 0.06 0.04 0.05 0.05 0.08 0.18 0.27 0.44 0.49 0.34 0.09 0.11 0.21 0.22 0.08 0.01 0.00 0.01 0.04 0.05 0.06 0.06 0.05 0.03 0.02 0.01 0.01 0.01 0.00
0.16 0.17 0.21 0.31 0.26 0.21 0.10 0.06 0.07 0.14 0.23 0.31 0.35 0.62 1.27 0.84 0.71 0.36 0.22 0.11 0.08 0.16 0.15 0.16 0.21 0.17 0.15 0.12 0.08 0.08 0.13 0.34 0.30 0.26 0.24 0.27 0.31 0.40 0.21 0.05 0.01 0.00 0.00 0.00 0.00 0.00 0.01 0.02 0.02 0.01 0.00 0.01 0.00 0.00
0.18 0.16 0.16 0.18 0.19 0.26 0.29 0.29 0.29 0.30 0.33 0.41 0.67 1.13 1.12 0.39 0.23 0.42 0.68 0.48 0.41 0.22 0.14 0.11 0.09 0.16 0.36 0.31 0.16 0.10 0.10 0.19 0.30 0.30 0.32 0.30 0.17 0.10 0.08 0.07 0.05 0.02 0.03 0.03 0.01 0.01 0.01 0.02 0.02 0.01 0.02 0.02 0.02 0.02
0.16 0.13 0.14 0.16 0.15 0.16 0.20 0.24 0.28 0.28 0.25 0.41 0.62 0.75 0.42 0.32 0.28 0.43 0.49 0.37 0.25 0.15 0.08 0.14 0.10 0.12 0.17 0.44 0.16 0.07 0.06 0.08 0.15 0.21 0.20 0.16 0.09 0.04 0.01 0.00 0.00 0.01 0.01 0.03 0.06 0.07 0.09 0.10 0.09 0.06 0.06 0.07 0.08 0.09
0.11 0.09 0.09 0.10 0.13 0.14 0.16 0.17 0.12 0.08 0.13 0.12 0.32 0.35 0.45 0.38 0.29 0.21 0.13 0.13 0.07 0.06 0.07 0.11 0.13 0.21 0.11 0.42 0.30 0.07 0.07 0.04 0.11 0.09 0.07 0.05 0.05 0.02 0.02 0.04 0.03 0.05 0.07 0.10 0.12 0.12 0.16 0.15 0.13 0.12 0.14 0.14 0.14 0.16
0.02 0.01 0.03 0.08 0.10 0.12 0.13 0.10 0.03 0.01 0.00 0.00 0.01 0.07 0.06 0.04 0.02 0.04 0.04 0.05 0.06 0.06 0.06 0.09 0.19 0.26 0.17 0.35 0.51 0.13 0.09 0.08 0.03 0.06 0.07 0.04 0.03 0.01 0.02 0.02 0.04 0.08 0.09 0.12 0.15 0.16 0.15 0.14 0.13 0.12 0.12 0.14 0.13 0.13
0.00 0.00 0.00 0.00 0.02 0.03 0.01 0.01 0.00 0.00 0.00 0.00 0.00 0.00 0.00 0.01 0.03 0.04 0.04 0.03 0.04 0.04 0.05 0.10 0.18 0.22 0.19 0.29 0.41 0.19 0.07 0.02 0.02 0.03 0.03 0.04 0.03 0.03 0.03 0.03 0.03 0.06 0.08 0.09 0.11 0.11 0.11 0.10 0.12 0.13 0.14 0.17 0.12 0.13
0.00 0.00 0.00 0.00 0.00 0.00 0.00 0.00 0.00 0.00 0.00 0.00 0.00 0.01 0.02 0.06 0.05 0.06 0.05 0.04 0.04 0.06 0.10 0.16 0.16 0.16 0.12 0.24 0.11 0.06 0.03 0.02 0.02 0.03 0.04 0.06 0.05 0.04 0.05 0.06 0.06 0.08 0.10 0.11 0.14 0.12 0.13 0.14 0.11 0.14 0.18 0.19 0.15 0.16
0.00 0.00 0.00 0.00 0.00 0.00 0.00 0.00 0.00 0.00 0.00 0.00 0.01 0.03 0.02 0.04 0.04 0.03 0.04 0.05 0.06 0.10 0.12 0.13 0.12 0.12 0.08 0.09 0.02 0.01 0.01 0.01 0.03 0.04 0.05 0.05 0.05 0.07 0.08 0.09 0.10 0.12 0.13 0.15 0.18 0.18 0.18 0.19 0.17 0.17 0.18 0.16 0.15 0.13
0.00 0.00 0.00 0.00 0.00 0.00 0.00 0.00 0.00 0.00 0.00 0.00 0.02 0.04 0.04 0.04 0.04 0.06 0.07 0.07 0.08 0.10 0.07 0.04 0.01 0.02 0.01 0.00 0.01 0.01 0.02 0.04 0.05 0.09 0.10 0.10 0.08 0.10 0.11 0.12 0.15 0.16 0.16 0.17 0.15 0.14 0.11 0.10 0.08 0.05 0.04 0.04 0.02 0.01
0.03 0.02 0.01 0.00 0.00 0.00 0.00 0.00 0.00 0.00 0.01 0.02 0.03 0.05 0.04 0.07 0.10 0.11 0.15 0.17 0.15 0.12 0.08 0.03 0.00 0.00 0.01 0.01 0.02 0.05 0.08 0.13 0.14 0.14 0.14 0.15 0.13 0.12 0.13 0.12 0.13 0.11 0.10 0.09 0.07 0.04 0.02 0.01 0.00 0.00 0.00 0.00 0.00 0.00
0.03 0.02 0.00 0.00 0.00 0.00 0.00 0.00 0.00 0.00 0.01 0.03 0.04 0.05 0.08 0.13 0.15 0.15 0.13 0.12 0.07 0.04 0.02 0.01 0.02 0.03 0.05 0.07 0.06 0.12 0.14 0.10 0.12 0.13 0.12 0.14 0.14 0.12 0.11 0.10 0.08 0.07 0.04 0.02 0.00 0.00 0.00 0.00 0.00 0.00 0.00 0.00 0.00 0.00
0.05 0.02 0.01 0.00 0.00 0.00 0.00 0.00 0.00 0.00 0.01 0.03 0.08 0.07 0.07 0.10 0.07 0.06 0.03 0.01 0.00 0.00 0.01 0.03 0.12 0.16 0.14 0.18 0.10 0.09 0.09 0.08 0.03 0.04 0.07 0.08 0.07 0.05 0.04 0.03 0.02 0.01 0.00 0.00 0.00 0.00 0.00 0.00 0.00 0.00 0.00 0.00 0.00 0.00
0.01 0.00 0.00 0.00 0.00 0.00 0.00 0.00 0.00 0.01 0.05 0.07 0.07 0.04 0.06 0.04 0.03 0.02 0.01 0.00 0.01 0.03 0.11 0.17 0.17 0.21 0.13 0.12 0.09 0.04 0.05 0.04 0.03 0.02 0.01 0.03 0.03 0.01 0.01 0.00 0.00 0.00 0.00 0.00 0.00 0.00 0.00 0.00 0.00 0.00 0.00 0.00 0.00 0.00
0.00 0.00 0.00 0.00 0.00 0.00 0.00 0.00 0.00 0.01 0.01 0.01 0.02 0.00 0.01 0.02 0.02 0.01 0.00 0.01 0.08 0.12 0.13 0.13 0.10 0.06 0.03 0.04 0.05 0.03 0.02 0.01 0.00 0.00 0.00 0.00 0.00 0.00 0.00 0.00 0.00 0.00 0.00 0.00 0.00 0.00 0.00 0.00 0.00 0.00 0.00 0.00 0.00 0.00
0.00 0.00 0.00 0.00 0.00 0.00 0.03 0.02 0.01 0.01 0.01 0.01 0.00 0.00 0.00 0.00 0.00 0.00 0.00 0.03 0.11 0.15 0.09 0.04 0.04 0.02 0.02 0.04 0.01 0.01 0.01 0.00 0.00 0.00 0.00 0.00 0.00 0.00 0.00 0.00 0.00 0.00 0.00 0.00 0.00 0.00 0.00 0.00 0.00 0.00 0.00 0.00 0.00 0.00
0.00 0.00 0.00 0.00 0.00 0.00 0.00 0.00 0.00 0.00 0.00 0.00 0.00 0.00 0.00 0.00 0.00 0.00 0.01 0.03 0.08 0.09 0.05 0.05 0.02 0.01 0.00 0.00 0.00 0.00 0.00 0.00 0.00 0.00 0.00 0.00 0.00 0.00 0.00 0.00 0.00 0.00 0.00 0.00 0.00 0.00 0.00 0.00 0.00 0.00 0.00 0.00 0.00 0.01
0.00 0.00 0.00 0.00 0.00 0.00 0.00 0.00 0.00 0.00 0.00 0.00 0.00 0.00 0.00 0.00 0.00 0.00 0.00 0.02 0.03 0.04 0.03 0.01 0.00 0.00 0.00 0.00 0.00 0.00 0.00 0.00 0.00 0.00 0.00 0.00 0.00 0.00 0.00 0.00 0.00 0.00 0.00 0.00 0.00 0.00 0.00 0.00 0.00 0.00 0.00 0.00 0.00 0.00
0.00 0.01 0.00 0.00 0.00 0.00 0.00 0.00 0.00 0.00 0.00 0.00 0.00 0.00 0.00 0.00 0.00 0.00 0.01 0.01 0.01 0.02 0.01 0.00 0.00 0.00 0.00 0.00 0.00 0.00 0.00 0.00 0.00 0.00 0.00 0.00 0.00 0.00 0.00 0.00 0.00 0.00 0.00 0.00 0.00 0.00 0.00 0.00 0.00 0.00 0.00 0.00 0.00 0.00
0.00 0.00 0.00 0.00 0.00 0.00 0.00 0.00 0.00 0.00 0.00 0.00 0.00 0.00 0.00 0.00 0.00 0.02 0.03 0.02 0.01 0.00 0.00 0.00 0.00 0.00 0.00 0.00 0.00 0.00 0.00 0.00 0.00 0.00 0.00 0.00 0.00 0.00 0.00 0.00 0.00 0.00 0.00 0.00 0.00 0.00 0.00 0.00 0.00 0.00 0.00 0.00 0.01 0.01
0.00 0.00 0.00 0.00 0.00 0.00 0.00 0.00 0.00 0.00 0.01 0.00 0.00 0.00 0.00 0.00 0.02 0.03 0.03 0.03 0.00 0.00 0.00 0.00 0.00 0.00 0.00 0.00 0.00 0.00 0.00 0.00 0.00 0.00 0.00 0.00 0.00 0.00 0.00 0.00 0.00 0.00 0.00 0.00 0.00 0.00 0.00 0.00 0.00 0.00 0.00 0.00 0.00 0.01
0.00 0.00 0.00 0.00 0.00 0.00 0.00 0.01 0.01 0.01 0.01 0.00 0.00 0.01 0.01 0.03 0.04 0.03 0.04 0.01 0.00 0.00 0.00 0.00 0.00 0.00 0.00 0.00 0.00 0.00 0.00 0.00 0.00 0.00 0.00 0.00 0.00 0.00 0.00 0.00 0.00 0.00 0.00 0.00 0.00 0.01 0.01 0.01 0.01 0.00 0.00 0.01 0.00 0.01
0.00 0.00 0.00 0.00 0.00 0.01 0.03 0.02 0.02 0.02 0.01 0.01 0.00 0.01 0.02 0.07 0.10 0.05 0.02 0.01 0.01 0.00 0.00 0.00 0.00 0.00 0.00 0.00 0.00 0.00 0.00 0.00 0.00 0.00 0.00 0.00 0.00 0.00 0.00 0.01 0.00 0.00 0.00 0.00 0.00 0.00 0.00 0.00 0.01 0.00 0.00 0.00 0.00 0.00
0.00 0.00 0.00 0.00 0.01 0.03 0.03 0.01 0.01 0.00 0.00 0.00 0.00 0.01 0.02 0.05 0.05 0.04 0.02 0.01 0.01 0.00 0.00 0.00 0.00 0.00 0.00 0.00 0.00 0.00 0.00 0.00 0.00 0.00 0.00 0.00 0.00 0.00 0.00 0.00 0.00 0.00 0.00 0.00 0.00 0.00 0.00 0.00 0.00 0.00 0.00 0.00 0.00 0.00
0.00 0.00 0.00 0.00 0.02 0.02 0.02 0.01 0.00 0.00 0.00 0.00 0.00 0.00 0.00 0.00 0.01 0.02 0.03 0.02 0.01 0.01 0.01 0.00 0.01 0.00 0.00 0.00 0.00 0.00 0.00 0.00 0.00 0.00 0.00 0.00 0.00 0.00 0.00 0.00 0.00 0.00 0.00 0.00 0.00 0.00 0.00 0.00 0.00 0.00 0.00 0.00 0.00 0.00
0.00 0.00 0.00 0.00 0.01 0.00 0.01 0.01 0.00 0.00 0.00 0.01 0.01 0.01 0.00 0.00 0.00 0.01 0.01 0.02 0.02 0.02 0.01 0.00 0.00 0.00 0.00 0.00 0.00 0.00 0.00 0.00 0.00 0.00 0.00 0.00 0.00 0.00 0.00 0.00 0.00 0.00 0.00 0.00 0.00 0.00 0.00 0.00 0.00 0.00 0.00 0.00 0.00 0.00

GFSWCAN_prec_precacc12_060.txt.gz
Total_Precipitation_Accumulation
0.15 0.17 0.18 0.18 0.18 0.19 0.21 0.24 0.28 0.29 0.24 0.15 0.09 0.07 0.08 0.09 0.11 0.25 0.31 0.26 0.32 0.40 0.12 0.05 0.03 0.05 0.12 0.23 0.28 0.22 0.34 0.29 0.24 0.19 0.11 0.08 0.09 0.07 0.06 0.14 0.08 0.02 0.03 0.03 0.03 0.05 0.02 0.00 0.00 0.03 0.09 0.02 0.00 0.00
0.16 0.14 0.14 0.13 0.14 0.15 0.18 0.21 0.23 0.26 0.25 0.20 0.17 0.12 0.11 0.11 0.11 0.24 0.40 0.30 0.33 0.46 0.18 0.03 0.04 0.04 0.03 0.04 0.15 0.27 0.18 0.17 0.09 0.09 0.08 0.11 0.09 0.06 0.03 0.08 0.12 0.10 0.00 0.01 0.00 0.01 0.00 0.00 0.04 0.03 0.00 0.01 0.01 0.00
0.12 0.13 0.14 0.14 0.13 0.12 0.13 0.16 0.19 0.21 0.21 0.18 0.13 0.10 0.12 0.11 0.11 0.23 0.32 0.23 0.55 0.73 0.37 0.09 0.03 0.01 0.01 0.02 0.06 0.19 0.09 0.16 0.15 0.17 0.23 0.16 0.11 0.04 0.02 0.02 0.08 0.11 0.02 0.06 0.08 0.03 0.01 0.01 0.02 0.00 0.00 0.00 0.00 0.00
0.20 0.18 0.14 0.12 0.11 0.08 0.06 0.07 0.10 0.13 0.13 0.14 0.14 0.11 0.10 0.11 0.15 0.27 0.36 0.27 0.41 0.47 0.25 0.12 0.01 0.01 0.01 0.04 0.07 0.06 0.06 0.12 0.23 0.28 0.29 0.18 0.10 0.04 0.05 0.02 0.02 0.08 0.13 0.05 0.07 0.05 0.07 0.17 0.08 0.00 0.00 0.00 0.00 0.00
0.16 0.10 0.06 0.04 0.03 0.04 0.04 0.05 0.04 0.03 0.06 0.11 0.11 0.15 0.13 0.15 0.20 0.37 0.37 0.25 0.19 0.16 0.25 0.11 0.01 0.00 0.00 0.01 0.04 0.09 0.13 0.13 0.20 0.21 0.25 0.13 0.09 0.07 0.04 0.03 0.01 0.01 0.07 0.07 0.09 0.09 0.08 0.22 0.03 0.00 0.00 0.00 0.00 0.00
0.10 0.05 0.05 0.04 0.04 0.04 0.03 0.03 0.02 0.02 0.02 0.06 0.14 0.16 0.19 0.23 0.40 0.84 1.33 0.66 0.17 0.18 0.27 0.15 0.07 0.02 0.01 0.01 0.05 0.07 0.16 0.28 0.30 0.37 0.17 0.06 0.03 0.09 0.09 0.06 0.06 0.04 0.00 0.00 0.03 0.00 0.00 0.00 0.00 0.00 0.00 0.00 0.00 0.01
0.06 0.07 0.06 0.04 0.05 0.05 0.03 0.02 0.02 0.03 0.03 0.05 0.15 0.22 0.24 0.39 0.56 0.75 0.56 0.25 0.16 0.25 0.40 0.18 0.07 0.03 0.01 0.03 0.10 0.13 0.20 0.42 0.49 0.44 0.20 0.09 0.10 0.16 0.12 0.06 0.10 0.01 0.00 0.00 0.00 0.00 0.00 0.00 0.00 0.00 0.00 0.00 0.00 0.00
0.07 0.11 0.14 0.16 0.14 0.16 0.05 0.04 0.03 0.03 0.04 0.10 0.16 0.24 0.35 0.55 0.57 0.37 0.16 0.02 0.06 0.28 0.31 0.18 0.18 0.09 0.02 0.03 0.10 0.09 0.21 0.28 0.47 0.37 0.32 0.12 0.13 0.20 0.17 0.02 0.00 0.00 0.00 0.01 0.04 0.06 0.06 0.04 0.01 0.00 0.00 0.00 0.00 0.00
0.25 0.23 0.22 0.24 0.17 0.13 0.04 0.02 0.04 0.08 0.11 0.18 0.30 0.66 1.26 0.87 0.69 0.39 0.25 0.11 0.09 0.18 0.17 0.08 0.09 0.14 0.07 0.05 0.08 0.12 0.15 0.32 0.26 0.24 0.20 0.24 0.25 0.15 0.09 0.01 0.00 0.00 0.00 0.00 0.00 0.00 0.01 0.02 0.02 0.01 0.00 0.00 0.00 0.00
0.32 0.24 0.17 0.19 0.16 0.21 0.21 0.21 0.22 0.24 0.40 0.56 0.89 1.21 1.04 0.39 0.26 0.51 0.76 0.53 0.47 0.22 0.10 0.05 0.06 0.18 0.22 0.21 0.13 0.11 0.11 0.10 0.15 0.16 0.17 0.12 0.13 0.06 0.01 0.00 0.01 0.01 0.01 0.00 0.00 0.00 0.01 0.02 0.01 0.01 0.01 0.02 0.01 0.02
0.18 0.15 0.15 0.18 0.16 0.16 0.19 0.22 0.33 0.48 0.40 0.49 0.64 0.70 0.34 0.35 0.33 0.44 0.44 0.32 0.21 0.09 0.04 0.05 0.11 0.15 0.11 0.42 0.19 0.11 0.09 0.09 0.09 0.14 0.14 0.15 0.10 0.04 0.00 0.00 0.00 0.01 0.01 0.01 0.02 0.04 0.06 0.08 0.08 0.05 0.05 0.06 0.07 0.07
0.10 0.10 0.10 0.12 0.16 0.16 0.16 0.21 0.19 0.14 0.19 0.16 0.32 0.30 0.48 0.42 0.30 0.25 0.14 0.10 0.07 0.06 0.06 0.11 0.17 0.26 0.11 0.46 0.34 0.11 0.11 0.06 0.12 0.05 0.06 0.08 0.06 0.01 0.01 0.01 0.01 0.02 0.03 0.03 0.04 0.05 0.07 0.08 0.10 0.10 0.10 0.10 0.12 0.13
0.03 0.05 0.06 0.10 0.13 0.17 0.21 0.16 0.06 0.02 0.02 0.01 0.02 0.12 0.13 0.07 0.08 0.09 0.06 0.05 0.06 0.05 0.06 0.10 0.20 0.28 0.16 0.35 0.52 0.15 0.11 0.08 0.03 0.06 0.08 0.05 0.02 0.01 0.01 0.01 0.02 0.04 0.06 0.09 0.10 0.11 0.11 0.12 0.11 0.10 0.10 0.12 0.12 0.11
0.01 0.04 0.09 0.14 0.15 0.16 0.10 0.09 0.10 0.04 0.01 0.00 0.00 0.00 0.00 0.01 0.02 0.03 0.04 0.03 0.02 0.03 0.04 0.10 0.19 0.22 0.17 0.21 0.36 0.21 0.07 0.03 0.03 0.04 0.04 0.04 0.03 0.02 0.02 0.03 0.03 0.05 0.06 0.07 0.09 0.09 0.09 0.09 0.09 0.10 0.11 0.13 0.10 0.10
0.00 0.02 0.03 0.03 0.02 0.02 0.02 0.01 0.00 0.00 0.00 0.00 0.00 0.01 0.02 0.04 0.03 0.04 0.04 0.03 0.02 0.03 0.05 0.11 0.14 0.17 0.09 0.12 0.10 0.09 0.04 0.04 0.04 0.05 0.05 0.05 0.04 0.04 0.05 0.05 0.06 0.07 0.07 0.08 0.10 0.09 0.09 0.10 0.08 0.09 0.13 0.13 0.11 0.11
0.00 0.01 0.01 0.01 0.00 0.00 0.00 0.00 0.00 0.00 0.00 0.00 0.01 0.03 0.03 0.05 0.05 0.04 0.04 0.05 0.05 0.06 0.06 0.10 0.12 0.15 0.11 0.07 0.06 0.05 0.05 0.04 0.05 0.05 0.05 0.04 0.04 0.06 0.07 0.07 0.08 0.09 0.09 0.11 0.12 0.12 0.12 0.12 0.11 0.12 0.12 0.11 0.11 0.09
0.00 0.00 0.00 0.00 0.00 0.00 0.00 0.00 0.00 0.00 0.00 0.00 0.02 0.03 0.04 0.04 0.05 0.06 0.05 0.05 0.05 0.08 0.06 0.08 0.07 0.08 0.06 0.02 0.01 0.02 0.04 0.05 0.06 0.08 0.08 0.07 0.06 0.08 0.09 0.09 0.10 0.11 0.12 0.12 0.11 0.10 0.09 0.08 0.07 0.05 0.03 0.03 0.01 0.01
0.00 0.00 0.00 0.00 0.00 0.00 0.00 0.00 0.00 0.00 0.01 0.03 0.03 0.06 0.03 0.05 0.08 0.07 0.09 0.09 0.08 0.05 0.04 0.03 0.01 0.01 0.02 0.02 0.03 0.06 0.09 0.11 0.09 0.10 0.12 0.13 0.11 0.11 0.11 0.10 0.10 0.09 0.08 0.07 0.06 0.04 0.02 0.01 0.00 0.00 0.00 0.00 0.00 0.00
0.00 0.00 0.00 0.00 0.00 0.00 0.00 0.00 0.00 0.00 0.02 0.03 0.05 0.05 0.06 0.09 0.11 0.11 0.09 0.07 0.03 0.02 0.01 0.01 0.02 0.03 0.05 0.06 0.06 0.11 0.13 0.10 0.10 0.10 0.10 0.12 0.11 0.10 0.10 0.09 0.08 0.06 0.04 0.02 0.01 0.00 0.00 0.00 0.00 0.00 0.00 0.00 0.00 0.00
0.00 0.00 0.00 0.00 0.00 0.00 0.00 0.00 0.00 0.00 0.02 0.03 0.08 0.07 0.06 0.10 0.09 0.08 0.03 0.01 0.00 0.00 0.01 0.03 0.09 0.14 0.12 0.15 0.09 0.08 0.09 0.06 0.03 0.04 0.07 0.09 0.08 0.06 0.05 0.03 0.02 0.01 0.00 0.00 0.00 0.00 0.00 0.00 0.00 0.00 0.00 0.00 0.00 0.00
0.00 0.00 0.00 0.00 0.00 0.00 0.00 0.00 0.01 0.02 0.05 0.07 0.08 0.04 0.07 0.04 0.04 0.03 0.01 0.00 0.00 0.03 0.09 0.15 0.16 0.20 0.13 0.13 0.11 0.06 0.08 0.06 0.05 0.02 0.02 0.03 0.02 0.01 0.01 0.00 0.00 0.00 0.00 0.00 0.00 0.00 0.00 0.00 0.00 0.00 0.00 0.00 0.01 0.00
0.00 0.00 0.00 0.00 0.00 0.00 0.00 0.00 0.02 0.02 0.01 0.02 0.02 0.01 0.02 0.03 0.02 0.01 0.00 0.01 0.08 0.14 0.14 0.14 0.11 0.07 0.04 0.04 0.04 0.02 0.02 0.01 0.00 0.00 0.00 0.00 0.00 0.00 0.00 0.00 0.00 0.00 0.00 0.00 0.00 0.00 0.00 0.00 0.00 0.00 0.00 0.00 0.00 0.00
0.00 0.00 0.00 0.00 0.00 0.00 0.01 0.03 0.02 0.03 0.01 0.01 0.00 0.01 0.01 0.01 0.00 0.00 0.01 0.03 0.10 0.14 0.08 0.04 0.03 0.01 0.01 0.02 0.01 0.01 0.00 0.00 0.00 0.00 0.00 0.00 0.00 0.00 0.00 0.00 0.00 0.00 0.00 0.00 0.00 0.00 0.00 0.00 0.00 0.00 0.00 0.00 0.00 0.00
0.00 0.00 0.00 0.00 0.00 0.01 0.00 0.00 0.00 0.00 0.00 0.00 0.00 0.00 0.00 0.00 0.00 0.00 0.01 0.03 0.07 0.09 0.05 0.04 0.02 0.01 0.01 0.00 0.00 0.00 0.00 0.00 0.00 0.00 0.00 0.00 0.00 0.00 0.00 0.00 0.00 0.00 0.00 0.00 0.00 0.00 0.00 0.01 0.00 0.01 0.00 0.01 0.01 0.01
0.00 0.00 0.00 0.00 0.00 0.00 0.00 0.00 0.00 0.00 0.00 0.00 0.00 0.00 0.00 0.00 0.00 0.00 0.01 0.02 0.04 0.04 0.03 0.02 0.01 0.00 0.00 0.00 0.00 0.00 0.00 0.00 0.00 0.00 0.00 0.00 0.00 0.00 0.00 0.00 0.00 0.00 0.00 0.00 0.00 0.00 0.00 0.00 0.00 0.00 0.00 0.00 0.00 0.00
0.00 0.01 0.00 0.00 0.00 0.00 0.00 0.00 0.00 0.00 0.00 0.00 0.00 0.00 0.00 0.00 0.00 0.01 0.01 0.02 0.02 0.03 0.03 0.01 0.00 0.00 0.00 0.00 0.00 0.00 0.00 0.00 0.00 0.00 0.00 0.00 0.00 0.00 0.00 0.00 0.00 0.00 0.00 0.00 0.01 0.01 0.00 0.00 0.00 0.00 0.00 0.00 0.00 0.00
0.00 0.00 0.00 0.00 0.00 0.00 0.00 0.00 0.00 0.00 0.00 0.00 0.00 0.00 0.00 0.00 0.01 0.02 0.04 0.03 0.01 0.01 0.00 0.00 0.00 0.00 0.00 0.00 0.00 0.00 0.00 0.00 0.00 0.00 0.00 0.00 0.00 0.00 0.00 0.00 0.00 0.00 0.00 0.00 0.00 0.00 0.00 0.00 0.00 0.00 0.00 0.00 0.01 0.00
0.00 0.00 0.00 0.00 0.00 0.00 0.00 0.00 0.00 0.00 0.01 0.00 0.00 0.00 0.00 0.00 0.03 0.05 0.04 0.03 0.01 0.00 0.00 0.00 0.00 0.00 0.00 0.00 0.00 0.00 0.00 0.00 0.00 0.00 0.00 0.00 0.00 0.00 0.00 0.00 0.00 0.00 0.00 0.00 0.00 0.00 0.00 0.00 0.01 0.01 0.00 0.00 0.00 0.00
0.00 0.00 0.00 0.00 0.00 0.00 0.00 0.01 0.01 0.01 0.01 0.00 0.00 0.01 0.01 0.03 0.05 0.04 0.04 0.02 0.00 0.00 0.00 0.00 0.00 0.00 0.00 0.00 0.00 0.00 0.00 0.00 0.00 0.00 0.00 0.00 0.00 0.01 0.00 0.00 0.00 0.00 0.00 0.00 0.00 0.00 0.01 0.01 0.01 0.00 0.00 0.00 0.01 0.01
0.00 0.00 0.00 0.00 0.00 0.01 0.04 0.03 0.03 0.02 0.01 0.00 0.00 0.01 0.03 0.07 0.11 0.07 0.04 0.02 0.01 0.01 0.01 0.00 0.00 0.00 0.00 0.00 0.00 0.00 0.00 0.00 0.00 0.00 0.00 0.00 0.00 0.00 0.00 0.00 0.00 0.00 0.00 0.00 0.00 0.00 0.00 0.00 0.00 0.00 0.00 0.00 0.00 0.00
0.00 0.00 0.00 0.00 0.02 0.04 0.04 0.02 0.02 0.01 0.01 0.01 0.00 0.01 0.02 0.05 0.04 0.03 0.02 0.01 0.01 0.00 0.00 0.00 0.00 0.00 0.00 0.00 0.00 0.00 0.00 0.00 0.00 0.00 0.00 0.00 0.00 0.00 0.00 0.00 0.00 0.00 0.00 0.00 0.00 0.00 0.00 0.00 0.00 0.00 0.00 0.00 0.00 0.00
0.00 0.00 0.00 0.00 0.02 0.02 0.04 0.02 0.01 0.01 0.01 0.01 0.01 0.01 0.01 0.00 0.01 0.02 0.02 0.02 0.02 0.01 0.01 0.01 0.01 0.00 0.00 0.00 0.00 0.00 0.00 0.00 0.00 0.00 0.00 0.00 0.00 0.00 0.00 0.00 0.00 0.00 0.00 0.00 0.00 0.00 0.00 0.00 0.00 0.00 0.00 0.00 0.00 0.00
0.00 0.00 0.00 0.00 0.01 0.01 0.01 0.01 0.00 0.00 0.00 0.01 0.01 0.01 0.01 0.00 0.01 0.02 0.01 0.02 0.03 0.03 0.01 0.01 0.00 0.00 0.00 0.00 0.00 0.00 0.00 0.00 0.00 0.00 0.00 0.00 0.00 0.00 0.00 0.00 0.00 0.00 0.00 0.00 0.00 0.00 0.00 0.00 0.00 0.00 0.00 0.00 0.00 0.00

GFSWCAN_prec_precacc12_063.txt.gz
Total_Precipitation_Accumulation
0.09 0.12 0.16 0.16 0.17 0.17 0.19 0.21 0.24 0.26 0.24 0.19 0.14 0.08 0.06 0.06 0.06 0.19 0.13 0.19 0.29 0.28 0.07 0.04 0.03 0.04 0.06 0.17 0.32 0.33 0.34 0.30 0.21 0.15 0.09 0.08 0.10 0.09 0.09 0.20 0.18 0.05 0.03 0.03 0.04 0.06 0.02 0.00 0.01 0.05 0.10 0.02 0.00 0.00
0.10 0.11 0.12 0.11 0.12 0.13 0.14 0.16 0.18 0.21 0.25 0.27 0.28 0.25 0.13 0.07 0.06 0.16 0.16 0.15 0.27 0.32 0.12 0.03 0.02 0.02 0.02 0.04 0.17 0.37 0.37 0.25 0.11 0.11 0.11 0.14 0.13 0.11 0.08 0.13 0.18 0.19 0.04 0.03 0.00 0.01 0.02 0.03 0.06 0.06 0.01 0.01 0.01 0.00
0.09 0.11 0.13 0.13 0.12 0.11 0.12 0.14 0.15 0.16 0.18 0.18 0.21 0.22 0.18 0.10 0.08 0.14 0.15 0.16 0.35 0.45 0.24 0.05 0.02 0.01 0.00 0.02 0.06 0.22 0.11 0.20 0.21 0.26 0.33 0.22 0.19 0.12 0.05 0.04 0.12 0.15 0.06 0.08 0.11 0.09 0.08 0.16 0.13 0.01 0.00 0.00 0.00 0.00
0.11 0.10 0.09 0.08 0.07 0.07 0.06 0.08 0.09 0.12 0.17 0.20 0.16 0.16 0.15 0.11 0.12 0.20 0.25 0.21 0.31 0.33 0.16 0.04 0.00 0.00 0.00 0.03 0.06 0.06 0.06 0.13 0.29 0.33 0.44 0.34 0.20 0.09 0.09 0.04 0.05 0.15 0.37 0.16 0.16 0.20 0.16 0.27 0.36 0.10 0.01 0.00 0.00 0.00
0.13 0.07 0.05 0.04 0.03 0.03 0.04 0.05 0.05 0.03 0.04 0.10 0.11 0.12 0.11 0.14 0.17 0.31 0.25 0.21 0.18 0.14 0.27 0.14 0.01 0.00 0.00 0.01 0.03 0.09 0.13 0.13 0.20 0.23 0.24 0.17 0.18 0.10 0.05 0.04 0.04 0.09 0.54 0.31 0.23 0.45 0.33 0.48 0.21 0.13 0.06 0.00 0.00 0.00
0.07 0.05 0.05 0.04 0.04 0.04 0.04 0.04 0.04 0.02 0.01 0.04 0.13 0.13 0.16 0.20 0.34 0.66 0.85 0.44 0.18 0.22 0.25 0.14 0.07 0.02 0.01 0.01 0.05 0.07 0.15 0.26 0.31 0.36 0.16 0.09 0.07 0.11 0.10 0.08 0.11 0.06 0.04 0.09 0.14 0.21 0.13 0.08 0.06 0.02 0.00 0.00 0.00 0.00
0.05 0.06 0.07 0.04 0.05 0.07 0.06 0.05 0.03 0.02 0.02 0.05 0.15 0.18 0.20 0.33 0.50 0.52 0.40 0.19 0.14 0.25 0.43 0.20 0.08 0.06 0.02 0.05 0.11 0.13 0.18 0.28 0.34 0.32 0.16 0.08 0.12 0.18 0.12 0.08 0.14 0.02 0.00 0.01 0.01 0.01 0.00 0.00 0.00 0.00 0.00 0.00 0.00 0.00
0.08 0.10 0.10 0.09 0.07 0.10 0.04 0.06 0.02 0.03 0.03 0.08 0.15 0.20 0.30 0.50 0.47 0.28 0.12 0.06 0.07 0.22 0.26 0.21 0.21 0.23 0.03 0.06 0.21 0.13 0.22 0.34 0.39 0.28 0.14 0.09 0.13 0.20 0.19 0.03 0.00 0.00 0.00 0.00 0.00 0.00 0.00 0.00 0.00 0.00 0.00 0.00 0.00 0.00
0.25 0.21 0.15 0.11 0.06 0.04 0.03 0.03 0.03 0.07 0.08 0.15 0.27 0.60 1.19 0.86 0.55 0.30 0.23 0.13 0.11 0.18 0.17 0.08 0.13 0.27 0.06 0.07 0.16 0.16 0.16 0.35 0.28 0.25 0.15 0.08 0.13 0.14 0.10 0.01 0.00 0.00 0.00 0.00 0.00 0.00 0.00 0.00 0.01 0.01 0.00 0.00 0.00 0.00
0.36 0.23 0.12 0.11 0.10 0.11 0.07 0.07 0.10 0.17 0.32 0.51 0.80 1.15 0.91 0.31 0.17 0.50 0.89 0.80 0.56 0.23 0.12 0.06 0.07 0.14 0.16 0.14 0.10 0.17 0.13 0.10 0.13 0.12 0.14 0.11 0.11 0.04 0.00 0.00 0.00 0.00 0.00 0.00 0.00 0.00 0.00 0.01 0.01 0.00 0.01 0.02 0.01 0.02
0.17 0.13 0.12 0.13 0.12 0.11 0.14 0.17 0.36 0.54 0.45 0.45 0.61 0.63 0.25 0.31 0.36 0.49 0.52 0.37 0.23 0.11 0.04 0.04 0.09 0.10 0.08 0.23 0.13 0.12 0.09 0.09 0.08 0.08 0.07 0.14 0.07 0.03 0.00 0.00 0.00 0.00 0.00 0.01 0.01 0.02 0.02 0.03 0.03 0.02 0.03 0.04 0.05 0.05
0.10 0.12 0.13 0.14 0.16 0.14 0.14 0.25 0.36 0.24 0.23 0.17 0.33 0.31 0.49 0.45 0.34 0.25 0.15 0.09 0.05 0.07 0.04 0.05 0.09 0.11 0.06 0.21 0.24 0.15 0.12 0.07 0.12 0.03 0.07 0.11 0.07 0.01 0.00 0.00 0.00 0.01 0.01 0.01 0.02 0.02 0.04 0.04 0.04 0.04 0.05 0.07 0.08 0.09
0.06 0.10 0.15 0.15 0.12 0.14 0.23 0.28 0.12 0.03 0.02 0.01 0.03 0.14 0.17 0.10 0.15 0.19 0.09 0.04 0.06 0.04 0.03 0.05 0.09 0.15 0.11 0.26 0.47 0.16 0.14 0.08 0.03 0.07 0.10 0.06 0.03 0.02 0.01 0.01 0.01 0.01 0.01 0.02 0.04 0.05 0.05 0.06 0.07 0.07 0.07 0.09 0.09 0.08
0.07 0.11 0.16 0.21 0.27 0.30 0.29 0.26 0.20 0.07 0.02 0.01 0.01 0.03 0.06 0.02 0.07 0.05 0.04 0.03 0.01 0.01 0.03 0.07 0.16 0.20 0.15 0.21 0.35 0.20 0.06 0.03 0.04 0.07 0.06 0.06 0.03 0.02 0.02 0.02 0.01 0.03 0.03 0.04 0.05 0.05 0.05 0.05 0.06 0.08 0.08 0.09 0.08 0.07
0.09 0.12 0.17 0.19 0.14 0.12 0.12 0.09 0.02 0.00 0.00 0.00 0.00 0.01 0.01 0.03 0.02 0.02 0.03 0.02 0.01 0.02 0.04 0.10 0.14 0.17 0.08 0.11 0.10 0.08 0.04 0.05 0.05 0.07 0.07 0.06 0.03 0.03 0.03 0.03 0.03 0.04 0.04 0.05 0.06 0.06 0.06 0.07 0.05 0.06 0.09 0.09 0.08 0.08
0.02 0.04 0.08 0.08 0.06 0.04 0.01 0.00 0.00 0.00 0.00 0.00 0.01 0.03 0.04 0.05 0.05 0.05 0.05 0.04 0.03 0.04 0.04 0.10 0.13 0.15 0.10 0.05 0.07 0.06 0.07 0.06 0.06 0.05 0.05 0.03 0.04 0.04 0.05 0.05 0.06 0.06 0.06 0.06 0.07 0.07 0.08 0.08 0.07 0.07 0.07 0.06 0.05 0.04
0.01 0.01 0.01 0.01 0.00 0.00 0.00 0.00 0.00 0.00 0.00 0.00 0.02 0.04 0.05 0.05 0.04 0.05 0.05 0.05 0.05 0.08 0.07 0.08 0.07 0.08 0.07 0.03 0.02 0.02 0.06 0.07 0.06 0.08 0.06 0.05 0.05 0.06 0.06 0.06 0.07 0.06 0.06 0.07 0.07 0.07 0.06 0.06 0.04 0.03 0.02 0.02 0.00 0.00
0.00 0.00 0.00 0.01 0.01 0.00 0.00 0.00 0.00 0.00 0.01 0.03 0.04 0.06 0.03 0.05 0.06 0.06 0.06 0.04 0.05 0.02 0.01 0.02 0.02 0.02 0.03 0.03 0.03 0.07 0.08 0.10 0.08 0.08 0.09 0.10 0.09 0.10 0.09 0.07 0.08 0.07 0.06 0.06 0.05 0.04 0.02 0.01 0.00 0.00 0.00 0.00 0.00 0.00
0.00 0.00 0.00 0.00 0.00 0.00 0.00 0.00 0.00 0.01 0.03 0.04 0.05 0.04 0.03 0.05 0.06 0.07 0.06 0.03 0.01 0.00 0.00 0.01 0.01 0.02 0.05 0.07 0.06 0.08 0.08 0.07 0.08 0.09 0.09 0.09 0.08 0.08 0.08 0.07 0.07 0.06 0.05 0.03 0.01 0.00 0.00 0.00 0.00 0.00 0.00 0.00 0.00 0.00
0.00 0.00 0.00 0.00 0.00 0.00 0.00 0.00 0.00 0.00 0.03 0.04 0.06 0.04 0.04 0.08 0.07 0.06 0.03 0.00 0.00 0.00 0.00 0.03 0.08 0.13 0.10 0.12 0.06 0.05 0.06 0.05 0.03 0.04 0.08 0.09 0.08 0.07 0.06 0.03 0.02 0.00 0.00 0.00 0.00 0.00 0.00 0.00 0.00 0.00 0.00 0.00 0.00 0.01
0.00 0.00 0.00 0.00 0.00 0.00 0.00 0.00 0.01 0.02 0.05 0.07 0.08 0.04 0.07 0.04 0.04 0.03 0.01 0.00 0.00 0.03 0.08 0.12 0.13 0.16 0.11 0.11 0.10 0.06 0.08 0.07 0.06 0.02 0.02 0.03 0.02 0.01 0.00 0.00 0.00 0.00 0.00 0.00 0.00 0.00 0.00 0.00 0.00 0.00 0.00 0.00 0.01 0.00
0.00 0.00 0.00 0.00 0.00 0.00 0.01 0.00 0.02 0.02 0.02 0.02 0.02 0.01 0.03 0.03 0.03 0.01 0.00 0.01 0.07 0.15 0.14 0.13 0.11 0.07 0.04 0.04 0.03 0.02 0.02 0.01 0.00 0.00 0.00 0.00 0.00 0.00 0.00 0.00 0.00 0.00 0.00 0.00 0.00 0.00 0.00 0.00 0.00 0.00 0.00 0.00 0.00 0.00
0.00 0.00 0.00 0.00 0.00 0.00 0.02 0.04 0.04 0.04 0.02 0.01 0.01 0.01 0.01 0.01 0.00 0.00 0.01 0.03 0.10 0.13 0.07 0.03 0.03 0.01 0.01 0.02 0.00 0.00 0.00 0.00 0.00 0.00 0.00 0.00 0.00 0.00 0.00 0.00 0.00 0.00 0.00 0.00 0.00 0.00 0.00 0.00 0.00 0.00 0.00 0.00 0.01 0.01
0.00 0.00 0.00 0.00 0.00 0.01 0.01 0.02 0.01 0.01 0.01 0.01 0.00 0.01 0.01 0.00 0.00 0.00 0.02 0.03 0.06 0.07 0.04 0.03 0.01 0.01 0.01 0.00 0.00 0.00 0.00 0.00 0.00 0.00 0.00 0.00 0.00 0.00 0.00 0.00 0.00 0.00 0.00 0.00 0.00 0.00 0.00 0.01 0.00 0.01 0.00 0.01 0.01 0.01
0.00 0.00 0.00 0.00 0.00 0.00 0.00 0.00 0.01 0.00 0.01 0.00 0.00 0.00 0.00 0.00 0.00 0.00 0.01 0.03 0.04 0.04 0.03 0.03 0.03 0.01 0.01 0.00 0.00 0.00 0.00 0.00 0.00 0.00 0.00 0.00 0.00 0.00 0.00 0.00 0.00 0.00 0.00 0.01 0.01 0.00 0.00 0.00 0.00 0.00 0.00 0.00 0.00 0.00
0.00 0.00 0.00 0.01 0.00 0.00 0.00 0.00 0.00 0.00 0.00 0.00 0.00 0.00 0.01 0.00 0.00 0.01 0.02 0.03 0.03 0.04 0.04 0.02 0.01 0.00 0.00 0.00 0.00 0.00 0.00 0.00 0.00 0.00 0.00 0.00 0.00 0.00 0.00 0.00 0.00 0.00 0.00 0.00 0.01 0.01 0.01 0.00 0.00 0.00 0.00 0.00 0.00 0.00
0.00 0.00 0.00 0.00 0.01 0.00 0.00 0.00 0.00 0.00 0.00 0.00 0.00 0.00 0.00 0.00 0.01 0.04 0.06 0.03 0.02 0.03 0.01 0.01 0.00 0.00 0.00 0.00 0.00 0.00 0.00 0.00 0.00 0.00 0.00 0.00 0.00 0.00 0.00 0.00 0.00 0.00 0.00 0.00 0.00 0.00 0.00 0.00 0.00 0.00 0.00 0.00 0.01 0.01
0.00 0.00 0.00 0.00 0.00 0.00 0.00 0.00 0.00 0.00 0.00 0.00 0.00 0.00 0.00 0.01 0.04 0.07 0.06 0.04 0.01 0.00 0.00 0.00 0.00 0.00 0.00 0.00 0.00 0.00 0.00 0.00 0.00 0.00 0.00 0.00 0.00 0.00 0.00 0.00 0.00 0.00 0.00 0.00 0.00 0.00 0.00 0.00 0.01 0.01 0.00 0.00 0.00 0.00
0.00 0.00 0.00 0.00 0.00 0.00 0.00 0.01 0.01 0.01 0.01 0.01 0.00 0.01 0.01 0.04 0.05 0.04 0.03 0.01 0.00 0.00 0.00 0.00 0.00 0.00 0.00 0.00 0.00 0.00 0.00 0.00 0.00 0.00 0.00 0.01 0.01 0.01 0.00 0.00 0.00 0.00 0.00 0.00 0.01 0.01 0.00 0.00 0.00 0.00 0.00 0.00 0.01 0.01
0.00 0.00 0.00 0.00 0.00 0.02 0.04 0.03 0.03 0.02 0.01 0.00 0.00 0.02 0.03 0.08 0.12 0.07 0.04 0.03 0.02 0.01 0.01 0.01 0.01 0.00 0.00 0.00 0.00 0.00 0.00 0.00 0.00 0.00 0.00 0.00 0.01 0.00 0.00 0.00 0.00 0.00 0.00 0.00 0.00 0.00 0.00 0.00 0.00 0.00 0.01 0.00 0.00 0.01
0.00 0.00 0.00 0.00 0.02 0.04 0.05 0.03 0.03 0.02 0.01 0.01 0.00 0.01 0.02 0.05 0.04 0.03 0.03 0.02 0.01 0.00 0.00 0.00 0.00 0.00 0.00 0.00 0.00 0.00 0.01 0.00 0.00 0.00 0.00 0.00 0.00 0.00 0.00 0.00 0.00 0.00 0.00 0.00 0.00 0.00 0.00 0.00 0.00 0.00 0.00 0.00 0.00 0.00
0.00 0.00 0.00 0.00 0.03 0.03 0.07 0.03 0.01 0.02 0.02 0.01 0.01 0.01 0.01 0.01 0.02 0.02 0.02 0.04 0.04 0.02 0.02 0.02 0.01 0.00 0.00 0.00 0.00 0.00 0.00 0.00 0.00 0.00 0.00 0.00 0.00 0.00 0.00 0.00 0.00 0.00 0.00 0.00 0.00 0.00 0.00 0.00 0.00 0.00 0.00 0.00 0.00 0.00
0.00 0.00 0.00 0.00 0.00 0.00 0.01 0.02 0.00 0.01 0.01 0.01 0.01 0.01 0.01 0.01 0.01 0.02 0.01 0.02 0.05 0.03 0.02 0.01 0.00 0.00 0.00 0.00 0.00 0.00 0.00 0.00 0.00 0.00 0.00 0.00 0.00 0.00 0.00 0.01 0.00 0.00 0.00 0.00 0.00 0.00 0.00 0.00 0.00 0.00 0.00 0.00 0.00 0.00

GFSWCAN_prec_precacc12_066.txt.gz
Total_Precipitation_Accumulation
0.04 0.03 0.04 0.06 0.09 0.12 0.16 0.21 0.24 0.26 0.24 0.18 0.13 0.07 0.04 0.04 0.05 0.17 0.11 0.15 0.26 0.23 0.02 0.02 0.02 0.06 0.13 0.17 0.29 0.38 0.31 0.26 0.11 0.09 0.07 0.07 0.09 0.09 0.09 0.19 0.18 0.08 0.04 0.03 0.04 0.05 0.02 0.00 0.00 0.05 0.11 0.03 0.01 0.00
0.02 0.03 0.04 0.07 0.08 0.11 0.13 0.15 0.17 0.21 0.24 0.25 0.25 0.23 0.17 0.11 0.07 0.14 0.11 0.11 0.20 0.19 0.04 0.02 0.00 0.00 0.02 0.03 0.12 0.26 0.44 0.46 0.24 0.11 0.13 0.13 0.13 0.12 0.10 0.15 0.24 0.34 0.12 0.04 0.01 0.01 0.05 0.06 0.07 0.07 0.02 0.03 0.02 0.02
0.02 0.04 0.05 0.06 0.08 0.10 0.12 0.14 0.14 0.14 0.16 0.16 0.19 0.20 0.18 0.18 0.18 0.14 0.04 0.09 0.27 0.22 0.12 0.03 0.01 0.00 0.00 0.01 0.04 0.16 0.10 0.37 0.44 0.28 0.33 0.21 0.20 0.14 0.07 0.05 0.16 0.19 0.10 0.13 0.14 0.11 0.10 0.20 0.18 0.02 0.00 0.00 0.01 0.00
0.07 0.06 0.04 0.04 0.05 0.05 0.05 0.08 0.11 0.13 0.17 0.19 0.19 0.20 0.22 0.21 0.23 0.17 0.10 0.11 0.19 0.22 0.10 0.01 0.00 0.00 0.00 0.02 0.03 0.03 0.03 0.11 0.29 0.31 0.41 0.33 0.24 0.22 0.15 0.08 0.08 0.17 0.38 0.22 0.25 0.30 0.22 0.28 0.48 0.21 0.04 0.00 0.00 0.00
0.10 0.07 0.05 0.03 0.03 0.03 0.04 0.04 0.05 0.06 0.08 0.09 0.12 0.15 0.19 0.24 0.21 0.17 0.12 0.11 0.12 0.09 0.23 0.14 0.01 0.00 0.00 0.01 0.02 0.05 0.07 0.10 0.16 0.18 0.18 0.13 0.20 0.31 0.11 0.05 0.11 0.12 0.69 0.63 0.36 0.56 0.69 0.55 0.26 0.25 0.16 0.03 0.00 0.00
0.05 0.03 0.03 0.03 0.03 0.04 0.05 0.05 0.06 0.05 0.04 0.04 0.08 0.11 0.14 0.18 0.21 0.38 0.54 0.20 0.12 0.16 0.22 0.13 0.07 0.02 0.01 0.01 0.04 0.05 0.11 0.21 0.25 0.30 0.14 0.07 0.08 0.30 0.12 0.16 0.26 0.12 0.14 0.30 0.41 0.43 0.54 0.36 0.11 0.05 0.03 0.01 0.00 0.00
0.04 0.03 0.04 0.03 0.05 0.07 0.06 0.07 0.04 0.04 0.03 0.03 0.11 0.15 0.15 0.21 0.27 0.39 0.33 0.14 0.10 0.20 0.42 0.23 0.08 0.06 0.02 0.05 0.10 0.10 0.16 0.24 0.27 0.27 0.13 0.05 0.09 0.16 0.18 0.09 0.17 0.04 0.02 0.06 0.13 0.11 0.04 0.02 0.01 0.00 0.00 0.00 0.00 0.00
0.06 0.07 0.06 0.07 0.04 0.05 0.07 0.09 0.07 0.03 0.02 0.07 0.13 0.17 0.23 0.32 0.27 0.21 0.10 0.07 0.05 0.16 0.22 0.23 0.21 0.26 0.07 0.09 0.22 0.13 0.18 0.26 0.22 0.14 0.07 0.05 0.10 0.17 0.19 0.06 0.01 0.01 0.02 0.00 0.00 0.00 0.00 0.00 0.00 0.00 0.00 0.00 0.00 0.00
0.21 0.18 0.13 0.09 0.04 0.04 0.05 0.12 0.08 0.05 0.05 0.13 0.24 0.50 0.82 0.67 0.39 0.20 0.10 0.09 0.07 0.12 0.14 0.08 0.15 0.40 0.29 0.20 0.31 0.19 0.19 0.22 0.17 0.11 0.06 0.07 0.06 0.11 0.10 0.01 0.00 0.00 0.00 0.00 0.00 0.00 0.00 0.00 0.00 0.00 0.00 0.00 0.00 0.01
0.32 0.17 0.07 0.08 0.05 0.05 0.08 0.14 0.09 0.14 0.27 0.47 0.71 0.89 0.63 0.25 0.16 0.41 0.63 0.72 0.62 0.19 0.13 0.07 0.07 0.15 0.27 0.24 0.17 0.30 0.18 0.11 0.12 0.07 0.12 0.11 0.11 0.05 0.01 0.00 0.00 0.00 0.00 0.00 0.00 0.01 0.00 0.01 0.00 0.00 0.00 0.01 0.01 0.01
0.15 0.08 0.07 0.11 0.11 0.07 0.13 0.11 0.25 0.45 0.44 0.38 0.45 0.48 0.18 0.22 0.31 0.42 0.47 0.39 0.30 0.10 0.04 0.04 0.09 0.10 0.08 0.22 0.15 0.11 0.08 0.09 0.05 0.05 0.08 0.15 0.08 0.04 0.01 0.00 0.00 0.00 0.00 0.01 0.01 0.01 0.01 0.01 0.02 0.01 0.01 0.01 0.02 0.02
0.10 0.11 0.09 0.12 0.13 0.14 0.15 0.20 0.33 0.23 0.21 0.16 0.36 0.28 0.33 0.34 0.33 0.29 0.18 0.09 0.05 0.06 0.03 0.04 0.09 0.11 0.06 0.16 0.15 0.17 0.11 0.07 0.10 0.05 0.09 0.13 0.08 0.02 0.00 0.00 0.00 0.00 0.00 0.01 0.01 0.02 0.02 0.02 0.01 0.01 0.02 0.03 0.04 0.05
0.08 0.15 0.17 0.12 0.10 0.17 0.25 0.28 0.12 0.03 0.03 0.07 0.07 0.15 0.21 0.17 0.21 0.22 0.08 0.02 0.04 0.03 0.02 0.04 0.05 0.05 0.01 0.02 0.06 0.13 0.18 0.09 0.05 0.08 0.10 0.06 0.04 0.02 0.01 0.00 0.01 0.01 0.01 0.01 0.01 0.02 0.02 0.03 0.03 0.03 0.04 0.05 0.05 0.05
0.11 0.15 0.19 0.23 0.30 0.38 0.37 0.30 0.23 0.08 0.02 0.02 0.05 0.06 0.10 0.03 0.07 0.08 0.05 0.03 0.01 0.01 0.01 0.02 0.03 0.03 0.05 0.09 0.16 0.18 0.05 0.03 0.05 0.07 0.05 0.07 0.03 0.02 0.01 0.01 0.01 0.02 0.01 0.02 0.02 0.02 0.02 0.02 0.03 0.04 0.04 0.05 0.04 0.04
0.15 0.20 0.27 0.31 0.32 0.30 0.26 0.23 0.06 0.00 0.00 0.00 0.00 0.01 0.01 0.02 0.02 0.02 0.03 0.02 0.01 0.00 0.01 0.05 0.08 0.13 0.08 0.11 0.09 0.08 0.04 0.06 0.05 0.06 0.06 0.05 0.02 0.02 0.02 0.02 0.02 0.02 0.02 0.03 0.03 0.03 0.04 0.03 0.03 0.04 0.04 0.04 0.04 0.04
0.09 0.18 0.27 0.23 0.21 0.15 0.08 0.01 0.00 0.00 0.00 0.00 0.02 0.03 0.05 0.05 0.06 0.05 0.05 0.03 0.02 0.02 0.03 0.09 0.13 0.15 0.10 0.05 0.07 0.06 0.07 0.07 0.06 0.05 0.05 0.02 0.02 0.03 0.03 0.03 0.04 0.03 0.03 0.04 0.04 0.04 0.04 0.03 0.03 0.03 0.03 0.02 0.02 0.01
0.02 0.09 0.12 0.06 0.03 0.01 0.00 0.00 0.00 0.00 0.00 0.01 0.02 0.03 0.05 0.04 0.04 0.05 0.04 0.04 0.04 0.07 0.07 0.08 0.07 0.08 0.08 0.03 0.02 0.03 0.06 0.07 0.06 0.07 0.04 0.03 0.03 0.04 0.04 0.05 0.05 0.05 0.05 0.05 0.04 0.04 0.03 0.02 0.02 0.01 0.01 0.00 0.00 0.00
0.00 0.00 0.00 0.01 0.01 0.00 0.00 0.00 0.00 0.00 0.01 0.03 0.04 0.06 0.02 0.05 0.05 0.05 0.05 0.03 0.04 0.02 0.01 0.02 0.02 0.02 0.03 0.03 0.03 0.07 0.08 0.08 0.06 0.06 0.07 0.07 0.07 0.07 0.07 0.06 0.07 0.06 0.05 0.05 0.04 0.03 0.02 0.00 0.00 0.00 0.00 0.00 0.00 0.00
0.00 0.00 0.00 0.00 0.00 0.00 0.00 0.00 0.00 0.01 0.03 0.03 0.04 0.03 0.03 0.04 0.04 0.05 0.03 0.01 0.00 0.00 0.00 0.00 0.01 0.02 0.04 0.05 0.04 0.05 0.05 0.04 0.05 0.06 0.07 0.08 0.07 0.06 0.07 0.07 0.06 0.06 0.05 0.03 0.01 0.00 0.00 0.00 0.00 0.00 0.00 0.00 0.01 0.01
0.00 0.00 0.00 0.00 0.00 0.00 0.00 0.00 0.00 0.00 0.02 0.03 0.03 0.02 0.03 0.06 0.05 0.03 0.01 0.00 0.00 0.00 0.00 0.02 0.06 0.10 0.08 0.09 0.04 0.04 0.04 0.03 0.02 0.04 0.08 0.09 0.08 0.07 0.05 0.03 0.01 0.00 0.00 0.00 0.00 0.00 0.00 0.00 0.00 0.00 0.00 0.00 0.01 0.01
0.00 0.00 0.00 0.00 0.00 0.00 0.00 0.00 0.01 0.02 0.04 0.04 0.04 0.01 0.04 0.02 0.02 0.01 0.00 0.00 0.00 0.03 0.06 0.09 0.10 0.13 0.09 0.08 0.08 0.05 0.07 0.06 0.05 0.02 0.02 0.03 0.01 0.00 0.00 0.00 0.00 0.00 0.00 0.00 0.00 0.00 0.00 0.00 0.00 0.00 0.00 0.00 0.00 0.00
0.00 0.00 0.00 0.00 0.00 0.00 0.01 0.00 0.02 0.02 0.02 0.02 0.03 0.02 0.03 0.03 0.02 0.01 0.00 0.01 0.05 0.12 0.13 0.11 0.10 0.07 0.04 0.04 0.03 0.01 0.02 0.01 0.00 0.00 0.00 0.01 0.00 0.00 0.00 0.00 0.00 0.00 0.00 0.00 0.00 0.00 0.00 0.00 0.00 0.00 0.00 0.00 0.00 0.00
0.00 0.00 0.00 0.00 0.00 0.00 0.02 0.03 0.04 0.04 0.02 0.01 0.01 0.01 0.01 0.01 0.00 0.00 0.01 0.03 0.08 0.11 0.05 0.02 0.03 0.01 0.01 0.01 0.00 0.00 0.00 0.00 0.00 0.00 0.00 0.00 0.00 0.00 0.00 0.00 0.00 0.00 0.00 0.00 0.00 0.00 0.00 0.00 0.00 0.00 0.00 0.00 0.01 0.01
0.00 0.00 0.00 0.00 0.00 0.01 0.02 0.03 0.01 0.01 0.01 0.01 0.00 0.01 0.01 0.00 0.00 0.00 0.02 0.03 0.06 0.06 0.02 0.02 0.01 0.01 0.01 0.00 0.00 0.00 0.00 0.00 0.00 0.00 0.00 0.00 0.00 0.00 0.00 0.00 0.00 0.00 0.00 0.00 0.00 0.00 0.00 0.00 0.00 0.01 0.00 0.00 0.01 0.01
0.00 0.00 0.00 0.00 0.00 0.00 0.00 0.01 0.01 0.01 0.01 0.00 0.00 0.00 0.00 0.00 0.00 0.00 0.01 0.03 0.04 0.03 0.03 0.03 0.03 0.01 0.01 0.00 0.00 0.00 0.00 0.00 0.00 0.00 0.00 0.00 0.00 0.00 0.00 0.00 0.00 0.00 0.00 0.01 0.01 0.01 0.00 0.00 0.00 0.00 0.00 0.00 0.00 0.00
0.00 0.00 0.00 0.01 0.01 0.00 0.00 0.00 0.00 0.00 0.00 0.00 0.00 0.00 0.01 0.01 0.00 0.02 0.02 0.03 0.03 0.04 0.05 0.03 0.01 0.00 0.00 0.00 0.00 0.00 0.00 0.00 0.00 0.00 0.00 0.00 0.00 0.00 0.00 0.00 0.00 0.00 0.00 0.00 0.00 0.01 0.01 0.00 0.00 0.00 0.00 0.00 0.00 0.00
0.00 0.00 0.00 0.00 0.01 0.01 0.00 0.00 0.00 0.00 0.00 0.00 0.00 0.00 0.00 0.00 0.01 0.05 0.08 0.03 0.03 0.04 0.01 0.01 0.00 0.00 0.00 0.00 0.00 0.00 0.00 0.00 0.00 0.00 0.00 0.00 0.00 0.00 0.00 0.00 0.00 0.00 0.00 0.00 0.00 0.00 0.00 0.00 0.00 0.00 0.00 0.00 0.01 0.01
0.00 0.00 0.00 0.00 0.00 0.00 0.00 0.00 0.00 0.00 0.00 0.00 0.00 0.00 0.00 0.01 0.05 0.09 0.07 0.05 0.01 0.00 0.00 0.00 0.00 0.00 0.00 0.00 0.00 0.00 0.00 0.00 0.00 0.00 0.00 0.00 0.00 0.00 0.00 0.00 0.00 0.00 0.00 0.00 0.00 0.00 0.00 0.00 0.00 0.00 0.00 0.00 0.00 0.00
0.00 0.00 0.00 0.00 0.00 0.00 0.00 0.00 0.01 0.01 0.01 0.01 0.00 0.01 0.01 0.05 0.06 0.05 0.03 0.01 0.00 0.00 0.00 0.00 0.00 0.00 0.00 0.00 0.00 0.00 0.00 0.00 0.00 0.00 0.00 0.01 0.01 0.01 0.00 0.00 0.00 0.00 0.00 0.00 0.00 0.00 0.01 0.00 0.00 0.00 0.00 0.00 0.00 0.00
0.00 0.00 0.00 0.00 0.00 0.02 0.05 0.03 0.02 0.01 0.00 0.00 0.01 0.03 0.04 0.11 0.15 0.06 0.04 0.03 0.02 0.01 0.01 0.01 0.01 0.00 0.00 0.00 0.00 0.00 0.00 0.00 0.00 0.00 0.00 0.01 0.01 0.01 0.00 0.00 0.00 0.00 0.00 0.00 0.00 0.00 0.00 0.00 0.00 0.00 0.00 0.00 0.00 0.00
0.00 0.00 0.00 0.00 0.03 0.05 0.05 0.03 0.02 0.02 0.01 0.01 0.00 0.01 0.03 0.06 0.05 0.04 0.03 0.02 0.00 0.00 0.00 0.01 0.01 0.01 0.00 0.00 0.00 0.01 0.01 0.00 0.00 0.00 0.00 0.00 0.00 0.00 0.00 0.00 0.00 0.00 0.00 0.00 0.00 0.00 0.00 0.00 0.00 0.00 0.00 0.00 0.00 0.00
0.00 0.00 0.00 0.00 0.04 0.04 0.07 0.03 0.01 0.03 0.02 0.01 0.02 0.01 0.01 0.01 0.02 0.02 0.02 0.04 0.04 0.02 0.02 0.01 0.01 0.01 0.00 0.00 0.00 0.00 0.00 0.00 0.00 0.00 0.00 0.00 0.00 0.00 0.00 0.00 0.00 0.00 0.00 0.00 0.00 0.00 0.00 0.00 0.00 0.00 0.00 0.00 0.00 0.00
0.00 0.00 0.00 0.00 0.01 0.01 0.02 0.02 0.01 0.01 0.01 0.01 0.02 0.02 0.02 0.01 0.01 0.02 0.02 0.03 0.05 0.02 0.01 0.01 0.00 0.00 0.00 0.00 0.00 0.00 0.00 0.00 0.00 0.00 0.00 0.00 0.00 0.00 0.00 0.00 0.00 0.00 0.00 0.00 0.00 0.00 0.00 0.00 0.00 0.00 0.00 0.00 0.00 0.00

GFSWCAN_prec_precacc12_069.txt.gz
Total_Precipitation_Accumulation
0.03 0.03 0.03 0.02 0.02 0.02 0.04 0.10 0.16 0.21 0.24 0.18 0.12 0.06 0.03 0.03 0.03 0.14 0.08 0.10 0.20 0.23 0.02 0.01 0.01 0.05 0.10 0.13 0.27 0.34 0.28 0.28 0.06 0.03 0.02 0.03 0.07 0.08 0.07 0.14 0.16 0.08 0.03 0.02 0.03 0.03 0.01 0.00 0.00 0.04 0.12 0.04 0.02 0.01
0.03 0.02 0.02 0.02 0.01 0.02 0.05 0.08 0.11 0.16 0.23 0.26 0.26 0.23 0.16 0.10 0.06 0.13 0.08 0.08 0.13 0.15 0.02 0.00 0.00 0.00 0.01 0.03 0.10 0.22 0.36 0.45 0.44 0.16 0.11 0.10 0.10 0.10 0.08 0.12 0.21 0.40 0.17 0.05 0.00 0.00 0.05 0.07 0.05 0.06 0.03 0.10 0.06 0.18
0.02 0.03 0.03 0.03 0.03 0.03 0.06 0.11 0.12 0.13 0.15 0.17 0.19 0.21 0.19 0.17 0.18 0.21 0.06 0.06 0.21 0.21 0.07 0.00 0.00 0.00 0.00 0.00 0.01 0.09 0.07 0.30 0.58 0.31 0.31 0.17 0.16 0.12 0.06 0.04 0.14 0.22 0.19 0.26 0.16 0.13 0.09 0.20 0.19 0.03 0.00 0.01 0.01 0.05
0.03 0.04 0.03 0.04 0.04 0.03 0.03 0.06 0.10 0.13 0.16 0.20 0.19 0.22 0.26 0.24 0.26 0.35 0.30 0.08 0.14 0.17 0.05 0.00 0.00 0.00 0.00 0.00 0.00 0.01 0.01 0.08 0.25 0.28 0.36 0.26 0.19 0.21 0.17 0.09 0.20 0.24 0.39 0.22 0.34 0.35 0.23 0.30 0.48 0.24 0.06 0.02 0.02 0.00
0.05 0.06 0.05 0.03 0.03 0.03 0.03 0.04 0.05 0.06 0.09 0.13 0.15 0.19 0.27 0.37 0.39 0.47 0.33 0.14 0.09 0.04 0.14 0.10 0.01 0.00 0.00 0.00 0.00 0.01 0.02 0.03 0.06 0.13 0.14 0.10 0.19 0.38 0.37 0.17 0.18 0.15 0.70 0.64 0.43 0.70 0.78 0.74 0.34 0.29 0.34 0.13 0.02 0.00
0.03 0.03 0.03 0.02 0.02 0.03 0.04 0.05 0.05 0.06 0.05 0.06 0.07 0.10 0.12 0.25 0.45 0.51 0.47 0.15 0.07 0.11 0.12 0.05 0.04 0.02 0.01 0.00 0.01 0.01 0.04 0.07 0.10 0.19 0.11 0.05 0.10 0.44 0.35 0.33 0.28 0.14 0.18 0.37 0.59 0.62 0.70 0.59 0.22 0.06 0.05 0.10 0.07 0.02
0.03 0.02 0.02 0.02 0.04 0.05 0.06 0.07 0.05 0.05 0.08 0.05 0.04 0.05 0.10 0.17 0.17 0.29 0.22 0.07 0.01 0.10 0.26 0.14 0.04 0.06 0.02 0.04 0.07 0.05 0.09 0.14 0.10 0.13 0.04 0.02 0.06 0.12 0.26 0.20 0.18 0.06 0.08 0.09 0.27 0.23 0.05 0.04 0.03 0.00 0.00 0.00 0.00 0.00
0.05 0.06 0.05 0.05 0.04 0.04 0.07 0.10 0.09 0.07 0.07 0.06 0.04 0.11 0.17 0.20 0.19 0.15 0.08 0.07 0.02 0.04 0.12 0.16 0.17 0.25 0.07 0.08 0.20 0.10 0.13 0.21 0.18 0.12 0.06 0.05 0.07 0.13 0.15 0.15 0.04 0.02 0.05 0.00 0.00 0.00 0.00 0.00 0.00 0.00 0.00 0.00 0.00 0.00
0.14 0.13 0.08 0.03 0.03 0.03 0.06 0.15 0.18 0.11 0.05 0.07 0.17 0.37 0.53 0.46 0.25 0.15 0.09 0.08 0.05 0.05 0.09 0.07 0.13 0.39 0.39 0.34 0.31 0.19 0.16 0.18 0.15 0.10 0.02 0.02 0.05 0.13 0.10 0.02 0.01 0.00 0.00 0.00 0.00 0.00 0.00 0.00 0.00 0.00 0.00 0.00 0.00 0.00
0.24 0.16 0.07 0.08 0.06 0.07 0.11 0.24 0.22 0.13 0.22 0.33 0.43 0.49 0.36 0.18 0.12 0.22 0.41 0.55 0.45 0.12 0.10 0.06 0.04 0.13 0.33 0.47 0.29 0.35 0.20 0.14 0.09 0.03 0.07 0.11 0.07 0.05 0.02 0.01 0.01 0.00 0.00 0.00 0.00 0.01 0.00 0.00 0.00 0.00 0.00 0.00 0.00 0.01
0.10 0.09 0.07 0.07 0.08 0.08 0.23 0.23 0.26 0.41 0.33 0.18 0.22 0.24 0.11 0.14 0.18 0.26 0.34 0.28 0.26 0.09 0.03 0.02 0.07 0.09 0.08 0.39 0.23 0.12 0.08 0.12 0.04 0.03 0.08 0.14 0.07 0.05 0.02 0.00 0.00 0.00 0.00 0.01 0.01 0.01 0.01 0.01 0.01 0.00 0.01 0.01 0.01 0.01
0.07 0.12 0.11 0.10 0.11 0.16 0.21 0.19 0.30 0.21 0.14 0.09 0.22 0.23 0.28 0.26 0.27 0.29 0.21 0.08 0.05 0.05 0.03 0.04 0.08 0.09 0.06 0.15 0.14 0.14 0.08 0.06 0.07 0.07 0.08 0.11 0.08 0.03 0.01 0.00 0.00 0.00 0.00 0.01 0.01 0.01 0.01 0.01 0.01 0.00 0.01 0.02 0.02 0.03
0.09 0.16 0.18 0.12 0.14 0.24 0.22 0.24 0.12 0.03 0.04 0.08 0.07 0.12 0.19 0.16 0.23 0.23 0.08 0.01 0.03 0.02 0.01 0.03 0.04 0.05 0.01 0.03 0.04 0.09 0.22 0.07 0.05 0.08 0.08 0.06 0.05 0.02 0.01 0.00 0.01 0.01 0.01 0.01 0.01 0.01 0.01 0.01 0.01 0.01 0.02 0.03 0.02 0.02
0.14 0.18 0.22 0.29 0.37 0.40 0.36 0.30 0.23 0.09 0.03 0.03 0.05 0.06 0.12 0.04 0.08 0.08 0.04 0.02 0.01 0.00 0.00 0.01 0.01 0.00 0.00 0.00 0.00 0.05 0.04 0.04 0.05 0.06 0.05 0.06 0.03 0.02 0.01 0.00 0.01 0.01 0.01 0.01 0.02 0.02 0.01 0.01 0.01 0.02 0.02 0.02 0.01 0.02
0.18 0.23 0.30 0.37 0.37 0.31 0.28 0.25 0.07 0.01 0.01 0.00 0.00 0.01 0.01 0.01 0.01 0.02 0.03 0.01 0.01 0.01 0.01 0.02 0.01 0.01 0.01 0.02 0.02 0.03 0.03 0.05 0.04 0.05 0.05 0.04 0.01 0.01 0.01 0.01 0.01 0.02 0.01 0.02 0.02 0.01 0.02 0.01 0.01 0.02 0.02 0.02 0.01 0.01
0.14 0.29 0.39 0.38 0.31 0.22 0.12 0.02 0.00 0.00 0.00 0.00 0.02 0.02 0.05 0.04 0.06 0.05 0.06 0.03 0.02 0.02 0.01 0.02 0.03 0.04 0.05 0.04 0.06 0.05 0.06 0.06 0.05 0.04 0.04 0.02 0.02 0.02 0.02 0.02 0.03 0.02 0.02 0.03 0.03 0.02 0.02 0.02 0.02 0.02 0.02 0.01 0.00 0.00
0.08 0.47 0.41 0.22 0.09 0.02 0.00 0.00 0.00 0.00 0.00 0.00 0.02 0.03 0.04 0.03 0.04 0.05 0.04 0.04 0.04 0.06 0.05 0.07 0.07 0.08 0.08 0.03 0.01 0.02 0.05 0.05 0.04 0.05 0.03 0.02 0.01 0.03 0.03 0.03 0.04 0.04 0.04 0.03 0.03 0.03 0.03 0.02 0.01 0.00 0.00 0.00 0.00 0.00
0.05 0.13 0.06 0.02 0.01 0.00 0.00 0.00 0.00 0.00 0.01 0.03 0.03 0.05 0.01 0.04 0.04 0.04 0.04 0.02 0.04 0.01 0.01 0.02 0.02 0.02 0.03 0.02 0.03 0.06 0.06 0.05 0.03 0.04 0.05 0.05 0.04 0.05 0.04 0.05 0.05 0.05 0.04 0.04 0.04 0.04 0.02 0.01 0.00 0.00 0.00 0.00 0.00 0.00
0.01 0.01 0.00 0.00 0.00 0.00 0.00 0.00 0.00 0.00 0.03 0.03 0.03 0.03 0.02 0.03 0.02 0.03 0.01 0.00 0.00 0.00 0.00 0.00 0.00 0.01 0.03 0.03 0.03 0.03 0.03 0.02 0.04 0.04 0.06 0.06 0.04 0.04 0.05 0.05 0.05 0.05 0.04 0.03 0.02 0.01 0.00 0.00 0.00 0.00 0.00 0.00 0.01 0.01
0.00 0.00 0.00 0.00 0.00 0.00 0.00 0.00 0.00 0.00 0.01 0.02 0.02 0.02 0.02 0.05 0.03 0.01 0.00 0.00 0.00 0.00 0.00 0.01 0.05 0.07 0.05 0.05 0.02 0.02 0.02 0.01 0.01 0.03 0.07 0.08 0.07 0.06 0.04 0.02 0.01 0.00 0.00 0.00 0.00 0.00 0.00 0.00 0.00 0.00 0.00 0.00 0.01 0.01
0.00 0.00 0.00 0.00 0.00 0.00 0.00 0.00 0.01 0.01 0.01 0.02 0.02 0.01 0.02 0.01 0.01 0.00 0.00 0.00 0.00 0.02 0.04 0.06 0.07 0.09 0.05 0.04 0.04 0.03 0.05 0.04 0.03 0.01 0.02 0.03 0.01 0.00 0.00 0.00 0.00 0.00 0.00 0.00 0.00 0.00 0.00 0.00 0.00 0.00 0.00 0.00 0.00 0.00
0.02 0.02 0.01 0.00 0.00 0.00 0.01 0.00 0.01 0.01 0.01 0.01 0.03 0.01 0.02 0.01 0.01 0.00 0.00 0.00 0.03 0.09 0.09 0.08 0.08 0.05 0.03 0.04 0.02 0.01 0.01 0.01 0.00 0.00 0.00 0.01 0.01 0.00 0.00 0.00 0.00 0.00 0.00 0.00 0.00 0.00 0.00 0.00 0.00 0.00 0.00 0.00 0.00 0.00
0.00 0.00 0.00 0.00 0.00 0.00 0.02 0.03 0.03 0.04 0.01 0.02 0.01 0.01 0.01 0.01 0.00 0.00 0.01 0.03 0.07 0.09 0.04 0.02 0.03 0.01 0.01 0.01 0.00 0.00 0.00 0.00 0.00 0.00 0.00 0.00 0.00 0.00 0.00 0.00 0.00 0.00 0.00 0.00 0.00 0.00 0.00 0.00 0.00 0.00 0.00 0.00 0.01 0.01
0.00 0.00 0.00 0.00 0.00 0.01 0.03 0.04 0.01 0.01 0.02 0.01 0.00 0.01 0.01 0.00 0.00 0.00 0.01 0.02 0.05 0.05 0.02 0.02 0.00 0.00 0.00 0.00 0.00 0.00 0.00 0.00 0.00 0.00 0.00 0.00 0.00 0.00 0.00 0.00 0.00 0.00 0.00 0.00 0.00 0.00 0.00 0.00 0.00 0.00 0.00 0.00 0.00 0.00
0.00 0.00 0.00 0.00 0.00 0.00 0.00 0.01 0.01 0.01 0.01 0.00 0.00 0.00 0.00 0.00 0.00 0.00 0.01 0.03 0.04 0.03 0.03 0.03 0.03 0.01 0.01 0.00 0.00 0.00 0.00 0.00 0.00 0.00 0.00 0.00 0.00 0.00 0.00 0.00 0.00 0.00 0.00 0.01 0.01 0.00 0.00 0.00 0.00 0.00 0.00 0.00 0.00 0.00
0.00 0.00 0.00 0.01 0.01 0.00 0.00 0.00 0.00 0.00 0.00 0.00 0.00 0.00 0.02 0.01 0.00 0.02 0.01 0.02 0.02 0.03 0.05 0.03 0.01 0.00 0.00 0.00 0.00 0.00 0.00 0.00 0.00 0.00 0.00 0.00 0.00 0.00 0.00 0.00 0.00 0.00 0.00 0.00 0.00 0.00 0.01 0.00 0.00 0.00 0.00 0.00 0.00 0.00
0.00 0.00 0.00 0.00 0.02 0.02 0.00 0.00 0.00 0.00 0.00 0.00 0.00 0.00 0.00 0.00 0.01 0.05 0.08 0.02 0.03 0.04 0.01 0.01 0.00 0.00 0.00 0.00 0.00 0.00 0.00 0.00 0.00 0.00 0.00 0.00 0.00 0.00 0.00 0.00 0.00 0.00 0.00 0.00 0.00 0.00 0.00 0.00 0.00 0.00 0.00 0.00 0.01 0.01
0.00 0.00 0.00 0.00 0.00 0.00 0.00 0.00 0.00 0.00 0.00 0.01 0.00 0.00 0.00 0.01 0.04 0.09 0.06 0.05 0.01 0.00 0.00 0.00 0.00 0.00 0.00 0.00 0.00 0.00 0.00 0.00 0.00 0.00 0.00 0.00 0.00 0.00 0.00 0.00 0.00 0.00 0.00 0.00 0.00 0.00 0.00 0.00 0.00 0.00 0.00 0.00 0.00 0.00
0.00 0.00 0.00 0.00 0.00 0.00 0.01 0.00 0.01 0.01 0.01 0.02 0.00 0.01 0.01 0.05 0.05 0.04 0.03 0.01 0.00 0.00 0.00 0.00 0.01 0.00 0.00 0.00 0.00 0.00 0.00 0.00 0.00 0.00 0.00 0.01 0.01 0.01 0.00 0.00 0.00 0.00 0.00 0.00 0.00 0.00 0.01 0.00 0.00 0.00 0.00 0.00 0.00 0.00
0.00 0.00 0.00 0.00 0.00 0.02 0.04 0.03 0.02 0.01 0.00 0.00 0.01 0.03 0.04 0.12 0.17 0.07 0.04 0.03 0.02 0.01 0.01 0.01 0.01 0.00 0.00 0.00 0.00 0.00 0.00 0.00 0.00 0.00 0.00 0.01 0.01 0.00 0.00 0.00 0.00 0.00 0.00 0.00 0.00 0.00 0.00 0.00 0.00 0.00 0.00 0.00 0.00 0.00
0.00 0.00 0.00 0.00 0.02 0.04 0.04 0.02 0.02 0.01 0.01 0.01 0.00 0.00 0.03 0.07 0.07 0.06 0.03 0.02 0.00 0.00 0.00 0.01 0.01 0.01 0.00 0.00 0.00 0.01 0.01 0.00 0.00 0.00 0.00 0.00 0.00 0.00 0.00 0.00 0.00 0.00 0.00 0.00 0.00 0.00 0.00 0.00 0.00 0.00 0.00 0.00 0.00 0.00
0.00 0.00 0.00 0.00 0.03 0.04 0.06 0.03 0.01 0.02 0.02 0.01 0.01 0.01 0.01 0.00 0.01 0.03 0.03 0.05 0.04 0.01 0.02 0.01 0.01 0.00 0.00 0.00 0.00 0.00 0.00 0.00 0.00 0.00 0.00 0.00 0.00 0.00 0.00 0.00 0.00 0.00 0.00 0.00 0.00 0.00 0.00 0.00 0.00 0.00 0.00 0.00 0.00 0.00
0.00 0.00 0.00 0.00 0.01 0.01 0.03 0.02 0.01 0.01 0.01 0.01 0.03 0.02 0.01 0.00 0.01 0.02 0.02 0.03 0.04 0.02 0.01 0.01 0.00 0.00 0.00 0.00 0.00 0.00 0.00 0.00 0.00 0.00 0.00 0.00 0.00 0.00 0.00 0.00 0.00 0.00 0.00 0.00 0.00 0.00 0.00 0.00 0.00 0.00 0.00 0.00 0.00 0.00

GFSWCAN_prec_precacc12_072.txt.gz
Total_Precipitation_Accumulation
0.03 0.03 0.03 0.03 0.02 0.02 0.02 0.02 0.01 0.02 0.07 0.11 0.10 0.06 0.02 0.02 0.04 0.11 0.04 0.05 0.12 0.16 0.02 0.01 0.01 0.05 0.08 0.07 0.18 0.26 0.25 0.27 0.09 0.06 0.01 0.00 0.01 0.02 0.03 0.07 0.12 0.07 0.02 0.02 0.02 0.03 0.01 0.00 0.00 0.02 0.07 0.03 0.02 0.01
0.03 0.02 0.02 0.02 0.02 0.02 0.02 0.02 0.02 0.03 0.08 0.14 0.19 0.23 0.16 0.09 0.07 0.13 0.05 0.03 0.07 0.09 0.01 0.00 0.00 0.00 0.00 0.01 0.02 0.13 0.33 0.38 0.44 0.23 0.12 0.04 0.05 0.06 0.06 0.07 0.16 0.33 0.17 0.05 0.00 0.00 0.05 0.06 0.04 0.04 0.03 0.09 0.09 0.26
0.02 0.02 0.02 0.02 0.02 0.02 0.02 0.02 0.02 0.04 0.08 0.10 0.14 0.20 0.20 0.18 0.18 0.21 0.08 0.03 0.16 0.18 0.05 0.00 0.00 0.00 0.00 0.00 0.00 0.04 0.04 0.28 0.51 0.25 0.28 0.13 0.11 0.11 0.06 0.04 0.09 0.14 0.27 0.42 0.24 0.16 0.09 0.19 0.17 0.04 0.00 0.01 0.02 0.10
0.02 0.02 0.02 0.02 0.02 0.02 0.03 0.03 0.03 0.06 0.13 0.17 0.18 0.22 0.26 0.26 0.30 0.39 0.37 0.06 0.08 0.14 0.03 0.00 0.00 0.00 0.00 0.00 0.00 0.00 0.00 0.02 0.10 0.12 0.28 0.25 0.16 0.19 0.15 0.08 0.20 0.22 0.34 0.21 0.31 0.39 0.21 0.16 0.42 0.25 0.09 0.06 0.03 0.01
0.02 0.02 0.01 0.03 0.03 0.02 0.03 0.03 0.04 0.06 0.09 0.12 0.15 0.21 0.32 0.43 0.49 0.68 0.62 0.16 0.07 0.06 0.10 0.05 0.00 0.00 0.00 0.00 0.00 0.00 0.00 0.00 0.02 0.08 0.10 0.09 0.15 0.36 0.38 0.21 0.26 0.25 0.66 0.60 0.39 0.70 0.82 0.64 0.39 0.34 0.40 0.22 0.06 0.01
0.03 0.02 0.01 0.02 0.02 0.03 0.04 0.04 0.05 0.06 0.06 0.06 0.08 0.13 0.19 0.40 0.82 1.03 0.84 0.41 0.18 0.15 0.11 0.02 0.00 0.00 0.00 0.00 0.00 0.00 0.00 0.01 0.04 0.08 0.05 0.04 0.10 0.45 0.46 0.51 0.32 0.16 0.20 0.40 0.67 0.75 0.84 0.70 0.33 0.15 0.11 0.15 0.16 0.11
0.02 0.02 0.02 0.02 0.03 0.04 0.05 0.06 0.05 0.06 0.08 0.08 0.07 0.07 0.09 0.16 0.20 0.22 0.13 0.07 0.04 0.09 0.18 0.08 0.01 0.03 0.01 0.01 0.02 0.02 0.01 0.03 0.03 0.05 0.02 0.01 0.02 0.11 0.34 0.38 0.24 0.08 0.13 0.17 0.36 0.31 0.10 0.08 0.08 0.03 0.00 0.00 0.00 0.01
0.02 0.03 0.04 0.02 0.02 0.04 0.07 0.10 0.09 0.08 0.11 0.13 0.15 0.14 0.09 0.13 0.17 0.09 0.04 0.06 0.02 0.01 0.04 0.06 0.04 0.20 0.07 0.07 0.13 0.06 0.07 0.15 0.09 0.05 0.01 0.02 0.04 0.10 0.15 0.24 0.10 0.03 0.07 0.01 0.00 0.01 0.00 0.00 0.00 0.00 0.00 0.00 0.00 0.00
0.04 0.06 0.05 0.03 0.03 0.04 0.06 0.15 0.19 0.21 0.12 0.15 0.20 0.20 0.26 0.22 0.11 0.05 0.05 0.07 0.03 0.01 0.01 0.02 0.07 0.35 0.40 0.35 0.28 0.14 0.11 0.13 0.11 0.08 0.02 0.03 0.04 0.12 0.10 0.03 0.02 0.01 0.00 0.00 0.00 0.00 0.00 0.00 0.00 0.00 0.00 0.00 0.00 0.00
0.09 0.07 0.06 0.04 0.05 0.08 0.11 0.25 0.38 0.28 0.12 0.12 0.14 0.25 0.22 0.08 0.05 0.10 0.28 0.45 0.33 0.03 0.04 0.03 0.01 0.05 0.32 0.51 0.30 0.32 0.18 0.12 0.09 0.03 0.08 0.14 0.05 0.04 0.02 0.01 0.01 0.00 0.00 0.00 0.01 0.01 0.01 0.01 0.00 0.00 0.00 0.01 0.01 0.01
0.06 0.08 0.07 0.05 0.07 0.08 0.24 0.31 0.53 0.23 0.13 0.05 0.13 0.17 0.08 0.08 0.08 0.13 0.24 0.18 0.18 0.05 0.00 0.00 0.01 0.04 0.08 0.44 0.35 0.13 0.07 0.13 0.03 0.03 0.09 0.12 0.04 0.05 0.02 0.01 0.00 0.00 0.00 0.01 0.01 0.02 0.01 0.01 0.01 0.00 0.01 0.01 0.01 0.01
0.09 0.12 0.13 0.11 0.12 0.20 0.27 0.36 0.34 0.11 0.05 0.04 0.16 0.14 0.14 0.13 0.15 0.17 0.14 0.05 0.03 0.02 0.01 0.01 0.03 0.04 0.05 0.14 0.27 0.19 0.07 0.06 0.07 0.07 0.08 0.07 0.06 0.04 0.01 0.00 0.00 0.00 0.00 0.01 0.01 0.01 0.01 0.01 0.00 0.00 0.01 0.01 0.01 0.01
0.14 0.23 0.24 0.17 0.20 0.26 0.22 0.24 0.10 0.01 0.02 0.07 0.06 0.07 0.12 0.13 0.18 0.17 0.07 0.01 0.02 0.01 0.00 0.03 0.03 0.03 0.02 0.08 0.10 0.08 0.22 0.05 0.06 0.10 0.06 0.04 0.05 0.02 0.01 0.00 0.01 0.00 0.00 0.00 0.01 0.01 0.01 0.01 0.00 0.00 0.01 0.01 0.01 0.01
0.17 0.23 0.24 0.26 0.32 0.33 0.34 0.26 0.15 0.05 0.03 0.03 0.05 0.06 0.12 0.04 0.07 0.07 0.02 0.01 0.00 0.00 0.01 0.02 0.00 0.00 0.00 0.00 0.00 0.01 0.05 0.04 0.04 0.04 0.03 0.05 0.03 0.02 0.01 0.00 0.00 0.01 0.00 0.01 0.01 0.01 0.00 0.00 0.01 0.01 0.00 0.00 0.00 0.01
0.21 0.25 0.36 0.40 0.40 0.35 0.30 0.26 0.08 0.01 0.01 0.00 0.00 0.01 0.00 0.01 0.01 0.02 0.03 0.01 0.01 0.02 0.02 0.02 0.01 0.00 0.00 0.00 0.00 0.00 0.01 0.03 0.02 0.02 0.03 0.03 0.01 0.00 0.00 0.00 0.00 0.01 0.01 0.01 0.01 0.01 0.01 0.01 0.01 0.02 0.01 0.01 0.00 0.00
0.17 0.39 0.49 0.46 0.40 0.26 0.13 0.02 0.00 0.01 0.00 0.00 0.01 0.02 0.04 0.02 0.05 0.04 0.05 0.03 0.03 0.05 0.01 0.00 0.00 0.00 0.00 0.00 0.01 0.01 0.02 0.03 0.02 0.02 0.02 0.01 0.01 0.01 0.01 0.01 0.01 0.02 0.02 0.02 0.03 0.02 0.02 0.02 0.02 0.02 0.01 0.01 0.00 0.00
0.23 0.72 0.59 0.35 0.15 0.02 0.00 0.00 0.03 0.02 0.00 0.00 0.02 0.03 0.03 0.02 0.02 0.04 0.04 0.04 0.04 0.06 0.03 0.01 0.01 0.01 0.02 0.01 0.00 0.01 0.03 0.03 0.02 0.03 0.02 0.00 0.01 0.01 0.01 0.02 0.03 0.03 0.03 0.03 0.03 0.03 0.03 0.02 0.01 0.00 0.00 0.00 0.00 0.00
0.15 0.27 0.14 0.05 0.01 0.00 0.00 0.00 0.03 0.01 0.01 0.02 0.02 0.03 0.01 0.03 0.02 0.02 0.03 0.02 0.03 0.01 0.00 0.01 0.01 0.01 0.02 0.01 0.01 0.03 0.04 0.04 0.02 0.02 0.03 0.03 0.02 0.03 0.02 0.03 0.04 0.03 0.04 0.04 0.04 0.04 0.02 0.00 0.00 0.00 0.00 0.00 0.00 0.00
0.04 0.03 0.00 0.00 0.00 0.00 0.01 0.00 0.00 0.00 0.02 0.02 0.03 0.02 0.01 0.01 0.01 0.02 0.01 0.00 0.00 0.00 0.00 0.00 0.00 0.01 0.01 0.02 0.01 0.01 0.01 0.01 0.02 0.03 0.04 0.04 0.03 0.03 0.04 0.04 0.04 0.05 0.05 0.04 0.02 0.01 0.01 0.00 0.00 0.00 0.00 0.00 0.01 0.01
0.00 0.00 0.00 0.00 0.00 0.00 0.00 0.00 0.00 0.00 0.01 0.01 0.01 0.01 0.01 0.03 0.02 0.00 0.00 0.00 0.00 0.00 0.00 0.01 0.03 0.04 0.03 0.02 0.00 0.00 0.00 0.00 0.01 0.02 0.06 0.07 0.06 0.04 0.03 0.02 0.01 0.01 0.00 0.00 0.00 0.00 0.00 0.00 0.00 0.00 0.00 0.01 0.01 0.01
0.00 0.01 0.00 0.00 0.00 0.00 0.00 0.00 0.00 0.00 0.00 0.01 0.01 0.00 0.01 0.00 0.00 0.00 0.00 0.00 0.00 0.01 0.02 0.04 0.04 0.05 0.02 0.01 0.01 0.01 0.02 0.02 0.01 0.00 0.01 0.03 0.02 0.00 0.00 0.00 0.00 0.00 0.00 0.00 0.00 0.00 0.00 0.00 0.00 0.00 0.00 0.00 0.00 0.00
0.04 0.02 0.01 0.00 0.00 0.00 0.00 0.00 0.00 0.00 0.00 0.01 0.02 0.01 0.01 0.00 0.00 0.00 0.00 0.00 0.02 0.06 0.05 0.04 0.05 0.03 0.02 0.02 0.01 0.00 0.01 0.01 0.00 0.00 0.00 0.00 0.01 0.00 0.00 0.00 0.00 0.00 0.00 0.00 0.00 0.00 0.00 0.00 0.00 0.00 0.00 0.00 0.00 0.00
0.03 0.02 0.04 0.01 0.00 0.00 0.01 0.02 0.02 0.02 0.00 0.01 0.00 0.00 0.00 0.00 0.00 0.00 0.00 0.01 0.04 0.07 0.03 0.01 0.02 0.00 0.01 0.01 0.00 0.00 0.00 0.00 0.00 0.00 0.00 0.00 0.00 0.00 0.00 0.00 0.00 0.00 0.00 0.00 0.00 0.00 0.00 0.00 0.00 0.00 0.00 0.00 0.00 0.00
0.00 0.00 0.00 0.00 0.00 0.01 0.03 0.04 0.01 0.01 0.01 0.01 0.00 0.00 0.00 0.00 0.00 0.00 0.01 0.02 0.04 0.04 0.01 0.01 0.00 0.00 0.00 0.00 0.00 0.00 0.00 0.00 0.00 0.00 0.00 0.00 0.00 0.00 0.00 0.00 0.00 0.00 0.00 0.00 0.00 0.00 0.00 0.00 0.00 0.00 0.00 0.00 0.00 0.00
0.00 0.00 0.00 0.00 0.00 0.00 0.00 0.01 0.01 0.01 0.01 0.00 0.00 0.00 0.00 0.00 0.00 0.00 0.00 0.02 0.03 0.03 0.02 0.02 0.02 0.00 0.00 0.00 0.00 0.00 0.00 0.00 0.00 0.00 0.00 0.00 0.00 0.00 0.00 0.00 0.00 0.00 0.00 0.01 0.00 0.00 0.00 0.00 0.00 0.00 0.00 0.00 0.00 0.00
0.00 0.00 0.00 0.01 0.01 0.01 0.00 0.00 0.00 0.00 0.00 0.00 0.00 0.00 0.02 0.00 0.00 0.01 0.01 0.01 0.01 0.03 0.03 0.02 0.00 0.00 0.00 0.00 0.00 0.00 0.00 0.00 0.00 0.00 0.00 0.00 0.00 0.00 0.00 0.00 0.00 0.00 0.00 0.00 0.00 0.00 0.01 0.00 0.00 0.00 0.00 0.00 0.00 0.00
0.00 0.00 0.00 0.00 0.02 0.02 0.00 0.00 0.00 0.00 0.00 0.00 0.01 0.01 0.00 0.00 0.01 0.05 0.07 0.01 0.02 0.03 0.01 0.01 0.00 0.00 0.00 0.00 0.00 0.00 0.00 0.00 0.00 0.00 0.00 0.00 0.00 0.00 0.00 0.00 0.00 0.00 0.00 0.00 0.00 0.00 0.00 0.00 0.00 0.00 0.00 0.00 0.01 0.01
0.00 0.00 0.00 0.01 0.00 0.00 0.00 0.00 0.00 0.00 0.01 0.01 0.00 0.00 0.00 0.00 0.03 0.07 0.05 0.04 0.00 0.00 0.00 0.00 0.00 0.00 0.00 0.00 0.00 0.00 0.00 0.00 0.00 0.00 0.00 0.00 0.00 0.00 0.00 0.00 0.00 0.00 0.00 0.00 0.00 0.00 0.00 0.00 0.00 0.00 0.00 0.00 0.00 0.00
0.00 0.00 0.00 0.00 0.00 0.00 0.01 0.00 0.01 0.01 0.01 0.02 0.00 0.01 0.01 0.04 0.05 0.04 0.03 0.01 0.00 0.00 0.00 0.00 0.00 0.00 0.00 0.00 0.00 0.00 0.00 0.00 0.00 0.00 0.00 0.01 0.01 0.01 0.00 0.00 0.00 0.00 0.00 0.00 0.00 0.00 0.01 0.00 0.00 0.00 0.00 0.00 0.00 0.00
0.00 0.00 0.00 0.00 0.00 0.01 0.03 0.02 0.01 0.01 0.01 0.00 0.01 0.02 0.03 0.11 0.17 0.07 0.03 0.02 0.01 0.00 0.00 0.00 0.00 0.00 0.00 0.00 0.00 0.00 0.00 0.00 0.00 0.00 0.00 0.00 0.00 0.01 0.00 0.00 0.00 0.00 0.00 0.00 0.00 0.00 0.00 0.00 0.00 0.00 0.00 0.00 0.00 0.00
0.00 0.00 0.00 0.00 0.02 0.03 0.03 0.02 0.01 0.00 0.00 0.00 0.00 0.00 0.02 0.07 0.08 0.08 0.05 0.03 0.01 0.00 0.00 0.00 0.00 0.00 0.00 0.00 0.00 0.00 0.00 0.00 0.00 0.00 0.00 0.00 0.00 0.00 0.00 0.00 0.00 0.00 0.00 0.00 0.00 0.00 0.00 0.00 0.00 0.00 0.00 0.00 0.00 0.00
0.00 0.00 0.00 0.00 0.03 0.03 0.04 0.01 0.00 0.01 0.01 0.00 0.01 0.00 0.01 0.00 0.01 0.03 0.04 0.04 0.03 0.01 0.01 0.00 0.00 0.00 0.00 0.00 0.00 0.00 0.00 0.00 0.00 0.00 0.00 0.00 0.00 0.00 0.00 0.00 0.00 0.00 0.00 0.00 0.00 0.00 0.00 0.00 0.00 0.00 0.00 0.00 0.00 0.00
0.00 0.00 0.00 0.00 0.00 0.01 0.02 0.01 0.00 0.01 0.01 0.01 0.02 0.02 0.01 0.00 0.01 0.01 0.02 0.03 0.03 0.00 0.00 0.00 0.00 0.00 0.00 0.00 0.00 0.00 0.00 0.00 0.00 0.00 0.00 0.00 0.00 0.00 0.00 0.00 0.00 0.00 0.00 0.00 0.00 0.00 0.00 0.00 0.00 0.00 0.00 0.00 0.00 0.00

GFSWCAN_prec_precacc12_075.txt.gz
Total_Precipitation_Accumulation
0.04 0.03 0.03 0.03 0.02 0.02 0.02 0.03 0.02 0.02 0.01 0.01 0.01 0.01 0.02 0.03 0.06 0.07 0.01 0.01 0.05 0.10 0.01 0.00 0.00 0.04 0.08 0.05 0.09 0.14 0.16 0.21 0.09 0.16 0.10 0.09 0.01 0.02 0.01 0.00 0.02 0.04 0.01 0.00 0.01 0.02 0.00 0.00 0.00 0.01 0.06 0.03 0.02 0.01
0.07 0.03 0.02 0.02 0.02 0.03 0.03 0.03 0.02 0.02 0.02 0.02 0.02 0.04 0.09 0.09 0.09 0.13 0.03 0.01 0.01 0.05 0.01 0.00 0.00 0.00 0.00 0.00 0.00 0.01 0.13 0.30 0.45 0.25 0.13 0.04 0.02 0.02 0.02 0.03 0.12 0.24 0.14 0.04 0.00 0.00 0.03 0.04 0.02 0.02 0.03 0.09 0.09 0.27
0.04 0.05 0.02 0.01 0.02 0.02 0.03 0.02 0.02 0.01 0.02 0.03 0.03 0.05 0.10 0.18 0.20 0.23 0.09 0.01 0.11 0.18 0.04 0.00 0.00 0.00 0.00 0.00 0.00 0.00 0.02 0.24 0.48 0.20 0.25 0.11 0.05 0.05 0.03 0.03 0.05 0.11 0.24 0.47 0.42 0.23 0.03 0.05 0.07 0.03 0.02 0.03 0.03 0.10
0.02 0.02 0.02 0.02 0.02 0.02 0.02 0.02 0.03 0.03 0.03 0.05 0.10 0.14 0.19 0.25 0.33 0.44 0.38 0.04 0.04 0.12 0.03 0.00 0.00 0.00 0.00 0.00 0.00 0.00 0.00 0.01 0.04 0.05 0.16 0.14 0.07 0.16 0.12 0.07 0.17 0.16 0.14 0.22 0.39 0.36 0.17 0.09 0.16 0.18 0.11 0.10 0.11 0.08
0.03 0.03 0.01 0.01 0.02 0.02 0.03 0.03 0.03 0.04 0.07 0.08 0.13 0.20 0.30 0.42 0.49 0.72 0.75 0.28 0.05 0.06 0.07 0.01 0.00 0.00 0.00 0.00 0.00 0.00 0.00 0.00 0.01 0.04 0.07 0.03 0.05 0.33 0.38 0.23 0.25 0.23 0.28 0.41 0.31 0.39 0.62 0.45 0.28 0.28 0.38 0.28 0.16 0.06
0.04 0.02 0.01 0.01 0.01 0.02 0.03 0.03 0.03 0.05 0.05 0.06 0.07 0.13 0.20 0.44 0.94 1.42 1.23 0.61 0.27 0.18 0.21 0.05 0.00 0.00 0.00 0.00 0.00 0.00 0.00 0.00 0.01 0.04 0.05 0.02 0.07 0.43 0.47 0.51 0.31 0.28 0.27 0.38 0.63 0.62 0.77 0.67 0.32 0.18 0.14 0.18 0.19 0.14
0.02 0.02 0.03 0.03 0.02 0.02 0.03 0.03 0.04 0.06 0.08 0.08 0.06 0.08 0.11 0.21 0.36 0.62 0.41 0.09 0.12 0.20 0.27 0.10 0.00 0.00 0.00 0.00 0.00 0.00 0.00 0.00 0.00 0.02 0.01 0.00 0.00 0.09 0.37 0.42 0.30 0.19 0.25 0.27 0.45 0.39 0.18 0.14 0.11 0.05 0.01 0.00 0.00 0.01
0.03 0.04 0.04 0.03 0.02 0.02 0.04 0.07 0.09 0.08 0.12 0.15 0.23 0.25 0.16 0.18 0.25 0.20 0.06 0.04 0.08 0.14 0.04 0.03 0.01 0.04 0.05 0.03 0.01 0.01 0.02 0.01 0.02 0.02 0.01 0.01 0.02 0.09 0.17 0.34 0.24 0.11 0.15 0.08 0.05 0.03 0.02 0.01 0.00 0.00 0.00 0.00 0.00 0.00
0.04 0.04 0.04 0.03 0.04 0.03 0.04 0.13 0.18 0.18 0.14 0.27 0.34 0.24 0.14 0.05 0.05 0.05 0.07 0.07 0.04 0.00 0.00 0.01 0.03 0.15 0.36 0.32 0.18 0.09 0.07 0.05 0.05 0.05 0.00 0.03 0.03 0.10 0.09 0.07 0.08 0.03 0.02 0.02 0.00 0.00 0.00 0.00 0.00 0.00 0.00 0.00 0.00 0.00
0.05 0.05 0.04 0.04 0.05 0.08 0.10 0.24 0.35 0.29 0.25 0.30 0.13 0.02 0.04 0.03 0.03 0.07 0.10 0.16 0.21 0.01 0.02 0.01 0.00 0.01 0.27 0.49 0.31 0.26 0.15 0.09 0.07 0.03 0.07 0.14 0.05 0.05 0.03 0.02 0.01 0.00 0.00 0.00 0.01 0.01 0.01 0.01 0.01 0.01 0.01 0.01 0.01 0.01
0.05 0.07 0.07 0.05 0.06 0.08 0.23 0.33 0.58 0.27 0.13 0.06 0.03 0.08 0.05 0.04 0.02 0.03 0.12 0.09 0.15 0.03 0.00 0.00 0.00 0.01 0.05 0.42 0.36 0.12 0.07 0.12 0.02 0.03 0.10 0.11 0.03 0.05 0.03 0.01 0.00 0.00 0.00 0.00 0.01 0.02 0.01 0.01 0.01 0.00 0.01 0.01 0.01 0.01
0.08 0.10 0.09 0.07 0.09 0.20 0.27 0.42 0.48 0.09 0.05 0.02 0.11 0.10 0.07 0.04 0.06 0.11 0.11 0.03 0.02 0.00 0.00 0.00 0.01 0.01 0.02 0.09 0.33 0.21 0.11 0.10 0.11 0.08 0.08 0.04 0.05 0.04 0.01 0.01 0.01 0.00 0.00 0.01 0.01 0.01 0.01 0.00 0.00 0.00 0.01 0.01 0.01 0.01
0.11 0.18 0.16 0.14 0.21 0.28 0.21 0.26 0.22 0.04 0.01 0.07 0.04 0.04 0.06 0.10 0.11 0.06 0.03 0.01 0.00 0.00 0.00 0.05 0.08 0.02 0.03 0.16 0.30 0.15 0.23 0.06 0.08 0.11 0.04 0.03 0.04 0.02 0.01 0.00 0.01 0.00 0.00 0.00 0.01 0.01 0.01 0.00 0.00 0.00 0.01 0.01 0.01 0.01
0.13 0.18 0.21 0.23 0.26 0.27 0.26 0.26 0.15 0.04 0.02 0.03 0.04 0.04 0.06 0.03 0.02 0.04 0.01 0.00 0.00 0.00 0.02 0.12 0.02 0.04 0.02 0.01 0.02 0.01 0.06 0.05 0.04 0.02 0.01 0.03 0.02 0.01 0.01 0.00 0.00 0.00 0.00 0.01 0.01 0.01 0.00 0.00 0.01 0.01 0.01 0.01 0.00 0.01
0.16 0.24 0.34 0.35 0.41 0.37 0.32 0.25 0.09 0.02 0.01 0.00 0.00 0.00 0.00 0.00 0.01 0.02 0.02 0.01 0.01 0.02 0.05 0.09 0.01 0.01 0.00 0.00 0.00 0.00 0.01 0.01 0.01 0.00 0.01 0.02 0.01 0.00 0.00 0.00 0.00 0.00 0.01 0.01 0.01 0.01 0.01 0.01 0.01 0.02 0.02 0.01 0.00 0.00
0.22 0.53 0.61 0.54 0.47 0.32 0.22 0.06 0.01 0.01 0.00 0.00 0.01 0.01 0.03 0.01 0.04 0.03 0.04 0.02 0.03 0.07 0.03 0.01 0.00 0.00 0.00 0.00 0.00 0.00 0.00 0.00 0.00 0.01 0.01 0.01 0.00 0.00 0.00 0.01 0.01 0.01 0.01 0.02 0.02 0.02 0.02 0.02 0.02 0.02 0.01 0.00 0.00 0.00
0.37 0.86 0.72 0.46 0.25 0.10 0.01 0.00 0.03 0.02 0.00 0.00 0.01 0.02 0.01 0.01 0.02 0.03 0.04 0.03 0.04 0.06 0.01 0.00 0.00 0.00 0.01 0.00 0.00 0.01 0.01 0.01 0.01 0.02 0.01 0.00 0.00 0.00 0.01 0.01 0.01 0.01 0.02 0.02 0.02 0.03 0.02 0.01 0.01 0.00 0.00 0.00 0.00 0.00
0.25 0.34 0.24 0.11 0.02 0.00 0.00 0.00 0.08 0.01 0.00 0.01 0.01 0.02 0.00 0.01 0.01 0.01 0.02 0.01 0.02 0.00 0.00 0.00 0.00 0.00 0.00 0.00 0.00 0.01 0.02 0.02 0.01 0.01 0.01 0.01 0.01 0.01 0.01 0.02 0.02 0.02 0.03 0.03 0.03 0.03 0.02 0.00 0.00 0.00 0.00 0.00 0.00 0.00
0.09 0.07 0.02 0.00 0.00 0.00 0.01 0.01 0.01 0.00 0.01 0.02 0.02 0.01 0.00 0.01 0.01 0.01 0.00 0.00 0.00 0.00 0.00 0.00 0.00 0.00 0.00 0.00 0.00 0.00 0.00 0.00 0.02 0.02 0.03 0.02 0.02 0.02 0.02 0.03 0.03 0.04 0.03 0.03 0.02 0.01 0.01 0.00 0.00 0.00 0.00 0.00 0.01 0.01
0.01 0.00 0.00 0.00 0.00 0.00 0.00 0.00 0.00 0.00 0.00 0.01 0.00 0.00 0.01 0.01 0.00 0.00 0.00 0.00 0.00 0.00 0.00 0.00 0.01 0.01 0.01 0.00 0.00 0.00 0.00 0.00 0.00 0.01 0.04 0.05 0.03 0.02 0.02 0.01 0.01 0.01 0.00 0.00 0.00 0.00 0.00 0.00 0.00 0.00 0.00 0.01 0.02 0.02
0.00 0.01 0.00 0.00 0.00 0.00 0.00 0.00 0.00 0.00 0.00 0.00 0.00 0.00 0.00 0.00 0.00 0.00 0.00 0.00 0.00 0.01 0.01 0.02 0.03 0.04 0.01 0.00 0.00 0.00 0.00 0.00 0.00 0.00 0.00 0.03 0.03 0.01 0.01 0.01 0.00 0.00 0.00 0.00 0.00 0.00 0.00 0.00 0.00 0.00 0.00 0.00 0.00 0.00
0.04 0.02 0.01 0.00 0.00 0.00 0.00 0.00 0.00 0.00 0.00 0.00 0.02 0.01 0.00 0.00 0.00 0.00 0.00 0.00 0.01 0.03 0.02 0.02 0.03 0.02 0.01 0.01 0.00 0.00 0.00 0.00 0.00 0.00 0.00 0.00 0.01 0.01 0.00 0.00 0.00 0.00 0.00 0.00 0.00 0.00 0.00 0.00 0.00 0.00 0.00 0.00 0.00 0.00
0.03 0.03 0.05 0.02 0.01 0.00 0.00 0.00 0.00 0.00 0.00 0.01 0.00 0.00 0.00 0.00 0.00 0.00 0.00 0.00 0.02 0.05 0.02 0.01 0.02 0.00 0.01 0.01 0.00 0.00 0.00 0.00 0.00 0.00 0.00 0.00 0.00 0.00 0.00 0.00 0.00 0.00 0.00 0.00 0.00 0.00 0.00 0.00 0.00 0.00 0.00 0.00 0.00 0.00
0.01 0.01 0.02 0.01 0.00 0.01 0.02 0.01 0.00 0.00 0.00 0.01 0.00 0.00 0.00 0.00 0.00 0.00 0.00 0.01 0.03 0.04 0.02 0.01 0.00 0.00 0.00 0.00 0.00 0.00 0.00 0.00 0.00 0.00 0.00 0.00 0.00 0.00 0.00 0.00 0.00 0.00 0.00 0.00 0.00 0.00 0.00 0.00 0.00 0.00 0.00 0.00 0.00 0.00
0.03 0.02 0.01 0.00 0.00 0.00 0.01 0.01 0.01 0.00 0.01 0.00 0.00 0.00 0.00 0.00 0.00 0.00 0.00 0.01 0.02 0.03 0.02 0.01 0.00 0.00 0.00 0.00 0.00 0.00 0.00 0.00 0.00 0.00 0.00 0.00 0.00 0.00 0.00 0.00 0.00 0.00 0.00 0.00 0.00 0.00 0.00 0.00 0.00 0.00 0.00 0.00 0.00 0.00
0.02 0.01 0.00 0.01 0.02 0.01 0.00 0.00 0.00 0.00 0.00 0.00 0.00 0.01 0.01 0.00 0.00 0.01 0.00 0.00 0.01 0.02 0.02 0.01 0.00 0.00 0.00 0.00 0.00 0.00 0.00 0.00 0.00 0.00 0.00 0.00 0.00 0.00 0.00 0.00 0.00 0.00 0.00 0.00 0.00 0.00 0.00 0.00 0.00 0.00 0.00 0.00 0.00 0.00
0.00 0.01 0.01 0.00 0.02 0.02 0.00 0.00 0.00 0.00 0.00 0.00 0.01 0.01 0.00 0.00 0.00 0.03 0.04 0.01 0.01 0.02 0.00 0.00 0.00 0.00 0.00 0.00 0.00 0.00 0.00 0.00 0.00 0.00 0.00 0.00 0.00 0.00 0.00 0.00 0.00 0.00 0.00 0.00 0.00 0.00 0.00 0.00 0.00 0.00 0.00 0.00 0.01 0.00
0.00 0.00 0.00 0.01 0.00 0.00 0.00 0.00 0.00 0.00 0.01 0.01 0.00 0.00 0.00 0.00 0.02 0.04 0.03 0.03 0.00 0.00 0.00 0.00 0.00 0.00 0.00 0.00 0.00 0.00 0.00 0.00 0.00 0.00 0.00 0.00 0.00 0.00 0.00 0.00 0.00 0.00 0.00 0.00 0.00 0.00 0.00 0.00 0.00 0.00 0.00 0.00 0.00 0.01
0.00 0.00 0.00 0.00 0.00 0.00 0.01 0.00 0.00 0.01 0.02 0.01 0.00 0.00 0.01 0.02 0.03 0.03 0.03 0.02 0.00 0.00 0.00 0.00 0.00 0.00 0.00 0.00 0.00 0.00 0.00 0.00 0.00 0.00 0.00 0.00 0.00 0.00 0.00 0.00 0.00 0.00 0.00 0.00 0.00 0.00 0.01 0.01 0.00 0.00 0.00 0.00 0.00 0.00
0.00 0.00 0.00 0.00 0.00 0.01 0.02 0.01 0.01 0.01 0.01 0.00 0.01 0.02 0.02 0.08 0.14 0.07 0.03 0.02 0.00 0.00 0.00 0.00 0.00 0.00 0.00 0.00 0.00 0.00 0.00 0.00 0.00 0.00 0.00 0.00 0.00 0.00 0.00 0.00 0.00 0.00 0.00 0.00 0.00 0.00 0.00 0.00 0.00 0.00 0.00 0.00 0.00 0.00
0.00 0.00 0.00 0.00 0.01 0.02 0.02 0.01 0.00 0.00 0.00 0.00 0.00 0.00 0.02 0.06 0.08 0.09 0.05 0.04 0.02 0.00 0.00 0.00 0.00 0.00 0.00 0.00 0.00 0.00 0.00 0.00 0.00 0.00 0.00 0.00 0.00 0.00 0.00 0.00 0.00 0.00 0.00 0.00 0.00 0.00 0.00 0.00 0.00 0.00 0.00 0.00 0.00 0.00
0.00 0.00 0.00 0.00 0.02 0.02 0.01 0.00 0.00 0.01 0.01 0.00 0.00 0.00 0.00 0.00 0.01 0.03 0.05 0.03 0.02 0.00 0.00 0.00 0.00 0.00 0.00 0.00 0.00 0.00 0.00 0.00 0.00 0.00 0.00 0.00 0.00 0.00 0.00 0.00 0.00 0.00 0.00 0.00 0.00 0.00 0.00 0.00 0.00 0.00 0.00 0.00 0.00 0.00
0.00 0.00 0.00 0.00 0.00 0.01 0.02 0.01 0.00 0.00 0.01 0.01 0.01 0.01 0.01 0.00 0.00 0.01 0.02 0.02 0.01 0.00 0.00 0.00 0.00 0.00 0.00 0.00 0.00 0.00 0.00 0.00 0.00 0.00 0.00 0.00 0.00 0.00 0.00 0.00 0.00 0.00 0.00 0.00 0.00 0.00 0.00 0.00 0.00 0.00 0.00 0.00 0.00 0.00

GFSWCAN_prec_precacc12_078.txt.gz
Total_Precipitation_Accumulation
0.05 0.02 0.02 0.03 0.03 0.02 0.03 0.03 0.03 0.02 0.02 0.01 0.01 0.01 0.01 0.04 0.07 0.04 0.01 0.00 0.01 0.04 0.00 0.00 0.00 0.00 0.00 0.01 0.03 0.02 0.09 0.13 0.08 0.18 0.16 0.31 0.18 0.04 0.05 0.04 0.06 0.05 0.03 0.01 0.01 0.02 0.00 0.00 0.00 0.00 0.05 0.03 0.01 0.01
0.11 0.04 0.03 0.02 0.02 0.03 0.03 0.04 0.04 0.03 0.03 0.02 0.01 0.02 0.01 0.02 0.06 0.10 0.02 0.00 0.00 0.02 0.00 0.00 0.00 0.00 0.00 0.00 0.00 0.01 0.03 0.08 0.32 0.26 0.12 0.08 0.08 0.02 0.02 0.07 0.10 0.12 0.09 0.06 0.02 0.01 0.00 0.00 0.00 0.00 0.02 0.08 0.08 0.25
0.15 0.11 0.04 0.02 0.02 0.02 0.04 0.04 0.04 0.03 0.03 0.02 0.01 0.02 0.04 0.06 0.08 0.18 0.09 0.00 0.07 0.16 0.04 0.00 0.00 0.00 0.00 0.00 0.00 0.00 0.01 0.05 0.26 0.21 0.26 0.14 0.08 0.04 0.03 0.04 0.05 0.09 0.21 0.43 0.41 0.30 0.06 0.02 0.02 0.03 0.03 0.03 0.03 0.11
0.08 0.08 0.05 0.02 0.02 0.01 0.02 0.02 0.03 0.03 0.02 0.01 0.02 0.04 0.07 0.10 0.20 0.39 0.39 0.04 0.03 0.09 0.02 0.00 0.00 0.00 0.00 0.00 0.00 0.00 0.00 0.01 0.03 0.06 0.16 0.15 0.03 0.04 0.06 0.05 0.16 0.15 0.13 0.16 0.44 0.45 0.26 0.13 0.07 0.08 0.11 0.11 0.13 0.14
0.05 0.04 0.03 0.02 0.02 0.02 0.02 0.02 0.02 0.02 0.03 0.05 0.06 0.11 0.19 0.24 0.37 0.73 0.79 0.31 0.05 0.06 0.05 0.00 0.00 0.00 0.00 0.00 0.00 0.00 0.00 0.00 0.01 0.03 0.07 0.03 0.02 0.14 0.32 0.24 0.20 0.22 0.15 0.12 0.29 0.35 0.34 0.42 0.26 0.18 0.30 0.27 0.22 0.09
0.06 0.04 0.03 0.02 0.01 0.01 0.01 0.02 0.01 0.02 0.03 0.03 0.05 0.09 0.16 0.37 0.91 1.48 1.28 0.66 0.29 0.22 0.31 0.08 0.00 0.00 0.00 0.00 0.00 0.00 0.00 0.00 0.01 0.04 0.04 0.02 0.05 0.24 0.44 0.47 0.19 0.25 0.22 0.25 0.41 0.46 0.38 0.41 0.29 0.16 0.13 0.19 0.20 0.14
0.04 0.04 0.04 0.03 0.02 0.01 0.01 0.02 0.02 0.02 0.06 0.07 0.05 0.07 0.10 0.22 0.52 0.85 0.52 0.11 0.16 0.29 0.47 0.19 0.01 0.00 0.00 0.00 0.00 0.00 0.00 0.00 0.00 0.02 0.01 0.00 0.00 0.09 0.31 0.44 0.30 0.26 0.33 0.28 0.40 0.34 0.17 0.14 0.11 0.07 0.02 0.01 0.01 0.01
0.04 0.03 0.03 0.04 0.03 0.02 0.02 0.03 0.03 0.06 0.12 0.14 0.22 0.26 0.17 0.24 0.37 0.34 0.16 0.11 0.17 0.36 0.21 0.05 0.00 0.00 0.01 0.02 0.01 0.00 0.01 0.01 0.02 0.02 0.01 0.01 0.02 0.09 0.16 0.38 0.28 0.20 0.26 0.17 0.13 0.07 0.04 0.02 0.01 0.00 0.00 0.00 0.00 0.00
0.04 0.04 0.04 0.04 0.04 0.03 0.02 0.03 0.12 0.18 0.14 0.29 0.38 0.31 0.20 0.13 0.11 0.08 0.12 0.11 0.06 0.04 0.01 0.00 0.00 0.01 0.12 0.18 0.04 0.05 0.02 0.02 0.02 0.04 0.01 0.02 0.03 0.09 0.11 0.13 0.16 0.11 0.09 0.08 0.03 0.01 0.00 0.00 0.00 0.00 0.00 0.00 0.00 0.00
0.04 0.05 0.05 0.05 0.04 0.05 0.04 0.13 0.31 0.30 0.34 0.43 0.18 0.08 0.11 0.09 0.04 0.09 0.11 0.07 0.02 0.00 0.01 0.01 0.00 0.00 0.11 0.34 0.22 0.13 0.09 0.06 0.03 0.02 0.05 0.11 0.04 0.04 0.03 0.02 0.03 0.01 0.01 0.01 0.02 0.01 0.01 0.01 0.00 0.00 0.00 0.00 0.00 0.00
0.05 0.08 0.07 0.04 0.04 0.06 0.13 0.26 0.56 0.35 0.44 0.13 0.08 0.08 0.06 0.04 0.01 0.00 0.02 0.02 0.06 0.03 0.00 0.00 0.00 0.01 0.03 0.34 0.35 0.12 0.07 0.10 0.01 0.03 0.09 0.10 0.03 0.04 0.03 0.01 0.01 0.00 0.00 0.00 0.01 0.01 0.01 0.00 0.00 0.00 0.01 0.01 0.00 0.00
0.08 0.10 0.09 0.07 0.09 0.16 0.21 0.40 0.52 0.18 0.16 0.04 0.03 0.09 0.07 0.01 0.01 0.05 0.07 0.02 0.02 0.00 0.00 0.00 0.01 0.01 0.02 0.07 0.33 0.20 0.11 0.12 0.14 0.08 0.07 0.02 0.03 0.03 0.02 0.01 0.00 0.00 0.00 0.00 0.00 0.00 0.00 0.00 0.00 0.00 0.01 0.01 0.01 0.01
0.09 0.13 0.13 0.13 0.20 0.23 0.19 0.28 0.37 0.15 0.03 0.04 0.02 0.02 0.01 0.02 0.04 0.03 0.03 0.00 0.00 0.00 0.00 0.06 0.10 0.02 0.04 0.17 0.37 0.23 0.20 0.09 0.09 0.13 0.04 0.02 0.03 0.02 0.01 0.00 0.00 0.00 0.00 0.00 0.01 0.01 0.01 0.00 0.00 0.00 0.01 0.01 0.01 0.01
0.09 0.14 0.19 0.22 0.23 0.19 0.21 0.35 0.36 0.16 0.06 0.02 0.01 0.01 0.03 0.02 0.01 0.00 0.00 0.00 0.00 0.00 0.02 0.21 0.07 0.07 0.04 0.08 0.12 0.09 0.10 0.09 0.05 0.02 0.00 0.02 0.02 0.01 0.01 0.00 0.00 0.00 0.00 0.01 0.01 0.01 0.01 0.01 0.01 0.01 0.01 0.01 0.01 0.01
0.10 0.16 0.25 0.24 0.24 0.23 0.26 0.26 0.14 0.06 0.02 0.00 0.00 0.00 0.00 0.00 0.01 0.01 0.01 0.00 0.00 0.03 0.08 0.20 0.04 0.05 0.02 0.02 0.01 0.01 0.01 0.02 0.01 0.00 0.00 0.02 0.01 0.00 0.00 0.00 0.00 0.01 0.01 0.01 0.01 0.01 0.01 0.01 0.01 0.02 0.02 0.01 0.00 0.00
0.16 0.44 0.46 0.42 0.38 0.30 0.27 0.16 0.06 0.01 0.00 0.00 0.00 0.01 0.02 0.01 0.02 0.02 0.03 0.02 0.03 0.07 0.06 0.05 0.01 0.00 0.00 0.00 0.00 0.00 0.00 0.00 0.00 0.00 0.01 0.01 0.00 0.00 0.00 0.00 0.00 0.01 0.01 0.02 0.02 0.02 0.02 0.02 0.02 0.02 0.01 0.00 0.00 0.00
0.47 0.89 0.66 0.48 0.31 0.23 0.13 0.03 0.04 0.02 0.00 0.00 0.01 0.02 0.01 0.01 0.02 0.03 0.03 0.03 0.04 0.06 0.01 0.00 0.00 0.00 0.00 0.00 0.00 0.00 0.00 0.00 0.00 0.01 0.01 0.00 0.00 0.00 0.00 0.01 0.01 0.01 0.01 0.02 0.02 0.03 0.02 0.01 0.00 0.00 0.00 0.00 0.00 0.00
0.37 0.39 0.31 0.20 0.12 0.07 0.03 0.01 0.08 0.01 0.00 0.01 0.01 0.02 0.01 0.01 0.01 0.02 0.02 0.01 0.02 0.00 0.00 0.00 0.00 0.00 0.00 0.00 0.00 0.00 0.01 0.02 0.02 0.01 0.00 0.00 0.00 0.00 0.00 0.01 0.01 0.01 0.02 0.02 0.02 0.02 0.01 0.00 0.00 0.00 0.00 0.00 0.00 0.00
0.16 0.11 0.06 0.01 0.00 0.00 0.01 0.01 0.01 0.00 0.01 0.01 0.02 0.01 0.00 0.01 0.01 0.01 0.00 0.00 0.00 0.00 0.00 0.00 0.00 0.00 0.00 0.00 0.00 0.00 0.00 0.00 0.02 0.01 0.01 0.01 0.01 0.01 0.01 0.01 0.02 0.02 0.02 0.02 0.02 0.01 0.01 0.00 0.00 0.00 0.00 0.00 0.00 0.00
0.06 0.03 0.01 0.00 0.00 0.00 0.00 0.00 0.00 0.00 0.00 0.01 0.00 0.00 0.00 0.00 0.00 0.00 0.00 0.00 0.00 0.00 0.00 0.00 0.00 0.00 0.00 0.00 0.00 0.00 0.00 0.00 0.00 0.01 0.03 0.03 0.02 0.01 0.01 0.01 0.01 0.01 0.01 0.00 0.00 0.00 0.00 0.00 0.00 0.00 0.00 0.01 0.02 0.02
0.03 0.02 0.00 0.00 0.00 0.00 0.00 0.00 0.00 0.00 0.00 0.00 0.00 0.00 0.00 0.00 0.00 0.00 0.00 0.00 0.00 0.00 0.00 0.01 0.01 0.02 0.01 0.00 0.00 0.00 0.00 0.00 0.00 0.00 0.00 0.02 0.02 0.01 0.01 0.01 0.00 0.00 0.00 0.00 0.00 0.00 0.00 0.00 0.00 0.00 0.00 0.00 0.00 0.00
0.04 0.02 0.01 0.00 0.00 0.00 0.00 0.00 0.00 0.00 0.00 0.00 0.00 0.00 0.00 0.00 0.00 0.00 0.00 0.00 0.00 0.01 0.01 0.01 0.01 0.01 0.00 0.00 0.00 0.00 0.00 0.00 0.00 0.00 0.00 0.00 0.01 0.01 0.01 0.00 0.00 0.00 0.00 0.00 0.00 0.00 0.00 0.00 0.00 0.00 0.00 0.00 0.00 0.00
0.03 0.03 0.05 0.02 0.01 0.00 0.00 0.00 0.00 0.00 0.00 0.01 0.00 0.00 0.00 0.00 0.00 0.00 0.00 0.00 0.01 0.03 0.01 0.01 0.01 0.00 0.01 0.01 0.00 0.00 0.00 0.00 0.00 0.00 0.00 0.00 0.00 0.00 0.00 0.00 0.00 0.00 0.00 0.00 0.00 0.00 0.00 0.00 0.00 0.00 0.00 0.00 0.00 0.00
0.01 0.01 0.02 0.01 0.00 0.01 0.01 0.01 0.00 0.00 0.00 0.00 0.00 0.00 0.00 0.00 0.00 0.00 0.00 0.01 0.02 0.04 0.02 0.01 0.00 0.01 0.01 0.00 0.00 0.00 0.00 0.00 0.00 0.00 0.00 0.00 0.00 0.00 0.00 0.00 0.00 0.00 0.00 0.00 0.00 0.00 0.00 0.00 0.00 0.00 0.00 0.00 0.00 0.00
0.04 0.04 0.01 0.00 0.00 0.00 0.00 0.00 0.00 0.00 0.00 0.00 0.00 0.00 0.00 0.00 0.00 0.00 0.00 0.01 0.02 0.03 0.02 0.01 0.00 0.00 0.00 0.00 0.00 0.00 0.00 0.00 0.00 0.00 0.00 0.00 0.00 0.00 0.00 0.00 0.00 0.00 0.00 0.00 0.00 0.00 0.00 0.00 0.00 0.00 0.00 0.00 0.00 0.00
0.03 0.02 0.00 0.01 0.01 0.00 0.00 0.00 0.00 0.00 0.00 0.00 0.00 0.00 0.00 0.00 0.00 0.00 0.00 0.00 0.01 0.01 0.01 0.00 0.00 0.00 0.00 0.00 0.00 0.00 0.00 0.00 0.00 0.00 0.00 0.00 0.00 0.00 0.00 0.00 0.00 0.00 0.00 0.00 0.00 0.00 0.00 0.00 0.00 0.00 0.00 0.00 0.00 0.00
0.00 0.01 0.01 0.00 0.02 0.01 0.00 0.00 0.00 0.00 0.00 0.00 0.01 0.01 0.00 0.00 0.00 0.01 0.02 0.01 0.00 0.00 0.00 0.00 0.00 0.00 0.00 0.00 0.00 0.00 0.00 0.00 0.00 0.00 0.00 0.00 0.00 0.00 0.00 0.00 0.00 0.00 0.00 0.00 0.00 0.00 0.00 0.00 0.00 0.00 0.00 0.00 0.00 0.00
0.00 0.00 0.00 0.01 0.00 0.00 0.00 0.00 0.00 0.00 0.01 0.01 0.00 0.00 0.00 0.00 0.01 0.02 0.02 0.01 0.01 0.00 0.00 0.00 0.00 0.00 0.00 0.00 0.00 0.00 0.00 0.00 0.00 0.00 0.00 0.00 0.00 0.00 0.00 0.00 0.00 0.00 0.00 0.00 0.00 0.00 0.00 0.00 0.00 0.00 0.00 0.00 0.00 0.00
0.00 0.00 0.00 0.00 0.00 0.00 0.00 0.00 0.00 0.01 0.01 0.01 0.00 0.00 0.01 0.01 0.02 0.02 0.03 0.02 0.00 0.00 0.00 0.00 0.00 0.00 0.00 0.00 0.00 0.00 0.00 0.00 0.00 0.00 0.00 0.00 0.00 0.00 0.00 0.00 0.00 0.00 0.00 0.00 0.00 0.00 0.01 0.00 0.00 0.00 0.00 0.00 0.00 0.00
0.00 0.00 0.00 0.00 0.00 0.00 0.01 0.01 0.01 0.01 0.01 0.00 0.00 0.01 0.01 0.05 0.10 0.06 0.03 0.02 0.00 0.00 0.00 0.00 0.00 0.00 0.00 0.00 0.00 0.00 0.00 0.00 0.00 0.00 0.00 0.00 0.00 0.00 0.00 0.00 0.00 0.00 0.00 0.00 0.00 0.00 0.00 0.00 0.00 0.00 0.00 0.00 0.00 0.00
0.00 0.00 0.00 0.00 0.01 0.01 0.02 0.01 0.01 0.00 0.00 0.00 0.00 0.00 0.01 0.05 0.07 0.08 0.05 0.04 0.03 0.01 0.00 0.00 0.00 0.00 0.00 0.00 0.00 0.00 0.00 0.00 0.00 0.00 0.00 0.00 0.00 0.00 0.00 0.00 0.00 0.00 0.00 0.00 0.00 0.00 0.00 0.00 0.00 0.00 0.00 0.00 0.00 0.00
0.00 0.00 0.00 0.00 0.01 0.01 0.01 0.00 0.00 0.00 0.01 0.00 0.00 0.00 0.00 0.00 0.01 0.03 0.05 0.04 0.02 0.01 0.00 0.00 0.00 0.00 0.00 0.00 0.00 0.00 0.00 0.00 0.00 0.00 0.00 0.00 0.00 0.00 0.00 0.00 0.00 0.00 0.00 0.00 0.00 0.00 0.00 0.00 0.00 0.00 0.00 0.00 0.00 0.00
0.00 0.00 0.00 0.00 0.00 0.01 0.01 0.00 0.00 0.00 0.01 0.00 0.01 0.01 0.00 0.00 0.00 0.01 0.02 0.02 0.02 0.01 0.00 0.00 0.00 0.00 0.00 0.00 0.00 0.00 0.00 0.00 0.00 0.00 0.00 0.00 0.00 0.00 0.00 0.00 0.00 0.00 0.00 0.00 0.00 0.00 0.00 0.00 0.00 0.00 0.00 0.00 0.00 0.00

GFSWCAN_prec_precacc12_081.txt.gz
Total_Precipitation_Accumulation
0.08 0.04 0.02 0.02 0.02 0.02 0.03 0.04 0.04 0.03 0.02 0.02 0.01 0.01 0.01 0.05 0.07 0.03 0.02 0.00 0.01 0.01 0.00 0.00 0.00 0.00 0.00 0.01 0.01 0.01 0.01 0.03 0.06 0.21 0.19 0.40 0.49 0.13 0.11 0.07 0.10 0.09 0.07 0.04 0.05 0.04 0.03 0.00 0.00 0.00 0.01 0.01 0.00 0.00
0.13 0.06 0.02 0.02 0.02 0.03 0.03 0.04 0.05 0.04 0.03 0.02 0.01 0.02 0.01 0.02 0.06 0.08 0.03 0.00 0.01 0.01 0.00 0.00 0.00 0.00 0.00 0.00 0.00 0.00 0.01 0.05 0.12 0.20 0.12 0.13 0.19 0.08 0.09 0.16 0.15 0.10 0.08 0.13 0.09 0.07 0.00 0.00 0.00 0.00 0.02 0.02 0.04 0.09
0.16 0.13 0.05 0.03 0.02 0.02 0.04 0.04 0.04 0.04 0.04 0.02 0.01 0.01 0.03 0.05 0.06 0.07 0.06 0.01 0.07 0.13 0.03 0.00 0.00 0.00 0.00 0.00 0.00 0.00 0.01 0.03 0.09 0.17 0.25 0.15 0.14 0.07 0.08 0.14 0.14 0.10 0.11 0.29 0.36 0.28 0.06 0.02 0.01 0.02 0.03 0.03 0.03 0.06
0.08 0.16 0.09 0.03 0.02 0.01 0.02 0.03 0.03 0.03 0.03 0.01 0.01 0.00 0.01 0.04 0.13 0.17 0.15 0.04 0.04 0.08 0.02 0.00 0.00 0.00 0.00 0.00 0.00 0.00 0.01 0.01 0.03 0.06 0.16 0.16 0.07 0.06 0.05 0.06 0.07 0.08 0.12 0.16 0.35 0.41 0.28 0.15 0.10 0.06 0.08 0.09 0.12 0.16
0.06 0.11 0.13 0.04 0.01 0.02 0.01 0.02 0.02 0.02 0.02 0.02 0.01 0.03 0.05 0.07 0.15 0.39 0.57 0.26 0.05 0.07 0.05 0.00 0.00 0.00 0.00 0.00 0.00 0.00 0.00 0.00 0.01 0.03 0.08 0.05 0.03 0.08 0.08 0.15 0.15 0.19 0.14 0.10 0.24 0.22 0.30 0.30 0.23 0.16 0.13 0.18 0.23 0.12
0.07 0.05 0.13 0.06 0.02 0.01 0.01 0.02 0.02 0.01 0.01 0.02 0.03 0.04 0.10 0.22 0.60 1.22 1.12 0.60 0.29 0.23 0.35 0.10 0.01 0.00 0.00 0.00 0.00 0.00 0.00 0.00 0.01 0.04 0.05 0.03 0.05 0.09 0.17 0.34 0.17 0.22 0.18 0.18 0.25 0.31 0.28 0.23 0.21 0.17 0.12 0.11 0.15 0.13
0.05 0.05 0.07 0.07 0.02 0.01 0.01 0.02 0.02 0.01 0.01 0.03 0.04 0.05 0.07 0.15 0.51 0.87 0.53 0.12 0.16 0.33 0.62 0.24 0.02 0.00 0.00 0.00 0.01 0.01 0.00 0.00 0.01 0.02 0.02 0.01 0.01 0.08 0.21 0.37 0.30 0.26 0.30 0.31 0.31 0.26 0.19 0.15 0.12 0.07 0.02 0.01 0.01 0.01
0.06 0.05 0.04 0.05 0.03 0.02 0.01 0.02 0.02 0.02 0.05 0.10 0.20 0.22 0.15 0.28 0.45 0.40 0.16 0.14 0.27 0.54 0.35 0.13 0.02 0.00 0.01 0.04 0.04 0.01 0.01 0.01 0.03 0.04 0.03 0.02 0.02 0.09 0.18 0.30 0.28 0.22 0.29 0.22 0.18 0.09 0.05 0.03 0.01 0.00 0.00 0.00 0.00 0.00
0.06 0.05 0.04 0.04 0.04 0.03 0.01 0.01 0.03 0.12 0.12 0.28 0.36 0.28 0.22 0.19 0.15 0.08 0.13 0.17 0.17 0.16 0.08 0.02 0.01 0.04 0.02 0.09 0.09 0.06 0.04 0.04 0.02 0.05 0.02 0.02 0.02 0.04 0.09 0.14 0.17 0.16 0.18 0.17 0.07 0.01 0.00 0.00 0.00 0.00 0.00 0.00 0.00 0.00
0.06 0.05 0.04 0.04 0.03 0.03 0.02 0.03 0.19 0.28 0.33 0.43 0.24 0.19 0.22 0.14 0.07 0.07 0.12 0.09 0.07 0.03 0.02 0.01 0.00 0.02 0.04 0.10 0.10 0.08 0.08 0.03 0.04 0.02 0.04 0.06 0.03 0.03 0.02 0.02 0.03 0.03 0.04 0.05 0.03 0.01 0.01 0.01 0.00 0.00 0.00 0.00 0.00 0.00
0.04 0.04 0.04 0.03 0.04 0.04 0.05 0.14 0.53 0.35 0.51 0.22 0.19 0.15 0.10 0.07 0.03 0.03 0.03 0.03 0.02 0.02 0.01 0.00 0.00 0.01 0.03 0.13 0.27 0.09 0.08 0.07 0.01 0.03 0.06 0.07 0.03 0.03 0.02 0.01 0.00 0.00 0.00 0.00 0.01 0.01 0.01 0.00 0.00 0.00 0.01 0.01 0.00 0.00
0.05 0.06 0.06 0.06 0.07 0.08 0.11 0.37 0.51 0.21 0.23 0.10 0.03 0.12 0.12 0.04 0.01 0.01 0.01 0.02 0.02 0.00 0.00 0.00 0.01 0.02 0.03 0.07 0.34 0.23 0.13 0.13 0.14 0.08 0.07 0.05 0.03 0.02 0.01 0.01 0.00 0.00 0.00 0.00 0.00 0.00 0.00 0.00 0.00 0.00 0.01 0.01 0.01 0.01
0.08 0.12 0.13 0.11 0.13 0.11 0.16 0.29 0.38 0.16 0.10 0.09 0.05 0.05 0.02 0.02 0.02 0.01 0.02 0.01 0.01 0.00 0.01 0.06 0.10 0.02 0.05 0.17 0.38 0.24 0.13 0.13 0.11 0.15 0.06 0.02 0.02 0.01 0.00 0.00 0.00 0.00 0.00 0.00 0.00 0.01 0.01 0.00 0.01 0.00 0.01 0.01 0.01 0.01
0.07 0.13 0.19 0.17 0.15 0.14 0.21 0.37 0.44 0.25 0.12 0.05 0.02 0.01 0.01 0.01 0.00 0.00 0.00 0.01 0.00 0.01 0.03 0.22 0.08 0.08 0.06 0.09 0.15 0.19 0.16 0.11 0.08 0.05 0.01 0.01 0.01 0.01 0.01 0.00 0.00 0.00 0.00 0.00 0.01 0.01 0.01 0.01 0.01 0.01 0.01 0.01 0.00 0.00
0.07 0.15 0.24 0.19 0.19 0.22 0.25 0.32 0.35 0.18 0.05 0.01 0.00 0.00 0.00 0.00 0.01 0.01 0.01 0.00 0.00 0.03 0.09 0.23 0.07 0.08 0.05 0.08 0.07 0.08 0.07 0.08 0.05 0.03 0.01 0.02 0.01 0.01 0.00 0.00 0.00 0.01 0.01 0.01 0.01 0.01 0.01 0.01 0.01 0.01 0.02 0.01 0.00 0.00
0.13 0.36 0.35 0.27 0.28 0.25 0.32 0.34 0.22 0.03 0.00 0.00 0.00 0.01 0.01 0.01 0.01 0.02 0.02 0.01 0.02 0.07 0.08 0.10 0.08 0.04 0.03 0.01 0.01 0.00 0.00 0.01 0.01 0.01 0.01 0.01 0.00 0.00 0.00 0.00 0.00 0.01 0.01 0.01 0.01 0.01 0.01 0.01 0.01 0.01 0.00 0.00 0.00 0.00
0.43 0.53 0.37 0.33 0.27 0.29 0.34 0.15 0.06 0.02 0.00 0.00 0.01 0.01 0.01 0.01 0.02 0.02 0.02 0.02 0.03 0.06 0.04 0.01 0.01 0.01 0.01 0.00 0.00 0.00 0.00 0.01 0.01 0.01 0.01 0.00 0.00 0.00 0.00 0.01 0.01 0.01 0.01 0.01 0.02 0.02 0.01 0.00 0.00 0.00 0.00 0.00 0.00 0.00
0.33 0.27 0.26 0.21 0.22 0.25 0.14 0.02 0.08 0.01 0.00 0.01 0.01 0.01 0.01 0.01 0.02 0.02 0.02 0.01 0.02 0.01 0.00 0.00 0.00 0.00 0.00 0.00 0.00 0.00 0.01 0.02 0.02 0.01 0.00 0.00 0.00 0.00 0.00 0.01 0.01 0.01 0.01 0.01 0.01 0.01 0.00 0.00 0.00 0.00 0.00 0.00 0.00 0.00
0.18 0.12 0.08 0.04 0.02 0.02 0.03 0.01 0.01 0.00 0.01 0.01 0.02 0.01 0.00 0.01 0.01 0.01 0.00 0.00 0.00 0.00 0.00 0.00 0.00 0.00 0.00 0.00 0.00 0.00 0.00 0.00 0.02 0.01 0.01 0.01 0.01 0.01 0.01 0.01 0.02 0.02 0.02 0.01 0.01 0.01 0.01 0.01 0.00 0.00 0.00 0.00 0.00 0.00
0.10 0.07 0.03 0.01 0.01 0.00 0.00 0.00 0.00 0.00 0.01 0.01 0.01 0.00 0.00 0.00 0.00 0.00 0.00 0.00 0.00 0.00 0.00 0.00 0.00 0.00 0.00 0.00 0.00 0.00 0.00 0.00 0.00 0.01 0.03 0.03 0.01 0.01 0.01 0.01 0.01 0.01 0.01 0.01 0.00 0.00 0.00 0.00 0.00 0.00 0.00 0.01 0.01 0.02
0.16 0.09 0.03 0.01 0.00 0.00 0.00 0.00 0.00 0.00 0.00 0.00 0.00 0.00 0.00 0.00 0.00 0.00 0.00 0.00 0.01 0.00 0.00 0.00 0.01 0.01 0.00 0.00 0.00 0.00 0.00 0.00 0.00 0.00 0.01 0.02 0.02 0.01 0.01 0.02 0.01 0.00 0.00 0.00 0.00 0.00 0.00 0.00 0.00 0.00 0.00 0.00 0.00 0.00
0.03 0.02 0.01 0.00 0.00 0.00 0.00 0.00 0.00 0.00 0.00 0.00 0.00 0.00 0.00 0.00 0.00 0.00 0.00 0.00 0.00 0.01 0.01 0.00 0.01 0.00 0.00 0.00 0.00 0.00 0.00 0.00 0.00 0.00 0.00 0.00 0.01 0.01 0.01 0.00 0.00 0.00 0.00 0.00 0.00 0.00 0.00 0.00 0.00 0.00 0.00 0.00 0.00 0.00
0.03 0.03 0.05 0.02 0.01 0.00 0.00 0.00 0.00 0.00 0.00 0.01 0.00 0.00 0.00 0.00 0.00 0.00 0.00 0.00 0.01 0.02 0.01 0.00 0.00 0.00 0.00 0.00 0.00 0.00 0.00 0.00 0.00 0.00 0.00 0.00 0.00 0.00 0.00 0.00 0.00 0.00 0.00 0.00 0.00 0.00 0.00 0.00 0.00 0.00 0.00 0.00 0.00 0.00
0.01 0.01 0.02 0.01 0.00 0.01 0.01 0.00 0.00 0.00 0.00 0.00 0.00 0.00 0.00 0.00 0.00 0.00 0.00 0.00 0.02 0.03 0.01 0.01 0.00 0.01 0.01 0.00 0.00 0.00 0.00 0.00 0.00 0.00 0.00 0.00 0.00 0.00 0.00 0.00 0.00 0.00 0.00 0.00 0.00 0.00 0.00 0.00 0.00 0.00 0.00 0.00 0.00 0.00
0.04 0.04 0.01 0.00 0.00 0.00 0.00 0.00 0.00 0.00 0.00 0.00 0.00 0.00 0.00 0.00 0.00 0.00 0.00 0.01 0.02 0.03 0.02 0.01 0.00 0.00 0.00 0.01 0.01 0.00 0.00 0.00 0.00 0.00 0.00 0.00 0.00 0.00 0.00 0.00 0.00 0.00 0.00 0.00 0.00 0.00 0.00 0.00 0.00 0.00 0.00 0.00 0.00 0.00
0.03 0.02 0.00 0.00 0.00 0.00 0.00 0.00 0.00 0.00 0.00 0.00 0.00 0.00 0.00 0.00 0.00 0.00 0.00 0.01 0.01 0.02 0.02 0.01 0.00 0.00 0.00 0.00 0.00 0.00 0.00 0.00 0.00 0.00 0.00 0.00 0.00 0.00 0.00 0.00 0.00 0.00 0.00 0.00 0.00 0.00 0.00 0.00 0.00 0.00 0.00 0.00 0.00 0.00
0.00 0.01 0.01 0.00 0.01 0.00 0.00 0.00 0.00 0.00 0.00 0.00 0.01 0.01 0.00 0.00 0.00 0.01 0.01 0.01 0.01 0.01 0.00 0.00 0.00 0.00 0.00 0.00 0.00 0.00 0.00 0.00 0.00 0.00 0.00 0.00 0.00 0.00 0.00 0.00 0.00 0.00 0.00 0.00 0.00 0.00 0.00 0.00 0.00 0.00 0.00 0.00 0.00 0.01
0.00 0.00 0.00 0.01 0.00 0.00 0.00 0.00 0.00 0.00 0.00 0.01 0.00 0.00 0.00 0.00 0.01 0.02 0.02 0.01 0.02 0.01 0.00 0.00 0.00 0.00 0.00 0.00 0.00 0.00 0.00 0.00 0.00 0.00 0.00 0.00 0.00 0.00 0.00 0.00 0.00 0.00 0.00 0.00 0.00 0.00 0.00 0.00 0.00 0.00 0.00 0.00 0.00 0.00
0.00 0.00 0.00 0.00 0.00 0.00 0.00 0.00 0.00 0.01 0.01 0.01 0.00 0.00 0.01 0.01 0.02 0.02 0.03 0.03 0.01 0.00 0.00 0.00 0.00 0.00 0.00 0.00 0.00 0.00 0.00 0.00 0.00 0.00 0.00 0.00 0.00 0.00 0.00 0.00 0.00 0.00 0.00 0.00 0.00 0.00 0.00 0.00 0.00 0.00 0.00 0.00 0.00 0.00
0.00 0.00 0.00 0.00 0.00 0.00 0.01 0.01 0.01 0.01 0.01 0.01 0.00 0.00 0.00 0.02 0.06 0.05 0.04 0.04 0.03 0.02 0.00 0.00 0.00 0.00 0.00 0.00 0.00 0.00 0.00 0.00 0.00 0.00 0.00 0.00 0.00 0.00 0.00 0.00 0.00 0.00 0.00 0.00 0.00 0.00 0.00 0.00 0.00 0.00 0.00 0.00 0.00 0.00
0.00 0.00 0.00 0.00 0.01 0.01 0.02 0.01 0.01 0.00 0.00 0.00 0.00 0.00 0.01 0.03 0.05 0.06 0.06 0.06 0.04 0.01 0.00 0.00 0.00 0.00 0.00 0.00 0.00 0.00 0.00 0.00 0.00 0.00 0.00 0.00 0.00 0.00 0.00 0.00 0.00 0.00 0.00 0.00 0.00 0.00 0.00 0.00 0.00 0.00 0.00 0.00 0.00 0.00
0.00 0.00 0.00 0.00 0.01 0.01 0.01 0.00 0.00 0.01 0.01 0.01 0.01 0.00 0.01 0.01 0.02 0.03 0.04 0.04 0.04 0.02 0.00 0.00 0.00 0.00 0.00 0.00 0.00 0.00 0.00 0.00 0.00 0.00 0.00 0.00 0.00 0.00 0.00 0.00 0.00 0.00 0.00 0.00 0.00 0.00 0.00 0.00 0.00 0.00 0.00 0.00 0.00 0.00
0.00 0.00 0.00 0.00 0.00 0.01 0.00 0.00 0.00 0.00 0.01 0.01 0.01 0.00 0.00 0.00 0.01 0.02 0.02 0.03 0.04 0.02 0.00 0.00 0.00 0.00 0.00 0.00 0.00 0.00 0.00 0.00 0.00 0.00 0.00 0.00 0.00 0.00 0.00 0.00 0.00 0.00 0.00 0.00 0.00 0.00 0.00 0.00 0.00 0.00 0.00 0.00 0.00 0.00

GFSWCAN_prec_precacc12_084.txt.gz
Total_Precipitation_Accumulation
0.10 0.07 0.06 0.04 0.02 0.01 0.02 0.03 0.05 0.03 0.03 0.03 0.01 0.01 0.01 0.04 0.04 0.02 0.03 0.00 0.01 0.01 0.00 0.00 0.00 0.00 0.00 0.01 0.02 0.02 0.03 0.06 0.03 0.17 0.26 0.44 0.56 0.25 0.21 0.13 0.13 0.13 0.11 0.07 0.09 0.13 0.10 0.00 0.00 0.00 0.02 0.01 0.00 0.00
0.15 0.10 0.03 0.04 0.01 0.02 0.02 0.04 0.06 0.04 0.03 0.04 0.02 0.01 0.00 0.02 0.04 0.04 0.05 0.00 0.01 0.01 0.01 0.00 0.00 0.00 0.00 0.00 0.00 0.00 0.01 0.02 0.06 0.14 0.11 0.15 0.24 0.20 0.25 0.32 0.20 0.17 0.14 0.36 0.20 0.19 0.03 0.00 0.00 0.01 0.02 0.01 0.01 0.01
0.17 0.17 0.07 0.03 0.01 0.01 0.04 0.05 0.05 0.04 0.04 0.03 0.02 0.00 0.02 0.03 0.05 0.05 0.07 0.01 0.05 0.10 0.02 0.00 0.00 0.00 0.00 0.00 0.00 0.00 0.03 0.04 0.10 0.16 0.17 0.12 0.16 0.12 0.15 0.28 0.28 0.15 0.03 0.16 0.27 0.24 0.06 0.02 0.01 0.02 0.03 0.03 0.02 0.02
0.09 0.18 0.11 0.03 0.02 0.01 0.02 0.03 0.03 0.04 0.03 0.03 0.02 0.00 0.00 0.02 0.09 0.12 0.07 0.05 0.03 0.07 0.01 0.01 0.00 0.00 0.00 0.00 0.00 0.00 0.02 0.01 0.02 0.04 0.09 0.11 0.08 0.10 0.08 0.10 0.10 0.03 0.05 0.13 0.35 0.32 0.23 0.13 0.10 0.07 0.07 0.06 0.11 0.16
0.05 0.11 0.16 0.05 0.02 0.01 0.02 0.02 0.03 0.03 0.03 0.02 0.01 0.01 0.01 0.01 0.04 0.16 0.25 0.21 0.03 0.05 0.08 0.01 0.00 0.00 0.00 0.00 0.00 0.00 0.00 0.00 0.01 0.02 0.06 0.05 0.05 0.12 0.08 0.17 0.11 0.07 0.12 0.10 0.23 0.15 0.19 0.22 0.18 0.12 0.10 0.11 0.21 0.12
0.05 0.04 0.15 0.10 0.02 0.01 0.01 0.02 0.03 0.02 0.02 0.02 0.02 0.02 0.02 0.06 0.20 0.60 0.57 0.29 0.14 0.16 0.32 0.10 0.01 0.00 0.00 0.00 0.00 0.00 0.00 0.01 0.00 0.02 0.04 0.03 0.06 0.09 0.05 0.22 0.14 0.18 0.16 0.16 0.16 0.19 0.15 0.16 0.14 0.11 0.08 0.07 0.07 0.05
0.03 0.04 0.10 0.14 0.03 0.01 0.01 0.02 0.03 0.02 0.02 0.01 0.01 0.01 0.04 0.10 0.40 0.70 0.45 0.11 0.14 0.29 0.63 0.26 0.03 0.00 0.00 0.00 0.02 0.03 0.01 0.00 0.01 0.03 0.02 0.02 0.02 0.07 0.13 0.22 0.17 0.23 0.26 0.24 0.25 0.23 0.19 0.15 0.10 0.06 0.02 0.01 0.00 0.00
0.06 0.05 0.06 0.15 0.05 0.02 0.02 0.02 0.02 0.03 0.03 0.03 0.08 0.14 0.13 0.21 0.33 0.36 0.17 0.14 0.26 0.58 0.40 0.16 0.03 0.02 0.01 0.05 0.08 0.05 0.02 0.01 0.03 0.04 0.04 0.04 0.03 0.09 0.17 0.20 0.22 0.21 0.29 0.26 0.23 0.14 0.08 0.04 0.01 0.00 0.00 0.00 0.00 0.00
0.08 0.07 0.06 0.10 0.05 0.03 0.01 0.02 0.02 0.04 0.05 0.17 0.24 0.26 0.24 0.21 0.16 0.08 0.12 0.18 0.20 0.29 0.16 0.04 0.03 0.11 0.03 0.10 0.16 0.10 0.07 0.06 0.04 0.05 0.03 0.03 0.04 0.04 0.06 0.13 0.17 0.16 0.23 0.23 0.13 0.04 0.01 0.00 0.00 0.00 0.00 0.00 0.00 0.00
0.08 0.08 0.07 0.05 0.04 0.03 0.02 0.02 0.04 0.11 0.28 0.41 0.23 0.23 0.24 0.14 0.06 0.07 0.12 0.10 0.12 0.10 0.05 0.02 0.01 0.10 0.04 0.06 0.10 0.11 0.11 0.05 0.06 0.03 0.02 0.04 0.03 0.02 0.02 0.02 0.03 0.03 0.06 0.08 0.06 0.02 0.01 0.00 0.00 0.00 0.00 0.00 0.00 0.00
0.05 0.06 0.06 0.03 0.03 0.03 0.03 0.04 0.19 0.33 0.53 0.23 0.24 0.26 0.14 0.07 0.06 0.08 0.05 0.05 0.03 0.04 0.01 0.00 0.01 0.05 0.04 0.05 0.13 0.05 0.09 0.06 0.03 0.04 0.04 0.06 0.05 0.02 0.02 0.01 0.00 0.00 0.00 0.00 0.00 0.01 0.00 0.00 0.00 0.00 0.00 0.01 0.00 0.00
0.03 0.04 0.04 0.03 0.03 0.03 0.05 0.18 0.40 0.21 0.23 0.12 0.10 0.16 0.15 0.07 0.06 0.04 0.02 0.02 0.02 0.01 0.01 0.01 0.01 0.03 0.06 0.06 0.24 0.17 0.11 0.11 0.12 0.10 0.06 0.07 0.03 0.02 0.01 0.01 0.00 0.00 0.00 0.00 0.00 0.00 0.00 0.00 0.00 0.00 0.01 0.01 0.01 0.01
0.04 0.03 0.05 0.05 0.05 0.05 0.08 0.24 0.37 0.16 0.14 0.20 0.12 0.08 0.07 0.04 0.03 0.01 0.01 0.01 0.01 0.01 0.02 0.06 0.10 0.03 0.07 0.14 0.33 0.26 0.12 0.14 0.13 0.16 0.10 0.03 0.01 0.01 0.01 0.00 0.00 0.00 0.00 0.00 0.00 0.00 0.00 0.01 0.00 0.00 0.01 0.01 0.01 0.01
0.05 0.06 0.10 0.08 0.08 0.10 0.15 0.33 0.44 0.27 0.23 0.13 0.06 0.04 0.03 0.02 0.00 0.01 0.02 0.03 0.02 0.02 0.04 0.21 0.09 0.09 0.08 0.10 0.15 0.21 0.17 0.15 0.13 0.10 0.04 0.01 0.01 0.01 0.00 0.00 0.00 0.01 0.01 0.01 0.01 0.01 0.01 0.01 0.01 0.01 0.01 0.01 0.01 0.01
0.05 0.12 0.18 0.15 0.15 0.17 0.23 0.31 0.36 0.21 0.15 0.08 0.02 0.01 0.01 0.01 0.01 0.01 0.01 0.00 0.00 0.02 0.09 0.23 0.09 0.10 0.07 0.10 0.09 0.12 0.13 0.14 0.09 0.09 0.02 0.02 0.01 0.00 0.00 0.00 0.00 0.01 0.01 0.01 0.01 0.01 0.01 0.01 0.01 0.02 0.02 0.01 0.00 0.00
0.11 0.29 0.28 0.20 0.19 0.20 0.32 0.39 0.31 0.09 0.03 0.01 0.00 0.01 0.01 0.01 0.01 0.01 0.02 0.01 0.01 0.05 0.09 0.11 0.11 0.07 0.08 0.03 0.05 0.04 0.04 0.06 0.02 0.01 0.02 0.01 0.01 0.00 0.00 0.00 0.00 0.01 0.01 0.01 0.01 0.01 0.01 0.01 0.01 0.01 0.00 0.00 0.00 0.00
0.30 0.30 0.21 0.21 0.22 0.31 0.40 0.25 0.13 0.06 0.02 0.00 0.01 0.01 0.01 0.01 0.02 0.01 0.02 0.01 0.02 0.06 0.06 0.05 0.07 0.06 0.05 0.01 0.00 0.00 0.01 0.01 0.01 0.02 0.01 0.00 0.00 0.00 0.00 0.00 0.01 0.01 0.01 0.01 0.01 0.01 0.00 0.00 0.00 0.00 0.00 0.00 0.00 0.00
0.25 0.16 0.18 0.20 0.25 0.35 0.25 0.09 0.09 0.01 0.00 0.01 0.01 0.01 0.01 0.02 0.02 0.02 0.01 0.00 0.01 0.02 0.02 0.03 0.01 0.00 0.00 0.01 0.01 0.00 0.01 0.01 0.01 0.01 0.01 0.00 0.00 0.00 0.00 0.00 0.01 0.01 0.01 0.01 0.00 0.00 0.00 0.00 0.00 0.00 0.00 0.00 0.00 0.00
0.19 0.12 0.08 0.04 0.03 0.09 0.09 0.03 0.02 0.00 0.01 0.01 0.01 0.01 0.00 0.01 0.01 0.01 0.00 0.00 0.00 0.00 0.00 0.00 0.00 0.01 0.01 0.00 0.00 0.01 0.01 0.01 0.01 0.01 0.01 0.01 0.00 0.00 0.01 0.00 0.01 0.01 0.01 0.00 0.00 0.00 0.01 0.01 0.01 0.00 0.00 0.00 0.00 0.00
0.14 0.08 0.03 0.02 0.06 0.03 0.00 0.00 0.00 0.00 0.00 0.01 0.00 0.00 0.00 0.01 0.00 0.00 0.00 0.00 0.00 0.00 0.00 0.00 0.00 0.00 0.00 0.00 0.00 0.00 0.00 0.00 0.00 0.01 0.02 0.02 0.01 0.01 0.01 0.01 0.01 0.01 0.01 0.01 0.01 0.00 0.00 0.00 0.00 0.00 0.00 0.01 0.01 0.02
0.22 0.16 0.07 0.09 0.05 0.00 0.00 0.00 0.00 0.00 0.00 0.01 0.00 0.00 0.00 0.00 0.00 0.00 0.00 0.00 0.01 0.00 0.01 0.00 0.00 0.01 0.00 0.00 0.00 0.00 0.00 0.00 0.00 0.00 0.01 0.02 0.02 0.01 0.02 0.02 0.01 0.01 0.01 0.01 0.01 0.00 0.00 0.00 0.00 0.00 0.00 0.00 0.00 0.00
0.10 0.08 0.07 0.07 0.01 0.00 0.00 0.00 0.00 0.00 0.00 0.00 0.00 0.00 0.00 0.00 0.00 0.00 0.00 0.00 0.01 0.01 0.00 0.00 0.00 0.00 0.00 0.00 0.00 0.00 0.00 0.00 0.00 0.00 0.00 0.00 0.01 0.01 0.01 0.01 0.01 0.01 0.01 0.01 0.00 0.01 0.00 0.00 0.00 0.00 0.00 0.00 0.00 0.00
0.01 0.02 0.02 0.01 0.00 0.01 0.00 0.00 0.00 0.00 0.00 0.00 0.00 0.00 0.00 0.00 0.00 0.00 0.00 0.00 0.01 0.01 0.00 0.00 0.00 0.00 0.00 0.00 0.00 0.00 0.00 0.00 0.00 0.00 0.00 0.00 0.01 0.01 0.01 0.01 0.01 0.01 0.01 0.00 0.00 0.00 0.00 0.00 0.00 0.00 0.00 0.00 0.01 0.01
0.01 0.03 0.04 0.02 0.00 0.01 0.01 0.00 0.00 0.00 0.00 0.00 0.00 0.00 0.00 0.00 0.00 0.00 0.00 0.01 0.02 0.02 0.01 0.01 0.00 0.01 0.01 0.00 0.00 0.00 0.00 0.00 0.00 0.01 0.00 0.00 0.00 0.00 0.00 0.00 0.00 0.00 0.00 0.00 0.00 0.00 0.00 0.00 0.00 0.00 0.00 0.00 0.00 0.00
0.05 0.04 0.01 0.00 0.00 0.00 0.00 0.00 0.00 0.00 0.00 0.00 0.00 0.00 0.00 0.00 0.00 0.00 0.00 0.01 0.02 0.03 0.02 0.01 0.00 0.00 0.00 0.01 0.01 0.00 0.00 0.00 0.00 0.00 0.00 0.00 0.00 0.00 0.00 0.00 0.00 0.00 0.00 0.00 0.00 0.00 0.00 0.00 0.00 0.00 0.00 0.00 0.00 0.00
0.03 0.02 0.00 0.00 0.00 0.00 0.00 0.00 0.00 0.00 0.00 0.00 0.00 0.00 0.00 0.00 0.00 0.00 0.01 0.02 0.02 0.02 0.02 0.02 0.01 0.01 0.00 0.00 0.00 0.00 0.00 0.00 0.00 0.00 0.00 0.00 0.00 0.00 0.00 0.00 0.00 0.00 0.00 0.00 0.00 0.00 0.00 0.00 0.00 0.00 0.00 0.00 0.00 0.00
0.00 0.01 0.00 0.00 0.00 0.00 0.00 0.00 0.00 0.00 0.00 0.00 0.00 0.01 0.00 0.00 0.00 0.01 0.01 0.02 0.03 0.02 0.01 0.01 0.00 0.00 0.00 0.00 0.00 0.00 0.00 0.00 0.00 0.00 0.00 0.00 0.00 0.00 0.00 0.00 0.00 0.01 0.00 0.00 0.00 0.00 0.00 0.00 0.00 0.00 0.00 0.00 0.00 0.00
0.00 0.00 0.00 0.01 0.00 0.00 0.00 0.00 0.00 0.00 0.00 0.00 0.00 0.00 0.00 0.00 0.01 0.02 0.02 0.02 0.06 0.03 0.02 0.02 0.01 0.00 0.00 0.00 0.00 0.00 0.00 0.00 0.00 0.00 0.00 0.00 0.00 0.00 0.00 0.00 0.00 0.00 0.00 0.00 0.00 0.00 0.00 0.00 0.00 0.00 0.00 0.00 0.00 0.00
0.00 0.00 0.00 0.01 0.00 0.00 0.00 0.00 0.00 0.01 0.00 0.01 0.01 0.01 0.00 0.01 0.02 0.02 0.02 0.03 0.02 0.01 0.01 0.01 0.01 0.00 0.00 0.00 0.00 0.00 0.00 0.00 0.00 0.00 0.00 0.00 0.00 0.00 0.00 0.00 0.00 0.00 0.00 0.00 0.00 0.00 0.00 0.00 0.00 0.00 0.00 0.00 0.00 0.00
0.00 0.00 0.00 0.00 0.00 0.00 0.01 0.01 0.02 0.01 0.01 0.00 0.00 0.00 0.00 0.02 0.03 0.03 0.04 0.04 0.05 0.05 0.02 0.01 0.01 0.00 0.00 0.00 0.01 0.00 0.00 0.00 0.00 0.00 0.00 0.00 0.00 0.00 0.00 0.00 0.00 0.00 0.00 0.00 0.00 0.00 0.00 0.00 0.00 0.00 0.00 0.00 0.00 0.00
0.00 0.00 0.00 0.00 0.01 0.02 0.02 0.01 0.01 0.01 0.00 0.00 0.00 0.01 0.01 0.02 0.04 0.04 0.06 0.07 0.07 0.03 0.01 0.02 0.01 0.01 0.00 0.00 0.00 0.00 0.00 0.00 0.00 0.00 0.00 0.00 0.00 0.00 0.00 0.00 0.00 0.00 0.00 0.00 0.00 0.00 0.00 0.00 0.00 0.00 0.00 0.00 0.00 0.00
0.00 0.00 0.00 0.00 0.01 0.01 0.01 0.01 0.01 0.01 0.01 0.01 0.01 0.01 0.01 0.02 0.03 0.03 0.03 0.05 0.05 0.04 0.02 0.01 0.01 0.02 0.01 0.01 0.00 0.00 0.00 0.00 0.00 0.00 0.00 0.00 0.00 0.00 0.00 0.00 0.00 0.00 0.00 0.00 0.00 0.00 0.00 0.00 0.00 0.00 0.00 0.00 0.00 0.00
0.00 0.00 0.00 0.00 0.01 0.01 0.01 0.01 0.01 0.01 0.01 0.02 0.02 0.01 0.01 0.02 0.02 0.02 0.03 0.04 0.08 0.04 0.02 0.01 0.01 0.00 0.00 0.00 0.00 0.00 0.00 0.00 0.00 0.00 0.00 0.00 0.00 0.00 0.00 0.00 0.00 0.00 0.00 0.00 0.00 0.00 0.00 0.00 0.00 0.00 0.00 0.00 0.00 0.00

GFSWCAN_prec_precacc12_087.txt.gz
Total_Precipitation_Accumulation
0.11 0.09 0.09 0.07 0.03 0.01 0.01 0.02 0.03 0.03 0.02 0.04 0.02 0.01 0.01 0.03 0.02 0.02 0.04 0.00 0.01 0.01 0.00 0.00 0.00 0.00 0.00 0.01 0.02 0.03 0.03 0.06 0.02 0.09 0.21 0.37 0.56 0.25 0.40 0.47 0.13 0.13 0.12 0.11 0.17 0.37 0.41 0.02 0.01 0.02 0.07 0.02 0.00 0.00
0.14 0.11 0.07 0.07 0.02 0.01 0.01 0.02 0.05 0.04 0.04 0.05 0.03 0.01 0.00 0.01 0.02 0.02 0.07 0.00 0.01 0.01 0.01 0.00 0.00 0.00 0.00 0.00 0.00 0.00 0.02 0.03 0.04 0.10 0.08 0.12 0.23 0.30 0.42 0.44 0.30 0.48 0.35 0.62 0.41 0.40 0.13 0.01 0.01 0.01 0.01 0.01 0.01 0.00
0.18 0.17 0.10 0.06 0.05 0.01 0.01 0.03 0.04 0.05 0.04 0.04 0.03 0.00 0.01 0.01 0.03 0.03 0.07 0.02 0.03 0.04 0.01 0.00 0.00 0.00 0.00 0.00 0.00 0.00 0.04 0.04 0.07 0.12 0.11 0.08 0.15 0.14 0.22 0.41 0.41 0.22 0.04 0.16 0.16 0.16 0.07 0.03 0.02 0.01 0.02 0.01 0.01 0.01
0.11 0.21 0.16 0.06 0.03 0.01 0.01 0.02 0.03 0.04 0.04 0.03 0.03 0.00 0.00 0.02 0.05 0.06 0.06 0.06 0.02 0.04 0.01 0.01 0.00 0.00 0.00 0.00 0.00 0.00 0.02 0.01 0.02 0.03 0.05 0.05 0.07 0.12 0.10 0.17 0.15 0.03 0.01 0.04 0.21 0.24 0.22 0.11 0.10 0.06 0.04 0.03 0.04 0.09
0.05 0.13 0.20 0.08 0.03 0.00 0.00 0.01 0.02 0.03 0.04 0.03 0.02 0.00 0.00 0.00 0.03 0.10 0.11 0.09 0.03 0.04 0.08 0.02 0.00 0.00 0.00 0.00 0.00 0.00 0.00 0.00 0.01 0.01 0.03 0.04 0.05 0.13 0.09 0.22 0.12 0.02 0.03 0.05 0.20 0.12 0.17 0.18 0.13 0.06 0.06 0.06 0.12 0.07
0.04 0.06 0.16 0.13 0.04 0.00 0.00 0.02 0.03 0.02 0.03 0.03 0.02 0.01 0.01 0.02 0.06 0.17 0.14 0.08 0.03 0.09 0.19 0.06 0.01 0.00 0.00 0.00 0.00 0.00 0.00 0.01 0.00 0.01 0.02 0.03 0.05 0.09 0.04 0.21 0.13 0.04 0.06 0.09 0.11 0.12 0.10 0.12 0.11 0.06 0.05 0.04 0.04 0.03
0.03 0.05 0.08 0.15 0.05 0.00 0.01 0.02 0.03 0.03 0.03 0.03 0.02 0.00 0.01 0.05 0.22 0.30 0.16 0.07 0.05 0.15 0.43 0.21 0.03 0.01 0.00 0.00 0.02 0.05 0.01 0.01 0.01 0.03 0.02 0.02 0.02 0.05 0.09 0.17 0.08 0.10 0.13 0.14 0.16 0.15 0.13 0.11 0.08 0.05 0.01 0.01 0.00 0.00
0.05 0.02 0.03 0.14 0.06 0.02 0.01 0.02 0.03 0.04 0.04 0.03 0.02 0.02 0.05 0.14 0.22 0.23 0.14 0.13 0.19 0.45 0.37 0.16 0.03 0.02 0.01 0.05 0.09 0.08 0.03 0.01 0.03 0.04 0.04 0.04 0.03 0.09 0.11 0.09 0.08 0.13 0.22 0.20 0.20 0.13 0.08 0.03 0.01 0.00 0.00 0.00 0.00 0.00
0.06 0.05 0.04 0.13 0.07 0.03 0.02 0.02 0.03 0.06 0.05 0.05 0.08 0.14 0.18 0.20 0.13 0.06 0.10 0.14 0.18 0.29 0.17 0.05 0.03 0.13 0.04 0.11 0.18 0.13 0.09 0.06 0.04 0.05 0.03 0.03 0.04 0.04 0.05 0.09 0.11 0.14 0.23 0.25 0.15 0.05 0.01 0.00 0.00 0.00 0.00 0.00 0.00 0.00
0.06 0.07 0.07 0.11 0.07 0.04 0.03 0.02 0.04 0.07 0.14 0.19 0.15 0.22 0.23 0.12 0.06 0.06 0.09 0.09 0.12 0.12 0.07 0.03 0.02 0.14 0.06 0.04 0.08 0.14 0.12 0.06 0.08 0.04 0.02 0.03 0.03 0.01 0.01 0.01 0.03 0.03 0.07 0.08 0.08 0.04 0.01 0.00 0.00 0.00 0.00 0.00 0.00 0.00
0.05 0.07 0.08 0.07 0.05 0.04 0.04 0.03 0.05 0.17 0.43 0.18 0.22 0.27 0.15 0.07 0.07 0.10 0.06 0.06 0.04 0.05 0.02 0.00 0.01 0.07 0.06 0.04 0.09 0.06 0.11 0.08 0.05 0.06 0.03 0.04 0.05 0.02 0.01 0.01 0.00 0.00 0.00 0.00 0.00 0.00 0.00 0.00 0.00 0.00 0.00 0.00 0.00 0.00
0.04 0.05 0.08 0.06 0.05 0.04 0.03 0.04 0.09 0.14 0.19 0.12 0.13 0.19 0.18 0.10 0.10 0.07 0.04 0.02 0.03 0.01 0.01 0.01 0.00 0.02 0.08 0.07 0.16 0.13 0.06 0.07 0.07 0.11 0.04 0.07 0.04 0.01 0.01 0.01 0.00 0.00 0.00 0.00 0.00 0.00 0.00 0.00 0.00 0.00 0.00 0.01 0.01 0.01
0.05 0.05 0.08 0.06 0.04 0.03 0.04 0.07 0.18 0.14 0.14 0.21 0.18 0.10 0.12 0.07 0.08 0.02 0.01 0.01 0.01 0.01 0.03 0.03 0.03 0.02 0.06 0.07 0.13 0.19 0.09 0.13 0.12 0.16 0.12 0.04 0.01 0.00 0.00 0.00 0.00 0.00 0.00 0.00 0.00 0.00 0.00 0.01 0.00 0.00 0.01 0.01 0.01 0.01
0.07 0.06 0.09 0.05 0.03 0.03 0.05 0.18 0.35 0.25 0.24 0.19 0.11 0.06 0.07 0.04 0.00 0.01 0.03 0.04 0.04 0.04 0.04 0.13 0.07 0.06 0.07 0.09 0.13 0.20 0.16 0.15 0.19 0.12 0.08 0.01 0.01 0.01 0.00 0.00 0.00 0.01 0.01 0.01 0.01 0.01 0.01 0.01 0.01 0.01 0.01 0.01 0.00 0.00
0.07 0.08 0.09 0.05 0.05 0.06 0.12 0.26 0.34 0.22 0.20 0.21 0.07 0.04 0.02 0.01 0.01 0.01 0.01 0.00 0.00 0.02 0.07 0.16 0.08 0.10 0.07 0.10 0.09 0.12 0.14 0.18 0.15 0.21 0.03 0.03 0.01 0.00 0.00 0.00 0.00 0.01 0.01 0.01 0.01 0.01 0.01 0.01 0.01 0.01 0.01 0.01 0.00 0.00
0.08 0.16 0.11 0.06 0.10 0.13 0.24 0.36 0.32 0.10 0.07 0.13 0.04 0.01 0.02 0.01 0.00 0.01 0.01 0.02 0.01 0.03 0.06 0.10 0.13 0.08 0.09 0.03 0.06 0.06 0.07 0.19 0.05 0.02 0.02 0.01 0.01 0.01 0.00 0.00 0.00 0.01 0.01 0.01 0.01 0.01 0.01 0.01 0.01 0.00 0.00 0.00 0.00 0.00
0.15 0.16 0.10 0.11 0.14 0.25 0.39 0.25 0.14 0.07 0.07 0.01 0.01 0.01 0.01 0.01 0.01 0.01 0.01 0.01 0.01 0.04 0.07 0.06 0.12 0.09 0.08 0.02 0.01 0.00 0.01 0.02 0.02 0.02 0.02 0.00 0.00 0.01 0.00 0.00 0.01 0.01 0.01 0.01 0.01 0.01 0.00 0.00 0.00 0.00 0.00 0.00 0.00 0.00
0.18 0.12 0.10 0.15 0.24 0.36 0.26 0.11 0.09 0.04 0.02 0.01 0.01 0.01 0.00 0.01 0.02 0.02 0.01 0.00 0.01 0.02 0.04 0.07 0.08 0.00 0.00 0.01 0.02 0.00 0.01 0.02 0.02 0.01 0.01 0.01 0.00 0.00 0.00 0.01 0.01 0.01 0.01 0.01 0.00 0.00 0.00 0.00 0.01 0.00 0.00 0.00 0.00 0.00
0.18 0.09 0.06 0.04 0.04 0.13 0.12 0.04 0.05 0.01 0.00 0.00 0.01 0.00 0.00 0.01 0.01 0.01 0.00 0.00 0.00 0.00 0.00 0.00 0.00 0.01 0.01 0.00 0.01 0.01 0.01 0.01 0.02 0.01 0.01 0.01 0.01 0.01 0.01 0.01 0.01 0.01 0.01 0.00 0.00 0.00 0.00 0.00 0.01 0.00 0.00 0.00 0.00 0.01
0.15 0.08 0.03 0.02 0.13 0.14 0.01 0.01 0.00 0.00 0.00 0.01 0.00 0.00 0.00 0.01 0.00 0.00 0.00 0.00 0.00 0.00 0.00 0.00 0.01 0.00 0.00 0.00 0.00 0.00 0.00 0.00 0.00 0.01 0.03 0.03 0.01 0.01 0.01 0.01 0.01 0.01 0.01 0.01 0.01 0.00 0.00 0.00 0.00 0.00 0.00 0.00 0.00 0.01
0.26 0.19 0.08 0.11 0.16 0.04 0.00 0.00 0.00 0.00 0.00 0.01 0.00 0.00 0.00 0.00 0.00 0.01 0.00 0.00 0.01 0.01 0.02 0.01 0.00 0.00 0.00 0.00 0.00 0.00 0.00 0.00 0.00 0.00 0.01 0.02 0.01 0.01 0.01 0.02 0.01 0.01 0.01 0.01 0.01 0.00 0.00 0.00 0.00 0.00 0.00 0.00 0.00 0.00
0.13 0.10 0.10 0.14 0.08 0.00 0.00 0.00 0.00 0.00 0.00 0.00 0.00 0.00 0.00 0.01 0.01 0.00 0.00 0.00 0.02 0.01 0.00 0.00 0.00 0.00 0.00 0.00 0.00 0.00 0.00 0.00 0.00 0.00 0.00 0.00 0.01 0.01 0.02 0.01 0.01 0.01 0.02 0.01 0.01 0.01 0.00 0.00 0.00 0.00 0.00 0.00 0.00 0.00
0.03 0.03 0.02 0.02 0.05 0.02 0.00 0.00 0.00 0.00 0.00 0.00 0.00 0.00 0.00 0.00 0.00 0.00 0.00 0.00 0.01 0.00 0.00 0.00 0.00 0.00 0.00 0.00 0.00 0.00 0.00 0.00 0.00 0.00 0.00 0.00 0.01 0.01 0.01 0.01 0.01 0.01 0.01 0.00 0.00 0.00 0.00 0.00 0.00 0.00 0.00 0.00 0.01 0.01
0.04 0.06 0.05 0.04 0.02 0.02 0.00 0.00 0.00 0.00 0.00 0.00 0.00 0.00 0.00 0.00 0.00 0.00 0.00 0.01 0.01 0.01 0.01 0.00 0.00 0.00 0.00 0.00 0.00 0.00 0.00 0.00 0.00 0.01 0.01 0.00 0.01 0.00 0.00 0.00 0.00 0.00 0.00 0.00 0.00 0.00 0.00 0.00 0.00 0.00 0.00 0.00 0.00 0.00
0.09 0.05 0.04 0.02 0.00 0.00 0.00 0.00 0.00 0.00 0.00 0.00 0.00 0.00 0.00 0.00 0.00 0.00 0.00 0.02 0.01 0.02 0.02 0.01 0.00 0.00 0.00 0.01 0.01 0.01 0.00 0.00 0.00 0.00 0.00 0.00 0.00 0.00 0.00 0.00 0.00 0.00 0.00 0.00 0.00 0.00 0.00 0.00 0.00 0.00 0.00 0.00 0.00 0.00
0.05 0.01 0.00 0.00 0.00 0.00 0.00 0.00 0.00 0.00 0.00 0.00 0.00 0.00 0.00 0.00 0.00 0.00 0.02 0.03 0.02 0.02 0.02 0.02 0.01 0.01 0.02 0.00 0.00 0.00 0.00 0.00 0.00 0.00 0.00 0.00 0.00 0.00 0.00 0.00 0.00 0.01 0.00 0.00 0.00 0.00 0.00 0.00 0.00 0.00 0.00 0.00 0.00 0.00
0.00 0.00 0.00 0.00 0.00 0.00 0.00 0.00 0.00 0.00 0.00 0.00 0.00 0.00 0.00 0.00 0.01 0.01 0.01 0.03 0.04 0.02 0.01 0.02 0.01 0.01 0.01 0.00 0.00 0.00 0.00 0.00 0.00 0.00 0.00 0.00 0.00 0.00 0.00 0.00 0.00 0.01 0.00 0.00 0.00 0.00 0.00 0.00 0.00 0.00 0.00 0.00 0.00 0.00
0.00 0.00 0.00 0.00 0.00 0.00 0.00 0.00 0.00 0.00 0.00 0.00 0.00 0.01 0.00 0.00 0.02 0.02 0.02 0.02 0.08 0.04 0.04 0.04 0.05 0.02 0.00 0.00 0.00 0.00 0.00 0.00 0.00 0.00 0.00 0.00 0.00 0.00 0.00 0.00 0.00 0.00 0.00 0.00 0.00 0.00 0.00 0.00 0.00 0.00 0.00 0.00 0.00 0.00
0.00 0.00 0.00 0.01 0.00 0.00 0.00 0.00 0.01 0.00 0.00 0.00 0.01 0.01 0.00 0.01 0.02 0.02 0.02 0.03 0.03 0.01 0.01 0.02 0.04 0.00 0.00 0.00 0.00 0.00 0.00 0.00 0.00 0.00 0.00 0.00 0.00 0.00 0.00 0.00 0.00 0.00 0.00 0.00 0.00 0.00 0.00 0.00 0.00 0.00 0.00 0.00 0.00 0.00
0.00 0.00 0.00 0.00 0.00 0.00 0.01 0.01 0.02 0.01 0.00 0.00 0.00 0.00 0.00 0.02 0.02 0.02 0.03 0.04 0.05 0.05 0.02 0.01 0.01 0.01 0.01 0.01 0.01 0.02 0.01 0.00 0.00 0.00 0.00 0.00 0.00 0.00 0.00 0.00 0.00 0.00 0.00 0.00 0.00 0.00 0.00 0.00 0.00 0.00 0.00 0.00 0.00 0.00
0.00 0.00 0.00 0.00 0.01 0.02 0.02 0.01 0.01 0.01 0.00 0.00 0.00 0.02 0.01 0.02 0.02 0.03 0.05 0.07 0.08 0.05 0.01 0.02 0.03 0.01 0.01 0.00 0.00 0.00 0.00 0.00 0.00 0.00 0.00 0.00 0.00 0.00 0.00 0.00 0.00 0.00 0.00 0.00 0.00 0.00 0.00 0.00 0.00 0.00 0.00 0.00 0.00 0.00
0.01 0.02 0.01 0.01 0.02 0.01 0.01 0.02 0.01 0.02 0.01 0.02 0.02 0.01 0.01 0.02 0.03 0.03 0.02 0.05 0.06 0.05 0.03 0.02 0.02 0.04 0.02 0.01 0.00 0.00 0.00 0.00 0.00 0.00 0.00 0.00 0.00 0.00 0.00 0.00 0.00 0.00 0.00 0.00 0.00 0.00 0.00 0.00 0.00 0.00 0.00 0.00 0.00 0.00
0.01 0.01 0.01 0.01 0.01 0.01 0.01 0.01 0.01 0.02 0.02 0.02 0.03 0.01 0.01 0.03 0.03 0.02 0.02 0.04 0.10 0.06 0.04 0.03 0.01 0.01 0.01 0.00 0.00 0.00 0.00 0.00 0.00 0.00 0.00 0.00 0.00 0.00 0.00 0.00 0.00 0.00 0.00 0.00 0.00 0.00 0.00 0.00 0.00 0.00 0.00 0.00 0.00 0.00

GFSWCAN_prec_precacc12_090.txt.gz
Total_Precipitation_Accumulation
0.13 0.11 0.11 0.10 0.03 0.01 0.01 0.02 0.02 0.02 0.02 0.04 0.01 0.00 0.00 0.01 0.00 0.01 0.03 0.00 0.01 0.01 0.00 0.00 0.00 0.00 0.00 0.00 0.02 0.03 0.03 0.06 0.02 0.06 0.16 0.15 0.38 0.22 0.47 0.75 0.14 0.17 0.15 0.13 0.24 0.47 0.50 0.05 0.14 0.19 0.19 0.06 0.00 0.00
0.13 0.13 0.08 0.10 0.04 0.01 0.00 0.01 0.02 0.03 0.02 0.04 0.03 0.01 0.00 0.01 0.01 0.02 0.06 0.00 0.01 0.01 0.00 0.00 0.00 0.00 0.00 0.00 0.00 0.00 0.02 0.03 0.03 0.06 0.06 0.08 0.17 0.29 0.44 0.51 0.38 0.68 0.62 0.74 0.51 0.49 0.25 0.07 0.09 0.11 0.04 0.02 0.01 0.00
0.11 0.13 0.11 0.08 0.06 0.02 0.01 0.01 0.02 0.03 0.03 0.03 0.03 0.00 0.00 0.00 0.01 0.01 0.07 0.01 0.02 0.01 0.00 0.00 0.00 0.00 0.00 0.00 0.00 0.00 0.04 0.04 0.06 0.07 0.07 0.04 0.10 0.13 0.22 0.51 0.42 0.23 0.11 0.24 0.17 0.11 0.05 0.07 0.04 0.03 0.02 0.02 0.01 0.00
0.09 0.18 0.17 0.08 0.06 0.02 0.01 0.01 0.02 0.02 0.03 0.03 0.03 0.00 0.00 0.01 0.02 0.01 0.05 0.06 0.02 0.02 0.01 0.01 0.00 0.00 0.00 0.00 0.00 0.00 0.02 0.00 0.00 0.02 0.03 0.03 0.06 0.10 0.09 0.30 0.15 0.02 0.02 0.07 0.09 0.07 0.08 0.06 0.09 0.07 0.04 0.02 0.03 0.04
0.08 0.15 0.23 0.10 0.06 0.01 0.00 0.01 0.01 0.02 0.03 0.03 0.02 0.00 0.00 0.00 0.02 0.05 0.06 0.05 0.02 0.03 0.07 0.02 0.00 0.00 0.00 0.00 0.00 0.00 0.00 0.00 0.01 0.01 0.02 0.03 0.04 0.11 0.08 0.25 0.10 0.01 0.02 0.02 0.10 0.06 0.10 0.15 0.12 0.06 0.07 0.06 0.08 0.05
0.08 0.07 0.20 0.16 0.05 0.01 0.00 0.00 0.02 0.02 0.03 0.05 0.02 0.00 0.00 0.01 0.03 0.10 0.07 0.03 0.01 0.04 0.07 0.02 0.01 0.00 0.00 0.00 0.00 0.00 0.00 0.01 0.00 0.01 0.01 0.02 0.04 0.08 0.03 0.19 0.11 0.01 0.01 0.03 0.07 0.08 0.09 0.11 0.11 0.05 0.04 0.02 0.03 0.02
0.05 0.04 0.09 0.18 0.06 0.01 0.00 0.00 0.02 0.03 0.03 0.06 0.02 0.00 0.00 0.02 0.06 0.07 0.05 0.05 0.02 0.05 0.18 0.09 0.02 0.01 0.00 0.00 0.02 0.05 0.01 0.01 0.01 0.02 0.01 0.01 0.02 0.04 0.07 0.14 0.05 0.01 0.03 0.07 0.09 0.11 0.12 0.11 0.07 0.04 0.01 0.00 0.00 0.00
0.05 0.05 0.05 0.16 0.06 0.01 0.00 0.01 0.02 0.05 0.05 0.06 0.02 0.00 0.02 0.06 0.10 0.09 0.03 0.04 0.10 0.22 0.20 0.11 0.03 0.02 0.00 0.04 0.08 0.08 0.03 0.01 0.02 0.03 0.03 0.03 0.03 0.07 0.09 0.02 0.02 0.04 0.09 0.11 0.13 0.10 0.06 0.02 0.01 0.00 0.00 0.00 0.00 0.00
0.06 0.05 0.04 0.13 0.06 0.01 0.01 0.01 0.03 0.07 0.06 0.04 0.02 0.05 0.08 0.10 0.07 0.03 0.05 0.07 0.14 0.25 0.16 0.04 0.03 0.13 0.04 0.09 0.16 0.13 0.09 0.05 0.03 0.04 0.03 0.03 0.04 0.03 0.02 0.03 0.03 0.07 0.17 0.19 0.14 0.05 0.01 0.00 0.00 0.00 0.00 0.00 0.00 0.00
0.06 0.06 0.05 0.09 0.06 0.02 0.02 0.02 0.05 0.08 0.06 0.05 0.09 0.15 0.15 0.06 0.05 0.04 0.07 0.08 0.12 0.12 0.07 0.03 0.02 0.14 0.05 0.04 0.07 0.12 0.09 0.04 0.07 0.05 0.02 0.02 0.03 0.02 0.01 0.01 0.01 0.03 0.07 0.09 0.10 0.05 0.01 0.00 0.00 0.00 0.00 0.00 0.00 0.00
0.04 0.06 0.07 0.08 0.05 0.03 0.04 0.03 0.07 0.10 0.11 0.10 0.16 0.21 0.14 0.07 0.07 0.11 0.06 0.06 0.04 0.05 0.02 0.00 0.01 0.07 0.06 0.04 0.07 0.06 0.11 0.10 0.09 0.10 0.03 0.04 0.05 0.02 0.01 0.00 0.00 0.00 0.04 0.06 0.04 0.02 0.01 0.00 0.00 0.00 0.00 0.00 0.00 0.00
0.03 0.04 0.09 0.09 0.06 0.04 0.04 0.04 0.04 0.05 0.08 0.09 0.12 0.20 0.18 0.11 0.11 0.09 0.05 0.02 0.03 0.01 0.01 0.01 0.00 0.02 0.08 0.08 0.15 0.11 0.06 0.06 0.07 0.11 0.04 0.07 0.05 0.02 0.01 0.00 0.00 0.00 0.00 0.00 0.00 0.00 0.00 0.00 0.00 0.00 0.00 0.01 0.01 0.01
0.05 0.05 0.13 0.10 0.05 0.03 0.03 0.03 0.03 0.03 0.12 0.20 0.19 0.10 0.13 0.08 0.10 0.02 0.01 0.01 0.01 0.01 0.03 0.02 0.01 0.01 0.06 0.05 0.05 0.11 0.08 0.07 0.11 0.15 0.12 0.04 0.01 0.01 0.00 0.00 0.00 0.00 0.00 0.00 0.00 0.00 0.00 0.00 0.00 0.00 0.01 0.01 0.00 0.01
0.09 0.09 0.15 0.08 0.04 0.02 0.03 0.06 0.12 0.13 0.20 0.18 0.12 0.06 0.09 0.05 0.01 0.01 0.03 0.04 0.04 0.04 0.03 0.03 0.03 0.02 0.04 0.02 0.03 0.12 0.12 0.12 0.20 0.14 0.09 0.02 0.01 0.01 0.00 0.00 0.00 0.01 0.00 0.01 0.01 0.00 0.00 0.00 0.00 0.00 0.00 0.00 0.00 0.00
0.09 0.10 0.11 0.07 0.04 0.04 0.07 0.13 0.25 0.17 0.19 0.23 0.10 0.05 0.01 0.01 0.01 0.01 0.01 0.00 0.00 0.01 0.04 0.05 0.06 0.05 0.05 0.08 0.08 0.11 0.14 0.22 0.22 0.30 0.03 0.03 0.01 0.00 0.00 0.00 0.00 0.00 0.00 0.01 0.01 0.00 0.01 0.01 0.01 0.01 0.00 0.00 0.00 0.00
0.10 0.16 0.09 0.05 0.06 0.07 0.14 0.25 0.27 0.10 0.08 0.19 0.09 0.02 0.01 0.01 0.00 0.01 0.01 0.01 0.01 0.02 0.04 0.06 0.12 0.08 0.08 0.03 0.07 0.06 0.12 0.36 0.08 0.02 0.02 0.01 0.01 0.01 0.00 0.00 0.00 0.01 0.01 0.01 0.00 0.00 0.01 0.01 0.00 0.00 0.00 0.00 0.00 0.00
0.09 0.08 0.07 0.07 0.08 0.13 0.28 0.22 0.14 0.07 0.08 0.05 0.01 0.01 0.01 0.01 0.01 0.01 0.01 0.01 0.00 0.03 0.06 0.06 0.13 0.10 0.12 0.02 0.01 0.01 0.01 0.02 0.01 0.02 0.02 0.01 0.00 0.01 0.00 0.01 0.01 0.01 0.01 0.01 0.01 0.01 0.00 0.00 0.00 0.00 0.00 0.00 0.00 0.00
0.06 0.07 0.04 0.08 0.16 0.30 0.23 0.11 0.10 0.05 0.02 0.01 0.01 0.01 0.00 0.01 0.02 0.01 0.00 0.00 0.01 0.03 0.04 0.09 0.16 0.02 0.01 0.01 0.02 0.00 0.01 0.02 0.01 0.01 0.01 0.01 0.00 0.00 0.00 0.01 0.01 0.01 0.01 0.01 0.00 0.00 0.00 0.00 0.01 0.00 0.00 0.00 0.00 0.00
0.11 0.06 0.04 0.03 0.03 0.13 0.11 0.04 0.08 0.03 0.00 0.00 0.00 0.00 0.00 0.01 0.00 0.01 0.00 0.00 0.00 0.00 0.00 0.00 0.00 0.02 0.02 0.00 0.01 0.01 0.01 0.01 0.02 0.01 0.01 0.01 0.01 0.01 0.01 0.01 0.01 0.01 0.00 0.00 0.00 0.00 0.00 0.00 0.01 0.00 0.00 0.00 0.00 0.00
0.11 0.05 0.03 0.02 0.14 0.15 0.01 0.01 0.00 0.01 0.00 0.00 0.00 0.00 0.00 0.01 0.00 0.00 0.00 0.00 0.00 0.00 0.00 0.00 0.01 0.00 0.00 0.00 0.00 0.00 0.00 0.00 0.00 0.01 0.03 0.03 0.01 0.01 0.01 0.01 0.01 0.00 0.00 0.01 0.01 0.00 0.00 0.00 0.00 0.00 0.00 0.00 0.00 0.01
0.27 0.22 0.10 0.12 0.19 0.06 0.00 0.00 0.00 0.00 0.00 0.00 0.00 0.00 0.00 0.00 0.01 0.01 0.00 0.00 0.01 0.01 0.02 0.01 0.00 0.00 0.00 0.00 0.00 0.00 0.00 0.00 0.00 0.00 0.01 0.02 0.01 0.00 0.01 0.02 0.00 0.00 0.01 0.01 0.01 0.00 0.00 0.00 0.00 0.00 0.00 0.00 0.00 0.00
0.14 0.12 0.12 0.16 0.13 0.01 0.00 0.00 0.00 0.00 0.00 0.00 0.00 0.00 0.01 0.01 0.01 0.00 0.00 0.01 0.02 0.01 0.00 0.00 0.00 0.00 0.00 0.00 0.00 0.00 0.00 0.00 0.00 0.00 0.00 0.00 0.01 0.01 0.02 0.01 0.01 0.01 0.02 0.01 0.01 0.01 0.00 0.00 0.00 0.00 0.00 0.01 0.00 0.00
0.03 0.04 0.02 0.04 0.13 0.03 0.00 0.00 0.00 0.00 0.00 0.00 0.00 0.01 0.01 0.01 0.00 0.00 0.00 0.00 0.02 0.00 0.00 0.00 0.00 0.00 0.00 0.00 0.00 0.00 0.00 0.00 0.00 0.00 0.00 0.00 0.01 0.01 0.01 0.01 0.02 0.01 0.01 0.00 0.00 0.00 0.00 0.00 0.00 0.00 0.00 0.00 0.00 0.00
0.05 0.07 0.06 0.08 0.08 0.03 0.00 0.00 0.00 0.00 0.00 0.00 0.00 0.01 0.00 0.00 0.00 0.00 0.00 0.01 0.01 0.00 0.00 0.00 0.00 0.00 0.00 0.00 0.00 0.00 0.00 0.00 0.00 0.01 0.01 0.00 0.01 0.01 0.00 0.00 0.00 0.00 0.00 0.00 0.00 0.00 0.00 0.00 0.00 0.00 0.00 0.00 0.00 0.00
0.11 0.06 0.06 0.06 0.01 0.00 0.00 0.00 0.00 0.00 0.00 0.00 0.00 0.00 0.00 0.00 0.00 0.00 0.00 0.02 0.01 0.02 0.01 0.01 0.00 0.00 0.00 0.01 0.00 0.01 0.00 0.00 0.00 0.01 0.01 0.00 0.00 0.00 0.00 0.00 0.00 0.00 0.00 0.00 0.00 0.00 0.00 0.00 0.00 0.00 0.00 0.00 0.00 0.00
0.11 0.03 0.01 0.01 0.00 0.00 0.00 0.00 0.00 0.00 0.00 0.00 0.00 0.00 0.00 0.00 0.00 0.00 0.02 0.03 0.02 0.02 0.02 0.02 0.01 0.01 0.02 0.00 0.01 0.01 0.00 0.00 0.00 0.00 0.01 0.00 0.00 0.00 0.00 0.00 0.00 0.01 0.00 0.00 0.00 0.00 0.00 0.00 0.00 0.00 0.00 0.00 0.00 0.00
0.01 0.01 0.00 0.00 0.00 0.00 0.00 0.00 0.00 0.00 0.00 0.00 0.01 0.01 0.00 0.01 0.01 0.01 0.02 0.03 0.04 0.02 0.01 0.02 0.01 0.01 0.01 0.01 0.00 0.00 0.00 0.00 0.00 0.00 0.00 0.00 0.00 0.00 0.00 0.00 0.00 0.01 0.00 0.00 0.00 0.00 0.00 0.00 0.00 0.00 0.00 0.00 0.00 0.00
0.00 0.00 0.00 0.00 0.00 0.00 0.00 0.00 0.00 0.00 0.00 0.00 0.00 0.00 0.00 0.00 0.02 0.02 0.02 0.02 0.09 0.03 0.04 0.05 0.07 0.03 0.00 0.00 0.00 0.00 0.00 0.00 0.00 0.00 0.00 0.00 0.00 0.00 0.00 0.00 0.00 0.00 0.00 0.00 0.00 0.00 0.00 0.00 0.00 0.00 0.00 0.00 0.00 0.00
0.00 0.00 0.00 0.00 0.00 0.00 0.00 0.00 0.00 0.00 0.00 0.00 0.01 0.01 0.00 0.00 0.02 0.02 0.01 0.03 0.04 0.01 0.01 0.03 0.06 0.01 0.01 0.01 0.01 0.00 0.00 0.00 0.00 0.00 0.00 0.00 0.00 0.00 0.00 0.00 0.00 0.00 0.00 0.00 0.00 0.00 0.00 0.00 0.00 0.00 0.00 0.00 0.00 0.01
0.00 0.00 0.00 0.00 0.00 0.00 0.01 0.01 0.02 0.01 0.00 0.00 0.00 0.00 0.00 0.01 0.01 0.01 0.02 0.03 0.05 0.05 0.02 0.01 0.02 0.01 0.02 0.02 0.03 0.03 0.01 0.00 0.00 0.00 0.00 0.00 0.00 0.00 0.00 0.00 0.00 0.00 0.00 0.00 0.00 0.00 0.00 0.00 0.00 0.00 0.00 0.00 0.00 0.00
0.00 0.00 0.00 0.00 0.01 0.02 0.01 0.01 0.01 0.00 0.00 0.00 0.00 0.02 0.02 0.01 0.02 0.02 0.05 0.06 0.08 0.05 0.02 0.03 0.04 0.02 0.01 0.01 0.00 0.00 0.01 0.00 0.00 0.00 0.00 0.00 0.00 0.00 0.00 0.00 0.00 0.00 0.00 0.00 0.00 0.00 0.00 0.00 0.00 0.00 0.00 0.00 0.00 0.00
0.01 0.03 0.01 0.01 0.02 0.01 0.01 0.02 0.01 0.02 0.01 0.01 0.02 0.01 0.01 0.02 0.02 0.02 0.01 0.04 0.06 0.05 0.03 0.02 0.02 0.04 0.02 0.01 0.01 0.00 0.00 0.00 0.00 0.00 0.00 0.00 0.00 0.00 0.00 0.00 0.00 0.00 0.00 0.00 0.00 0.00 0.00 0.00 0.00 0.00 0.00 0.00 0.00 0.00
0.03 0.04 0.02 0.01 0.01 0.01 0.01 0.01 0.01 0.02 0.02 0.02 0.02 0.01 0.01 0.03 0.03 0.02 0.01 0.03 0.09 0.07 0.05 0.04 0.02 0.01 0.01 0.01 0.01 0.00 0.00 0.00 0.00 0.00 0.00 0.00 0.00 0.00 0.00 0.00 0.00 0.00 0.00 0.00 0.00 0.00 0.00 0.00 0.00 0.00 0.00 0.00 0.00 0.00

GFSWCAN_prec_precacc12_093.txt.gz
Total_Precipitation_Accumulation
0.31 0.15 0.13 0.12 0.05 0.02 0.06 0.03 0.02 0.02 0.01 0.03 0.01 0.00 0.00 0.00 0.00 0.00 0.02 0.00 0.00 0.00 0.00 0.00 0.00 0.00 0.00 0.00 0.01 0.01 0.02 0.04 0.01 0.03 0.12 0.06 0.08 0.13 0.41 0.78 0.19 0.21 0.15 0.15 0.26 0.53 0.52 0.08 0.19 0.34 0.37 0.18 0.03 0.00
0.22 0.13 0.09 0.12 0.05 0.02 0.03 0.02 0.02 0.01 0.01 0.03 0.03 0.00 0.00 0.00 0.00 0.01 0.04 0.00 0.00 0.00 0.00 0.00 0.00 0.00 0.00 0.00 0.00 0.00 0.01 0.02 0.02 0.03 0.03 0.03 0.06 0.23 0.37 0.46 0.38 0.74 0.69 0.78 0.50 0.50 0.34 0.15 0.17 0.23 0.15 0.07 0.03 0.02
0.14 0.11 0.12 0.08 0.06 0.03 0.01 0.02 0.01 0.02 0.01 0.02 0.02 0.00 0.00 0.00 0.00 0.01 0.05 0.01 0.01 0.00 0.00 0.00 0.00 0.00 0.00 0.00 0.00 0.00 0.03 0.03 0.03 0.03 0.04 0.02 0.04 0.09 0.17 0.44 0.32 0.19 0.16 0.28 0.20 0.14 0.11 0.16 0.11 0.07 0.05 0.04 0.03 0.01
0.10 0.12 0.15 0.08 0.07 0.03 0.01 0.01 0.02 0.02 0.02 0.02 0.02 0.00 0.00 0.00 0.00 0.00 0.03 0.04 0.01 0.01 0.00 0.01 0.00 0.00 0.00 0.00 0.00 0.00 0.01 0.00 0.00 0.00 0.02 0.01 0.02 0.07 0.07 0.30 0.12 0.01 0.01 0.07 0.09 0.08 0.07 0.05 0.10 0.08 0.07 0.05 0.05 0.04
0.09 0.10 0.15 0.10 0.07 0.01 0.00 0.00 0.01 0.02 0.03 0.03 0.01 0.00 0.00 0.00 0.00 0.01 0.02 0.03 0.02 0.02 0.05 0.01 0.00 0.00 0.00 0.00 0.00 0.00 0.00 0.00 0.00 0.01 0.01 0.01 0.02 0.07 0.06 0.21 0.08 0.01 0.02 0.02 0.06 0.06 0.05 0.08 0.09 0.06 0.08 0.08 0.06 0.03
0.11 0.07 0.13 0.13 0.06 0.01 0.00 0.00 0.00 0.02 0.03 0.05 0.01 0.00 0.00 0.00 0.00 0.04 0.02 0.01 0.01 0.03 0.02 0.01 0.00 0.00 0.00 0.00 0.00 0.00 0.00 0.00 0.00 0.00 0.00 0.00 0.02 0.05 0.02 0.11 0.09 0.01 0.01 0.02 0.04 0.05 0.04 0.08 0.08 0.05 0.04 0.03 0.02 0.01
0.12 0.06 0.11 0.16 0.06 0.01 0.00 0.00 0.01 0.03 0.04 0.08 0.02 0.00 0.00 0.00 0.01 0.04 0.03 0.04 0.01 0.01 0.02 0.02 0.01 0.00 0.00 0.00 0.01 0.04 0.01 0.00 0.00 0.01 0.00 0.01 0.01 0.03 0.05 0.07 0.02 0.00 0.00 0.02 0.04 0.07 0.09 0.09 0.06 0.04 0.01 0.00 0.00 0.00
0.09 0.07 0.07 0.15 0.06 0.01 0.00 0.00 0.02 0.05 0.06 0.08 0.02 0.00 0.00 0.01 0.02 0.03 0.02 0.01 0.00 0.04 0.06 0.03 0.01 0.02 0.00 0.01 0.05 0.07 0.02 0.00 0.01 0.00 0.01 0.02 0.02 0.04 0.06 0.01 0.00 0.01 0.03 0.05 0.08 0.08 0.05 0.02 0.01 0.00 0.00 0.00 0.00 0.00
0.08 0.07 0.04 0.12 0.05 0.01 0.00 0.01 0.03 0.08 0.08 0.05 0.00 0.01 0.03 0.03 0.02 0.01 0.02 0.01 0.03 0.13 0.10 0.03 0.02 0.09 0.03 0.04 0.11 0.10 0.06 0.03 0.02 0.02 0.02 0.02 0.04 0.03 0.01 0.00 0.00 0.01 0.08 0.11 0.10 0.04 0.01 0.00 0.00 0.00 0.00 0.00 0.00 0.00
0.06 0.06 0.04 0.09 0.05 0.01 0.01 0.01 0.05 0.10 0.07 0.02 0.01 0.04 0.03 0.01 0.02 0.01 0.02 0.03 0.06 0.08 0.05 0.02 0.01 0.12 0.04 0.02 0.06 0.09 0.06 0.02 0.05 0.04 0.01 0.01 0.02 0.03 0.01 0.00 0.00 0.01 0.05 0.08 0.10 0.05 0.02 0.01 0.00 0.00 0.00 0.00 0.00 0.00
0.04 0.06 0.06 0.08 0.04 0.01 0.01 0.03 0.08 0.10 0.04 0.02 0.05 0.15 0.11 0.06 0.04 0.08 0.05 0.04 0.03 0.04 0.01 0.00 0.01 0.06 0.05 0.01 0.03 0.04 0.08 0.11 0.10 0.10 0.03 0.04 0.04 0.03 0.01 0.00 0.00 0.01 0.07 0.09 0.07 0.04 0.03 0.01 0.00 0.00 0.00 0.00 0.00 0.00
0.02 0.04 0.09 0.09 0.04 0.02 0.02 0.04 0.05 0.01 0.00 0.02 0.11 0.17 0.14 0.09 0.10 0.08 0.05 0.02 0.03 0.01 0.01 0.00 0.00 0.01 0.06 0.05 0.10 0.08 0.07 0.10 0.16 0.15 0.04 0.05 0.05 0.02 0.01 0.01 0.00 0.00 0.01 0.02 0.02 0.02 0.01 0.00 0.00 0.00 0.00 0.00 0.00 0.01
0.05 0.05 0.12 0.09 0.04 0.03 0.03 0.04 0.02 0.01 0.04 0.14 0.17 0.07 0.12 0.08 0.10 0.02 0.01 0.00 0.00 0.01 0.02 0.01 0.00 0.01 0.04 0.04 0.03 0.08 0.13 0.05 0.12 0.17 0.10 0.04 0.02 0.01 0.00 0.00 0.00 0.00 0.00 0.00 0.00 0.00 0.00 0.00 0.00 0.00 0.00 0.01 0.00 0.00
0.08 0.08 0.15 0.08 0.03 0.03 0.04 0.05 0.04 0.03 0.13 0.15 0.11 0.06 0.08 0.05 0.00 0.01 0.03 0.03 0.03 0.04 0.02 0.02 0.01 0.01 0.03 0.01 0.00 0.02 0.06 0.08 0.17 0.12 0.08 0.02 0.01 0.01 0.00 0.00 0.00 0.00 0.00 0.00 0.00 0.00 0.00 0.00 0.00 0.00 0.00 0.00 0.00 0.00
0.09 0.14 0.16 0.07 0.04 0.04 0.06 0.06 0.03 0.05 0.15 0.23 0.11 0.05 0.01 0.01 0.01 0.01 0.00 0.00 0.00 0.00 0.02 0.02 0.03 0.02 0.02 0.02 0.02 0.05 0.10 0.20 0.26 0.32 0.03 0.02 0.01 0.00 0.00 0.00 0.00 0.00 0.00 0.00 0.00 0.00 0.00 0.00 0.00 0.01 0.00 0.00 0.00 0.00
0.12 0.30 0.16 0.06 0.07 0.08 0.07 0.07 0.11 0.08 0.08 0.19 0.12 0.04 0.02 0.00 0.00 0.00 0.01 0.01 0.01 0.01 0.01 0.01 0.05 0.04 0.05 0.02 0.06 0.07 0.16 0.39 0.08 0.01 0.02 0.01 0.01 0.00 0.00 0.00 0.00 0.01 0.00 0.01 0.00 0.00 0.00 0.00 0.00 0.00 0.00 0.00 0.00 0.00
0.23 0.21 0.09 0.08 0.08 0.08 0.07 0.10 0.11 0.07 0.08 0.06 0.01 0.01 0.01 0.01 0.01 0.00 0.01 0.01 0.00 0.02 0.03 0.04 0.12 0.09 0.12 0.02 0.01 0.01 0.01 0.01 0.01 0.02 0.01 0.00 0.00 0.00 0.00 0.00 0.00 0.01 0.01 0.01 0.00 0.00 0.00 0.00 0.00 0.00 0.00 0.00 0.00 0.00
0.08 0.06 0.04 0.07 0.07 0.13 0.12 0.10 0.10 0.05 0.02 0.01 0.01 0.00 0.00 0.01 0.01 0.01 0.00 0.00 0.00 0.02 0.04 0.10 0.21 0.04 0.02 0.01 0.02 0.00 0.01 0.02 0.01 0.01 0.01 0.00 0.00 0.00 0.00 0.00 0.01 0.01 0.01 0.00 0.00 0.00 0.00 0.00 0.01 0.00 0.00 0.00 0.00 0.00
0.09 0.04 0.01 0.01 0.01 0.11 0.09 0.03 0.08 0.04 0.00 0.00 0.00 0.00 0.00 0.00 0.00 0.00 0.00 0.00 0.00 0.00 0.02 0.00 0.00 0.02 0.02 0.00 0.01 0.00 0.00 0.00 0.02 0.01 0.01 0.01 0.00 0.00 0.01 0.00 0.00 0.00 0.00 0.00 0.00 0.00 0.00 0.00 0.01 0.00 0.00 0.00 0.00 0.00
0.07 0.02 0.00 0.01 0.13 0.15 0.01 0.01 0.01 0.02 0.00 0.00 0.00 0.00 0.00 0.00 0.00 0.00 0.00 0.00 0.00 0.00 0.01 0.00 0.01 0.00 0.00 0.00 0.00 0.00 0.00 0.00 0.00 0.01 0.02 0.02 0.01 0.00 0.00 0.00 0.00 0.00 0.00 0.00 0.00 0.00 0.00 0.00 0.00 0.00 0.00 0.00 0.00 0.00
0.18 0.16 0.08 0.11 0.19 0.06 0.04 0.01 0.00 0.00 0.00 0.00 0.00 0.00 0.00 0.00 0.01 0.01 0.01 0.00 0.02 0.01 0.02 0.01 0.00 0.00 0.00 0.00 0.00 0.00 0.00 0.00 0.00 0.00 0.00 0.01 0.01 0.00 0.00 0.01 0.00 0.00 0.00 0.00 0.01 0.00 0.00 0.00 0.00 0.00 0.00 0.00 0.00 0.00
0.19 0.12 0.12 0.16 0.13 0.02 0.03 0.00 0.00 0.00 0.00 0.00 0.00 0.00 0.01 0.00 0.01 0.01 0.01 0.02 0.03 0.01 0.00 0.00 0.00 0.00 0.00 0.00 0.00 0.00 0.00 0.00 0.00 0.00 0.00 0.00 0.01 0.01 0.02 0.01 0.00 0.01 0.02 0.01 0.01 0.01 0.00 0.00 0.00 0.00 0.00 0.00 0.00 0.00
0.03 0.04 0.02 0.04 0.15 0.04 0.01 0.00 0.00 0.00 0.00 0.00 0.00 0.01 0.01 0.00 0.00 0.00 0.01 0.01 0.01 0.00 0.00 0.00 0.00 0.00 0.00 0.00 0.00 0.00 0.00 0.00 0.00 0.00 0.00 0.00 0.01 0.01 0.00 0.00 0.01 0.01 0.01 0.00 0.00 0.00 0.00 0.00 0.00 0.00 0.00 0.00 0.00 0.00
0.05 0.07 0.06 0.09 0.10 0.05 0.00 0.00 0.00 0.00 0.00 0.00 0.00 0.01 0.01 0.00 0.00 0.00 0.01 0.01 0.01 0.00 0.00 0.00 0.00 0.00 0.00 0.00 0.00 0.00 0.00 0.00 0.00 0.01 0.01 0.00 0.01 0.01 0.00 0.00 0.00 0.00 0.00 0.00 0.00 0.00 0.00 0.00 0.00 0.00 0.00 0.00 0.00 0.00
0.11 0.06 0.10 0.12 0.05 0.01 0.01 0.01 0.00 0.00 0.00 0.00 0.01 0.00 0.01 0.00 0.00 0.00 0.00 0.02 0.01 0.01 0.01 0.00 0.00 0.00 0.00 0.01 0.00 0.01 0.00 0.00 0.00 0.01 0.01 0.00 0.00 0.01 0.00 0.00 0.00 0.00 0.00 0.00 0.00 0.00 0.00 0.00 0.00 0.00 0.00 0.00 0.00 0.00
0.14 0.06 0.01 0.01 0.01 0.00 0.00 0.00 0.00 0.00 0.00 0.01 0.01 0.01 0.00 0.00 0.00 0.00 0.02 0.03 0.01 0.01 0.01 0.02 0.01 0.01 0.02 0.00 0.01 0.01 0.00 0.00 0.00 0.00 0.01 0.00 0.00 0.00 0.00 0.00 0.00 0.01 0.00 0.00 0.00 0.00 0.00 0.00 0.00 0.00 0.00 0.00 0.00 0.00
0.04 0.04 0.00 0.00 0.00 0.00 0.00 0.00 0.00 0.00 0.00 0.00 0.01 0.01 0.00 0.01 0.01 0.01 0.01 0.02 0.02 0.01 0.00 0.01 0.01 0.01 0.01 0.01 0.01 0.01 0.00 0.00 0.00 0.00 0.00 0.00 0.00 0.00 0.00 0.00 0.00 0.01 0.00 0.00 0.00 0.00 0.00 0.00 0.00 0.00 0.00 0.00 0.00 0.00
0.01 0.00 0.00 0.00 0.00 0.00 0.00 0.00 0.00 0.00 0.00 0.00 0.00 0.00 0.00 0.00 0.02 0.02 0.01 0.02 0.07 0.02 0.03 0.05 0.07 0.03 0.00 0.00 0.00 0.00 0.00 0.00 0.00 0.00 0.00 0.00 0.00 0.00 0.00 0.00 0.00 0.00 0.00 0.00 0.00 0.00 0.00 0.00 0.00 0.00 0.00 0.00 0.00 0.00
0.00 0.00 0.00 0.00 0.00 0.00 0.00 0.00 0.00 0.00 0.00 0.00 0.01 0.01 0.00 0.00 0.01 0.01 0.01 0.03 0.04 0.01 0.01 0.03 0.07 0.02 0.02 0.03 0.02 0.01 0.00 0.00 0.00 0.00 0.00 0.00 0.00 0.00 0.00 0.00 0.00 0.00 0.00 0.00 0.00 0.00 0.00 0.00 0.00 0.00 0.00 0.00 0.00 0.01
0.00 0.00 0.00 0.00 0.00 0.00 0.01 0.00 0.02 0.00 0.00 0.00 0.00 0.00 0.00 0.01 0.00 0.00 0.01 0.02 0.04 0.03 0.02 0.01 0.02 0.01 0.02 0.02 0.04 0.04 0.03 0.01 0.00 0.00 0.00 0.00 0.00 0.00 0.00 0.00 0.00 0.00 0.00 0.00 0.00 0.00 0.00 0.00 0.00 0.00 0.00 0.00 0.00 0.00
0.00 0.00 0.00 0.00 0.01 0.02 0.01 0.00 0.00 0.00 0.00 0.00 0.00 0.02 0.01 0.01 0.01 0.01 0.03 0.05 0.07 0.05 0.02 0.03 0.05 0.03 0.01 0.01 0.00 0.00 0.02 0.02 0.01 0.00 0.00 0.00 0.00 0.00 0.00 0.00 0.00 0.00 0.00 0.00 0.00 0.00 0.00 0.00 0.00 0.00 0.00 0.00 0.00 0.00
0.03 0.05 0.03 0.01 0.01 0.01 0.00 0.01 0.01 0.01 0.01 0.01 0.01 0.01 0.01 0.01 0.01 0.01 0.00 0.03 0.05 0.04 0.03 0.02 0.03 0.05 0.02 0.02 0.01 0.01 0.00 0.01 0.01 0.00 0.00 0.00 0.00 0.00 0.00 0.00 0.00 0.00 0.00 0.00 0.00 0.00 0.00 0.00 0.00 0.00 0.00 0.00 0.00 0.00
0.08 0.09 0.05 0.03 0.02 0.01 0.01 0.02 0.02 0.02 0.02 0.01 0.02 0.01 0.01 0.03 0.02 0.01 0.01 0.03 0.08 0.06 0.04 0.03 0.02 0.02 0.02 0.02 0.02 0.01 0.01 0.01 0.00 0.00 0.00 0.00 0.00 0.00 0.00 0.00 0.00 0.00 0.00 0.00 0.00 0.00 0.00 0.00 0.00 0.00 0.00 0.00 0.00 0.00

GFSWCAN_prec_precacc12_096.txt.gz
Total_Precipitation_Accumulation
0.52 0.47 0.16 0.10 0.05 0.03 0.09 0.06 0.01 0.01 0.00 0.01 0.00 0.00 0.00 0.00 0.00 0.00 0.00 0.00 0.00 0.00 0.00 0.00 0.00 0.00 0.00 0.00 0.00 0.00 0.00 0.00 0.00 0.01 0.04 0.02 0.00 0.01 0.31 0.74 0.18 0.21 0.13 0.16 0.24 0.47 0.47 0.08 0.21 0.41 0.48 0.27 0.13 0.13
0.48 0.49 0.14 0.11 0.06 0.04 0.08 0.05 0.02 0.01 0.01 0.01 0.01 0.00 0.00 0.00 0.00 0.00 0.01 0.00 0.00 0.00 0.00 0.00 0.00 0.00 0.00 0.00 0.00 0.00 0.00 0.01 0.00 0.00 0.00 0.00 0.00 0.11 0.21 0.30 0.31 0.68 0.65 0.57 0.45 0.43 0.36 0.18 0.26 0.31 0.26 0.15 0.12 0.06
0.43 0.32 0.13 0.09 0.08 0.03 0.03 0.03 0.02 0.01 0.01 0.01 0.01 0.00 0.00 0.00 0.00 0.00 0.01 0.00 0.00 0.00 0.00 0.00 0.00 0.00 0.00 0.00 0.00 0.00 0.00 0.01 0.00 0.00 0.00 0.00 0.00 0.04 0.10 0.30 0.18 0.15 0.17 0.25 0.19 0.17 0.16 0.22 0.16 0.13 0.11 0.08 0.07 0.03
0.33 0.17 0.14 0.08 0.06 0.02 0.01 0.01 0.01 0.01 0.02 0.01 0.01 0.00 0.00 0.00 0.00 0.00 0.01 0.01 0.00 0.00 0.00 0.00 0.00 0.00 0.00 0.00 0.00 0.00 0.00 0.00 0.00 0.00 0.00 0.00 0.00 0.02 0.04 0.27 0.07 0.01 0.01 0.08 0.07 0.09 0.09 0.10 0.16 0.12 0.10 0.06 0.05 0.04
0.18 0.10 0.14 0.08 0.06 0.02 0.00 0.00 0.01 0.01 0.03 0.02 0.01 0.00 0.00 0.00 0.00 0.00 0.00 0.01 0.00 0.00 0.01 0.00 0.00 0.00 0.00 0.00 0.00 0.00 0.00 0.00 0.00 0.00 0.00 0.00 0.00 0.02 0.03 0.14 0.03 0.01 0.02 0.02 0.04 0.05 0.04 0.09 0.11 0.08 0.07 0.07 0.05 0.03
0.15 0.10 0.12 0.09 0.05 0.01 0.00 0.00 0.00 0.01 0.04 0.05 0.01 0.00 0.00 0.00 0.00 0.01 0.00 0.00 0.00 0.01 0.00 0.00 0.00 0.00 0.00 0.00 0.00 0.00 0.00 0.00 0.00 0.00 0.00 0.00 0.00 0.02 0.01 0.02 0.03 0.01 0.01 0.01 0.03 0.04 0.02 0.05 0.05 0.03 0.02 0.02 0.01 0.01
0.15 0.10 0.09 0.09 0.05 0.01 0.00 0.00 0.01 0.02 0.04 0.07 0.02 0.00 0.00 0.00 0.00 0.01 0.01 0.02 0.00 0.00 0.00 0.00 0.00 0.00 0.00 0.00 0.00 0.01 0.01 0.00 0.00 0.00 0.00 0.00 0.00 0.01 0.03 0.03 0.01 0.00 0.00 0.01 0.02 0.03 0.05 0.06 0.04 0.02 0.01 0.00 0.00 0.00
0.14 0.10 0.07 0.05 0.04 0.01 0.00 0.00 0.02 0.05 0.05 0.07 0.02 0.00 0.00 0.00 0.00 0.01 0.01 0.00 0.00 0.00 0.00 0.00 0.00 0.00 0.00 0.00 0.01 0.03 0.01 0.00 0.00 0.00 0.00 0.00 0.00 0.01 0.03 0.01 0.00 0.00 0.00 0.01 0.03 0.03 0.02 0.01 0.01 0.00 0.00 0.00 0.00 0.00
0.12 0.10 0.03 0.06 0.04 0.01 0.00 0.00 0.03 0.07 0.07 0.05 0.00 0.00 0.00 0.01 0.01 0.01 0.01 0.00 0.00 0.01 0.02 0.01 0.00 0.02 0.01 0.01 0.02 0.05 0.03 0.00 0.00 0.00 0.00 0.01 0.01 0.03 0.01 0.00 0.00 0.01 0.03 0.05 0.06 0.02 0.01 0.01 0.01 0.00 0.00 0.00 0.00 0.00
0.09 0.09 0.03 0.07 0.04 0.01 0.00 0.01 0.06 0.09 0.06 0.01 0.00 0.00 0.00 0.00 0.01 0.00 0.00 0.00 0.01 0.02 0.02 0.01 0.00 0.04 0.02 0.00 0.02 0.04 0.03 0.01 0.02 0.02 0.00 0.00 0.02 0.03 0.01 0.00 0.00 0.02 0.03 0.05 0.06 0.05 0.02 0.02 0.00 0.00 0.00 0.00 0.00 0.00
0.07 0.06 0.03 0.07 0.04 0.01 0.01 0.03 0.09 0.07 0.02 0.00 0.00 0.04 0.06 0.04 0.01 0.02 0.02 0.01 0.01 0.01 0.00 0.00 0.00 0.02 0.03 0.00 0.01 0.02 0.04 0.09 0.09 0.09 0.02 0.03 0.02 0.03 0.02 0.00 0.00 0.01 0.08 0.09 0.07 0.04 0.03 0.01 0.00 0.00 0.00 0.00 0.00 0.00
0.05 0.04 0.07 0.08 0.03 0.01 0.01 0.05 0.04 0.00 0.00 0.00 0.04 0.13 0.11 0.06 0.05 0.05 0.04 0.01 0.01 0.00 0.00 0.00 0.00 0.00 0.02 0.02 0.02 0.04 0.07 0.13 0.21 0.14 0.03 0.04 0.04 0.03 0.01 0.01 0.00 0.00 0.01 0.03 0.03 0.02 0.01 0.00 0.00 0.00 0.00 0.00 0.00 0.00
0.06 0.05 0.11 0.08 0.03 0.02 0.03 0.03 0.01 0.01 0.00 0.02 0.10 0.03 0.07 0.06 0.08 0.02 0.01 0.00 0.00 0.00 0.01 0.00 0.00 0.00 0.02 0.02 0.01 0.05 0.16 0.11 0.16 0.24 0.06 0.02 0.02 0.02 0.01 0.00 0.00 0.00 0.00 0.00 0.00 0.00 0.00 0.00 0.00 0.00 0.00 0.00 0.00 0.00
0.07 0.08 0.14 0.07 0.03 0.03 0.03 0.04 0.03 0.01 0.02 0.07 0.06 0.03 0.07 0.04 0.00 0.00 0.01 0.01 0.02 0.02 0.01 0.00 0.00 0.00 0.00 0.00 0.00 0.00 0.01 0.03 0.12 0.07 0.05 0.02 0.01 0.01 0.00 0.00 0.00 0.00 0.00 0.00 0.00 0.00 0.00 0.00 0.00 0.00 0.00 0.00 0.00 0.00
0.08 0.13 0.14 0.07 0.05 0.05 0.06 0.05 0.01 0.01 0.06 0.15 0.10 0.04 0.01 0.01 0.00 0.00 0.00 0.00 0.00 0.00 0.01 0.00 0.00 0.00 0.00 0.00 0.00 0.01 0.04 0.15 0.23 0.27 0.02 0.02 0.01 0.00 0.00 0.00 0.00 0.00 0.00 0.00 0.00 0.00 0.00 0.00 0.00 0.00 0.00 0.00 0.00 0.00
0.11 0.30 0.14 0.08 0.10 0.08 0.06 0.02 0.01 0.01 0.04 0.18 0.13 0.06 0.02 0.01 0.00 0.00 0.00 0.00 0.00 0.00 0.00 0.00 0.02 0.01 0.01 0.00 0.02 0.04 0.13 0.36 0.07 0.01 0.01 0.01 0.01 0.00 0.00 0.00 0.00 0.00 0.00 0.00 0.00 0.00 0.00 0.00 0.00 0.00 0.00 0.00 0.00 0.00
0.24 0.24 0.10 0.11 0.09 0.05 0.01 0.00 0.01 0.02 0.05 0.05 0.01 0.01 0.02 0.00 0.00 0.00 0.00 0.01 0.00 0.01 0.01 0.01 0.06 0.04 0.09 0.01 0.00 0.01 0.00 0.00 0.00 0.01 0.01 0.00 0.00 0.00 0.00 0.00 0.00 0.00 0.00 0.00 0.00 0.00 0.00 0.00 0.00 0.00 0.00 0.00 0.00 0.00
0.11 0.05 0.07 0.07 0.04 0.02 0.01 0.02 0.06 0.04 0.02 0.01 0.00 0.00 0.00 0.00 0.01 0.00 0.00 0.00 0.00 0.01 0.03 0.08 0.21 0.04 0.02 0.01 0.01 0.00 0.01 0.02 0.01 0.01 0.01 0.00 0.00 0.00 0.00 0.00 0.00 0.00 0.00 0.00 0.00 0.00 0.00 0.00 0.00 0.00 0.00 0.00 0.00 0.00
0.07 0.04 0.02 0.00 0.00 0.03 0.03 0.02 0.08 0.04 0.00 0.00 0.00 0.00 0.00 0.00 0.00 0.00 0.00 0.01 0.00 0.00 0.02 0.01 0.00 0.01 0.01 0.00 0.00 0.00 0.00 0.00 0.01 0.01 0.01 0.00 0.00 0.00 0.00 0.00 0.00 0.00 0.00 0.00 0.00 0.00 0.00 0.00 0.01 0.00 0.00 0.00 0.00 0.00
0.04 0.01 0.00 0.00 0.08 0.12 0.01 0.01 0.01 0.02 0.00 0.00 0.00 0.00 0.00 0.00 0.00 0.00 0.00 0.00 0.00 0.00 0.01 0.00 0.00 0.00 0.00 0.00 0.00 0.00 0.00 0.00 0.00 0.01 0.02 0.02 0.00 0.00 0.00 0.00 0.00 0.00 0.00 0.00 0.00 0.00 0.00 0.00 0.00 0.00 0.00 0.00 0.00 0.00
0.15 0.11 0.04 0.03 0.14 0.06 0.04 0.01 0.00 0.00 0.00 0.00 0.00 0.00 0.00 0.00 0.00 0.01 0.00 0.00 0.02 0.01 0.02 0.00 0.00 0.00 0.00 0.00 0.00 0.00 0.00 0.00 0.00 0.00 0.00 0.01 0.01 0.00 0.00 0.00 0.00 0.00 0.00 0.00 0.00 0.00 0.00 0.00 0.00 0.00 0.00 0.00 0.00 0.00
0.15 0.05 0.05 0.10 0.13 0.02 0.07 0.01 0.00 0.00 0.00 0.00 0.00 0.00 0.00 0.00 0.01 0.00 0.02 0.03 0.02 0.01 0.00 0.00 0.00 0.00 0.00 0.00 0.00 0.00 0.00 0.00 0.00 0.00 0.00 0.00 0.00 0.00 0.01 0.00 0.00 0.00 0.01 0.00 0.00 0.00 0.00 0.00 0.00 0.00 0.00 0.00 0.00 0.00
0.02 0.03 0.01 0.03 0.15 0.04 0.05 0.00 0.00 0.00 0.00 0.00 0.01 0.01 0.01 0.00 0.00 0.00 0.01 0.00 0.01 0.00 0.00 0.00 0.00 0.00 0.00 0.00 0.00 0.00 0.00 0.00 0.00 0.00 0.00 0.00 0.00 0.00 0.00 0.00 0.01 0.00 0.01 0.00 0.00 0.00 0.00 0.00 0.00 0.00 0.00 0.00 0.00 0.00
0.04 0.05 0.04 0.09 0.10 0.04 0.03 0.02 0.00 0.00 0.00 0.00 0.00 0.01 0.00 0.00 0.00 0.00 0.00 0.01 0.00 0.00 0.00 0.00 0.00 0.00 0.00 0.00 0.00 0.00 0.00 0.00 0.00 0.00 0.01 0.00 0.01 0.01 0.00 0.00 0.00 0.00 0.00 0.00 0.00 0.00 0.00 0.00 0.00 0.00 0.00 0.00 0.00 0.00
0.10 0.06 0.10 0.14 0.07 0.01 0.01 0.01 0.00 0.00 0.00 0.00 0.01 0.00 0.01 0.00 0.00 0.00 0.00 0.01 0.00 0.01 0.00 0.00 0.00 0.00 0.00 0.00 0.00 0.00 0.00 0.00 0.00 0.01 0.01 0.00 0.00 0.01 0.01 0.00 0.00 0.00 0.00 0.00 0.00 0.00 0.00 0.00 0.00 0.00 0.00 0.00 0.00 0.00
0.14 0.06 0.01 0.02 0.01 0.00 0.00 0.00 0.00 0.00 0.00 0.00 0.00 0.00 0.00 0.00 0.00 0.00 0.01 0.02 0.00 0.01 0.01 0.01 0.00 0.00 0.02 0.00 0.01 0.01 0.00 0.00 0.00 0.00 0.01 0.00 0.00 0.00 0.00 0.00 0.00 0.00 0.00 0.00 0.00 0.00 0.00 0.00 0.00 0.00 0.00 0.00 0.00 0.00
0.04 0.06 0.01 0.00 0.00 0.00 0.00 0.00 0.00 0.00 0.00 0.00 0.01 0.01 0.00 0.01 0.00 0.01 0.01 0.01 0.01 0.00 0.00 0.01 0.01 0.01 0.01 0.01 0.01 0.01 0.00 0.00 0.00 0.00 0.00 0.00 0.00 0.00 0.00 0.00 0.00 0.00 0.00 0.00 0.00 0.00 0.00 0.00 0.00 0.00 0.00 0.00 0.00 0.00
0.01 0.00 0.00 0.00 0.00 0.00 0.00 0.00 0.00 0.00 0.00 0.00 0.00 0.00 0.00 0.00 0.01 0.01 0.00 0.01 0.04 0.01 0.02 0.04 0.05 0.02 0.00 0.00 0.00 0.00 0.00 0.00 0.00 0.00 0.00 0.01 0.01 0.00 0.00 0.00 0.00 0.00 0.00 0.00 0.00 0.00 0.00 0.00 0.00 0.00 0.00 0.00 0.00 0.00
0.01 0.00 0.00 0.00 0.00 0.00 0.00 0.00 0.00 0.00 0.00 0.00 0.00 0.00 0.00 0.00 0.01 0.00 0.00 0.03 0.04 0.01 0.01 0.02 0.06 0.02 0.02 0.03 0.02 0.01 0.00 0.00 0.00 0.01 0.01 0.01 0.01 0.01 0.00 0.00 0.00 0.00 0.00 0.00 0.00 0.00 0.00 0.00 0.00 0.00 0.00 0.00 0.00 0.00
0.00 0.00 0.00 0.00 0.00 0.00 0.00 0.00 0.01 0.00 0.00 0.00 0.00 0.00 0.00 0.00 0.00 0.00 0.01 0.01 0.02 0.01 0.01 0.00 0.01 0.01 0.02 0.02 0.04 0.05 0.04 0.01 0.00 0.00 0.00 0.00 0.00 0.00 0.00 0.00 0.00 0.00 0.00 0.00 0.00 0.00 0.00 0.00 0.00 0.00 0.00 0.00 0.00 0.00
0.00 0.00 0.00 0.00 0.00 0.01 0.01 0.00 0.00 0.00 0.00 0.00 0.00 0.01 0.01 0.00 0.00 0.00 0.01 0.02 0.03 0.03 0.01 0.02 0.04 0.02 0.01 0.01 0.00 0.00 0.02 0.03 0.02 0.00 0.00 0.00 0.00 0.00 0.00 0.00 0.00 0.00 0.00 0.00 0.00 0.00 0.00 0.00 0.00 0.00 0.00 0.00 0.00 0.00
0.03 0.06 0.03 0.01 0.01 0.01 0.00 0.01 0.00 0.00 0.00 0.00 0.01 0.01 0.00 0.00 0.00 0.00 0.00 0.02 0.04 0.03 0.01 0.01 0.02 0.04 0.02 0.01 0.02 0.01 0.01 0.02 0.02 0.00 0.00 0.00 0.00 0.00 0.00 0.00 0.00 0.00 0.00 0.00 0.00 0.00 0.00 0.00 0.00 0.00 0.00 0.00 0.00 0.00
0.12 0.12 0.08 0.04 0.03 0.02 0.02 0.04 0.05 0.03 0.01 0.01 0.01 0.00 0.00 0.01 0.01 0.01 0.01 0.02 0.04 0.04 0.02 0.02 0.01 0.02 0.04 0.04 0.03 0.03 0.02 0.02 0.01 0.00 0.00 0.00 0.00 0.00 0.00 0.00 0.00 0.00 0.00 0.00 0.00 0.00 0.00 0.00 0.00 0.00 0.00 0.00 0.00 0.00

GFSWCAN_prec_precacc12_099.txt.gz
Total_Precipitation_Accumulation
0.50 0.50 0.40 0.17 0.04 0.03 0.11 0.07 0.01 0.01 0.00 0.00 0.00 0.00 0.00 0.00 0.00 0.00 0.00 0.00 0.00 0.00 0.00 0.00 0.00 0.00 0.00 0.00 0.00 0.00 0.00 0.00 0.00 0.00 0.00 0.00 0.00 0.00 0.11 0.40 0.18 0.21 0.12 0.14 0.16 0.23 0.16 0.07 0.21 0.41 0.47 0.32 0.24 0.30
0.47 0.59 0.32 0.10 0.04 0.04 0.11 0.07 0.01 0.01 0.01 0.00 0.00 0.00 0.00 0.00 0.00 0.00 0.00 0.00 0.00 0.00 0.00 0.00 0.00 0.00 0.00 0.00 0.00 0.00 0.00 0.00 0.00 0.00 0.00 0.00 0.00 0.00 0.04 0.18 0.21 0.37 0.45 0.32 0.25 0.23 0.27 0.19 0.28 0.35 0.31 0.24 0.24 0.21
0.45 0.64 0.22 0.07 0.05 0.05 0.06 0.05 0.01 0.01 0.01 0.00 0.00 0.00 0.00 0.00 0.00 0.00 0.00 0.00 0.00 0.00 0.00 0.00 0.00 0.00 0.00 0.00 0.00 0.00 0.00 0.00 0.00 0.00 0.00 0.00 0.00 0.00 0.02 0.16 0.05 0.07 0.16 0.19 0.12 0.14 0.16 0.24 0.19 0.16 0.16 0.16 0.16 0.11
0.49 0.59 0.15 0.07 0.06 0.03 0.05 0.02 0.01 0.01 0.01 0.01 0.00 0.00 0.00 0.00 0.00 0.00 0.00 0.00 0.00 0.00 0.00 0.00 0.00 0.00 0.00 0.00 0.00 0.00 0.00 0.00 0.00 0.00 0.00 0.00 0.00 0.00 0.01 0.19 0.01 0.00 0.01 0.06 0.05 0.08 0.08 0.12 0.17 0.13 0.14 0.11 0.08 0.06
0.55 0.37 0.13 0.06 0.05 0.02 0.04 0.01 0.01 0.01 0.02 0.02 0.00 0.00 0.00 0.00 0.00 0.00 0.00 0.00 0.00 0.00 0.00 0.00 0.00 0.00 0.00 0.00 0.00 0.00 0.00 0.00 0.00 0.00 0.00 0.00 0.00 0.00 0.02 0.07 0.01 0.00 0.01 0.02 0.02 0.03 0.02 0.09 0.12 0.10 0.08 0.09 0.05 0.02
0.45 0.19 0.14 0.07 0.04 0.02 0.01 0.01 0.00 0.01 0.03 0.03 0.00 0.00 0.00 0.00 0.00 0.00 0.00 0.00 0.00 0.00 0.00 0.00 0.00 0.00 0.00 0.00 0.00 0.00 0.00 0.00 0.00 0.00 0.00 0.00 0.00 0.00 0.00 0.01 0.00 0.00 0.01 0.01 0.02 0.03 0.01 0.04 0.04 0.03 0.02 0.02 0.01 0.00
0.22 0.12 0.10 0.07 0.02 0.01 0.01 0.00 0.01 0.02 0.03 0.04 0.01 0.00 0.00 0.00 0.00 0.00 0.00 0.00 0.00 0.00 0.00 0.00 0.00 0.00 0.00 0.00 0.00 0.00 0.00 0.00 0.00 0.00 0.00 0.00 0.00 0.00 0.01 0.01 0.00 0.00 0.00 0.01 0.01 0.01 0.03 0.04 0.03 0.02 0.01 0.00 0.00 0.00
0.16 0.13 0.08 0.04 0.02 0.01 0.01 0.01 0.03 0.05 0.04 0.05 0.01 0.00 0.00 0.00 0.00 0.00 0.00 0.00 0.00 0.00 0.00 0.00 0.00 0.00 0.00 0.00 0.00 0.00 0.00 0.00 0.00 0.00 0.00 0.00 0.00 0.00 0.02 0.01 0.00 0.00 0.00 0.01 0.02 0.01 0.01 0.01 0.01 0.00 0.00 0.00 0.00 0.00
0.15 0.12 0.04 0.02 0.01 0.01 0.00 0.01 0.04 0.05 0.04 0.03 0.00 0.00 0.00 0.00 0.00 0.00 0.00 0.00 0.00 0.00 0.00 0.00 0.00 0.00 0.00 0.00 0.00 0.00 0.00 0.00 0.00 0.00 0.00 0.00 0.00 0.02 0.01 0.01 0.00 0.01 0.01 0.02 0.03 0.00 0.01 0.01 0.01 0.00 0.00 0.00 0.00 0.00
0.12 0.09 0.02 0.01 0.01 0.00 0.01 0.02 0.07 0.07 0.04 0.01 0.00 0.00 0.00 0.00 0.00 0.00 0.00 0.00 0.00 0.00 0.00 0.00 0.00 0.00 0.00 0.00 0.00 0.00 0.01 0.00 0.00 0.01 0.00 0.00 0.02 0.03 0.01 0.00 0.00 0.02 0.02 0.04 0.04 0.03 0.02 0.02 0.00 0.00 0.00 0.00 0.00 0.00
0.09 0.06 0.01 0.02 0.02 0.00 0.01 0.04 0.07 0.04 0.00 0.00 0.00 0.01 0.02 0.02 0.00 0.00 0.00 0.00 0.00 0.00 0.00 0.00 0.00 0.00 0.00 0.00 0.00 0.00 0.02 0.07 0.07 0.06 0.01 0.03 0.01 0.02 0.03 0.01 0.01 0.02 0.08 0.09 0.07 0.04 0.03 0.01 0.00 0.00 0.00 0.00 0.00 0.00
0.09 0.03 0.03 0.05 0.02 0.01 0.02 0.05 0.02 0.00 0.00 0.00 0.01 0.07 0.05 0.02 0.01 0.02 0.01 0.00 0.00 0.00 0.00 0.00 0.00 0.00 0.00 0.00 0.00 0.01 0.05 0.15 0.24 0.12 0.03 0.05 0.03 0.04 0.02 0.02 0.01 0.01 0.02 0.04 0.04 0.02 0.01 0.00 0.00 0.00 0.00 0.00 0.00 0.00
0.06 0.03 0.08 0.06 0.02 0.02 0.03 0.02 0.01 0.00 0.00 0.01 0.03 0.01 0.02 0.03 0.03 0.01 0.01 0.00 0.00 0.00 0.00 0.00 0.00 0.00 0.00 0.00 0.00 0.02 0.16 0.15 0.19 0.28 0.04 0.01 0.02 0.03 0.02 0.01 0.00 0.00 0.00 0.01 0.02 0.01 0.00 0.00 0.00 0.00 0.00 0.00 0.00 0.00
0.05 0.06 0.11 0.05 0.02 0.03 0.02 0.02 0.02 0.00 0.00 0.00 0.02 0.01 0.02 0.02 0.00 0.00 0.00 0.00 0.00 0.00 0.00 0.00 0.00 0.00 0.00 0.00 0.00 0.00 0.00 0.02 0.05 0.05 0.01 0.01 0.01 0.01 0.01 0.00 0.00 0.00 0.00 0.00 0.00 0.00 0.00 0.00 0.00 0.00 0.00 0.00 0.00 0.00
0.05 0.10 0.12 0.06 0.05 0.05 0.05 0.03 0.00 0.00 0.00 0.02 0.04 0.02 0.00 0.01 0.02 0.02 0.00 0.00 0.00 0.00 0.00 0.00 0.00 0.00 0.00 0.00 0.00 0.01 0.03 0.11 0.18 0.15 0.00 0.01 0.00 0.00 0.00 0.00 0.00 0.00 0.00 0.00 0.00 0.00 0.00 0.00 0.00 0.00 0.00 0.00 0.00 0.00
0.09 0.28 0.12 0.08 0.09 0.06 0.04 0.01 0.00 0.00 0.00 0.06 0.11 0.07 0.02 0.01 0.02 0.01 0.00 0.00 0.00 0.00 0.00 0.00 0.00 0.00 0.00 0.00 0.01 0.02 0.10 0.22 0.03 0.00 0.00 0.01 0.00 0.00 0.00 0.00 0.00 0.00 0.00 0.00 0.00 0.00 0.00 0.00 0.00 0.00 0.00 0.00 0.00 0.00
0.24 0.24 0.11 0.11 0.07 0.03 0.00 0.00 0.00 0.00 0.01 0.04 0.01 0.02 0.02 0.00 0.00 0.00 0.01 0.00 0.00 0.00 0.00 0.00 0.01 0.01 0.05 0.01 0.00 0.00 0.00 0.00 0.00 0.00 0.00 0.00 0.00 0.00 0.00 0.00 0.00 0.00 0.00 0.00 0.00 0.00 0.00 0.00 0.00 0.00 0.00 0.00 0.00 0.00
0.08 0.04 0.10 0.06 0.03 0.01 0.00 0.00 0.00 0.01 0.01 0.01 0.00 0.01 0.00 0.00 0.01 0.00 0.00 0.00 0.00 0.01 0.01 0.04 0.16 0.05 0.03 0.00 0.00 0.00 0.01 0.01 0.00 0.00 0.00 0.00 0.00 0.00 0.00 0.00 0.00 0.00 0.00 0.00 0.00 0.00 0.00 0.00 0.00 0.00 0.00 0.00 0.00 0.00
0.04 0.05 0.02 0.00 0.00 0.00 0.00 0.00 0.03 0.02 0.00 0.00 0.00 0.00 0.00 0.00 0.00 0.01 0.01 0.02 0.00 0.00 0.02 0.01 0.01 0.01 0.00 0.00 0.00 0.00 0.00 0.00 0.00 0.01 0.00 0.00 0.00 0.00 0.00 0.00 0.00 0.00 0.00 0.00 0.00 0.00 0.00 0.00 0.00 0.00 0.00 0.00 0.00 0.00
0.05 0.02 0.00 0.00 0.01 0.02 0.00 0.00 0.01 0.02 0.00 0.00 0.00 0.00 0.00 0.00 0.00 0.00 0.00 0.01 0.00 0.00 0.01 0.00 0.00 0.00 0.00 0.00 0.00 0.00 0.00 0.00 0.00 0.01 0.01 0.01 0.00 0.00 0.00 0.00 0.00 0.00 0.00 0.00 0.00 0.00 0.00 0.00 0.00 0.00 0.00 0.00 0.00 0.00
0.20 0.11 0.02 0.01 0.03 0.03 0.04 0.01 0.00 0.00 0.00 0.00 0.00 0.00 0.00 0.00 0.00 0.01 0.00 0.00 0.02 0.01 0.01 0.00 0.00 0.00 0.00 0.00 0.00 0.00 0.00 0.00 0.00 0.00 0.00 0.01 0.01 0.00 0.00 0.00 0.00 0.00 0.00 0.00 0.00 0.00 0.00 0.00 0.00 0.00 0.00 0.00 0.00 0.00
0.14 0.04 0.02 0.02 0.05 0.02 0.08 0.01 0.00 0.00 0.00 0.00 0.00 0.00 0.00 0.00 0.00 0.00 0.03 0.04 0.01 0.00 0.00 0.00 0.00 0.00 0.00 0.00 0.00 0.00 0.00 0.00 0.00 0.00 0.00 0.00 0.01 0.00 0.00 0.00 0.00 0.00 0.00 0.00 0.00 0.00 0.00 0.00 0.00 0.00 0.00 0.00 0.00 0.00
0.00 0.01 0.00 0.02 0.10 0.03 0.06 0.01 0.00 0.00 0.00 0.00 0.01 0.01 0.01 0.00 0.00 0.00 0.01 0.01 0.00 0.00 0.00 0.00 0.00 0.00 0.00 0.00 0.00 0.00 0.00 0.00 0.00 0.00 0.00 0.00 0.00 0.00 0.00 0.00 0.00 0.00 0.01 0.00 0.00 0.00 0.00 0.00 0.00 0.00 0.00 0.00 0.00 0.00
0.00 0.01 0.01 0.05 0.08 0.04 0.04 0.04 0.00 0.00 0.00 0.00 0.00 0.01 0.00 0.00 0.00 0.00 0.01 0.00 0.00 0.00 0.00 0.00 0.00 0.00 0.00 0.00 0.00 0.00 0.00 0.00 0.00 0.00 0.00 0.00 0.00 0.01 0.00 0.00 0.00 0.00 0.00 0.00 0.00 0.00 0.00 0.00 0.00 0.00 0.00 0.00 0.00 0.00
0.04 0.03 0.07 0.12 0.07 0.01 0.01 0.01 0.00 0.01 0.00 0.00 0.01 0.00 0.01 0.00 0.00 0.00 0.00 0.00 0.00 0.01 0.00 0.00 0.00 0.00 0.00 0.00 0.00 0.00 0.00 0.00 0.00 0.00 0.00 0.00 0.00 0.01 0.01 0.00 0.00 0.00 0.00 0.00 0.00 0.00 0.00 0.00 0.00 0.00 0.00 0.00 0.00 0.00
0.10 0.06 0.01 0.02 0.02 0.00 0.00 0.00 0.00 0.00 0.00 0.00 0.00 0.00 0.00 0.00 0.00 0.00 0.00 0.00 0.00 0.00 0.00 0.00 0.00 0.00 0.01 0.00 0.01 0.01 0.00 0.00 0.00 0.00 0.01 0.00 0.00 0.00 0.00 0.00 0.00 0.00 0.00 0.00 0.00 0.00 0.00 0.00 0.00 0.00 0.00 0.00 0.00 0.00
0.04 0.06 0.02 0.01 0.01 0.00 0.00 0.00 0.00 0.00 0.00 0.00 0.00 0.01 0.00 0.01 0.00 0.00 0.00 0.01 0.00 0.00 0.00 0.00 0.00 0.00 0.00 0.01 0.01 0.01 0.00 0.00 0.00 0.00 0.00 0.00 0.00 0.00 0.00 0.00 0.00 0.00 0.00 0.00 0.00 0.00 0.00 0.00 0.00 0.00 0.00 0.00 0.00 0.00
0.01 0.00 0.01 0.01 0.01 0.01 0.00 0.00 0.00 0.00 0.00 0.00 0.00 0.00 0.00 0.00 0.00 0.00 0.00 0.01 0.01 0.00 0.01 0.01 0.02 0.01 0.00 0.00 0.00 0.01 0.01 0.00 0.00 0.00 0.00 0.01 0.01 0.01 0.00 0.00 0.00 0.00 0.00 0.00 0.00 0.00 0.00 0.00 0.00 0.00 0.00 0.00 0.00 0.00
0.01 0.00 0.00 0.01 0.01 0.00 0.00 0.00 0.00 0.00 0.00 0.00 0.00 0.00 0.00 0.00 0.00 0.00 0.00 0.02 0.02 0.01 0.01 0.01 0.04 0.02 0.02 0.04 0.03 0.02 0.00 0.00 0.00 0.01 0.01 0.01 0.02 0.01 0.00 0.00 0.00 0.00 0.00 0.00 0.00 0.00 0.00 0.00 0.00 0.00 0.00 0.00 0.00 0.00
0.00 0.00 0.00 0.00 0.00 0.00 0.00 0.00 0.00 0.00 0.00 0.00 0.00 0.00 0.00 0.00 0.00 0.00 0.00 0.01 0.02 0.01 0.00 0.00 0.01 0.01 0.01 0.02 0.04 0.05 0.04 0.01 0.00 0.00 0.00 0.01 0.00 0.00 0.00 0.00 0.00 0.00 0.00 0.00 0.00 0.00 0.00 0.00 0.00 0.00 0.00 0.00 0.00 0.00
0.00 0.00 0.00 0.00 0.00 0.01 0.00 0.00 0.00 0.00 0.00 0.00 0.00 0.00 0.00 0.00 0.00 0.00 0.00 0.00 0.01 0.01 0.01 0.02 0.03 0.02 0.01 0.01 0.00 0.00 0.02 0.03 0.02 0.01 0.00 0.00 0.00 0.00 0.00 0.00 0.00 0.00 0.00 0.00 0.00 0.00 0.00 0.00 0.00 0.00 0.00 0.00 0.00 0.00
0.04 0.05 0.03 0.01 0.00 0.01 0.00 0.01 0.00 0.00 0.00 0.00 0.00 0.00 0.00 0.00 0.00 0.00 0.00 0.01 0.03 0.02 0.01 0.00 0.00 0.02 0.01 0.01 0.02 0.02 0.01 0.02 0.02 0.00 0.00 0.00 0.00 0.00 0.00 0.00 0.00 0.00 0.00 0.00 0.00 0.00 0.00 0.00 0.00 0.00 0.00 0.00 0.00 0.00
0.14 0.15 0.11 0.07 0.05 0.03 0.03 0.07 0.08 0.04 0.01 0.00 0.00 0.00 0.00 0.00 0.00 0.00 0.01 0.02 0.02 0.01 0.00 0.01 0.01 0.02 0.04 0.05 0.04 0.04 0.04 0.03 0.02 0.00 0.00 0.00 0.00 0.00 0.00 0.00 0.00 0.00 0.00 0.00 0.00 0.00 0.00 0.00 0.00 0.00 0.00 0.00 0.00 0.00

GFSWCAN_prec_precacc12_105.txt.gz
Total_Precipitation_Accumulation
0.31 0.44 0.38 0.44 0.10 0.12 0.20 0.19 0.05 0.02 0.00 0.00 0.00 0.00 0.01 0.01 0.01 0.05 0.04 0.00 0.00 0.01 0.00 0.00 0.00 0.00 0.00 0.00 0.00 0.00 0.00 0.00 0.00 0.00 0.00 0.00 0.00 0.00 0.01 0.03 0.06 0.06 0.04 0.06 0.04 0.05 0.06 0.01 0.03 0.11 0.20 0.19 0.24 0.35
0.36 0.55 0.42 0.34 0.12 0.07 0.17 0.09 0.03 0.01 0.00 0.00 0.01 0.01 0.01 0.01 0.01 0.03 0.02 0.00 0.00 0.00 0.00 0.00 0.00 0.00 0.00 0.00 0.00 0.00 0.00 0.00 0.00 0.00 0.00 0.00 0.00 0.00 0.01 0.04 0.02 0.04 0.06 0.07 0.09 0.09 0.07 0.05 0.12 0.15 0.19 0.22 0.29 0.30
0.38 0.65 0.45 0.24 0.12 0.07 0.10 0.06 0.02 0.01 0.00 0.01 0.02 0.03 0.01 0.01 0.00 0.00 0.00 0.00 0.00 0.00 0.00 0.00 0.00 0.00 0.00 0.00 0.00 0.00 0.00 0.00 0.00 0.00 0.00 0.00 0.00 0.01 0.02 0.02 0.01 0.03 0.05 0.05 0.06 0.08 0.08 0.11 0.11 0.12 0.16 0.18 0.21 0.18
0.44 0.71 0.33 0.12 0.06 0.06 0.08 0.04 0.01 0.00 0.01 0.02 0.03 0.02 0.01 0.00 0.00 0.00 0.00 0.00 0.00 0.00 0.00 0.00 0.00 0.00 0.00 0.00 0.00 0.00 0.00 0.00 0.00 0.00 0.00 0.00 0.00 0.01 0.01 0.01 0.02 0.01 0.00 0.02 0.03 0.06 0.07 0.11 0.13 0.11 0.14 0.11 0.10 0.10
0.60 0.58 0.15 0.07 0.05 0.04 0.05 0.02 0.00 0.01 0.02 0.03 0.02 0.00 0.00 0.00 0.00 0.00 0.00 0.00 0.00 0.00 0.00 0.00 0.00 0.00 0.00 0.00 0.00 0.00 0.00 0.00 0.00 0.00 0.00 0.00 0.00 0.00 0.01 0.01 0.01 0.00 0.01 0.01 0.01 0.00 0.02 0.08 0.12 0.10 0.09 0.10 0.07 0.03
0.70 0.33 0.09 0.06 0.04 0.03 0.02 0.01 0.01 0.01 0.05 0.03 0.00 0.00 0.00 0.00 0.00 0.00 0.01 0.00 0.00 0.00 0.00 0.00 0.00 0.00 0.00 0.00 0.00 0.00 0.00 0.00 0.00 0.00 0.00 0.00 0.00 0.00 0.01 0.01 0.00 0.00 0.00 0.00 0.00 0.01 0.00 0.03 0.05 0.04 0.03 0.03 0.01 0.00
0.56 0.18 0.07 0.04 0.02 0.01 0.01 0.01 0.01 0.03 0.05 0.01 0.00 0.00 0.00 0.00 0.00 0.00 0.01 0.00 0.00 0.00 0.00 0.00 0.00 0.00 0.00 0.00 0.00 0.00 0.00 0.00 0.00 0.00 0.00 0.00 0.00 0.00 0.01 0.01 0.00 0.00 0.00 0.00 0.00 0.00 0.02 0.02 0.03 0.01 0.00 0.00 0.00 0.00
0.30 0.10 0.04 0.03 0.02 0.01 0.01 0.02 0.03 0.04 0.02 0.00 0.00 0.00 0.00 0.00 0.00 0.00 0.00 0.00 0.00 0.00 0.00 0.00 0.00 0.00 0.00 0.00 0.00 0.00 0.00 0.00 0.00 0.00 0.00 0.00 0.00 0.00 0.01 0.01 0.00 0.00 0.00 0.01 0.01 0.00 0.00 0.01 0.00 0.00 0.00 0.00 0.00 0.00
0.16 0.08 0.03 0.01 0.01 0.01 0.02 0.03 0.04 0.04 0.01 0.00 0.00 0.00 0.00 0.00 0.00 0.00 0.00 0.00 0.00 0.00 0.00 0.00 0.00 0.00 0.00 0.00 0.00 0.00 0.00 0.00 0.00 0.00 0.00 0.00 0.00 0.00 0.00 0.00 0.00 0.00 0.00 0.01 0.01 0.00 0.01 0.01 0.00 0.00 0.00 0.00 0.00 0.00
0.09 0.08 0.02 0.01 0.01 0.01 0.02 0.03 0.05 0.02 0.00 0.00 0.00 0.00 0.00 0.00 0.00 0.00 0.00 0.00 0.00 0.00 0.00 0.00 0.00 0.00 0.00 0.00 0.00 0.00 0.00 0.00 0.00 0.00 0.00 0.00 0.01 0.00 0.00 0.00 0.00 0.00 0.00 0.00 0.00 0.01 0.01 0.00 0.00 0.00 0.00 0.00 0.00 0.00
0.08 0.04 0.01 0.00 0.00 0.01 0.02 0.03 0.03 0.00 0.00 0.00 0.00 0.00 0.00 0.00 0.00 0.00 0.00 0.00 0.00 0.00 0.00 0.00 0.00 0.00 0.00 0.00 0.00 0.00 0.00 0.01 0.02 0.03 0.01 0.02 0.01 0.01 0.02 0.01 0.01 0.00 0.00 0.00 0.00 0.00 0.00 0.00 0.00 0.00 0.00 0.00 0.00 0.00
0.09 0.03 0.01 0.00 0.01 0.01 0.02 0.03 0.00 0.00 0.00 0.00 0.00 0.00 0.00 0.00 0.00 0.00 0.00 0.00 0.00 0.00 0.00 0.00 0.00 0.00 0.00 0.00 0.00 0.00 0.02 0.08 0.16 0.05 0.02 0.09 0.04 0.02 0.03 0.03 0.02 0.01 0.01 0.02 0.01 0.01 0.00 0.00 0.00 0.00 0.00 0.00 0.00 0.00
0.06 0.02 0.01 0.01 0.02 0.02 0.02 0.00 0.00 0.00 0.00 0.00 0.00 0.00 0.00 0.01 0.00 0.00 0.00 0.00 0.00 0.00 0.00 0.00 0.00 0.00 0.00 0.00 0.00 0.00 0.05 0.16 0.19 0.27 0.09 0.06 0.02 0.03 0.02 0.02 0.01 0.00 0.00 0.02 0.03 0.01 0.00 0.00 0.00 0.00 0.00 0.00 0.00 0.00
0.02 0.02 0.01 0.02 0.01 0.02 0.00 0.00 0.00 0.00 0.00 0.00 0.00 0.00 0.00 0.00 0.00 0.00 0.00 0.00 0.00 0.00 0.00 0.00 0.00 0.00 0.00 0.00 0.00 0.00 0.00 0.00 0.03 0.07 0.07 0.01 0.01 0.01 0.01 0.00 0.00 0.00 0.01 0.03 0.02 0.01 0.00 0.00 0.00 0.00 0.00 0.00 0.00 0.00
0.02 0.02 0.02 0.03 0.05 0.03 0.01 0.00 0.00 0.00 0.00 0.00 0.00 0.01 0.01 0.02 0.04 0.04 0.03 0.02 0.00 0.00 0.00 0.00 0.00 0.01 0.00 0.00 0.00 0.00 0.01 0.02 0.05 0.06 0.01 0.00 0.00 0.00 0.00 0.00 0.01 0.01 0.02 0.02 0.01 0.01 0.00 0.00 0.00 0.00 0.00 0.00 0.00 0.00
0.03 0.07 0.04 0.08 0.07 0.01 0.00 0.00 0.00 0.00 0.00 0.00 0.03 0.06 0.05 0.05 0.06 0.04 0.03 0.02 0.01 0.00 0.01 0.00 0.00 0.00 0.00 0.00 0.01 0.01 0.02 0.03 0.02 0.00 0.00 0.00 0.01 0.00 0.00 0.01 0.01 0.00 0.01 0.01 0.00 0.00 0.00 0.00 0.00 0.00 0.00 0.00 0.00 0.00
0.03 0.08 0.11 0.08 0.02 0.00 0.00 0.00 0.00 0.00 0.00 0.01 0.03 0.04 0.05 0.03 0.03 0.02 0.02 0.01 0.01 0.01 0.01 0.00 0.00 0.00 0.01 0.00 0.00 0.01 0.01 0.02 0.00 0.01 0.00 0.00 0.00 0.00 0.00 0.00 0.00 0.00 0.00 0.00 0.00 0.00 0.00 0.00 0.00 0.00 0.00 0.00 0.00 0.00
0.06 0.05 0.08 0.03 0.00 0.00 0.00 0.00 0.00 0.00 0.01 0.03 0.03 0.02 0.01 0.01 0.02 0.01 0.00 0.00 0.01 0.01 0.01 0.01 0.02 0.02 0.01 0.01 0.02 0.00 0.00 0.01 0.00 0.01 0.00 0.00 0.00 0.00 0.00 0.00 0.00 0.00 0.00 0.00 0.00 0.00 0.00 0.00 0.00 0.00 0.00 0.00 0.00 0.00
0.04 0.05 0.01 0.00 0.00 0.00 0.00 0.00 0.00 0.00 0.01 0.01 0.01 0.00 0.00 0.00 0.00 0.00 0.01 0.03 0.00 0.00 0.01 0.00 0.00 0.01 0.00 0.01 0.01 0.00 0.00 0.00 0.00 0.01 0.01 0.00 0.00 0.00 0.00 0.00 0.00 0.00 0.00 0.00 0.00 0.00 0.00 0.00 0.00 0.00 0.00 0.00 0.00 0.00
0.05 0.02 0.00 0.00 0.00 0.00 0.00 0.00 0.00 0.01 0.01 0.01 0.01 0.00 0.00 0.01 0.00 0.00 0.01 0.02 0.00 0.00 0.00 0.00 0.00 0.00 0.00 0.00 0.00 0.00 0.00 0.00 0.00 0.00 0.01 0.01 0.00 0.00 0.00 0.00 0.00 0.00 0.00 0.00 0.00 0.00 0.00 0.00 0.00 0.00 0.00 0.00 0.00 0.00
0.13 0.05 0.00 0.00 0.00 0.00 0.01 0.00 0.00 0.01 0.00 0.00 0.00 0.00 0.00 0.00 0.00 0.00 0.00 0.00 0.01 0.00 0.00 0.00 0.00 0.00 0.00 0.00 0.00 0.00 0.00 0.00 0.00 0.00 0.00 0.01 0.00 0.00 0.00 0.00 0.00 0.00 0.00 0.00 0.00 0.00 0.00 0.00 0.00 0.00 0.00 0.00 0.00 0.00
0.06 0.01 0.00 0.00 0.00 0.00 0.05 0.01 0.00 0.00 0.00 0.00 0.00 0.00 0.00 0.00 0.01 0.00 0.02 0.02 0.01 0.00 0.00 0.00 0.00 0.00 0.00 0.00 0.00 0.00 0.00 0.00 0.00 0.00 0.00 0.00 0.00 0.00 0.00 0.00 0.00 0.00 0.00 0.00 0.00 0.00 0.00 0.00 0.00 0.00 0.00 0.00 0.00 0.00
0.00 0.00 0.00 0.00 0.00 0.01 0.06 0.01 0.00 0.00 0.00 0.00 0.01 0.00 0.01 0.00 0.01 0.01 0.01 0.00 0.00 0.00 0.00 0.00 0.00 0.00 0.00 0.00 0.00 0.00 0.00 0.00 0.00 0.00 0.00 0.00 0.00 0.00 0.00 0.00 0.00 0.00 0.00 0.00 0.00 0.00 0.00 0.00 0.00 0.00 0.00 0.00 0.00 0.00
0.00 0.00 0.00 0.00 0.00 0.01 0.04 0.05 0.00 0.00 0.01 0.00 0.00 0.00 0.00 0.01 0.00 0.01 0.00 0.00 0.00 0.00 0.00 0.00 0.00 0.00 0.00 0.00 0.00 0.00 0.00 0.00 0.00 0.00 0.00 0.00 0.00 0.00 0.00 0.00 0.00 0.00 0.00 0.00 0.00 0.00 0.00 0.00 0.00 0.00 0.00 0.00 0.00 0.00
0.00 0.00 0.00 0.02 0.02 0.00 0.01 0.02 0.01 0.00 0.00 0.00 0.00 0.00 0.01 0.01 0.00 0.00 0.00 0.00 0.00 0.00 0.00 0.00 0.01 0.01 0.01 0.01 0.00 0.00 0.00 0.00 0.00 0.00 0.00 0.00 0.00 0.00 0.00 0.00 0.00 0.00 0.00 0.00 0.01 0.01 0.01 0.00 0.00 0.00 0.00 0.00 0.00 0.00
0.00 0.00 0.00 0.01 0.01 0.00 0.00 0.01 0.01 0.00 0.00 0.00 0.00 0.00 0.01 0.00 0.01 0.00 0.00 0.00 0.00 0.00 0.00 0.00 0.01 0.01 0.01 0.00 0.00 0.00 0.00 0.00 0.00 0.00 0.00 0.00 0.00 0.00 0.00 0.00 0.01 0.01 0.00 0.00 0.00 0.01 0.01 0.00 0.00 0.00 0.00 0.00 0.00 0.00
0.00 0.03 0.01 0.01 0.01 0.01 0.01 0.00 0.00 0.00 0.00 0.00 0.00 0.01 0.01 0.00 0.00 0.00 0.00 0.00 0.00 0.00 0.00 0.00 0.00 0.00 0.00 0.00 0.00 0.00 0.00 0.00 0.00 0.00 0.00 0.00 0.00 0.00 0.00 0.00 0.00 0.00 0.00 0.00 0.00 0.00 0.00 0.00 0.00 0.00 0.00 0.00 0.00 0.00
0.00 0.00 0.01 0.02 0.02 0.03 0.03 0.01 0.00 0.00 0.00 0.00 0.00 0.00 0.00 0.00 0.01 0.01 0.02 0.01 0.00 0.00 0.00 0.00 0.00 0.00 0.00 0.00 0.00 0.00 0.00 0.00 0.00 0.00 0.00 0.01 0.01 0.01 0.00 0.01 0.00 0.00 0.00 0.00 0.00 0.00 0.00 0.00 0.00 0.00 0.00 0.00 0.00 0.00
0.00 0.00 0.00 0.01 0.03 0.02 0.01 0.01 0.00 0.00 0.00 0.00 0.00 0.00 0.00 0.00 0.00 0.00 0.00 0.00 0.00 0.00 0.00 0.00 0.01 0.01 0.01 0.01 0.02 0.02 0.01 0.00 0.00 0.01 0.01 0.01 0.02 0.02 0.01 0.00 0.00 0.00 0.00 0.00 0.00 0.00 0.00 0.00 0.00 0.00 0.00 0.00 0.00 0.00
0.00 0.00 0.00 0.00 0.00 0.00 0.01 0.00 0.00 0.00 0.00 0.00 0.00 0.00 0.00 0.00 0.00 0.00 0.00 0.00 0.00 0.01 0.01 0.00 0.01 0.00 0.01 0.01 0.02 0.03 0.03 0.01 0.00 0.00 0.00 0.01 0.01 0.01 0.01 0.00 0.00 0.00 0.00 0.00 0.00 0.01 0.00 0.00 0.00 0.00 0.00 0.00 0.00 0.00
0.00 0.01 0.00 0.00 0.00 0.00 0.01 0.00 0.00 0.00 0.00 0.00 0.00 0.00 0.00 0.00 0.00 0.00 0.00 0.00 0.00 0.01 0.01 0.01 0.01 0.01 0.01 0.00 0.00 0.00 0.01 0.02 0.01 0.01 0.01 0.00 0.00 0.01 0.01 0.01 0.01 0.00 0.00 0.00 0.00 0.00 0.00 0.00 0.00 0.00 0.00 0.00 0.00 0.00
0.03 0.03 0.02 0.01 0.00 0.01 0.01 0.01 0.01 0.00 0.00 0.00 0.00 0.01 0.00 0.00 0.00 0.00 0.00 0.01 0.01 0.01 0.01 0.00 0.00 0.01 0.01 0.01 0.01 0.02 0.00 0.01 0.01 0.00 0.00 0.00 0.01 0.02 0.02 0.01 0.01 0.00 0.00 0.00 0.00 0.00 0.00 0.00 0.00 0.00 0.00 0.00 0.00 0.00
0.10 0.10 0.10 0.08 0.05 0.03 0.03 0.08 0.10 0.04 0.01 0.00 0.00 0.01 0.00 0.00 0.00 0.00 0.00 0.01 0.01 0.01 0.01 0.01 0.02 0.02 0.03 0.04 0.04 0.04 0.03 0.03 0.03 0.01 0.00 0.00 0.01 0.01 0.01 0.01 0.00 0.00 0.00 0.00 0.00 0.00 0.00 0.00 0.00 0.00 0.00 0.00 0.00 0.00

GFSWCAN_prec_precacc12_111.txt.gz
Total_Precipitation_Accumulation
0.08 0.05 0.11 0.38 0.12 0.20 0.31 0.36 0.13 0.10 0.06 0.06 0.07 0.08 0.10 0.07 0.07 0.12 0.12 0.04 0.11 0.41 0.29 0.09 0.04 0.12 0.08 0.06 0.05 0.00 0.00 0.00 0.00 0.00 0.01 0.02 0.04 0.01 0.01 0.02 0.02 0.02 0.01 0.01 0.02 0.03 0.06 0.00 0.00 0.02 0.05 0.03 0.03 0.05
0.06 0.05 0.17 0.32 0.13 0.17 0.33 0.28 0.09 0.06 0.04 0.03 0.06 0.08 0.07 0.04 0.04 0.08 0.14 0.03 0.09 0.29 0.09 0.04 0.02 0.06 0.04 0.02 0.01 0.00 0.00 0.00 0.00 0.00 0.00 0.01 0.02 0.01 0.02 0.03 0.01 0.02 0.04 0.05 0.04 0.05 0.01 0.00 0.00 0.01 0.03 0.05 0.08 0.10
0.03 0.07 0.29 0.26 0.29 0.33 0.36 0.18 0.09 0.04 0.03 0.04 0.06 0.08 0.04 0.03 0.04 0.04 0.14 0.06 0.09 0.05 0.03 0.01 0.01 0.00 0.00 0.00 0.00 0.00 0.00 0.00 0.00 0.00 0.02 0.02 0.03 0.01 0.04 0.03 0.01 0.00 0.01 0.01 0.03 0.03 0.01 0.01 0.01 0.02 0.04 0.06 0.07 0.08
0.01 0.18 0.34 0.33 0.54 0.42 0.28 0.09 0.04 0.02 0.03 0.04 0.06 0.04 0.02 0.03 0.04 0.05 0.09 0.04 0.09 0.06 0.05 0.00 0.00 0.00 0.00 0.00 0.00 0.00 0.00 0.00 0.00 0.00 0.01 0.05 0.05 0.04 0.05 0.02 0.03 0.00 0.00 0.00 0.03 0.02 0.02 0.02 0.02 0.03 0.04 0.04 0.06 0.07
0.13 0.30 0.35 0.59 0.49 0.14 0.05 0.02 0.01 0.02 0.02 0.04 0.04 0.02 0.02 0.04 0.03 0.07 0.05 0.07 0.07 0.06 0.01 0.00 0.00 0.00 0.00 0.00 0.00 0.00 0.00 0.00 0.00 0.00 0.00 0.03 0.02 0.00 0.01 0.01 0.01 0.00 0.01 0.01 0.02 0.00 0.01 0.03 0.04 0.04 0.06 0.06 0.05 0.02
0.36 0.33 0.51 0.47 0.18 0.03 0.02 0.01 0.01 0.01 0.04 0.06 0.02 0.02 0.02 0.03 0.06 0.16 0.14 0.04 0.01 0.01 0.01 0.00 0.00 0.00 0.00 0.00 0.00 0.00 0.00 0.00 0.00 0.00 0.00 0.00 0.00 0.00 0.02 0.02 0.01 0.00 0.00 0.00 0.00 0.00 0.00 0.01 0.03 0.02 0.02 0.02 0.01 0.00
0.46 0.38 0.29 0.16 0.04 0.01 0.00 0.01 0.01 0.02 0.05 0.02 0.01 0.01 0.01 0.01 0.06 0.03 0.03 0.02 0.00 0.01 0.01 0.00 0.00 0.00 0.00 0.00 0.00 0.00 0.00 0.00 0.00 0.00 0.00 0.00 0.00 0.00 0.02 0.02 0.00 0.00 0.00 0.00 0.00 0.00 0.01 0.01 0.01 0.00 0.00 0.00 0.00 0.00
0.29 0.29 0.14 0.06 0.02 0.00 0.01 0.01 0.02 0.03 0.02 0.00 0.00 0.00 0.00 0.01 0.03 0.00 0.00 0.00 0.01 0.03 0.01 0.00 0.00 0.00 0.00 0.00 0.00 0.00 0.00 0.00 0.00 0.00 0.00 0.00 0.00 0.00 0.01 0.00 0.00 0.00 0.00 0.00 0.00 0.00 0.00 0.00 0.00 0.00 0.00 0.00 0.00 0.00
0.23 0.14 0.07 0.02 0.01 0.01 0.02 0.03 0.03 0.03 0.01 0.00 0.00 0.00 0.02 0.04 0.01 0.00 0.00 0.00 0.00 0.01 0.01 0.00 0.00 0.01 0.00 0.00 0.00 0.00 0.00 0.00 0.00 0.00 0.00 0.00 0.01 0.00 0.00 0.00 0.00 0.00 0.00 0.01 0.00 0.00 0.00 0.00 0.00 0.00 0.00 0.00 0.00 0.00
0.14 0.08 0.03 0.01 0.01 0.01 0.03 0.03 0.03 0.01 0.00 0.00 0.01 0.03 0.05 0.01 0.00 0.00 0.01 0.01 0.00 0.00 0.00 0.01 0.00 0.00 0.00 0.01 0.01 0.01 0.00 0.01 0.01 0.01 0.00 0.00 0.02 0.00 0.00 0.00 0.00 0.00 0.00 0.00 0.00 0.00 0.00 0.00 0.00 0.00 0.00 0.00 0.00 0.00
0.07 0.08 0.01 0.00 0.01 0.02 0.02 0.02 0.01 0.00 0.00 0.01 0.02 0.01 0.01 0.00 0.00 0.00 0.00 0.00 0.00 0.00 0.00 0.01 0.00 0.00 0.00 0.01 0.01 0.01 0.01 0.01 0.02 0.04 0.01 0.02 0.03 0.01 0.00 0.00 0.00 0.00 0.00 0.00 0.00 0.00 0.00 0.00 0.00 0.00 0.00 0.00 0.00 0.00
0.10 0.03 0.00 0.01 0.02 0.02 0.00 0.00 0.00 0.00 0.00 0.00 0.00 0.00 0.00 0.00 0.00 0.00 0.00 0.00 0.00 0.00 0.00 0.01 0.00 0.00 0.00 0.00 0.01 0.00 0.01 0.02 0.09 0.04 0.02 0.07 0.05 0.01 0.01 0.01 0.01 0.00 0.00 0.00 0.00 0.00 0.00 0.00 0.00 0.00 0.00 0.00 0.00 0.00
0.04 0.01 0.01 0.01 0.02 0.01 0.00 0.00 0.00 0.00 0.00 0.00 0.00 0.00 0.00 0.00 0.00 0.00 0.00 0.00 0.01 0.00 0.01 0.01 0.01 0.01 0.01 0.01 0.01 0.00 0.01 0.06 0.06 0.10 0.12 0.10 0.02 0.01 0.01 0.01 0.01 0.00 0.00 0.01 0.01 0.00 0.00 0.00 0.00 0.00 0.00 0.00 0.00 0.00
0.01 0.01 0.01 0.02 0.01 0.00 0.00 0.00 0.00 0.00 0.00 0.00 0.00 0.00 0.00 0.00 0.01 0.01 0.01 0.01 0.01 0.01 0.02 0.01 0.01 0.01 0.02 0.01 0.00 0.01 0.01 0.00 0.03 0.10 0.18 0.01 0.01 0.01 0.02 0.01 0.00 0.02 0.03 0.03 0.02 0.01 0.00 0.00 0.00 0.00 0.00 0.00 0.00 0.00
0.01 0.01 0.01 0.01 0.02 0.01 0.00 0.00 0.00 0.00 0.00 0.00 0.00 0.01 0.02 0.02 0.03 0.03 0.03 0.02 0.00 0.02 0.01 0.01 0.01 0.01 0.00 0.00 0.00 0.00 0.01 0.01 0.06 0.19 0.08 0.00 0.01 0.02 0.03 0.02 0.02 0.02 0.03 0.03 0.02 0.01 0.01 0.00 0.00 0.00 0.00 0.00 0.00 0.00
0.00 0.02 0.02 0.03 0.01 0.00 0.00 0.00 0.00 0.00 0.00 0.00 0.02 0.05 0.05 0.05 0.07 0.06 0.04 0.02 0.01 0.03 0.03 0.01 0.01 0.01 0.00 0.00 0.00 0.00 0.02 0.10 0.08 0.01 0.00 0.00 0.01 0.02 0.02 0.02 0.02 0.02 0.02 0.02 0.02 0.01 0.01 0.00 0.00 0.00 0.00 0.00 0.00 0.00
0.00 0.02 0.04 0.01 0.00 0.00 0.00 0.00 0.00 0.00 0.00 0.02 0.04 0.06 0.09 0.04 0.06 0.04 0.03 0.02 0.03 0.07 0.03 0.01 0.00 0.00 0.00 0.00 0.01 0.01 0.04 0.04 0.01 0.01 0.01 0.00 0.01 0.02 0.05 0.05 0.04 0.04 0.02 0.02 0.02 0.01 0.01 0.00 0.00 0.00 0.00 0.00 0.00 0.00
0.01 0.01 0.00 0.00 0.00 0.00 0.00 0.00 0.00 0.00 0.02 0.07 0.06 0.06 0.02 0.02 0.02 0.01 0.00 0.00 0.05 0.03 0.01 0.01 0.01 0.00 0.01 0.03 0.08 0.01 0.01 0.00 0.00 0.01 0.01 0.01 0.01 0.01 0.03 0.04 0.04 0.03 0.01 0.01 0.01 0.00 0.00 0.00 0.00 0.00 0.00 0.00 0.00 0.00
0.00 0.00 0.00 0.00 0.00 0.00 0.00 0.00 0.00 0.00 0.03 0.03 0.03 0.02 0.01 0.01 0.01 0.00 0.00 0.00 0.00 0.01 0.00 0.00 0.00 0.01 0.03 0.03 0.02 0.00 0.01 0.00 0.01 0.01 0.01 0.01 0.00 0.00 0.00 0.00 0.01 0.01 0.01 0.00 0.00 0.00 0.00 0.00 0.00 0.00 0.00 0.00 0.00 0.00
0.00 0.00 0.00 0.00 0.00 0.00 0.00 0.00 0.00 0.01 0.03 0.02 0.02 0.01 0.01 0.01 0.01 0.01 0.01 0.01 0.00 0.00 0.00 0.01 0.01 0.01 0.01 0.01 0.00 0.00 0.00 0.00 0.00 0.01 0.01 0.01 0.01 0.00 0.00 0.00 0.00 0.00 0.00 0.00 0.00 0.00 0.00 0.00 0.00 0.00 0.00 0.00 0.00 0.00
0.01 0.00 0.00 0.00 0.00 0.00 0.00 0.01 0.00 0.01 0.01 0.01 0.00 0.00 0.00 0.01 0.00 0.01 0.01 0.00 0.00 0.00 0.01 0.01 0.00 0.00 0.00 0.00 0.00 0.00 0.00 0.00 0.00 0.00 0.00 0.00 0.00 0.00 0.00 0.00 0.00 0.00 0.00 0.00 0.00 0.00 0.00 0.00 0.00 0.00 0.00 0.01 0.00 0.00
0.01 0.00 0.00 0.00 0.00 0.00 0.00 0.00 0.00 0.00 0.00 0.00 0.00 0.01 0.00 0.01 0.01 0.01 0.00 0.00 0.01 0.00 0.01 0.00 0.00 0.00 0.00 0.00 0.00 0.00 0.00 0.00 0.00 0.00 0.00 0.00 0.00 0.00 0.00 0.00 0.00 0.00 0.00 0.00 0.00 0.00 0.00 0.00 0.00 0.00 0.01 0.00 0.00 0.00
0.00 0.00 0.00 0.00 0.00 0.00 0.01 0.01 0.01 0.00 0.01 0.00 0.00 0.00 0.00 0.01 0.01 0.00 0.01 0.00 0.00 0.00 0.00 0.00 0.00 0.00 0.00 0.00 0.00 0.00 0.00 0.00 0.00 0.00 0.00 0.00 0.00 0.00 0.00 0.00 0.00 0.00 0.00 0.00 0.00 0.00 0.01 0.00 0.00 0.01 0.00 0.00 0.00 0.00
0.00 0.00 0.00 0.00 0.00 0.00 0.01 0.01 0.00 0.00 0.00 0.00 0.00 0.01 0.00 0.00 0.00 0.00 0.00 0.01 0.00 0.00 0.00 0.00 0.00 0.00 0.00 0.00 0.00 0.00 0.00 0.00 0.00 0.00 0.00 0.00 0.00 0.00 0.00 0.00 0.00 0.00 0.00 0.00 0.00 0.02 0.01 0.00 0.01 0.00 0.01 0.01 0.01 0.01
0.00 0.00 0.00 0.00 0.00 0.00 0.01 0.01 0.00 0.00 0.00 0.00 0.00 0.00 0.00 0.00 0.00 0.00 0.00 0.01 0.00 0.00 0.00 0.00 0.01 0.00 0.01 0.01 0.00 0.00 0.00 0.00 0.00 0.00 0.00 0.00 0.00 0.01 0.00 0.00 0.00 0.00 0.00 0.01 0.02 0.02 0.02 0.01 0.01 0.01 0.01 0.01 0.00 0.00
0.00 0.00 0.00 0.00 0.00 0.01 0.01 0.01 0.01 0.00 0.00 0.00 0.00 0.00 0.00 0.00 0.00 0.01 0.01 0.00 0.00 0.00 0.00 0.01 0.01 0.01 0.01 0.00 0.01 0.00 0.00 0.00 0.00 0.00 0.00 0.00 0.00 0.00 0.01 0.01 0.02 0.03 0.01 0.01 0.01 0.01 0.02 0.01 0.02 0.01 0.01 0.01 0.00 0.00
0.00 0.00 0.00 0.00 0.00 0.01 0.01 0.01 0.01 0.01 0.00 0.00 0.00 0.00 0.01 0.00 0.01 0.01 0.00 0.00 0.00 0.00 0.00 0.00 0.00 0.01 0.01 0.00 0.00 0.00 0.00 0.00 0.00 0.00 0.00 0.00 0.00 0.00 0.00 0.00 0.00 0.00 0.01 0.02 0.01 0.01 0.00 0.01 0.01 0.01 0.01 0.01 0.00 0.00
0.00 0.00 0.01 0.00 0.01 0.02 0.04 0.03 0.01 0.01 0.01 0.00 0.00 0.01 0.00 0.01 0.06 0.02 0.02 0.01 0.00 0.00 0.00 0.00 0.00 0.00 0.00 0.00 0.00 0.00 0.00 0.00 0.00 0.00 0.00 0.01 0.01 0.01 0.01 0.01 0.00 0.00 0.01 0.02 0.01 0.01 0.01 0.01 0.01 0.01 0.00 0.00 0.00 0.00
0.00 0.00 0.00 0.01 0.03 0.03 0.02 0.04 0.06 0.04 0.01 0.01 0.01 0.02 0.02 0.00 0.00 0.00 0.00 0.00 0.00 0.00 0.00 0.00 0.01 0.01 0.01 0.01 0.01 0.00 0.00 0.00 0.00 0.00 0.00 0.01 0.02 0.03 0.02 0.02 0.02 0.01 0.02 0.04 0.03 0.01 0.01 0.01 0.00 0.00 0.00 0.00 0.00 0.00
0.00 0.00 0.00 0.00 0.00 0.02 0.03 0.03 0.04 0.01 0.00 0.00 0.00 0.00 0.00 0.00 0.00 0.00 0.00 0.00 0.00 0.00 0.00 0.00 0.01 0.01 0.01 0.01 0.02 0.02 0.01 0.01 0.01 0.01 0.01 0.00 0.00 0.01 0.03 0.03 0.02 0.02 0.01 0.01 0.03 0.04 0.01 0.01 0.00 0.00 0.00 0.00 0.00 0.00
0.01 0.00 0.00 0.01 0.01 0.01 0.01 0.00 0.00 0.00 0.00 0.00 0.00 0.00 0.01 0.00 0.00 0.00 0.00 0.00 0.00 0.00 0.00 0.01 0.01 0.01 0.01 0.01 0.01 0.01 0.02 0.02 0.00 0.01 0.01 0.00 0.00 0.01 0.02 0.02 0.01 0.01 0.00 0.00 0.00 0.00 0.00 0.00 0.00 0.00 0.00 0.00 0.00 0.00
0.01 0.01 0.01 0.01 0.02 0.01 0.00 0.00 0.00 0.00 0.00 0.00 0.00 0.00 0.00 0.00 0.00 0.01 0.01 0.00 0.01 0.01 0.01 0.01 0.01 0.01 0.01 0.01 0.01 0.01 0.00 0.00 0.01 0.01 0.00 0.00 0.01 0.02 0.03 0.02 0.01 0.00 0.00 0.00 0.00 0.00 0.00 0.00 0.00 0.00 0.00 0.00 0.00 0.00
0.05 0.05 0.05 0.04 0.02 0.01 0.01 0.03 0.03 0.01 0.01 0.01 0.01 0.01 0.01 0.00 0.01 0.02 0.01 0.01 0.02 0.03 0.04 0.04 0.04 0.03 0.02 0.03 0.03 0.02 0.01 0.01 0.02 0.02 0.01 0.00 0.01 0.02 0.02 0.02 0.01 0.01 0.00 0.00 0.00 0.00 0.00 0.00 0.00 0.00 0.00 0.00 0.00 0.00

GFSWCAN_prec_precacc12_114.txt.gz
Total_Precipitation_Accumulation
0.03 0.05 0.08 0.13 0.15 0.24 0.33 0.37 0.16 0.13 0.09 0.08 0.09 0.09 0.13 0.13 0.13 0.25 0.17 0.05 0.12 0.44 0.33 0.27 0.07 0.13 0.11 0.08 0.08 0.04 0.06 0.02 0.00 0.00 0.01 0.02 0.04 0.01 0.01 0.01 0.01 0.01 0.01 0.01 0.02 0.02 0.05 0.00 0.00 0.01 0.04 0.01 0.00 0.01
0.03 0.05 0.06 0.14 0.13 0.19 0.34 0.30 0.10 0.07 0.05 0.05 0.07 0.10 0.16 0.20 0.13 0.13 0.19 0.08 0.11 0.32 0.21 0.26 0.16 0.08 0.06 0.06 0.01 0.00 0.01 0.00 0.00 0.00 0.00 0.01 0.03 0.02 0.02 0.02 0.01 0.02 0.03 0.05 0.03 0.04 0.01 0.00 0.00 0.00 0.01 0.01 0.02 0.02
0.02 0.04 0.11 0.21 0.29 0.32 0.34 0.18 0.08 0.04 0.04 0.04 0.07 0.11 0.17 0.23 0.12 0.06 0.16 0.10 0.13 0.09 0.10 0.16 0.09 0.06 0.04 0.03 0.00 0.00 0.00 0.00 0.00 0.00 0.02 0.03 0.03 0.02 0.03 0.03 0.00 0.00 0.00 0.00 0.02 0.01 0.00 0.00 0.00 0.00 0.01 0.02 0.02 0.02
0.00 0.06 0.25 0.32 0.54 0.45 0.38 0.11 0.05 0.03 0.03 0.04 0.07 0.09 0.11 0.10 0.06 0.06 0.10 0.07 0.15 0.09 0.06 0.04 0.01 0.02 0.04 0.01 0.00 0.00 0.00 0.00 0.00 0.00 0.01 0.05 0.06 0.04 0.05 0.01 0.03 0.00 0.00 0.00 0.02 0.01 0.00 0.01 0.00 0.00 0.01 0.01 0.02 0.02
0.01 0.12 0.34 0.69 0.70 0.32 0.27 0.05 0.02 0.03 0.03 0.05 0.07 0.07 0.05 0.05 0.04 0.08 0.07 0.10 0.11 0.07 0.01 0.00 0.00 0.00 0.00 0.00 0.00 0.00 0.00 0.00 0.00 0.00 0.00 0.03 0.02 0.01 0.00 0.01 0.01 0.00 0.01 0.01 0.02 0.00 0.00 0.01 0.00 0.00 0.01 0.01 0.01 0.00
0.07 0.18 0.67 0.86 0.39 0.16 0.08 0.02 0.02 0.02 0.05 0.07 0.04 0.03 0.03 0.04 0.11 0.17 0.25 0.11 0.02 0.01 0.01 0.00 0.00 0.00 0.00 0.00 0.00 0.00 0.00 0.00 0.00 0.00 0.00 0.00 0.00 0.00 0.01 0.01 0.00 0.00 0.00 0.00 0.00 0.00 0.00 0.00 0.00 0.00 0.00 0.01 0.00 0.00
0.17 0.50 0.59 0.37 0.08 0.03 0.01 0.00 0.01 0.02 0.05 0.02 0.01 0.02 0.05 0.07 0.07 0.04 0.07 0.05 0.00 0.01 0.01 0.00 0.00 0.00 0.00 0.00 0.00 0.00 0.00 0.00 0.00 0.00 0.00 0.00 0.00 0.00 0.02 0.02 0.00 0.00 0.00 0.00 0.00 0.00 0.01 0.00 0.00 0.00 0.00 0.00 0.00 0.00
0.37 0.52 0.25 0.07 0.02 0.00 0.00 0.01 0.02 0.03 0.02 0.01 0.01 0.04 0.07 0.04 0.03 0.00 0.00 0.00 0.01 0.03 0.01 0.00 0.00 0.00 0.00 0.00 0.00 0.00 0.00 0.00 0.00 0.00 0.00 0.00 0.00 0.00 0.00 0.00 0.00 0.00 0.00 0.00 0.00 0.00 0.00 0.00 0.00 0.00 0.00 0.00 0.00 0.00
0.41 0.25 0.09 0.02 0.01 0.01 0.02 0.02 0.03 0.03 0.02 0.01 0.03 0.06 0.07 0.06 0.01 0.00 0.00 0.00 0.00 0.01 0.01 0.00 0.00 0.00 0.00 0.00 0.00 0.00 0.00 0.00 0.00 0.00 0.00 0.00 0.01 0.00 0.00 0.00 0.00 0.00 0.00 0.00 0.00 0.00 0.00 0.00 0.00 0.00 0.00 0.00 0.00 0.00
0.24 0.10 0.04 0.01 0.01 0.01 0.02 0.03 0.02 0.01 0.01 0.01 0.04 0.07 0.09 0.01 0.00 0.00 0.01 0.01 0.00 0.00 0.00 0.01 0.00 0.00 0.00 0.01 0.01 0.00 0.00 0.01 0.01 0.01 0.00 0.00 0.02 0.00 0.00 0.00 0.00 0.00 0.00 0.00 0.00 0.00 0.00 0.00 0.00 0.00 0.00 0.00 0.00 0.00
0.10 0.08 0.01 0.01 0.01 0.02 0.02 0.01 0.01 0.00 0.00 0.02 0.04 0.01 0.01 0.00 0.00 0.00 0.00 0.00 0.00 0.00 0.00 0.01 0.00 0.00 0.00 0.01 0.01 0.01 0.01 0.01 0.02 0.04 0.01 0.02 0.02 0.00 0.00 0.00 0.00 0.00 0.00 0.00 0.00 0.00 0.00 0.00 0.00 0.00 0.00 0.00 0.00 0.00
0.11 0.02 0.01 0.01 0.02 0.01 0.00 0.00 0.00 0.00 0.00 0.00 0.00 0.00 0.00 0.00 0.00 0.00 0.00 0.00 0.00 0.00 0.00 0.01 0.00 0.00 0.00 0.00 0.01 0.00 0.01 0.01 0.07 0.04 0.02 0.05 0.04 0.00 0.00 0.00 0.00 0.00 0.00 0.00 0.00 0.00 0.00 0.00 0.00 0.00 0.00 0.00 0.00 0.00
0.04 0.01 0.01 0.01 0.00 0.00 0.00 0.00 0.00 0.00 0.00 0.00 0.00 0.00 0.00 0.00 0.00 0.00 0.00 0.00 0.00 0.00 0.01 0.01 0.01 0.01 0.01 0.01 0.01 0.00 0.01 0.04 0.03 0.05 0.10 0.08 0.01 0.01 0.00 0.00 0.00 0.00 0.00 0.00 0.00 0.00 0.00 0.00 0.00 0.01 0.01 0.00 0.00 0.00
0.01 0.01 0.01 0.01 0.00 0.00 0.00 0.00 0.00 0.00 0.00 0.00 0.00 0.00 0.00 0.00 0.01 0.01 0.01 0.00 0.00 0.01 0.02 0.01 0.01 0.01 0.02 0.01 0.00 0.01 0.01 0.00 0.02 0.09 0.17 0.01 0.01 0.01 0.01 0.01 0.00 0.02 0.02 0.02 0.01 0.00 0.00 0.01 0.03 0.04 0.02 0.01 0.00 0.00
0.01 0.01 0.01 0.00 0.00 0.00 0.00 0.00 0.00 0.00 0.00 0.00 0.00 0.01 0.01 0.02 0.02 0.02 0.01 0.01 0.00 0.02 0.01 0.01 0.01 0.01 0.00 0.00 0.00 0.00 0.00 0.01 0.05 0.19 0.09 0.00 0.00 0.02 0.03 0.02 0.02 0.03 0.03 0.03 0.02 0.01 0.01 0.01 0.01 0.04 0.04 0.01 0.00 0.00
0.00 0.02 0.01 0.01 0.00 0.00 0.00 0.00 0.00 0.00 0.00 0.00 0.01 0.04 0.04 0.03 0.05 0.04 0.03 0.01 0.01 0.03 0.03 0.01 0.01 0.01 0.00 0.00 0.00 0.00 0.02 0.10 0.08 0.01 0.01 0.00 0.01 0.02 0.02 0.03 0.02 0.02 0.02 0.02 0.02 0.03 0.03 0.02 0.01 0.02 0.02 0.01 0.00 0.00
0.00 0.01 0.01 0.00 0.00 0.00 0.00 0.00 0.00 0.00 0.00 0.02 0.04 0.08 0.09 0.04 0.07 0.06 0.03 0.02 0.03 0.06 0.02 0.01 0.00 0.00 0.00 0.00 0.01 0.01 0.04 0.04 0.01 0.00 0.00 0.00 0.01 0.03 0.06 0.06 0.05 0.04 0.03 0.03 0.03 0.04 0.05 0.03 0.02 0.01 0.00 0.00 0.00 0.00
0.00 0.00 0.00 0.00 0.00 0.00 0.00 0.00 0.00 0.00 0.03 0.08 0.07 0.06 0.01 0.02 0.03 0.01 0.00 0.00 0.05 0.02 0.01 0.00 0.00 0.00 0.01 0.03 0.08 0.01 0.00 0.00 0.00 0.00 0.01 0.01 0.01 0.02 0.04 0.04 0.05 0.04 0.03 0.02 0.03 0.02 0.03 0.02 0.01 0.00 0.00 0.00 0.00 0.00
0.00 0.00 0.00 0.00 0.00 0.00 0.00 0.00 0.00 0.01 0.04 0.03 0.04 0.02 0.01 0.01 0.00 0.00 0.00 0.00 0.00 0.01 0.00 0.00 0.00 0.02 0.03 0.04 0.02 0.00 0.00 0.00 0.01 0.01 0.01 0.01 0.00 0.00 0.01 0.01 0.01 0.02 0.02 0.02 0.01 0.01 0.01 0.00 0.00 0.00 0.00 0.00 0.00 0.00
0.00 0.00 0.00 0.00 0.00 0.00 0.00 0.00 0.00 0.01 0.02 0.02 0.01 0.01 0.01 0.01 0.01 0.01 0.01 0.00 0.00 0.00 0.00 0.00 0.01 0.02 0.02 0.01 0.00 0.00 0.00 0.00 0.00 0.01 0.02 0.02 0.01 0.00 0.00 0.00 0.00 0.00 0.00 0.01 0.01 0.00 0.00 0.00 0.00 0.00 0.00 0.00 0.00 0.00
0.00 0.00 0.00 0.00 0.00 0.00 0.00 0.01 0.00 0.00 0.00 0.01 0.00 0.00 0.00 0.00 0.00 0.01 0.01 0.00 0.00 0.00 0.01 0.01 0.00 0.01 0.01 0.00 0.00 0.00 0.00 0.00 0.00 0.00 0.00 0.01 0.01 0.00 0.00 0.00 0.00 0.00 0.00 0.00 0.00 0.00 0.00 0.00 0.00 0.00 0.00 0.01 0.00 0.00
0.00 0.00 0.00 0.00 0.00 0.00 0.00 0.00 0.00 0.00 0.00 0.00 0.00 0.01 0.01 0.01 0.01 0.01 0.00 0.00 0.00 0.00 0.01 0.00 0.00 0.00 0.00 0.00 0.00 0.00 0.00 0.00 0.00 0.00 0.00 0.00 0.00 0.00 0.01 0.01 0.00 0.00 0.00 0.00 0.00 0.00 0.00 0.00 0.00 0.00 0.01 0.01 0.00 0.00
0.00 0.00 0.00 0.00 0.00 0.00 0.01 0.01 0.01 0.01 0.01 0.00 0.00 0.00 0.00 0.00 0.00 0.00 0.00 0.00 0.00 0.00 0.00 0.00 0.00 0.00 0.00 0.00 0.00 0.00 0.00 0.00 0.00 0.00 0.00 0.00 0.00 0.00 0.00 0.00 0.00 0.00 0.00 0.00 0.00 0.00 0.01 0.00 0.00 0.01 0.00 0.00 0.00 0.00
0.00 0.00 0.00 0.00 0.00 0.00 0.00 0.00 0.00 0.00 0.00 0.00 0.00 0.00 0.00 0.00 0.00 0.00 0.00 0.02 0.01 0.00 0.00 0.00 0.00 0.00 0.00 0.00 0.00 0.00 0.00 0.00 0.00 0.00 0.00 0.00 0.00 0.00 0.00 0.00 0.00 0.00 0.00 0.00 0.00 0.02 0.01 0.01 0.01 0.00 0.01 0.01 0.01 0.00
0.00 0.00 0.00 0.00 0.00 0.00 0.01 0.00 0.00 0.00 0.00 0.00 0.00 0.00 0.00 0.00 0.00 0.00 0.01 0.01 0.00 0.00 0.00 0.00 0.00 0.00 0.00 0.00 0.00 0.00 0.00 0.00 0.00 0.00 0.00 0.00 0.00 0.01 0.01 0.00 0.01 0.00 0.00 0.01 0.02 0.03 0.03 0.02 0.02 0.01 0.01 0.01 0.00 0.00
0.00 0.00 0.00 0.00 0.00 0.01 0.01 0.01 0.00 0.00 0.00 0.00 0.00 0.00 0.00 0.00 0.00 0.01 0.02 0.01 0.00 0.00 0.00 0.01 0.01 0.01 0.01 0.01 0.00 0.00 0.00 0.00 0.00 0.00 0.00 0.00 0.00 0.00 0.01 0.02 0.03 0.04 0.01 0.01 0.01 0.01 0.02 0.02 0.02 0.01 0.01 0.01 0.00 0.00
0.00 0.00 0.00 0.00 0.00 0.00 0.01 0.01 0.01 0.01 0.00 0.00 0.00 0.00 0.00 0.00 0.02 0.01 0.01 0.00 0.00 0.00 0.00 0.00 0.00 0.01 0.01 0.01 0.00 0.00 0.00 0.00 0.00 0.00 0.00 0.00 0.00 0.00 0.00 0.00 0.01 0.00 0.01 0.02 0.01 0.01 0.01 0.02 0.02 0.02 0.01 0.01 0.00 0.00
0.00 0.00 0.00 0.00 0.00 0.01 0.03 0.03 0.01 0.01 0.01 0.00 0.00 0.00 0.00 0.01 0.07 0.01 0.02 0.01 0.00 0.00 0.00 0.00 0.00 0.00 0.00 0.00 0.00 0.00 0.00 0.00 0.00 0.00 0.00 0.01 0.02 0.02 0.01 0.01 0.00 0.00 0.01 0.02 0.02 0.01 0.01 0.01 0.01 0.01 0.00 0.00 0.00 0.00
0.00 0.00 0.00 0.00 0.01 0.02 0.02 0.04 0.07 0.04 0.01 0.01 0.01 0.02 0.02 0.00 0.01 0.00 0.00 0.00 0.00 0.00 0.00 0.00 0.01 0.00 0.01 0.01 0.00 0.00 0.00 0.00 0.00 0.01 0.00 0.01 0.02 0.04 0.03 0.02 0.02 0.01 0.02 0.05 0.05 0.02 0.01 0.01 0.01 0.00 0.00 0.00 0.00 0.00
0.00 0.00 0.00 0.00 0.00 0.02 0.03 0.03 0.04 0.02 0.00 0.00 0.00 0.00 0.00 0.00 0.00 0.00 0.00 0.00 0.00 0.00 0.00 0.00 0.00 0.01 0.01 0.01 0.02 0.01 0.01 0.01 0.01 0.01 0.01 0.00 0.00 0.02 0.04 0.03 0.02 0.02 0.02 0.02 0.05 0.07 0.03 0.02 0.02 0.01 0.00 0.00 0.00 0.00
0.00 0.00 0.00 0.01 0.01 0.01 0.01 0.00 0.00 0.00 0.00 0.00 0.00 0.00 0.02 0.01 0.00 0.00 0.00 0.01 0.00 0.00 0.01 0.01 0.01 0.01 0.01 0.01 0.01 0.01 0.02 0.02 0.01 0.01 0.01 0.00 0.00 0.01 0.02 0.02 0.01 0.01 0.01 0.00 0.00 0.00 0.01 0.01 0.01 0.00 0.00 0.00 0.00 0.00
0.01 0.01 0.01 0.01 0.02 0.01 0.00 0.00 0.00 0.00 0.00 0.00 0.00 0.00 0.00 0.00 0.00 0.01 0.01 0.01 0.01 0.01 0.02 0.01 0.01 0.01 0.00 0.01 0.01 0.00 0.00 0.00 0.00 0.00 0.00 0.00 0.01 0.01 0.02 0.02 0.02 0.01 0.01 0.01 0.01 0.01 0.00 0.00 0.00 0.00 0.00 0.00 0.00 0.00
0.03 0.03 0.03 0.03 0.01 0.01 0.00 0.01 0.01 0.01 0.01 0.01 0.01 0.01 0.01 0.00 0.01 0.02 0.01 0.01 0.02 0.03 0.04 0.05 0.05 0.04 0.02 0.02 0.03 0.02 0.01 0.01 0.01 0.01 0.00 0.00 0.01 0.02 0.02 0.02 0.01 0.01 0.01 0.01 0.01 0.01 0.00 0.00 0.00 0.00 0.00 0.00 0.00 0.00

GFSWCAN_prec_precacc12_117.txt.gz
Total_Precipitation_Accumulation
0.01 0.03 0.08 0.13 0.27 0.35 0.28 0.27 0.14 0.13 0.09 0.09 0.10 0.10 0.13 0.15 0.17 0.27 0.16 0.08 0.23 0.55 0.34 0.27 0.07 0.13 0.11 0.08 0.08 0.04 0.08 0.13 0.20 0.18 0.05 0.04 0.04 0.01 0.01 0.00 0.00 0.00 0.00 0.00 0.01 0.01 0.02 0.00 0.00 0.00 0.01 0.00 0.00 0.00
0.01 0.03 0.05 0.06 0.12 0.32 0.34 0.31 0.16 0.10 0.08 0.07 0.07 0.09 0.15 0.22 0.16 0.20 0.25 0.12 0.18 0.39 0.22 0.26 0.17 0.10 0.06 0.07 0.01 0.00 0.02 0.01 0.04 0.04 0.01 0.01 0.03 0.02 0.01 0.01 0.00 0.01 0.02 0.02 0.01 0.01 0.00 0.00 0.00 0.00 0.00 0.00 0.00 0.00
0.01 0.02 0.02 0.07 0.22 0.31 0.33 0.19 0.15 0.09 0.06 0.06 0.07 0.11 0.19 0.26 0.17 0.18 0.23 0.20 0.17 0.11 0.10 0.19 0.20 0.10 0.05 0.04 0.01 0.00 0.00 0.00 0.00 0.01 0.02 0.02 0.03 0.01 0.02 0.02 0.00 0.00 0.00 0.00 0.01 0.01 0.00 0.00 0.00 0.00 0.00 0.00 0.00 0.00
0.00 0.02 0.11 0.25 0.52 0.43 0.37 0.10 0.06 0.05 0.05 0.06 0.08 0.13 0.19 0.30 0.14 0.16 0.18 0.16 0.18 0.09 0.07 0.13 0.06 0.12 0.09 0.02 0.01 0.00 0.00 0.00 0.00 0.00 0.01 0.05 0.06 0.04 0.04 0.01 0.02 0.00 0.00 0.00 0.02 0.01 0.00 0.01 0.00 0.00 0.00 0.00 0.00 0.00
0.01 0.06 0.28 0.68 0.70 0.33 0.28 0.05 0.03 0.03 0.02 0.05 0.07 0.12 0.20 0.30 0.12 0.11 0.12 0.13 0.12 0.07 0.01 0.08 0.07 0.09 0.06 0.00 0.01 0.00 0.00 0.00 0.00 0.00 0.00 0.03 0.02 0.01 0.00 0.01 0.01 0.00 0.00 0.00 0.01 0.00 0.00 0.00 0.00 0.00 0.00 0.00 0.00 0.00
0.02 0.16 0.68 1.01 0.66 0.36 0.12 0.03 0.02 0.02 0.02 0.05 0.07 0.12 0.24 0.20 0.16 0.19 0.30 0.13 0.04 0.01 0.01 0.01 0.02 0.02 0.00 0.00 0.00 0.00 0.00 0.00 0.00 0.00 0.00 0.00 0.00 0.01 0.01 0.01 0.00 0.00 0.00 0.00 0.00 0.00 0.00 0.00 0.00 0.00 0.00 0.00 0.00 0.00
0.08 0.65 0.85 0.65 0.34 0.10 0.03 0.01 0.01 0.02 0.04 0.05 0.08 0.12 0.16 0.10 0.08 0.04 0.08 0.06 0.00 0.01 0.01 0.00 0.00 0.00 0.00 0.00 0.00 0.00 0.00 0.00 0.00 0.00 0.00 0.00 0.00 0.00 0.02 0.01 0.00 0.00 0.00 0.00 0.00 0.00 0.00 0.00 0.00 0.00 0.00 0.00 0.00 0.00
0.48 0.63 0.31 0.12 0.06 0.02 0.01 0.02 0.03 0.04 0.05 0.07 0.06 0.07 0.09 0.05 0.04 0.00 0.00 0.00 0.01 0.03 0.01 0.00 0.00 0.00 0.00 0.00 0.00 0.00 0.00 0.00 0.00 0.00 0.00 0.00 0.00 0.00 0.00 0.00 0.00 0.00 0.00 0.00 0.00 0.00 0.00 0.00 0.00 0.00 0.00 0.00 0.00 0.00
0.47 0.26 0.09 0.03 0.02 0.01 0.02 0.03 0.04 0.04 0.03 0.03 0.07 0.14 0.14 0.08 0.04 0.02 0.00 0.00 0.00 0.01 0.01 0.00 0.00 0.00 0.00 0.00 0.00 0.00 0.00 0.00 0.00 0.00 0.00 0.00 0.01 0.00 0.00 0.00 0.00 0.00 0.00 0.00 0.00 0.00 0.00 0.00 0.00 0.00 0.00 0.00 0.00 0.00
0.24 0.10 0.05 0.02 0.01 0.02 0.03 0.03 0.03 0.02 0.03 0.05 0.10 0.10 0.13 0.03 0.01 0.00 0.01 0.01 0.00 0.00 0.00 0.01 0.00 0.00 0.00 0.00 0.00 0.00 0.00 0.00 0.01 0.00 0.00 0.00 0.01 0.00 0.00 0.00 0.00 0.00 0.00 0.00 0.00 0.00 0.00 0.00 0.00 0.00 0.00 0.00 0.00 0.00
0.10 0.08 0.02 0.01 0.02 0.03 0.02 0.02 0.03 0.03 0.04 0.04 0.04 0.02 0.03 0.02 0.00 0.00 0.00 0.00 0.00 0.00 0.00 0.01 0.00 0.00 0.00 0.00 0.00 0.00 0.01 0.00 0.01 0.02 0.00 0.01 0.01 0.00 0.00 0.00 0.00 0.00 0.00 0.00 0.00 0.00 0.00 0.00 0.00 0.00 0.00 0.00 0.00 0.00
0.11 0.03 0.02 0.03 0.02 0.01 0.01 0.01 0.00 0.01 0.02 0.00 0.00 0.00 0.00 0.00 0.00 0.00 0.00 0.00 0.00 0.00 0.00 0.00 0.00 0.00 0.00 0.00 0.01 0.00 0.00 0.00 0.03 0.02 0.01 0.02 0.02 0.00 0.00 0.00 0.00 0.00 0.00 0.00 0.00 0.00 0.00 0.00 0.00 0.00 0.00 0.00 0.00 0.00
0.04 0.02 0.02 0.01 0.00 0.00 0.00 0.00 0.00 0.01 0.00 0.00 0.00 0.00 0.00 0.00 0.00 0.00 0.00 0.00 0.00 0.00 0.00 0.01 0.01 0.01 0.01 0.01 0.00 0.00 0.00 0.02 0.02 0.02 0.04 0.04 0.01 0.00 0.00 0.00 0.00 0.00 0.00 0.00 0.00 0.00 0.00 0.00 0.00 0.01 0.01 0.00 0.00 0.00
0.02 0.01 0.01 0.01 0.00 0.00 0.00 0.00 0.00 0.00 0.00 0.00 0.00 0.00 0.00 0.00 0.01 0.01 0.01 0.00 0.00 0.00 0.01 0.01 0.00 0.01 0.02 0.00 0.00 0.01 0.01 0.00 0.01 0.05 0.11 0.01 0.01 0.01 0.01 0.00 0.00 0.01 0.01 0.01 0.00 0.00 0.00 0.00 0.04 0.06 0.04 0.01 0.00 0.00
0.01 0.01 0.01 0.00 0.00 0.00 0.00 0.00 0.00 0.00 0.00 0.00 0.00 0.00 0.01 0.02 0.02 0.01 0.00 0.00 0.00 0.02 0.01 0.01 0.01 0.00 0.00 0.00 0.00 0.00 0.00 0.00 0.03 0.15 0.07 0.00 0.00 0.02 0.03 0.02 0.01 0.02 0.01 0.01 0.01 0.00 0.01 0.02 0.04 0.08 0.09 0.05 0.03 0.00
0.00 0.01 0.00 0.00 0.00 0.00 0.00 0.00 0.00 0.00 0.00 0.00 0.01 0.02 0.03 0.02 0.04 0.03 0.01 0.00 0.00 0.02 0.03 0.01 0.01 0.00 0.00 0.00 0.00 0.00 0.01 0.07 0.06 0.01 0.01 0.00 0.01 0.02 0.02 0.02 0.02 0.02 0.01 0.01 0.02 0.03 0.07 0.07 0.05 0.07 0.08 0.07 0.05 0.01
0.00 0.00 0.00 0.00 0.00 0.00 0.00 0.00 0.00 0.00 0.00 0.01 0.05 0.08 0.07 0.03 0.08 0.07 0.03 0.01 0.02 0.05 0.02 0.01 0.00 0.00 0.00 0.00 0.01 0.01 0.03 0.03 0.01 0.00 0.00 0.00 0.01 0.03 0.06 0.06 0.05 0.04 0.04 0.04 0.04 0.08 0.11 0.10 0.07 0.04 0.04 0.05 0.04 0.01
0.00 0.00 0.00 0.00 0.00 0.00 0.00 0.00 0.00 0.00 0.02 0.07 0.07 0.06 0.01 0.03 0.05 0.02 0.00 0.00 0.04 0.02 0.00 0.00 0.00 0.00 0.00 0.02 0.07 0.01 0.00 0.00 0.00 0.00 0.00 0.01 0.01 0.03 0.05 0.05 0.05 0.05 0.03 0.03 0.04 0.04 0.06 0.06 0.04 0.04 0.03 0.02 0.01 0.00
0.00 0.00 0.00 0.00 0.00 0.00 0.00 0.00 0.00 0.01 0.05 0.04 0.04 0.02 0.01 0.01 0.01 0.00 0.00 0.00 0.00 0.00 0.00 0.00 0.00 0.02 0.03 0.03 0.01 0.00 0.00 0.00 0.01 0.01 0.01 0.01 0.01 0.01 0.01 0.01 0.02 0.03 0.03 0.03 0.02 0.03 0.03 0.03 0.03 0.03 0.02 0.01 0.00 0.00
0.00 0.00 0.00 0.00 0.00 0.00 0.00 0.00 0.00 0.00 0.02 0.01 0.01 0.00 0.01 0.01 0.00 0.00 0.00 0.00 0.00 0.00 0.00 0.00 0.01 0.01 0.01 0.01 0.00 0.00 0.00 0.00 0.00 0.01 0.02 0.02 0.01 0.01 0.01 0.00 0.00 0.01 0.02 0.03 0.03 0.03 0.03 0.02 0.02 0.02 0.02 0.01 0.00 0.00
0.00 0.00 0.00 0.00 0.00 0.00 0.00 0.01 0.00 0.00 0.00 0.00 0.00 0.00 0.00 0.00 0.00 0.01 0.00 0.00 0.00 0.00 0.01 0.01 0.00 0.01 0.01 0.00 0.00 0.00 0.00 0.00 0.00 0.00 0.00 0.01 0.01 0.00 0.01 0.00 0.00 0.00 0.00 0.01 0.01 0.01 0.01 0.01 0.01 0.00 0.00 0.01 0.00 0.00
0.00 0.00 0.00 0.00 0.00 0.00 0.00 0.00 0.00 0.00 0.00 0.00 0.00 0.01 0.00 0.01 0.01 0.00 0.00 0.00 0.00 0.00 0.01 0.00 0.00 0.00 0.00 0.00 0.00 0.00 0.00 0.00 0.00 0.00 0.00 0.00 0.01 0.00 0.01 0.01 0.00 0.00 0.00 0.00 0.00 0.00 0.00 0.00 0.00 0.00 0.00 0.00 0.00 0.00
0.00 0.00 0.00 0.00 0.00 0.00 0.01 0.01 0.01 0.00 0.00 0.00 0.00 0.00 0.00 0.00 0.00 0.00 0.00 0.00 0.00 0.00 0.00 0.00 0.00 0.00 0.00 0.00 0.00 0.00 0.00 0.00 0.00 0.00 0.00 0.00 0.00 0.00 0.00 0.00 0.00 0.00 0.00 0.00 0.00 0.00 0.01 0.00 0.00 0.00 0.00 0.00 0.00 0.01
0.00 0.00 0.00 0.00 0.00 0.00 0.00 0.00 0.00 0.00 0.00 0.00 0.00 0.00 0.00 0.00 0.00 0.00 0.00 0.02 0.01 0.00 0.00 0.00 0.00 0.00 0.00 0.00 0.00 0.00 0.00 0.00 0.00 0.00 0.00 0.00 0.00 0.00 0.00 0.00 0.00 0.00 0.00 0.00 0.00 0.02 0.01 0.00 0.00 0.00 0.01 0.01 0.01 0.01
0.00 0.00 0.00 0.00 0.00 0.00 0.00 0.00 0.00 0.00 0.00 0.00 0.00 0.01 0.00 0.00 0.00 0.00 0.01 0.02 0.00 0.00 0.00 0.00 0.00 0.00 0.00 0.00 0.00 0.00 0.00 0.00 0.00 0.00 0.00 0.00 0.00 0.01 0.01 0.01 0.01 0.00 0.00 0.01 0.02 0.02 0.02 0.01 0.01 0.01 0.01 0.01 0.01 0.01
0.00 0.00 0.00 0.00 0.00 0.01 0.01 0.00 0.00 0.00 0.00 0.00 0.00 0.00 0.00 0.00 0.00 0.01 0.02 0.01 0.00 0.00 0.00 0.00 0.00 0.00 0.01 0.01 0.00 0.00 0.00 0.00 0.00 0.00 0.00 0.00 0.00 0.00 0.01 0.02 0.03 0.04 0.01 0.01 0.01 0.01 0.02 0.02 0.02 0.02 0.02 0.02 0.01 0.01
0.00 0.00 0.00 0.00 0.00 0.00 0.01 0.01 0.01 0.00 0.00 0.00 0.00 0.00 0.00 0.00 0.02 0.01 0.00 0.00 0.00 0.00 0.00 0.00 0.00 0.00 0.01 0.01 0.00 0.00 0.00 0.00 0.00 0.00 0.00 0.00 0.00 0.00 0.00 0.00 0.00 0.00 0.01 0.01 0.01 0.00 0.00 0.02 0.03 0.03 0.03 0.02 0.01 0.01
0.00 0.00 0.00 0.00 0.00 0.00 0.02 0.02 0.01 0.00 0.00 0.00 0.00 0.00 0.00 0.01 0.07 0.01 0.00 0.00 0.00 0.00 0.00 0.00 0.00 0.00 0.00 0.00 0.00 0.00 0.00 0.00 0.00 0.00 0.00 0.01 0.02 0.01 0.01 0.00 0.00 0.00 0.01 0.01 0.01 0.01 0.01 0.01 0.02 0.02 0.01 0.02 0.02 0.01
0.00 0.00 0.00 0.00 0.01 0.01 0.01 0.03 0.06 0.04 0.02 0.01 0.01 0.02 0.02 0.01 0.01 0.00 0.00 0.00 0.00 0.00 0.00 0.00 0.01 0.00 0.00 0.00 0.00 0.00 0.00 0.01 0.01 0.01 0.00 0.01 0.02 0.04 0.02 0.02 0.02 0.01 0.02 0.05 0.06 0.03 0.01 0.01 0.01 0.01 0.01 0.01 0.01 0.01
0.00 0.00 0.00 0.00 0.00 0.02 0.02 0.02 0.04 0.02 0.00 0.00 0.00 0.01 0.01 0.01 0.01 0.00 0.00 0.00 0.01 0.00 0.00 0.00 0.00 0.00 0.01 0.01 0.01 0.01 0.00 0.01 0.01 0.01 0.01 0.00 0.00 0.01 0.04 0.03 0.02 0.02 0.03 0.04 0.07 0.10 0.06 0.04 0.04 0.04 0.02 0.02 0.01 0.01
0.00 0.00 0.00 0.00 0.00 0.01 0.01 0.00 0.01 0.00 0.00 0.00 0.00 0.01 0.02 0.01 0.01 0.01 0.00 0.01 0.01 0.00 0.01 0.01 0.00 0.00 0.00 0.00 0.00 0.00 0.01 0.01 0.01 0.00 0.01 0.00 0.00 0.00 0.01 0.01 0.01 0.01 0.01 0.00 0.00 0.01 0.01 0.02 0.01 0.01 0.01 0.01 0.00 0.00
0.00 0.00 0.00 0.01 0.02 0.01 0.00 0.00 0.00 0.00 0.00 0.00 0.00 0.00 0.00 0.00 0.00 0.01 0.01 0.01 0.01 0.02 0.02 0.02 0.01 0.01 0.00 0.00 0.01 0.00 0.00 0.00 0.00 0.00 0.00 0.00 0.00 0.00 0.01 0.02 0.02 0.01 0.01 0.01 0.01 0.01 0.01 0.01 0.01 0.00 0.00 0.00 0.00 0.00
0.02 0.02 0.02 0.03 0.02 0.01 0.00 0.00 0.00 0.00 0.00 0.00 0.01 0.00 0.00 0.00 0.01 0.02 0.01 0.01 0.02 0.03 0.04 0.04 0.04 0.03 0.01 0.02 0.02 0.01 0.01 0.00 0.00 0.01 0.00 0.00 0.00 0.01 0.01 0.01 0.01 0.01 0.01 0.01 0.02 0.02 0.01 0.01 0.01 0.00 0.00 0.00 0.00 0.00

GFSWCAN_prec_precacc12_120.txt.gz
Total_Precipitation_Accumulation
0.02 0.02 0.06 0.12 0.27 0.26 0.16 0.10 0.07 0.05 0.04 0.04 0.06 0.09 0.15 0.17 0.19 0.27 0.13 0.08 0.19 0.42 0.34 0.25 0.06 0.11 0.12 0.08 0.08 0.04 0.10 0.15 0.26 0.30 0.23 0.17 0.05 0.01 0.00 0.00 0.00 0.01 0.01 0.01 0.01 0.01 0.00 0.00 0.00 0.00 0.00 0.00 0.00 0.00
0.00 0.01 0.04 0.05 0.10 0.27 0.28 0.22 0.14 0.07 0.05 0.06 0.06 0.08 0.16 0.23 0.18 0.21 0.19 0.12 0.20 0.38 0.26 0.27 0.17 0.10 0.07 0.07 0.01 0.00 0.03 0.02 0.05 0.06 0.11 0.11 0.08 0.02 0.00 0.00 0.00 0.00 0.00 0.00 0.00 0.00 0.00 0.00 0.00 0.00 0.00 0.00 0.00 0.00
0.00 0.01 0.01 0.03 0.09 0.17 0.39 0.30 0.22 0.11 0.08 0.06 0.07 0.11 0.18 0.25 0.16 0.19 0.13 0.22 0.23 0.23 0.15 0.20 0.21 0.10 0.05 0.04 0.01 0.00 0.00 0.00 0.00 0.01 0.03 0.05 0.04 0.01 0.01 0.00 0.00 0.00 0.00 0.00 0.00 0.00 0.00 0.00 0.00 0.00 0.00 0.00 0.00 0.00
0.00 0.01 0.02 0.08 0.34 0.36 0.37 0.13 0.20 0.14 0.09 0.08 0.09 0.12 0.18 0.28 0.12 0.19 0.17 0.24 0.24 0.11 0.08 0.14 0.07 0.12 0.09 0.02 0.01 0.01 0.00 0.00 0.01 0.01 0.04 0.06 0.07 0.02 0.01 0.00 0.00 0.00 0.00 0.00 0.01 0.01 0.00 0.01 0.00 0.00 0.00 0.00 0.00 0.00
0.01 0.03 0.07 0.51 0.64 0.31 0.28 0.05 0.05 0.15 0.08 0.10 0.11 0.13 0.20 0.29 0.14 0.16 0.18 0.19 0.26 0.08 0.02 0.09 0.11 0.14 0.09 0.04 0.04 0.08 0.01 0.00 0.06 0.03 0.03 0.02 0.01 0.01 0.00 0.00 0.00 0.00 0.00 0.00 0.00 0.00 0.00 0.00 0.00 0.00 0.00 0.00 0.00 0.00
0.03 0.08 0.53 0.98 0.66 0.36 0.12 0.03 0.02 0.03 0.05 0.08 0.11 0.14 0.26 0.26 0.22 0.27 0.55 0.30 0.15 0.10 0.03 0.04 0.14 0.13 0.05 0.02 0.06 0.05 0.02 0.00 0.02 0.01 0.00 0.00 0.00 0.01 0.00 0.00 0.00 0.00 0.00 0.00 0.00 0.00 0.00 0.00 0.00 0.00 0.00 0.00 0.00 0.00
0.09 0.65 1.07 0.95 0.47 0.13 0.04 0.01 0.02 0.01 0.03 0.08 0.12 0.16 0.26 0.24 0.16 0.08 0.12 0.08 0.06 0.08 0.04 0.03 0.09 0.09 0.05 0.01 0.02 0.00 0.00 0.00 0.00 0.00 0.00 0.00 0.00 0.00 0.04 0.01 0.00 0.00 0.00 0.00 0.00 0.00 0.00 0.00 0.00 0.00 0.00 0.00 0.00 0.00
0.66 0.84 0.60 0.28 0.10 0.03 0.02 0.02 0.02 0.03 0.04 0.10 0.13 0.20 0.29 0.22 0.11 0.02 0.00 0.00 0.04 0.04 0.01 0.00 0.01 0.01 0.01 0.01 0.00 0.00 0.00 0.00 0.00 0.00 0.00 0.00 0.00 0.00 0.00 0.00 0.00 0.00 0.00 0.00 0.00 0.00 0.00 0.00 0.00 0.00 0.00 0.00 0.00 0.00
0.51 0.43 0.27 0.10 0.04 0.03 0.03 0.04 0.04 0.04 0.08 0.15 0.26 0.35 0.28 0.16 0.10 0.06 0.00 0.00 0.01 0.02 0.00 0.00 0.00 0.00 0.00 0.00 0.00 0.00 0.00 0.00 0.00 0.00 0.00 0.00 0.00 0.00 0.00 0.00 0.00 0.00 0.00 0.00 0.00 0.00 0.00 0.00 0.00 0.00 0.00 0.00 0.00 0.00
0.27 0.13 0.10 0.07 0.05 0.04 0.04 0.04 0.05 0.09 0.15 0.19 0.18 0.13 0.17 0.08 0.10 0.04 0.04 0.02 0.01 0.00 0.00 0.00 0.00 0.00 0.00 0.00 0.00 0.00 0.00 0.00 0.00 0.00 0.00 0.00 0.00 0.00 0.00 0.00 0.00 0.00 0.00 0.00 0.00 0.00 0.00 0.00 0.00 0.00 0.00 0.00 0.00 0.00
0.09 0.05 0.03 0.04 0.05 0.05 0.05 0.05 0.07 0.08 0.09 0.06 0.04 0.04 0.13 0.14 0.04 0.01 0.00 0.00 0.00 0.00 0.00 0.00 0.00 0.00 0.00 0.00 0.00 0.00 0.00 0.00 0.00 0.00 0.00 0.00 0.00 0.00 0.00 0.00 0.00 0.00 0.00 0.00 0.00 0.00 0.00 0.00 0.00 0.00 0.00 0.00 0.00 0.00
0.11 0.04 0.03 0.04 0.05 0.07 0.08 0.06 0.02 0.02 0.02 0.00 0.01 0.06 0.04 0.00 0.00 0.00 0.00 0.00 0.00 0.00 0.00 0.00 0.00 0.00 0.00 0.00 0.00 0.00 0.00 0.00 0.01 0.01 0.00 0.00 0.00 0.00 0.00 0.00 0.00 0.00 0.00 0.00 0.00 0.00 0.00 0.00 0.00 0.00 0.00 0.00 0.00 0.00
0.06 0.03 0.03 0.03 0.05 0.04 0.02 0.00 0.01 0.01 0.00 0.00 0.00 0.00 0.00 0.00 0.00 0.00 0.00 0.00 0.00 0.00 0.00 0.00 0.00 0.00 0.00 0.00 0.00 0.00 0.00 0.00 0.00 0.00 0.00 0.00 0.00 0.00 0.00 0.00 0.00 0.00 0.00 0.00 0.00 0.00 0.00 0.00 0.00 0.01 0.02 0.00 0.00 0.00
0.02 0.01 0.00 0.00 0.00 0.00 0.00 0.00 0.00 0.00 0.00 0.00 0.00 0.00 0.00 0.00 0.01 0.01 0.00 0.00 0.00 0.00 0.01 0.00 0.00 0.00 0.00 0.00 0.00 0.00 0.00 0.00 0.00 0.01 0.03 0.00 0.00 0.01 0.00 0.00 0.00 0.01 0.01 0.00 0.00 0.00 0.00 0.00 0.04 0.07 0.06 0.03 0.01 0.00
0.00 0.00 0.00 0.00 0.00 0.00 0.00 0.01 0.00 0.00 0.00 0.00 0.00 0.00 0.01 0.02 0.01 0.01 0.00 0.00 0.00 0.00 0.00 0.00 0.00 0.00 0.00 0.00 0.00 0.00 0.00 0.00 0.01 0.07 0.05 0.00 0.00 0.02 0.01 0.01 0.01 0.01 0.01 0.00 0.00 0.00 0.01 0.02 0.05 0.10 0.13 0.08 0.05 0.03
0.00 0.00 0.00 0.00 0.00 0.00 0.00 0.00 0.00 0.00 0.00 0.00 0.00 0.01 0.02 0.01 0.03 0.02 0.00 0.00 0.00 0.01 0.01 0.00 0.00 0.00 0.00 0.00 0.00 0.00 0.00 0.02 0.02 0.00 0.00 0.00 0.01 0.02 0.01 0.01 0.01 0.00 0.00 0.01 0.01 0.03 0.07 0.08 0.08 0.11 0.14 0.13 0.10 0.05
0.00 0.00 0.00 0.00 0.00 0.00 0.00 0.00 0.00 0.00 0.00 0.01 0.04 0.06 0.04 0.03 0.08 0.07 0.01 0.00 0.01 0.02 0.01 0.00 0.00 0.00 0.00 0.00 0.00 0.00 0.01 0.01 0.00 0.00 0.00 0.00 0.00 0.02 0.03 0.02 0.02 0.01 0.02 0.03 0.04 0.08 0.13 0.13 0.10 0.09 0.09 0.10 0.09 0.06
0.00 0.00 0.00 0.00 0.00 0.00 0.00 0.00 0.00 0.00 0.01 0.05 0.06 0.05 0.02 0.06 0.06 0.03 0.00 0.00 0.01 0.01 0.00 0.00 0.00 0.00 0.00 0.01 0.03 0.00 0.00 0.00 0.00 0.00 0.01 0.01 0.01 0.03 0.04 0.03 0.05 0.04 0.03 0.03 0.04 0.05 0.07 0.08 0.07 0.07 0.06 0.05 0.05 0.04
0.00 0.00 0.00 0.00 0.00 0.00 0.00 0.00 0.00 0.00 0.04 0.03 0.03 0.02 0.02 0.02 0.01 0.00 0.00 0.00 0.00 0.00 0.00 0.00 0.00 0.01 0.02 0.01 0.00 0.00 0.00 0.00 0.01 0.01 0.01 0.01 0.01 0.01 0.02 0.02 0.03 0.04 0.03 0.03 0.03 0.04 0.05 0.05 0.06 0.06 0.05 0.03 0.02 0.01
0.00 0.00 0.00 0.00 0.00 0.00 0.00 0.00 0.00 0.00 0.01 0.01 0.00 0.00 0.00 0.01 0.01 0.00 0.00 0.00 0.00 0.00 0.00 0.00 0.01 0.01 0.01 0.00 0.00 0.00 0.00 0.00 0.00 0.01 0.02 0.02 0.01 0.01 0.01 0.01 0.01 0.01 0.03 0.05 0.05 0.05 0.04 0.04 0.05 0.05 0.05 0.04 0.03 0.02
0.00 0.00 0.00 0.00 0.00 0.00 0.00 0.00 0.00 0.00 0.00 0.00 0.00 0.00 0.00 0.00 0.00 0.00 0.00 0.00 0.00 0.00 0.01 0.01 0.00 0.01 0.01 0.00 0.00 0.00 0.00 0.00 0.00 0.00 0.00 0.01 0.01 0.00 0.01 0.01 0.01 0.01 0.01 0.02 0.03 0.04 0.04 0.03 0.02 0.02 0.02 0.03 0.03 0.02
0.00 0.00 0.00 0.00 0.00 0.00 0.00 0.00 0.00 0.00 0.00 0.00 0.00 0.00 0.00 0.00 0.00 0.00 0.00 0.00 0.00 0.00 0.00 0.00 0.00 0.01 0.00 0.00 0.00 0.00 0.00 0.00 0.00 0.00 0.00 0.00 0.00 0.01 0.01 0.01 0.00 0.00 0.00 0.00 0.00 0.00 0.02 0.03 0.03 0.02 0.02 0.02 0.01 0.00
0.00 0.00 0.00 0.00 0.00 0.00 0.00 0.00 0.00 0.00 0.00 0.00 0.00 0.00 0.00 0.00 0.00 0.00 0.00 0.00 0.00 0.00 0.00 0.00 0.00 0.01 0.00 0.00 0.00 0.00 0.00 0.00 0.00 0.00 0.00 0.00 0.00 0.00 0.00 0.00 0.00 0.00 0.00 0.00 0.00 0.00 0.00 0.01 0.01 0.01 0.01 0.01 0.00 0.01
0.00 0.00 0.00 0.00 0.00 0.00 0.00 0.00 0.00 0.00 0.00 0.00 0.00 0.00 0.00 0.00 0.00 0.00 0.00 0.02 0.00 0.00 0.00 0.00 0.00 0.00 0.00 0.00 0.00 0.00 0.00 0.00 0.00 0.00 0.00 0.00 0.00 0.00 0.00 0.00 0.00 0.00 0.00 0.00 0.00 0.01 0.01 0.00 0.00 0.00 0.00 0.00 0.00 0.00
0.00 0.00 0.00 0.00 0.00 0.00 0.00 0.00 0.00 0.00 0.00 0.00 0.00 0.00 0.00 0.00 0.00 0.00 0.01 0.01 0.00 0.00 0.00 0.00 0.00 0.00 0.00 0.00 0.00 0.00 0.00 0.00 0.00 0.00 0.00 0.00 0.00 0.01 0.01 0.01 0.00 0.00 0.00 0.00 0.01 0.01 0.02 0.01 0.00 0.00 0.01 0.01 0.01 0.01
0.00 0.00 0.00 0.00 0.00 0.00 0.00 0.00 0.00 0.00 0.00 0.00 0.00 0.00 0.00 0.00 0.00 0.00 0.02 0.00 0.00 0.00 0.00 0.00 0.00 0.00 0.00 0.01 0.00 0.00 0.00 0.00 0.00 0.00 0.00 0.00 0.00 0.00 0.01 0.01 0.02 0.03 0.01 0.00 0.00 0.00 0.01 0.01 0.01 0.01 0.02 0.02 0.02 0.02
0.00 0.00 0.00 0.00 0.00 0.00 0.00 0.00 0.00 0.00 0.00 0.00 0.00 0.00 0.00 0.00 0.01 0.01 0.00 0.00 0.00 0.00 0.00 0.00 0.00 0.00 0.01 0.01 0.00 0.00 0.01 0.00 0.00 0.00 0.00 0.00 0.00 0.00 0.00 0.00 0.00 0.00 0.00 0.01 0.00 0.00 0.00 0.01 0.02 0.02 0.03 0.03 0.03 0.02
0.00 0.00 0.00 0.00 0.00 0.00 0.00 0.00 0.00 0.00 0.00 0.00 0.00 0.00 0.00 0.01 0.05 0.01 0.00 0.00 0.00 0.00 0.00 0.00 0.00 0.00 0.00 0.00 0.00 0.01 0.01 0.00 0.00 0.01 0.01 0.01 0.01 0.01 0.00 0.00 0.00 0.00 0.00 0.00 0.00 0.00 0.00 0.01 0.01 0.02 0.02 0.02 0.03 0.02
0.00 0.00 0.00 0.00 0.00 0.00 0.00 0.01 0.03 0.02 0.01 0.01 0.00 0.01 0.01 0.01 0.01 0.01 0.00 0.00 0.00 0.00 0.00 0.00 0.01 0.00 0.00 0.00 0.00 0.00 0.00 0.00 0.01 0.01 0.01 0.01 0.01 0.03 0.02 0.01 0.01 0.00 0.01 0.04 0.05 0.02 0.01 0.01 0.02 0.01 0.02 0.02 0.03 0.02
0.00 0.00 0.00 0.00 0.00 0.01 0.01 0.01 0.03 0.02 0.01 0.01 0.01 0.01 0.01 0.01 0.01 0.01 0.01 0.01 0.01 0.01 0.00 0.00 0.00 0.00 0.01 0.01 0.01 0.01 0.00 0.00 0.01 0.00 0.01 0.00 0.00 0.01 0.03 0.02 0.02 0.02 0.03 0.04 0.07 0.11 0.09 0.06 0.06 0.06 0.05 0.04 0.03 0.02
0.00 0.00 0.00 0.00 0.00 0.01 0.00 0.00 0.01 0.01 0.01 0.01 0.01 0.01 0.02 0.01 0.01 0.01 0.01 0.01 0.01 0.00 0.01 0.01 0.00 0.00 0.00 0.00 0.00 0.00 0.01 0.01 0.01 0.00 0.00 0.00 0.00 0.00 0.01 0.01 0.01 0.01 0.01 0.01 0.01 0.02 0.02 0.03 0.03 0.02 0.02 0.01 0.01 0.00
0.00 0.00 0.00 0.01 0.01 0.01 0.00 0.00 0.00 0.00 0.00 0.00 0.00 0.01 0.01 0.00 0.00 0.01 0.01 0.01 0.01 0.01 0.02 0.01 0.01 0.01 0.00 0.00 0.00 0.00 0.00 0.00 0.00 0.00 0.00 0.00 0.00 0.00 0.00 0.01 0.02 0.01 0.01 0.01 0.02 0.02 0.02 0.01 0.01 0.01 0.01 0.01 0.01 0.00
0.01 0.01 0.02 0.03 0.02 0.01 0.00 0.00 0.00 0.00 0.00 0.00 0.00 0.00 0.00 0.00 0.01 0.01 0.01 0.01 0.02 0.02 0.03 0.03 0.03 0.02 0.01 0.01 0.02 0.01 0.01 0.00 0.00 0.00 0.00 0.00 0.00 0.01 0.00 0.01 0.01 0.01 0.02 0.02 0.03 0.03 0.02 0.02 0.01 0.01 0.01 0.01 0.00 0.00

GFSWCAN_prec_precacc12_123.txt.gz
Total_Precipitation_Accumulation
0.06 0.06 0.04 0.08 0.24 0.25 0.14 0.08 0.07 0.05 0.04 0.04 0.04 0.05 0.07 0.13 0.19 0.26 0.09 0.05 0.14 0.21 0.08 0.19 0.04 0.03 0.06 0.03 0.04 0.04 0.13 0.17 0.29 0.33 0.23 0.16 0.08 0.02 0.01 0.00 0.00 0.02 0.02 0.03 0.02 0.02 0.00 0.00 0.00 0.00 0.00 0.00 0.00 0.00
0.01 0.01 0.03 0.04 0.09 0.27 0.24 0.16 0.10 0.06 0.04 0.04 0.03 0.04 0.12 0.25 0.22 0.23 0.15 0.11 0.13 0.17 0.18 0.23 0.15 0.04 0.04 0.07 0.03 0.02 0.04 0.03 0.07 0.07 0.12 0.13 0.14 0.07 0.02 0.01 0.00 0.00 0.00 0.00 0.00 0.00 0.00 0.00 0.00 0.00 0.00 0.00 0.00 0.00
0.00 0.00 0.01 0.02 0.02 0.05 0.16 0.19 0.28 0.11 0.06 0.04 0.03 0.06 0.18 0.27 0.21 0.22 0.10 0.18 0.16 0.21 0.14 0.19 0.20 0.10 0.04 0.04 0.02 0.06 0.01 0.01 0.02 0.03 0.04 0.09 0.09 0.02 0.02 0.01 0.00 0.00 0.00 0.00 0.00 0.00 0.00 0.00 0.00 0.00 0.00 0.00 0.00 0.00
0.00 0.00 0.01 0.01 0.02 0.06 0.14 0.08 0.29 0.26 0.08 0.07 0.07 0.11 0.17 0.29 0.14 0.20 0.12 0.21 0.17 0.11 0.08 0.14 0.07 0.12 0.09 0.02 0.01 0.01 0.00 0.01 0.01 0.02 0.06 0.09 0.07 0.03 0.01 0.01 0.01 0.00 0.00 0.00 0.00 0.01 0.00 0.01 0.00 0.00 0.00 0.00 0.00 0.00
0.00 0.02 0.02 0.14 0.26 0.23 0.26 0.05 0.07 0.26 0.12 0.14 0.11 0.13 0.19 0.27 0.12 0.15 0.16 0.14 0.22 0.10 0.07 0.10 0.11 0.14 0.09 0.04 0.04 0.08 0.02 0.01 0.06 0.05 0.12 0.15 0.06 0.04 0.03 0.01 0.00 0.00 0.00 0.00 0.00 0.00 0.00 0.00 0.00 0.00 0.00 0.00 0.00 0.00
0.02 0.03 0.22 0.61 0.53 0.36 0.12 0.04 0.03 0.07 0.12 0.13 0.13 0.14 0.24 0.23 0.20 0.22 0.52 0.30 0.17 0.23 0.16 0.08 0.14 0.14 0.06 0.04 0.09 0.10 0.10 0.02 0.09 0.16 0.08 0.07 0.01 0.01 0.00 0.00 0.00 0.00 0.00 0.00 0.00 0.00 0.00 0.00 0.00 0.00 0.00 0.00 0.00 0.00
0.08 0.46 0.89 0.87 0.48 0.14 0.04 0.01 0.02 0.02 0.11 0.12 0.16 0.17 0.26 0.25 0.15 0.11 0.16 0.08 0.07 0.18 0.31 0.18 0.18 0.25 0.25 0.17 0.16 0.08 0.13 0.07 0.04 0.07 0.03 0.00 0.00 0.00 0.04 0.02 0.00 0.00 0.00 0.00 0.00 0.00 0.00 0.00 0.00 0.00 0.00 0.00 0.00 0.00
0.75 0.87 0.72 0.34 0.13 0.04 0.02 0.02 0.02 0.03 0.07 0.14 0.16 0.23 0.32 0.26 0.18 0.06 0.01 0.02 0.10 0.21 0.16 0.05 0.12 0.22 0.18 0.11 0.09 0.02 0.03 0.03 0.01 0.00 0.00 0.00 0.00 0.00 0.01 0.00 0.00 0.00 0.00 0.00 0.00 0.00 0.00 0.00 0.00 0.00 0.00 0.00 0.00 0.00
0.78 0.58 0.30 0.11 0.05 0.03 0.03 0.03 0.03 0.04 0.11 0.23 0.34 0.49 0.49 0.31 0.20 0.10 0.03 0.13 0.13 0.14 0.06 0.01 0.06 0.07 0.05 0.02 0.01 0.00 0.00 0.00 0.00 0.00 0.00 0.00 0.00 0.00 0.00 0.00 0.00 0.00 0.00 0.00 0.00 0.00 0.00 0.00 0.00 0.00 0.00 0.00 0.00 0.00
0.40 0.22 0.13 0.08 0.05 0.05 0.04 0.03 0.04 0.11 0.29 0.34 0.35 0.33 0.33 0.18 0.13 0.14 0.26 0.23 0.15 0.10 0.01 0.00 0.00 0.01 0.01 0.00 0.00 0.00 0.00 0.00 0.00 0.00 0.00 0.00 0.00 0.00 0.00 0.00 0.00 0.00 0.00 0.00 0.00 0.00 0.00 0.00 0.00 0.00 0.00 0.00 0.00 0.00
0.15 0.10 0.08 0.07 0.06 0.05 0.05 0.06 0.10 0.18 0.19 0.15 0.08 0.10 0.25 0.35 0.15 0.10 0.10 0.06 0.03 0.00 0.00 0.00 0.00 0.00 0.00 0.00 0.00 0.00 0.00 0.00 0.00 0.00 0.00 0.00 0.00 0.00 0.00 0.00 0.00 0.00 0.00 0.00 0.00 0.00 0.00 0.00 0.00 0.00 0.00 0.00 0.00 0.00
0.10 0.10 0.11 0.11 0.10 0.10 0.11 0.09 0.04 0.03 0.04 0.00 0.01 0.11 0.20 0.11 0.02 0.00 0.00 0.00 0.00 0.00 0.00 0.00 0.00 0.00 0.00 0.00 0.00 0.00 0.00 0.00 0.00 0.00 0.00 0.00 0.00 0.00 0.00 0.00 0.00 0.00 0.00 0.00 0.00 0.00 0.00 0.00 0.00 0.00 0.00 0.00 0.00 0.00
0.04 0.06 0.07 0.08 0.09 0.08 0.04 0.02 0.02 0.01 0.00 0.00 0.00 0.01 0.02 0.00 0.00 0.00 0.00 0.00 0.00 0.00 0.00 0.00 0.00 0.00 0.00 0.00 0.00 0.00 0.00 0.00 0.00 0.00 0.00 0.00 0.00 0.00 0.00 0.00 0.00 0.00 0.00 0.00 0.00 0.00 0.00 0.00 0.00 0.01 0.02 0.01 0.02 0.02
0.02 0.01 0.00 0.00 0.01 0.01 0.01 0.01 0.01 0.00 0.00 0.00 0.00 0.00 0.00 0.00 0.00 0.00 0.00 0.00 0.00 0.00 0.00 0.00 0.00 0.00 0.00 0.00 0.00 0.00 0.00 0.00 0.00 0.00 0.00 0.00 0.00 0.00 0.00 0.00 0.00 0.00 0.00 0.00 0.00 0.00 0.00 0.00 0.04 0.08 0.08 0.05 0.03 0.02
0.00 0.00 0.00 0.00 0.00 0.00 0.00 0.01 0.00 0.00 0.00 0.00 0.00 0.00 0.00 0.01 0.01 0.00 0.00 0.00 0.00 0.00 0.00 0.00 0.00 0.00 0.00 0.00 0.00 0.00 0.00 0.00 0.00 0.01 0.01 0.00 0.00 0.00 0.00 0.00 0.00 0.00 0.00 0.00 0.00 0.00 0.01 0.02 0.05 0.12 0.16 0.11 0.08 0.06
0.00 0.00 0.00 0.00 0.00 0.00 0.00 0.00 0.00 0.00 0.00 0.00 0.00 0.00 0.01 0.01 0.03 0.02 0.00 0.00 0.00 0.00 0.00 0.00 0.00 0.00 0.00 0.00 0.00 0.00 0.00 0.00 0.00 0.00 0.00 0.00 0.00 0.01 0.01 0.00 0.00 0.00 0.00 0.00 0.01 0.02 0.06 0.08 0.08 0.11 0.16 0.16 0.14 0.08
0.00 0.00 0.00 0.00 0.00 0.00 0.00 0.00 0.00 0.00 0.00 0.01 0.04 0.05 0.02 0.03 0.08 0.07 0.01 0.00 0.00 0.00 0.00 0.00 0.00 0.00 0.00 0.00 0.00 0.00 0.00 0.00 0.00 0.00 0.00 0.00 0.00 0.01 0.01 0.01 0.01 0.00 0.01 0.02 0.03 0.07 0.12 0.13 0.11 0.11 0.11 0.13 0.12 0.10
0.00 0.00 0.00 0.00 0.00 0.00 0.00 0.00 0.00 0.00 0.01 0.04 0.04 0.04 0.03 0.07 0.07 0.03 0.00 0.00 0.00 0.00 0.00 0.00 0.00 0.00 0.00 0.00 0.00 0.00 0.00 0.00 0.00 0.00 0.01 0.01 0.01 0.03 0.03 0.01 0.02 0.01 0.02 0.03 0.03 0.05 0.08 0.08 0.07 0.07 0.07 0.07 0.08 0.08
0.00 0.00 0.00 0.00 0.00 0.00 0.00 0.00 0.00 0.00 0.04 0.03 0.03 0.03 0.03 0.03 0.01 0.00 0.00 0.00 0.00 0.00 0.00 0.00 0.00 0.01 0.01 0.00 0.00 0.00 0.00 0.00 0.00 0.01 0.01 0.01 0.01 0.02 0.03 0.02 0.03 0.03 0.03 0.03 0.03 0.04 0.06 0.06 0.06 0.06 0.05 0.05 0.04 0.03
0.00 0.00 0.00 0.00 0.00 0.00 0.00 0.00 0.00 0.00 0.00 0.00 0.00 0.00 0.00 0.00 0.01 0.00 0.00 0.00 0.00 0.00 0.00 0.00 0.00 0.00 0.00 0.00 0.00 0.00 0.00 0.00 0.00 0.01 0.02 0.02 0.01 0.02 0.02 0.01 0.01 0.02 0.04 0.05 0.06 0.06 0.05 0.05 0.06 0.06 0.06 0.05 0.04 0.03
0.00 0.00 0.00 0.00 0.00 0.00 0.00 0.00 0.00 0.00 0.00 0.00 0.00 0.00 0.00 0.00 0.00 0.00 0.00 0.00 0.00 0.00 0.00 0.00 0.00 0.01 0.00 0.00 0.00 0.00 0.00 0.00 0.00 0.00 0.00 0.01 0.01 0.00 0.01 0.01 0.01 0.01 0.01 0.02 0.03 0.05 0.05 0.04 0.03 0.03 0.04 0.05 0.05 0.04
0.00 0.00 0.00 0.00 0.00 0.00 0.00 0.00 0.00 0.00 0.00 0.00 0.00 0.00 0.00 0.00 0.00 0.00 0.00 0.00 0.00 0.00 0.00 0.00 0.01 0.01 0.00 0.00 0.00 0.00 0.00 0.00 0.00 0.00 0.00 0.00 0.00 0.01 0.01 0.01 0.00 0.01 0.00 0.00 0.00 0.01 0.03 0.04 0.04 0.04 0.03 0.03 0.03 0.02
0.00 0.00 0.00 0.00 0.00 0.00 0.00 0.00 0.00 0.00 0.00 0.00 0.00 0.00 0.00 0.00 0.00 0.00 0.00 0.00 0.00 0.00 0.00 0.00 0.00 0.02 0.01 0.00 0.00 0.00 0.00 0.00 0.00 0.00 0.00 0.00 0.00 0.00 0.00 0.00 0.00 0.00 0.00 0.00 0.00 0.00 0.01 0.01 0.01 0.02 0.03 0.03 0.02 0.02
0.00 0.00 0.00 0.00 0.00 0.00 0.00 0.00 0.00 0.00 0.00 0.00 0.00 0.00 0.00 0.00 0.00 0.00 0.00 0.01 0.00 0.00 0.00 0.00 0.00 0.01 0.02 0.01 0.01 0.00 0.00 0.00 0.00 0.00 0.00 0.00 0.00 0.00 0.00 0.00 0.00 0.00 0.00 0.00 0.00 0.00 0.00 0.00 0.00 0.01 0.01 0.01 0.01 0.01
0.00 0.00 0.00 0.00 0.00 0.00 0.00 0.00 0.00 0.00 0.00 0.01 0.00 0.00 0.00 0.00 0.00 0.00 0.00 0.01 0.00 0.00 0.00 0.00 0.00 0.00 0.00 0.00 0.01 0.00 0.00 0.00 0.00 0.00 0.00 0.00 0.00 0.01 0.01 0.01 0.00 0.00 0.00 0.00 0.00 0.01 0.01 0.00 0.01 0.00 0.01 0.01 0.01 0.01
0.00 0.00 0.00 0.00 0.00 0.00 0.00 0.00 0.00 0.00 0.00 0.00 0.00 0.00 0.00 0.00 0.00 0.00 0.01 0.00 0.00 0.00 0.00 0.00 0.00 0.00 0.00 0.00 0.00 0.00 0.00 0.00 0.00 0.00 0.00 0.00 0.00 0.00 0.00 0.01 0.02 0.03 0.00 0.00 0.00 0.00 0.01 0.01 0.01 0.01 0.02 0.02 0.02 0.02
0.00 0.00 0.00 0.00 0.00 0.00 0.00 0.00 0.00 0.00 0.00 0.00 0.00 0.00 0.00 0.00 0.00 0.00 0.01 0.00 0.00 0.00 0.00 0.00 0.00 0.00 0.00 0.01 0.01 0.01 0.01 0.01 0.00 0.00 0.00 0.00 0.00 0.00 0.00 0.00 0.00 0.00 0.00 0.00 0.00 0.00 0.00 0.01 0.02 0.02 0.02 0.03 0.03 0.02
0.00 0.00 0.00 0.00 0.00 0.00 0.00 0.00 0.00 0.00 0.00 0.00 0.00 0.00 0.00 0.01 0.02 0.01 0.00 0.00 0.00 0.00 0.00 0.00 0.00 0.00 0.00 0.00 0.01 0.01 0.02 0.02 0.01 0.01 0.01 0.02 0.02 0.01 0.00 0.00 0.00 0.00 0.00 0.00 0.00 0.00 0.00 0.00 0.01 0.01 0.02 0.02 0.03 0.02
0.00 0.00 0.00 0.00 0.00 0.00 0.00 0.00 0.00 0.00 0.01 0.01 0.00 0.00 0.00 0.01 0.01 0.01 0.01 0.00 0.00 0.00 0.00 0.00 0.01 0.01 0.01 0.01 0.00 0.00 0.00 0.00 0.01 0.02 0.01 0.00 0.01 0.02 0.01 0.00 0.00 0.00 0.00 0.02 0.04 0.02 0.01 0.01 0.02 0.01 0.02 0.03 0.03 0.03
0.00 0.00 0.00 0.00 0.00 0.00 0.00 0.00 0.01 0.02 0.01 0.01 0.01 0.01 0.01 0.01 0.02 0.01 0.01 0.01 0.01 0.01 0.00 0.00 0.00 0.00 0.00 0.00 0.00 0.00 0.00 0.00 0.01 0.00 0.00 0.00 0.00 0.00 0.02 0.01 0.01 0.01 0.02 0.04 0.06 0.11 0.10 0.08 0.08 0.08 0.07 0.06 0.05 0.03
0.00 0.00 0.00 0.00 0.00 0.00 0.00 0.00 0.01 0.02 0.01 0.02 0.02 0.03 0.02 0.01 0.01 0.02 0.01 0.01 0.01 0.00 0.01 0.00 0.00 0.00 0.00 0.00 0.00 0.00 0.00 0.00 0.00 0.00 0.00 0.00 0.00 0.00 0.01 0.01 0.01 0.01 0.01 0.01 0.02 0.02 0.03 0.04 0.04 0.03 0.03 0.03 0.02 0.01
0.00 0.00 0.00 0.00 0.01 0.01 0.00 0.01 0.00 0.01 0.01 0.01 0.01 0.01 0.02 0.01 0.01 0.00 0.01 0.01 0.01 0.01 0.02 0.01 0.00 0.00 0.00 0.00 0.00 0.00 0.00 0.00 0.00 0.00 0.00 0.00 0.00 0.00 0.00 0.02 0.02 0.01 0.01 0.01 0.02 0.03 0.02 0.01 0.02 0.01 0.01 0.02 0.01 0.01
0.01 0.00 0.01 0.02 0.01 0.01 0.00 0.01 0.01 0.01 0.00 0.00 0.00 0.00 0.01 0.00 0.00 0.01 0.01 0.01 0.01 0.01 0.01 0.02 0.02 0.01 0.01 0.00 0.01 0.00 0.01 0.01 0.00 0.00 0.00 0.00 0.00 0.01 0.00 0.01 0.01 0.01 0.02 0.02 0.03 0.03 0.03 0.02 0.02 0.02 0.02 0.02 0.01 0.01

GFSWCAN_prec_precacc12_129.txt.gz
Total_Precipitation_Accumulation
0.07 0.07 0.06 0.04 0.03 0.03 0.04 0.06 0.21 0.43 0.34 0.33 0.21 0.16 0.23 0.31 0.33 0.33 0.17 0.04 0.05 0.11 0.04 0.02 0.04 0.05 0.06 0.06 0.04 0.06 0.11 0.12 0.16 0.23 0.24 0.17 0.09 0.02 0.02 0.00 0.01 0.08 0.13 0.15 0.20 0.24 0.11 0.00 0.00 0.00 0.00 0.00 0.00 0.00
0.02 0.03 0.02 0.01 0.00 0.08 0.15 0.10 0.09 0.14 0.50 0.38 0.18 0.11 0.18 0.27 0.20 0.15 0.05 0.03 0.04 0.08 0.06 0.01 0.01 0.01 0.03 0.05 0.06 0.08 0.07 0.09 0.09 0.11 0.16 0.16 0.16 0.08 0.04 0.02 0.00 0.02 0.01 0.03 0.08 0.09 0.02 0.00 0.00 0.00 0.00 0.00 0.00 0.00
0.00 0.00 0.00 0.00 0.00 0.03 0.14 0.17 0.21 0.09 0.09 0.20 0.17 0.11 0.13 0.09 0.10 0.09 0.02 0.04 0.10 0.16 0.07 0.02 0.01 0.00 0.00 0.00 0.02 0.11 0.08 0.07 0.09 0.15 0.22 0.23 0.19 0.07 0.06 0.02 0.02 0.01 0.00 0.01 0.02 0.00 0.00 0.00 0.00 0.00 0.00 0.00 0.00 0.00
0.00 0.00 0.00 0.00 0.00 0.00 0.02 0.05 0.26 0.34 0.08 0.06 0.07 0.06 0.08 0.04 0.07 0.10 0.05 0.10 0.09 0.09 0.06 0.01 0.00 0.00 0.00 0.00 0.00 0.01 0.04 0.04 0.06 0.11 0.20 0.25 0.20 0.15 0.13 0.07 0.06 0.05 0.02 0.03 0.02 0.01 0.00 0.00 0.00 0.00 0.00 0.00 0.00 0.00
0.00 0.00 0.00 0.01 0.00 0.01 0.01 0.01 0.06 0.27 0.11 0.12 0.08 0.03 0.04 0.04 0.07 0.16 0.14 0.10 0.18 0.09 0.13 0.05 0.05 0.04 0.03 0.04 0.02 0.08 0.03 0.04 0.11 0.12 0.18 0.18 0.12 0.10 0.12 0.08 0.02 0.01 0.01 0.01 0.04 0.03 0.02 0.02 0.00 0.00 0.00 0.00 0.00 0.00
0.00 0.01 0.02 0.03 0.02 0.01 0.01 0.01 0.02 0.07 0.12 0.13 0.11 0.05 0.05 0.09 0.16 0.26 0.41 0.25 0.16 0.25 0.18 0.09 0.17 0.13 0.06 0.04 0.10 0.10 0.11 0.05 0.14 0.21 0.15 0.15 0.16 0.17 0.13 0.07 0.02 0.00 0.00 0.00 0.01 0.00 0.00 0.00 0.00 0.00 0.00 0.00 0.00 0.00
0.02 0.09 0.30 0.35 0.16 0.04 0.02 0.01 0.01 0.05 0.12 0.11 0.12 0.09 0.14 0.19 0.16 0.12 0.13 0.05 0.07 0.21 0.37 0.29 0.30 0.29 0.27 0.20 0.20 0.12 0.18 0.11 0.08 0.17 0.18 0.16 0.15 0.11 0.12 0.07 0.03 0.01 0.00 0.00 0.00 0.00 0.00 0.00 0.00 0.00 0.00 0.00 0.00 0.00
0.39 0.54 0.58 0.27 0.08 0.02 0.01 0.01 0.01 0.07 0.10 0.09 0.16 0.19 0.27 0.28 0.23 0.07 0.04 0.06 0.11 0.22 0.21 0.14 0.21 0.45 0.33 0.22 0.21 0.09 0.13 0.19 0.13 0.10 0.09 0.07 0.09 0.16 0.15 0.02 0.00 0.00 0.00 0.00 0.00 0.00 0.00 0.00 0.00 0.00 0.00 0.00 0.00 0.00
0.77 0.54 0.30 0.11 0.04 0.03 0.01 0.01 0.02 0.07 0.13 0.27 0.35 0.44 0.50 0.36 0.19 0.09 0.04 0.35 0.32 0.21 0.20 0.08 0.17 0.43 0.39 0.21 0.12 0.09 0.09 0.18 0.15 0.05 0.04 0.06 0.09 0.09 0.03 0.02 0.00 0.00 0.00 0.00 0.00 0.00 0.00 0.00 0.00 0.00 0.00 0.00 0.00 0.00
0.33 0.22 0.13 0.07 0.05 0.05 0.03 0.02 0.05 0.14 0.36 0.36 0.33 0.36 0.33 0.18 0.18 0.20 0.35 0.58 0.66 0.42 0.22 0.09 0.10 0.31 0.31 0.15 0.11 0.07 0.05 0.08 0.07 0.04 0.02 0.06 0.04 0.01 0.00 0.00 0.00 0.00 0.00 0.00 0.00 0.00 0.00 0.00 0.00 0.00 0.00 0.00 0.00 0.00
0.14 0.11 0.08 0.07 0.06 0.05 0.04 0.05 0.16 0.46 0.23 0.17 0.18 0.33 0.37 0.40 0.28 0.32 0.38 0.26 0.17 0.28 0.10 0.03 0.05 0.25 0.16 0.09 0.04 0.03 0.04 0.03 0.06 0.04 0.03 0.03 0.02 0.01 0.00 0.00 0.00 0.00 0.00 0.00 0.00 0.00 0.00 0.00 0.00 0.00 0.00 0.00 0.00 0.00
0.12 0.11 0.11 0.10 0.09 0.10 0.11 0.11 0.28 0.08 0.06 0.05 0.14 0.25 0.33 0.24 0.22 0.18 0.16 0.08 0.06 0.11 0.02 0.02 0.03 0.14 0.04 0.01 0.01 0.01 0.00 0.00 0.01 0.01 0.01 0.01 0.00 0.00 0.00 0.00 0.00 0.00 0.00 0.00 0.00 0.00 0.00 0.00 0.00 0.00 0.00 0.00 0.00 0.00
0.05 0.07 0.08 0.09 0.10 0.10 0.06 0.06 0.05 0.04 0.02 0.08 0.12 0.10 0.15 0.07 0.13 0.03 0.00 0.00 0.01 0.01 0.00 0.01 0.01 0.02 0.01 0.01 0.01 0.00 0.00 0.00 0.00 0.01 0.00 0.00 0.00 0.00 0.00 0.00 0.00 0.00 0.00 0.00 0.00 0.00 0.00 0.00 0.00 0.00 0.00 0.01 0.02 0.03
0.01 0.01 0.01 0.01 0.02 0.03 0.05 0.03 0.03 0.01 0.02 0.02 0.03 0.04 0.01 0.00 0.01 0.00 0.01 0.01 0.00 0.00 0.01 0.03 0.02 0.02 0.01 0.00 0.00 0.00 0.00 0.00 0.00 0.00 0.00 0.00 0.00 0.00 0.00 0.00 0.00 0.00 0.00 0.00 0.00 0.00 0.00 0.00 0.01 0.02 0.04 0.04 0.04 0.04
0.01 0.03 0.05 0.04 0.03 0.02 0.01 0.01 0.00 0.00 0.00 0.00 0.00 0.00 0.01 0.01 0.01 0.00 0.01 0.00 0.00 0.00 0.02 0.02 0.01 0.01 0.00 0.00 0.00 0.00 0.00 0.00 0.00 0.00 0.00 0.00 0.00 0.00 0.00 0.00 0.00 0.00 0.00 0.00 0.00 0.00 0.00 0.00 0.02 0.05 0.08 0.08 0.07 0.09
0.01 0.02 0.03 0.02 0.00 0.00 0.00 0.00 0.00 0.00 0.00 0.00 0.01 0.01 0.02 0.03 0.04 0.02 0.01 0.00 0.00 0.00 0.01 0.01 0.00 0.00 0.00 0.00 0.00 0.00 0.00 0.00 0.00 0.01 0.01 0.01 0.01 0.00 0.00 0.00 0.00 0.00 0.00 0.00 0.00 0.00 0.00 0.01 0.03 0.05 0.09 0.11 0.11 0.09
0.00 0.00 0.00 0.00 0.00 0.00 0.00 0.00 0.00 0.00 0.00 0.00 0.02 0.03 0.02 0.04 0.05 0.03 0.00 0.00 0.00 0.01 0.00 0.00 0.00 0.00 0.00 0.00 0.00 0.00 0.00 0.01 0.01 0.01 0.01 0.01 0.00 0.00 0.00 0.00 0.00 0.00 0.00 0.00 0.00 0.01 0.03 0.04 0.05 0.07 0.07 0.09 0.11 0.13
0.00 0.00 0.00 0.00 0.00 0.00 0.00 0.00 0.00 0.00 0.00 0.01 0.02 0.04 0.04 0.06 0.05 0.01 0.00 0.00 0.01 0.01 0.00 0.00 0.00 0.00 0.00 0.00 0.00 0.00 0.01 0.01 0.01 0.01 0.01 0.02 0.02 0.03 0.03 0.01 0.00 0.00 0.00 0.00 0.00 0.01 0.02 0.03 0.03 0.04 0.05 0.06 0.08 0.11
0.00 0.00 0.00 0.00 0.00 0.00 0.00 0.00 0.00 0.00 0.01 0.01 0.03 0.03 0.04 0.04 0.01 0.00 0.00 0.00 0.00 0.00 0.00 0.00 0.00 0.00 0.00 0.00 0.01 0.00 0.00 0.00 0.00 0.01 0.01 0.01 0.02 0.03 0.03 0.02 0.02 0.01 0.01 0.01 0.01 0.01 0.03 0.03 0.03 0.03 0.03 0.04 0.04 0.05
0.00 0.00 0.00 0.00 0.00 0.00 0.00 0.00 0.00 0.00 0.00 0.00 0.00 0.00 0.01 0.01 0.00 0.00 0.00 0.00 0.00 0.00 0.00 0.00 0.00 0.00 0.01 0.00 0.00 0.00 0.00 0.00 0.00 0.01 0.01 0.01 0.01 0.02 0.02 0.01 0.01 0.01 0.02 0.03 0.03 0.03 0.03 0.03 0.05 0.04 0.05 0.05 0.05 0.05
0.00 0.00 0.00 0.00 0.00 0.00 0.00 0.00 0.00 0.00 0.00 0.00 0.00 0.00 0.00 0.00 0.00 0.00 0.00 0.00 0.00 0.00 0.00 0.00 0.01 0.01 0.00 0.00 0.00 0.00 0.00 0.00 0.00 0.00 0.00 0.00 0.01 0.00 0.01 0.01 0.01 0.01 0.01 0.01 0.03 0.04 0.04 0.02 0.03 0.03 0.05 0.07 0.07 0.07
0.00 0.00 0.00 0.00 0.00 0.00 0.00 0.00 0.00 0.00 0.00 0.00 0.00 0.00 0.00 0.00 0.00 0.00 0.00 0.00 0.00 0.00 0.00 0.00 0.00 0.01 0.00 0.00 0.00 0.00 0.00 0.00 0.00 0.00 0.00 0.00 0.00 0.00 0.00 0.00 0.00 0.01 0.01 0.01 0.01 0.01 0.03 0.04 0.04 0.05 0.06 0.06 0.06 0.06
0.00 0.00 0.00 0.00 0.00 0.00 0.00 0.00 0.00 0.00 0.00 0.00 0.00 0.00 0.00 0.00 0.00 0.00 0.00 0.00 0.00 0.00 0.00 0.00 0.00 0.02 0.01 0.00 0.00 0.00 0.00 0.00 0.00 0.00 0.00 0.00 0.00 0.00 0.00 0.00 0.00 0.01 0.01 0.01 0.00 0.00 0.01 0.01 0.02 0.04 0.05 0.06 0.06 0.06
0.00 0.00 0.00 0.00 0.00 0.00 0.00 0.00 0.00 0.00 0.00 0.00 0.00 0.00 0.00 0.00 0.00 0.00 0.00 0.00 0.00 0.00 0.00 0.00 0.00 0.03 0.03 0.02 0.01 0.00 0.00 0.00 0.00 0.00 0.00 0.00 0.00 0.00 0.00 0.00 0.00 0.00 0.00 0.00 0.00 0.00 0.01 0.01 0.01 0.02 0.02 0.03 0.04 0.03
0.00 0.00 0.00 0.00 0.00 0.00 0.00 0.00 0.00 0.00 0.00 0.01 0.00 0.00 0.00 0.00 0.00 0.00 0.00 0.00 0.00 0.00 0.00 0.00 0.00 0.01 0.01 0.02 0.02 0.01 0.00 0.00 0.00 0.00 0.00 0.00 0.00 0.00 0.00 0.00 0.00 0.00 0.00 0.00 0.01 0.01 0.02 0.02 0.02 0.02 0.02 0.02 0.02 0.03
0.00 0.00 0.00 0.00 0.00 0.00 0.00 0.00 0.00 0.00 0.00 0.01 0.01 0.01 0.00 0.00 0.00 0.00 0.00 0.00 0.01 0.01 0.01 0.00 0.01 0.00 0.00 0.00 0.01 0.01 0.00 0.00 0.00 0.00 0.00 0.00 0.00 0.00 0.00 0.00 0.01 0.01 0.00 0.00 0.00 0.00 0.01 0.01 0.01 0.01 0.02 0.02 0.02 0.03
0.00 0.00 0.00 0.00 0.00 0.00 0.00 0.00 0.00 0.00 0.00 0.00 0.00 0.00 0.00 0.00 0.00 0.00 0.01 0.00 0.00 0.00 0.00 0.00 0.00 0.00 0.00 0.01 0.00 0.01 0.01 0.01 0.00 0.00 0.00 0.00 0.00 0.00 0.00 0.00 0.00 0.00 0.00 0.00 0.00 0.00 0.00 0.01 0.01 0.01 0.01 0.03 0.03 0.02
0.00 0.00 0.00 0.00 0.00 0.00 0.00 0.00 0.00 0.00 0.00 0.00 0.00 0.00 0.00 0.00 0.00 0.00 0.00 0.00 0.00 0.00 0.00 0.00 0.00 0.00 0.00 0.01 0.01 0.01 0.02 0.02 0.02 0.01 0.01 0.01 0.02 0.01 0.00 0.00 0.00 0.00 0.00 0.00 0.00 0.00 0.00 0.00 0.00 0.01 0.01 0.02 0.02 0.03
0.00 0.00 0.00 0.00 0.00 0.00 0.00 0.00 0.00 0.00 0.00 0.01 0.00 0.00 0.00 0.00 0.01 0.01 0.00 0.00 0.00 0.00 0.00 0.01 0.02 0.02 0.02 0.02 0.01 0.01 0.00 0.01 0.01 0.01 0.01 0.01 0.01 0.01 0.01 0.00 0.00 0.00 0.00 0.01 0.01 0.00 0.00 0.00 0.01 0.01 0.02 0.03 0.04 0.05
0.00 0.00 0.00 0.00 0.00 0.00 0.00 0.00 0.01 0.01 0.02 0.02 0.02 0.01 0.01 0.01 0.01 0.01 0.00 0.00 0.00 0.00 0.01 0.01 0.01 0.01 0.01 0.01 0.01 0.01 0.00 0.00 0.01 0.00 0.01 0.00 0.00 0.00 0.01 0.01 0.00 0.00 0.01 0.02 0.03 0.05 0.05 0.05 0.05 0.06 0.07 0.07 0.06 0.05
0.00 0.00 0.00 0.00 0.00 0.00 0.00 0.01 0.01 0.02 0.02 0.02 0.03 0.03 0.02 0.02 0.01 0.01 0.00 0.00 0.01 0.00 0.00 0.01 0.01 0.01 0.01 0.01 0.01 0.00 0.01 0.00 0.00 0.00 0.00 0.00 0.00 0.00 0.01 0.01 0.01 0.01 0.01 0.02 0.02 0.02 0.02 0.02 0.03 0.03 0.03 0.03 0.03 0.02
0.00 0.00 0.00 0.00 0.00 0.00 0.01 0.01 0.01 0.02 0.02 0.02 0.02 0.03 0.03 0.03 0.01 0.00 0.00 0.01 0.01 0.01 0.01 0.00 0.01 0.01 0.00 0.00 0.00 0.00 0.00 0.00 0.00 0.00 0.00 0.00 0.00 0.00 0.01 0.02 0.02 0.01 0.01 0.01 0.02 0.02 0.02 0.01 0.01 0.01 0.02 0.02 0.02 0.03
0.01 0.01 0.01 0.00 0.01 0.01 0.01 0.02 0.01 0.01 0.01 0.01 0.00 0.01 0.02 0.02 0.01 0.00 0.00 0.01 0.01 0.01 0.01 0.01 0.01 0.01 0.00 0.00 0.00 0.00 0.01 0.00 0.00 0.00 0.00 0.00 0.01 0.01 0.01 0.02 0.02 0.02 0.02 0.02 0.02 0.03 0.03 0.03 0.03 0.03 0.03 0.03 0.03 0.03

GFSWCAN_prec_precacc12_132.txt.gz
Total_Precipitation_Accumulation
0.15 0.13 0.12 0.06 0.03 0.02 0.03 0.06 0.21 0.43 0.35 0.33 0.21 0.17 0.31 0.39 0.42 0.44 0.29 0.09 0.12 0.14 0.04 0.03 0.05 0.06 0.07 0.09 0.09 0.09 0.13 0.12 0.13 0.13 0.08 0.05 0.07 0.03 0.02 0.01 0.02 0.11 0.17 0.16 0.21 0.26 0.13 0.00 0.00 0.00 0.00 0.00 0.00 0.00
0.04 0.06 0.02 0.01 0.00 0.00 0.00 0.01 0.07 0.15 0.58 0.43 0.20 0.14 0.39 0.48 0.39 0.43 0.27 0.16 0.11 0.07 0.03 0.01 0.01 0.01 0.03 0.04 0.07 0.09 0.07 0.09 0.10 0.09 0.07 0.08 0.10 0.08 0.04 0.02 0.01 0.02 0.03 0.06 0.12 0.14 0.04 0.00 0.00 0.00 0.00 0.00 0.00 0.00
0.00 0.00 0.00 0.00 0.00 0.00 0.00 0.04 0.14 0.10 0.25 0.46 0.29 0.23 0.51 0.49 0.33 0.29 0.15 0.09 0.12 0.09 0.03 0.00 0.00 0.00 0.00 0.00 0.02 0.14 0.10 0.08 0.11 0.16 0.23 0.24 0.20 0.09 0.08 0.03 0.04 0.01 0.00 0.02 0.04 0.00 0.00 0.00 0.00 0.00 0.00 0.00 0.00 0.00
0.00 0.00 0.00 0.00 0.00 0.00 0.00 0.03 0.12 0.27 0.19 0.30 0.39 0.41 0.43 0.20 0.17 0.14 0.04 0.03 0.01 0.05 0.03 0.00 0.00 0.00 0.00 0.00 0.00 0.01 0.05 0.04 0.06 0.12 0.18 0.24 0.20 0.17 0.17 0.13 0.12 0.11 0.07 0.07 0.06 0.03 0.02 0.00 0.00 0.00 0.00 0.00 0.00 0.00
0.00 0.00 0.00 0.00 0.00 0.00 0.00 0.01 0.03 0.15 0.09 0.18 0.27 0.26 0.12 0.04 0.06 0.13 0.07 0.04 0.02 0.04 0.12 0.05 0.01 0.00 0.00 0.00 0.00 0.00 0.01 0.04 0.06 0.10 0.16 0.18 0.13 0.13 0.15 0.12 0.04 0.01 0.04 0.06 0.07 0.08 0.05 0.08 0.04 0.02 0.00 0.00 0.00 0.00
0.00 0.00 0.00 0.00 0.00 0.01 0.01 0.01 0.02 0.06 0.08 0.11 0.15 0.08 0.05 0.04 0.11 0.15 0.14 0.07 0.05 0.15 0.16 0.06 0.05 0.02 0.02 0.02 0.03 0.05 0.09 0.06 0.14 0.21 0.15 0.16 0.18 0.23 0.16 0.08 0.04 0.02 0.01 0.02 0.03 0.02 0.01 0.01 0.01 0.01 0.00 0.00 0.00 0.00
0.00 0.02 0.03 0.02 0.03 0.01 0.01 0.01 0.01 0.05 0.12 0.07 0.08 0.05 0.04 0.05 0.10 0.08 0.10 0.05 0.01 0.14 0.34 0.26 0.22 0.21 0.23 0.20 0.21 0.14 0.23 0.17 0.13 0.20 0.19 0.17 0.18 0.14 0.11 0.06 0.03 0.01 0.01 0.01 0.00 0.00 0.00 0.00 0.00 0.00 0.00 0.00 0.00 0.00
0.18 0.30 0.26 0.10 0.04 0.01 0.00 0.01 0.01 0.07 0.09 0.06 0.10 0.06 0.08 0.12 0.17 0.09 0.05 0.06 0.09 0.22 0.21 0.15 0.22 0.47 0.34 0.25 0.26 0.16 0.20 0.24 0.19 0.13 0.11 0.08 0.11 0.17 0.15 0.03 0.01 0.01 0.00 0.00 0.00 0.00 0.00 0.00 0.00 0.00 0.00 0.00 0.00 0.00
0.69 0.35 0.08 0.03 0.02 0.01 0.01 0.01 0.01 0.06 0.07 0.16 0.17 0.25 0.37 0.28 0.14 0.08 0.04 0.35 0.32 0.22 0.22 0.09 0.18 0.51 0.44 0.24 0.16 0.12 0.11 0.21 0.17 0.07 0.04 0.07 0.10 0.11 0.03 0.04 0.03 0.01 0.00 0.00 0.00 0.00 0.00 0.00 0.00 0.00 0.00 0.00 0.00 0.00
0.30 0.17 0.05 0.03 0.02 0.02 0.01 0.01 0.02 0.08 0.26 0.24 0.25 0.32 0.29 0.14 0.09 0.16 0.32 0.57 0.66 0.43 0.23 0.10 0.10 0.36 0.40 0.23 0.14 0.11 0.09 0.11 0.09 0.05 0.03 0.09 0.07 0.02 0.01 0.02 0.02 0.00 0.00 0.00 0.00 0.00 0.00 0.00 0.00 0.00 0.00 0.00 0.00 0.00
0.12 0.09 0.07 0.04 0.03 0.02 0.02 0.02 0.14 0.42 0.23 0.19 0.22 0.34 0.30 0.28 0.25 0.32 0.38 0.26 0.18 0.30 0.11 0.03 0.05 0.29 0.24 0.24 0.11 0.09 0.11 0.08 0.12 0.07 0.04 0.06 0.03 0.04 0.01 0.00 0.00 0.00 0.00 0.00 0.00 0.00 0.00 0.00 0.00 0.00 0.00 0.00 0.00 0.00
0.11 0.11 0.11 0.09 0.06 0.04 0.04 0.07 0.28 0.10 0.10 0.09 0.16 0.21 0.31 0.24 0.25 0.20 0.19 0.10 0.08 0.17 0.05 0.03 0.06 0.25 0.19 0.16 0.13 0.07 0.07 0.05 0.11 0.07 0.05 0.06 0.03 0.01 0.00 0.00 0.00 0.00 0.00 0.00 0.00 0.00 0.00 0.00 0.00 0.00 0.00 0.00 0.00 0.00
0.05 0.06 0.07 0.07 0.06 0.06 0.04 0.06 0.06 0.08 0.04 0.14 0.20 0.12 0.19 0.09 0.19 0.05 0.02 0.02 0.09 0.07 0.03 0.04 0.10 0.14 0.13 0.14 0.04 0.02 0.02 0.03 0.03 0.03 0.02 0.02 0.00 0.00 0.00 0.00 0.00 0.00 0.00 0.00 0.00 0.00 0.00 0.00 0.00 0.00 0.00 0.01 0.02 0.03
0.01 0.01 0.01 0.01 0.02 0.03 0.06 0.07 0.10 0.05 0.10 0.21 0.13 0.11 0.12 0.04 0.03 0.02 0.05 0.06 0.04 0.05 0.04 0.07 0.05 0.06 0.04 0.01 0.01 0.00 0.00 0.00 0.00 0.00 0.01 0.00 0.00 0.00 0.00 0.00 0.00 0.00 0.00 0.00 0.00 0.00 0.00 0.00 0.00 0.01 0.02 0.03 0.03 0.04
0.02 0.04 0.07 0.08 0.07 0.05 0.03 0.06 0.02 0.06 0.10 0.06 0.01 0.01 0.01 0.02 0.01 0.00 0.01 0.00 0.00 0.04 0.08 0.05 0.02 0.03 0.01 0.00 0.00 0.00 0.00 0.00 0.00 0.01 0.01 0.00 0.00 0.00 0.00 0.00 0.00 0.00 0.00 0.00 0.00 0.00 0.00 0.00 0.01 0.03 0.04 0.05 0.05 0.07
0.02 0.03 0.05 0.04 0.02 0.02 0.01 0.01 0.03 0.05 0.01 0.00 0.01 0.02 0.02 0.05 0.04 0.02 0.01 0.00 0.00 0.03 0.06 0.02 0.00 0.01 0.00 0.00 0.00 0.00 0.00 0.00 0.00 0.01 0.01 0.01 0.01 0.00 0.00 0.00 0.00 0.00 0.00 0.00 0.00 0.00 0.00 0.00 0.00 0.01 0.04 0.06 0.07 0.06
0.00 0.01 0.00 0.00 0.00 0.00 0.00 0.02 0.03 0.01 0.00 0.00 0.02 0.02 0.02 0.06 0.03 0.01 0.00 0.01 0.00 0.05 0.02 0.00 0.00 0.00 0.00 0.00 0.00 0.00 0.01 0.01 0.02 0.02 0.01 0.01 0.01 0.00 0.00 0.00 0.00 0.00 0.00 0.00 0.00 0.00 0.00 0.01 0.01 0.02 0.03 0.04 0.06 0.08
0.01 0.00 0.00 0.00 0.00 0.00 0.00 0.00 0.00 0.00 0.00 0.01 0.03 0.04 0.02 0.03 0.03 0.01 0.00 0.00 0.05 0.05 0.01 0.00 0.00 0.00 0.00 0.00 0.00 0.00 0.01 0.01 0.02 0.01 0.01 0.02 0.01 0.02 0.02 0.01 0.00 0.00 0.00 0.00 0.00 0.00 0.01 0.01 0.01 0.01 0.02 0.03 0.04 0.07
0.00 0.00 0.00 0.00 0.00 0.00 0.00 0.00 0.00 0.00 0.00 0.01 0.02 0.03 0.03 0.03 0.01 0.00 0.00 0.00 0.02 0.01 0.00 0.00 0.00 0.00 0.00 0.00 0.01 0.01 0.00 0.01 0.01 0.01 0.01 0.01 0.02 0.02 0.03 0.02 0.01 0.01 0.00 0.00 0.00 0.00 0.01 0.01 0.01 0.01 0.01 0.02 0.02 0.03
0.00 0.00 0.00 0.00 0.00 0.00 0.00 0.00 0.00 0.00 0.00 0.00 0.00 0.00 0.01 0.01 0.00 0.00 0.00 0.00 0.00 0.00 0.00 0.00 0.00 0.00 0.00 0.01 0.00 0.01 0.01 0.01 0.00 0.01 0.01 0.01 0.01 0.02 0.02 0.01 0.01 0.01 0.01 0.01 0.01 0.01 0.01 0.01 0.02 0.01 0.02 0.02 0.02 0.03
0.00 0.00 0.00 0.00 0.00 0.00 0.00 0.00 0.00 0.00 0.00 0.00 0.00 0.00 0.00 0.00 0.00 0.01 0.01 0.00 0.00 0.01 0.00 0.00 0.00 0.00 0.00 0.00 0.00 0.00 0.00 0.00 0.00 0.00 0.01 0.01 0.01 0.00 0.01 0.01 0.01 0.00 0.00 0.01 0.01 0.01 0.01 0.01 0.01 0.02 0.03 0.04 0.05 0.05
0.00 0.00 0.00 0.00 0.00 0.00 0.00 0.00 0.00 0.00 0.00 0.00 0.00 0.00 0.00 0.01 0.01 0.00 0.00 0.00 0.00 0.00 0.00 0.00 0.00 0.00 0.00 0.00 0.00 0.00 0.00 0.00 0.00 0.00 0.00 0.00 0.00 0.00 0.00 0.00 0.00 0.01 0.01 0.00 0.00 0.01 0.01 0.02 0.02 0.03 0.04 0.06 0.06 0.06
0.00 0.00 0.00 0.00 0.00 0.00 0.00 0.00 0.00 0.00 0.00 0.00 0.00 0.00 0.00 0.00 0.00 0.00 0.00 0.00 0.00 0.00 0.00 0.00 0.00 0.01 0.00 0.00 0.00 0.00 0.00 0.00 0.00 0.00 0.00 0.00 0.00 0.00 0.00 0.00 0.00 0.01 0.01 0.00 0.00 0.01 0.01 0.01 0.01 0.03 0.05 0.06 0.07 0.08
0.00 0.00 0.00 0.00 0.00 0.00 0.00 0.00 0.00 0.00 0.00 0.00 0.00 0.00 0.00 0.00 0.00 0.00 0.00 0.00 0.00 0.00 0.00 0.00 0.00 0.02 0.03 0.01 0.00 0.00 0.00 0.00 0.00 0.00 0.00 0.00 0.00 0.00 0.00 0.00 0.00 0.00 0.00 0.00 0.00 0.01 0.01 0.01 0.01 0.03 0.03 0.04 0.05 0.05
0.00 0.00 0.00 0.00 0.00 0.00 0.00 0.00 0.00 0.00 0.00 0.01 0.00 0.00 0.00 0.00 0.00 0.00 0.00 0.00 0.00 0.01 0.00 0.00 0.00 0.01 0.01 0.02 0.02 0.01 0.00 0.00 0.00 0.00 0.00 0.00 0.00 0.00 0.00 0.00 0.00 0.00 0.00 0.01 0.01 0.02 0.02 0.02 0.02 0.02 0.02 0.03 0.03 0.03
0.00 0.00 0.00 0.00 0.00 0.00 0.00 0.00 0.00 0.00 0.01 0.01 0.01 0.01 0.00 0.00 0.00 0.00 0.00 0.01 0.01 0.01 0.01 0.01 0.01 0.01 0.01 0.01 0.01 0.01 0.00 0.00 0.00 0.00 0.00 0.00 0.00 0.00 0.00 0.00 0.00 0.00 0.00 0.00 0.00 0.01 0.01 0.01 0.01 0.02 0.02 0.03 0.03 0.03
0.00 0.00 0.00 0.00 0.00 0.00 0.00 0.00 0.00 0.01 0.01 0.01 0.01 0.01 0.01 0.00 0.00 0.00 0.01 0.00 0.00 0.01 0.01 0.00 0.00 0.00 0.00 0.01 0.00 0.01 0.01 0.01 0.01 0.00 0.00 0.00 0.00 0.00 0.00 0.00 0.00 0.00 0.00 0.00 0.00 0.00 0.00 0.01 0.01 0.02 0.02 0.03 0.03 0.03
0.00 0.00 0.00 0.00 0.00 0.00 0.00 0.00 0.01 0.01 0.01 0.01 0.00 0.00 0.00 0.00 0.00 0.00 0.00 0.00 0.00 0.00 0.00 0.00 0.00 0.00 0.00 0.01 0.01 0.01 0.01 0.02 0.01 0.00 0.00 0.01 0.01 0.01 0.00 0.00 0.00 0.00 0.00 0.00 0.00 0.00 0.00 0.00 0.01 0.01 0.02 0.02 0.03 0.04
0.00 0.00 0.00 0.00 0.00 0.00 0.00 0.00 0.01 0.00 0.00 0.00 0.01 0.01 0.00 0.00 0.01 0.01 0.00 0.00 0.00 0.00 0.00 0.01 0.02 0.01 0.02 0.02 0.01 0.01 0.01 0.01 0.01 0.01 0.01 0.01 0.01 0.01 0.01 0.00 0.00 0.00 0.00 0.00 0.00 0.00 0.00 0.00 0.01 0.01 0.02 0.03 0.04 0.06
0.01 0.00 0.00 0.00 0.00 0.00 0.00 0.00 0.01 0.01 0.01 0.01 0.02 0.01 0.00 0.00 0.01 0.00 0.00 0.00 0.00 0.00 0.01 0.01 0.01 0.01 0.01 0.01 0.01 0.01 0.00 0.00 0.01 0.00 0.01 0.01 0.01 0.00 0.01 0.01 0.00 0.00 0.01 0.01 0.01 0.02 0.03 0.02 0.03 0.05 0.06 0.06 0.06 0.06
0.00 0.00 0.00 0.00 0.00 0.01 0.00 0.00 0.01 0.01 0.02 0.02 0.03 0.03 0.02 0.02 0.01 0.00 0.00 0.00 0.01 0.01 0.01 0.01 0.01 0.01 0.01 0.01 0.01 0.01 0.01 0.00 0.00 0.00 0.00 0.00 0.00 0.01 0.01 0.01 0.01 0.01 0.01 0.01 0.01 0.01 0.01 0.02 0.02 0.03 0.03 0.02 0.02 0.02
0.01 0.01 0.01 0.00 0.01 0.01 0.01 0.01 0.01 0.02 0.02 0.02 0.02 0.03 0.03 0.04 0.02 0.00 0.00 0.01 0.01 0.01 0.01 0.01 0.01 0.01 0.00 0.01 0.00 0.00 0.00 0.00 0.00 0.00 0.00 0.00 0.00 0.00 0.01 0.01 0.01 0.01 0.01 0.01 0.02 0.02 0.01 0.01 0.01 0.01 0.01 0.02 0.02 0.02
0.01 0.01 0.01 0.01 0.01 0.01 0.02 0.02 0.02 0.01 0.01 0.01 0.01 0.01 0.02 0.04 0.02 0.01 0.00 0.01 0.01 0.01 0.01 0.00 0.01 0.00 0.00 0.00 0.00 0.00 0.00 0.00 0.00 0.00 0.00 0.00 0.01 0.01 0.01 0.01 0.02 0.01 0.01 0.02 0.02 0.02 0.02 0.03 0.03 0.03 0.03 0.03 0.03 0.04

GFSWCAN_prec_precacc12_135.txt.gz
Total_Precipitation_Accumulation
0.12 0.11 0.11 0.12 0.10 0.07 0.04 0.06 0.21 0.42 0.34 0.32 0.20 0.16 0.30 0.38 0.39 0.46 0.32 0.13 0.17 0.25 0.10 0.10 0.22 0.22 0.11 0.15 0.17 0.21 0.25 0.15 0.12 0.10 0.07 0.05 0.02 0.01 0.02 0.01 0.02 0.13 0.24 0.19 0.22 0.28 0.14 0.00 0.00 0.01 0.00 0.00 0.00 0.00
0.06 0.08 0.04 0.01 0.00 0.00 0.00 0.01 0.07 0.15 0.58 0.43 0.20 0.14 0.38 0.47 0.36 0.44 0.31 0.19 0.16 0.22 0.16 0.09 0.08 0.13 0.08 0.08 0.13 0.14 0.11 0.10 0.08 0.08 0.05 0.06 0.04 0.03 0.02 0.01 0.01 0.02 0.03 0.08 0.17 0.16 0.04 0.00 0.00 0.00 0.00 0.00 0.00 0.00
0.01 0.01 0.00 0.00 0.00 0.00 0.00 0.00 0.01 0.06 0.24 0.47 0.31 0.24 0.51 0.51 0.37 0.39 0.25 0.16 0.23 0.34 0.20 0.14 0.11 0.03 0.04 0.12 0.07 0.16 0.14 0.09 0.10 0.14 0.22 0.20 0.15 0.07 0.06 0.03 0.04 0.01 0.01 0.02 0.04 0.00 0.00 0.00 0.00 0.00 0.00 0.00 0.00 0.00
0.00 0.00 0.00 0.00 0.00 0.00 0.00 0.00 0.01 0.13 0.17 0.43 0.62 0.49 0.50 0.37 0.41 0.38 0.30 0.19 0.22 0.29 0.24 0.08 0.01 0.00 0.04 0.10 0.03 0.04 0.07 0.06 0.08 0.12 0.16 0.20 0.17 0.15 0.16 0.12 0.11 0.11 0.12 0.16 0.14 0.05 0.03 0.01 0.01 0.02 0.02 0.00 0.00 0.00
0.00 0.00 0.00 0.00 0.00 0.00 0.00 0.00 0.01 0.03 0.11 0.40 0.60 0.49 0.38 0.39 0.40 0.39 0.35 0.28 0.17 0.14 0.12 0.04 0.01 0.00 0.00 0.00 0.01 0.01 0.01 0.04 0.06 0.08 0.07 0.05 0.07 0.10 0.12 0.11 0.04 0.01 0.04 0.07 0.09 0.12 0.09 0.11 0.07 0.06 0.07 0.02 0.01 0.00
0.00 0.00 0.00 0.00 0.00 0.00 0.00 0.00 0.01 0.02 0.11 0.28 0.34 0.15 0.22 0.33 0.33 0.32 0.26 0.11 0.04 0.03 0.02 0.02 0.05 0.01 0.01 0.00 0.00 0.01 0.01 0.04 0.07 0.06 0.07 0.09 0.17 0.23 0.17 0.08 0.04 0.02 0.02 0.04 0.06 0.05 0.03 0.02 0.01 0.01 0.03 0.03 0.02 0.00
0.00 0.00 0.00 0.00 0.00 0.00 0.00 0.00 0.01 0.05 0.07 0.08 0.09 0.04 0.04 0.04 0.10 0.06 0.06 0.04 0.00 0.03 0.06 0.11 0.13 0.05 0.03 0.05 0.07 0.06 0.10 0.11 0.11 0.15 0.16 0.16 0.19 0.15 0.11 0.05 0.03 0.01 0.01 0.01 0.00 0.00 0.00 0.00 0.00 0.00 0.00 0.00 0.00 0.00
0.05 0.06 0.05 0.02 0.01 0.00 0.00 0.00 0.01 0.07 0.07 0.02 0.06 0.03 0.04 0.06 0.08 0.04 0.04 0.04 0.02 0.03 0.06 0.09 0.12 0.26 0.17 0.15 0.18 0.14 0.18 0.23 0.20 0.15 0.11 0.09 0.12 0.20 0.16 0.03 0.01 0.01 0.00 0.01 0.00 0.00 0.00 0.00 0.00 0.00 0.00 0.00 0.00 0.00
0.31 0.09 0.03 0.02 0.01 0.01 0.00 0.00 0.01 0.06 0.04 0.07 0.09 0.10 0.14 0.11 0.04 0.04 0.01 0.22 0.20 0.10 0.16 0.07 0.12 0.44 0.40 0.22 0.16 0.12 0.12 0.24 0.20 0.08 0.05 0.09 0.12 0.14 0.03 0.04 0.03 0.02 0.02 0.01 0.00 0.00 0.00 0.00 0.00 0.00 0.00 0.00 0.00 0.00
0.06 0.05 0.02 0.01 0.01 0.01 0.01 0.00 0.02 0.05 0.12 0.09 0.08 0.11 0.11 0.04 0.06 0.07 0.10 0.36 0.52 0.33 0.22 0.10 0.11 0.36 0.41 0.24 0.14 0.11 0.10 0.13 0.11 0.05 0.04 0.10 0.07 0.02 0.01 0.03 0.04 0.00 0.00 0.00 0.00 0.00 0.00 0.00 0.00 0.00 0.00 0.00 0.00 0.00
0.02 0.02 0.02 0.01 0.01 0.01 0.01 0.00 0.10 0.33 0.14 0.11 0.18 0.29 0.20 0.07 0.14 0.23 0.29 0.20 0.16 0.30 0.11 0.03 0.05 0.29 0.24 0.26 0.13 0.10 0.14 0.10 0.13 0.08 0.04 0.06 0.03 0.04 0.01 0.01 0.01 0.00 0.00 0.00 0.00 0.00 0.00 0.00 0.00 0.00 0.00 0.00 0.00 0.00
0.04 0.04 0.03 0.02 0.02 0.01 0.00 0.04 0.26 0.10 0.10 0.12 0.17 0.16 0.15 0.14 0.23 0.20 0.19 0.11 0.09 0.18 0.06 0.04 0.06 0.25 0.19 0.17 0.18 0.10 0.14 0.14 0.15 0.14 0.06 0.09 0.05 0.01 0.01 0.00 0.00 0.00 0.00 0.00 0.00 0.00 0.00 0.00 0.00 0.00 0.00 0.00 0.00 0.00
0.04 0.04 0.03 0.02 0.01 0.01 0.01 0.05 0.06 0.08 0.07 0.15 0.21 0.12 0.18 0.09 0.20 0.06 0.03 0.02 0.13 0.14 0.05 0.06 0.15 0.15 0.20 0.26 0.27 0.17 0.04 0.12 0.07 0.24 0.10 0.05 0.01 0.00 0.00 0.00 0.00 0.00 0.00 0.00 0.00 0.00 0.00 0.00 0.00 0.00 0.00 0.00 0.00 0.01
0.01 0.02 0.02 0.01 0.01 0.02 0.04 0.07 0.11 0.07 0.17 0.28 0.21 0.17 0.18 0.10 0.04 0.04 0.09 0.20 0.07 0.13 0.09 0.12 0.11 0.20 0.18 0.07 0.07 0.03 0.01 0.01 0.01 0.01 0.02 0.01 0.00 0.00 0.00 0.00 0.00 0.00 0.00 0.00 0.00 0.00 0.00 0.00 0.00 0.00 0.00 0.00 0.01 0.02
0.02 0.05 0.08 0.08 0.07 0.05 0.03 0.08 0.08 0.19 0.26 0.27 0.10 0.07 0.02 0.04 0.01 0.00 0.01 0.00 0.00 0.06 0.14 0.08 0.04 0.04 0.01 0.00 0.00 0.00 0.00 0.00 0.00 0.01 0.02 0.00 0.00 0.00 0.00 0.00 0.00 0.00 0.00 0.00 0.00 0.00 0.00 0.00 0.00 0.01 0.01 0.02 0.02 0.04
0.02 0.03 0.06 0.06 0.04 0.03 0.02 0.06 0.14 0.25 0.17 0.04 0.01 0.02 0.02 0.06 0.04 0.01 0.01 0.00 0.00 0.06 0.10 0.03 0.00 0.01 0.00 0.00 0.00 0.00 0.00 0.00 0.01 0.01 0.01 0.01 0.01 0.00 0.00 0.00 0.00 0.00 0.00 0.00 0.00 0.00 0.00 0.00 0.00 0.01 0.02 0.02 0.03 0.03
0.01 0.01 0.00 0.00 0.00 0.00 0.03 0.17 0.16 0.07 0.02 0.01 0.02 0.02 0.01 0.07 0.04 0.01 0.00 0.01 0.01 0.08 0.04 0.00 0.00 0.00 0.00 0.00 0.00 0.00 0.01 0.01 0.01 0.02 0.01 0.01 0.01 0.00 0.00 0.00 0.00 0.00 0.00 0.00 0.00 0.00 0.00 0.01 0.01 0.01 0.01 0.02 0.03 0.05
0.01 0.00 0.00 0.00 0.00 0.01 0.02 0.03 0.04 0.00 0.00 0.01 0.04 0.03 0.02 0.02 0.02 0.00 0.00 0.01 0.07 0.08 0.02 0.01 0.00 0.00 0.00 0.00 0.01 0.00 0.01 0.01 0.02 0.01 0.01 0.01 0.01 0.01 0.01 0.00 0.00 0.00 0.00 0.00 0.00 0.00 0.00 0.01 0.01 0.00 0.01 0.01 0.02 0.04
0.00 0.00 0.00 0.00 0.00 0.03 0.03 0.00 0.01 0.01 0.00 0.00 0.02 0.02 0.01 0.02 0.01 0.00 0.00 0.01 0.04 0.02 0.01 0.00 0.00 0.00 0.00 0.00 0.01 0.01 0.00 0.01 0.01 0.01 0.02 0.01 0.01 0.01 0.02 0.01 0.00 0.00 0.00 0.00 0.00 0.00 0.00 0.00 0.01 0.00 0.00 0.00 0.01 0.02
0.00 0.00 0.00 0.00 0.00 0.01 0.00 0.00 0.00 0.01 0.00 0.01 0.01 0.00 0.01 0.01 0.00 0.00 0.00 0.01 0.01 0.00 0.00 0.00 0.00 0.00 0.00 0.01 0.00 0.01 0.01 0.01 0.00 0.01 0.01 0.02 0.02 0.01 0.01 0.01 0.00 0.00 0.00 0.00 0.00 0.00 0.00 0.00 0.01 0.00 0.01 0.01 0.01 0.01
0.00 0.00 0.00 0.00 0.00 0.01 0.00 0.00 0.00 0.00 0.00 0.00 0.00 0.00 0.01 0.00 0.01 0.01 0.01 0.00 0.01 0.01 0.01 0.00 0.00 0.00 0.00 0.00 0.00 0.00 0.00 0.00 0.00 0.00 0.01 0.01 0.01 0.01 0.01 0.01 0.00 0.00 0.00 0.00 0.01 0.00 0.00 0.00 0.00 0.01 0.01 0.02 0.03 0.03
0.00 0.00 0.00 0.00 0.00 0.00 0.00 0.00 0.00 0.00 0.00 0.00 0.00 0.00 0.01 0.01 0.01 0.01 0.00 0.00 0.01 0.00 0.00 0.00 0.00 0.00 0.00 0.00 0.00 0.00 0.00 0.00 0.00 0.00 0.00 0.00 0.01 0.00 0.00 0.00 0.00 0.00 0.00 0.00 0.00 0.01 0.00 0.01 0.01 0.01 0.03 0.05 0.05 0.05
0.00 0.00 0.00 0.00 0.00 0.00 0.00 0.00 0.00 0.00 0.00 0.00 0.00 0.00 0.00 0.01 0.00 0.00 0.00 0.00 0.00 0.00 0.00 0.00 0.00 0.00 0.00 0.00 0.00 0.00 0.00 0.00 0.00 0.00 0.00 0.00 0.00 0.00 0.00 0.00 0.00 0.01 0.01 0.00 0.00 0.01 0.01 0.01 0.01 0.02 0.04 0.06 0.07 0.08
0.00 0.00 0.00 0.00 0.00 0.00 0.00 0.00 0.00 0.00 0.00 0.00 0.00 0.00 0.00 0.00 0.00 0.00 0.00 0.00 0.00 0.00 0.00 0.00 0.00 0.01 0.01 0.00 0.00 0.00 0.00 0.00 0.00 0.00 0.00 0.00 0.00 0.00 0.00 0.00 0.00 0.00 0.00 0.00 0.00 0.01 0.01 0.02 0.01 0.03 0.04 0.04 0.06 0.06
0.00 0.00 0.00 0.00 0.00 0.00 0.00 0.00 0.00 0.00 0.00 0.00 0.00 0.00 0.00 0.00 0.01 0.00 0.00 0.00 0.00 0.01 0.00 0.00 0.00 0.01 0.01 0.01 0.01 0.01 0.00 0.00 0.00 0.00 0.00 0.00 0.00 0.00 0.00 0.00 0.00 0.00 0.00 0.01 0.01 0.02 0.02 0.02 0.02 0.03 0.03 0.04 0.04 0.04
0.00 0.00 0.00 0.00 0.00 0.00 0.00 0.01 0.01 0.00 0.01 0.01 0.01 0.01 0.00 0.01 0.00 0.00 0.00 0.01 0.01 0.01 0.01 0.01 0.01 0.01 0.01 0.01 0.01 0.01 0.00 0.00 0.00 0.00 0.00 0.00 0.00 0.00 0.00 0.00 0.00 0.00 0.00 0.00 0.01 0.01 0.01 0.01 0.02 0.02 0.03 0.04 0.04 0.04
0.00 0.00 0.00 0.00 0.00 0.00 0.00 0.01 0.01 0.01 0.01 0.01 0.02 0.01 0.01 0.01 0.00 0.00 0.00 0.00 0.01 0.01 0.01 0.00 0.01 0.01 0.01 0.01 0.00 0.00 0.00 0.00 0.00 0.00 0.00 0.00 0.00 0.00 0.00 0.00 0.00 0.00 0.00 0.00 0.00 0.00 0.01 0.01 0.01 0.02 0.03 0.04 0.03 0.03
0.00 0.00 0.00 0.00 0.00 0.00 0.01 0.01 0.01 0.01 0.01 0.01 0.01 0.01 0.01 0.00 0.00 0.00 0.00 0.00 0.00 0.00 0.00 0.01 0.00 0.00 0.00 0.01 0.00 0.00 0.00 0.01 0.01 0.00 0.00 0.01 0.00 0.00 0.00 0.00 0.00 0.00 0.00 0.00 0.00 0.00 0.00 0.00 0.01 0.02 0.02 0.03 0.03 0.04
0.00 0.00 0.00 0.00 0.00 0.00 0.00 0.00 0.01 0.01 0.00 0.00 0.01 0.01 0.01 0.00 0.00 0.00 0.00 0.00 0.00 0.00 0.00 0.01 0.01 0.01 0.01 0.01 0.01 0.00 0.01 0.01 0.01 0.02 0.01 0.02 0.01 0.01 0.00 0.00 0.00 0.00 0.00 0.00 0.00 0.00 0.00 0.00 0.01 0.01 0.02 0.03 0.03 0.06
0.01 0.00 0.00 0.00 0.00 0.00 0.01 0.01 0.01 0.01 0.00 0.01 0.01 0.00 0.00 0.00 0.01 0.00 0.00 0.00 0.00 0.00 0.01 0.01 0.01 0.01 0.01 0.01 0.02 0.02 0.01 0.00 0.01 0.01 0.01 0.01 0.01 0.00 0.00 0.00 0.01 0.00 0.00 0.01 0.00 0.01 0.01 0.01 0.02 0.03 0.04 0.04 0.05 0.06
0.01 0.01 0.01 0.01 0.01 0.01 0.01 0.00 0.00 0.01 0.01 0.01 0.02 0.02 0.01 0.02 0.01 0.00 0.00 0.00 0.01 0.01 0.01 0.01 0.02 0.02 0.01 0.01 0.02 0.01 0.01 0.01 0.00 0.00 0.00 0.00 0.00 0.01 0.00 0.00 0.01 0.01 0.01 0.01 0.01 0.01 0.01 0.01 0.01 0.02 0.02 0.01 0.01 0.01
0.01 0.01 0.01 0.01 0.02 0.02 0.01 0.01 0.01 0.01 0.01 0.02 0.01 0.02 0.03 0.04 0.02 0.01 0.00 0.00 0.01 0.01 0.01 0.01 0.01 0.01 0.00 0.01 0.00 0.00 0.00 0.00 0.00 0.00 0.00 0.00 0.00 0.00 0.00 0.01 0.01 0.01 0.01 0.01 0.01 0.01 0.01 0.01 0.01 0.01 0.01 0.01 0.01 0.02
0.01 0.02 0.01 0.01 0.01 0.01 0.02 0.01 0.01 0.01 0.01 0.01 0.01 0.01 0.02 0.04 0.03 0.01 0.00 0.00 0.00 0.01 0.01 0.00 0.01 0.01 0.00 0.00 0.00 0.00 0.00 0.00 0.00 0.00 0.00 0.00 0.01 0.01 0.01 0.01 0.01 0.02 0.02 0.02 0.02 0.02 0.02 0.02 0.02 0.02 0.02 0.02 0.03 0.03

GFSWCAN_prec_precacc12_138.txt.gz
Total_Precipitation_Accumulation
0.14 0.11 0.11 0.12 0.09 0.07 0.04 0.04 0.11 0.22 0.18 0.04 0.02 0.09 0.28 0.35 0.39 0.47 0.32 0.14 0.19 0.28 0.11 0.09 0.22 0.26 0.18 0.16 0.21 0.25 0.37 0.35 0.33 0.13 0.09 0.04 0.01 0.00 0.01 0.01 0.02 0.10 0.16 0.11 0.11 0.15 0.07 0.00 0.00 0.01 0.00 0.00 0.00 0.00
0.09 0.10 0.04 0.00 0.00 0.00 0.00 0.01 0.05 0.13 0.49 0.33 0.10 0.10 0.36 0.45 0.36 0.48 0.32 0.19 0.16 0.25 0.17 0.09 0.09 0.17 0.19 0.17 0.21 0.21 0.20 0.17 0.21 0.08 0.03 0.04 0.03 0.02 0.02 0.01 0.00 0.02 0.03 0.07 0.15 0.16 0.04 0.00 0.00 0.00 0.00 0.00 0.00 0.00
0.04 0.02 0.01 0.00 0.00 0.00 0.00 0.00 0.01 0.06 0.24 0.47 0.30 0.22 0.49 0.51 0.37 0.42 0.26 0.17 0.26 0.38 0.24 0.15 0.20 0.16 0.18 0.27 0.21 0.33 0.20 0.10 0.15 0.11 0.13 0.15 0.11 0.05 0.05 0.03 0.04 0.01 0.01 0.02 0.04 0.00 0.00 0.00 0.00 0.00 0.00 0.00 0.00 0.00
0.00 0.01 0.00 0.00 0.00 0.00 0.00 0.00 0.00 0.03 0.16 0.43 0.63 0.52 0.51 0.38 0.42 0.41 0.32 0.21 0.26 0.39 0.32 0.20 0.30 0.20 0.17 0.47 0.17 0.18 0.13 0.05 0.06 0.11 0.11 0.09 0.12 0.12 0.14 0.11 0.11 0.11 0.12 0.16 0.14 0.05 0.03 0.01 0.01 0.03 0.04 0.02 0.00 0.00
0.00 0.00 0.00 0.00 0.00 0.00 0.00 0.00 0.00 0.01 0.10 0.41 0.70 0.64 0.51 0.49 0.46 0.49 0.36 0.30 0.22 0.33 0.39 0.26 0.27 0.14 0.03 0.46 0.24 0.11 0.07 0.09 0.06 0.06 0.05 0.03 0.04 0.07 0.07 0.07 0.02 0.01 0.04 0.07 0.08 0.12 0.09 0.11 0.07 0.07 0.07 0.02 0.01 0.00
0.00 0.00 0.00 0.00 0.00 0.00 0.00 0.00 0.00 0.01 0.11 0.41 0.49 0.41 0.56 0.64 0.52 0.51 0.47 0.31 0.26 0.19 0.21 0.17 0.13 0.05 0.01 0.13 0.11 0.10 0.08 0.07 0.05 0.04 0.04 0.05 0.06 0.12 0.11 0.06 0.03 0.02 0.02 0.04 0.06 0.05 0.03 0.02 0.01 0.01 0.03 0.03 0.02 0.00
0.00 0.00 0.00 0.00 0.00 0.00 0.00 0.00 0.00 0.04 0.11 0.17 0.12 0.08 0.19 0.15 0.16 0.14 0.14 0.14 0.17 0.25 0.20 0.08 0.07 0.04 0.03 0.04 0.05 0.05 0.07 0.09 0.10 0.06 0.03 0.03 0.07 0.10 0.07 0.04 0.03 0.01 0.01 0.01 0.00 0.00 0.00 0.00 0.00 0.00 0.00 0.00 0.00 0.00
0.01 0.00 0.00 0.00 0.00 0.00 0.00 0.00 0.01 0.04 0.05 0.01 0.03 0.02 0.03 0.04 0.05 0.04 0.03 0.02 0.02 0.03 0.01 0.02 0.07 0.08 0.05 0.07 0.10 0.10 0.10 0.09 0.10 0.07 0.04 0.04 0.09 0.16 0.14 0.03 0.01 0.01 0.00 0.01 0.01 0.00 0.00 0.00 0.00 0.00 0.00 0.00 0.00 0.00
0.10 0.04 0.01 0.00 0.00 0.00 0.00 0.00 0.01 0.03 0.02 0.03 0.05 0.05 0.07 0.06 0.03 0.04 0.01 0.10 0.10 0.04 0.03 0.02 0.05 0.23 0.19 0.11 0.08 0.07 0.05 0.12 0.10 0.06 0.04 0.08 0.09 0.12 0.03 0.04 0.04 0.02 0.02 0.02 0.01 0.02 0.01 0.00 0.00 0.00 0.00 0.00 0.00 0.00
0.04 0.04 0.01 0.01 0.01 0.01 0.00 0.00 0.02 0.02 0.04 0.05 0.04 0.05 0.04 0.02 0.03 0.01 0.01 0.06 0.16 0.07 0.04 0.07 0.06 0.21 0.31 0.20 0.11 0.09 0.09 0.12 0.11 0.05 0.04 0.10 0.07 0.02 0.01 0.03 0.05 0.03 0.03 0.02 0.01 0.01 0.00 0.00 0.00 0.00 0.00 0.00 0.00 0.00
0.01 0.01 0.01 0.01 0.01 0.01 0.00 0.00 0.04 0.05 0.09 0.07 0.09 0.10 0.10 0.02 0.05 0.05 0.08 0.04 0.06 0.14 0.06 0.03 0.04 0.27 0.23 0.26 0.13 0.10 0.14 0.10 0.13 0.08 0.04 0.06 0.03 0.04 0.01 0.01 0.02 0.01 0.02 0.01 0.00 0.00 0.00 0.00 0.00 0.00 0.00 0.00 0.00 0.00
0.02 0.02 0.02 0.01 0.01 0.01 0.00 0.03 0.15 0.07 0.08 0.08 0.13 0.11 0.05 0.05 0.13 0.10 0.16 0.10 0.08 0.17 0.06 0.03 0.06 0.25 0.19 0.17 0.18 0.10 0.14 0.16 0.16 0.14 0.07 0.09 0.05 0.02 0.02 0.00 0.01 0.00 0.00 0.00 0.00 0.00 0.00 0.00 0.00 0.00 0.00 0.00 0.00 0.00
0.02 0.02 0.02 0.01 0.00 0.00 0.00 0.04 0.05 0.08 0.06 0.13 0.21 0.09 0.14 0.08 0.19 0.06 0.03 0.03 0.13 0.16 0.06 0.07 0.15 0.15 0.21 0.26 0.27 0.19 0.04 0.15 0.16 0.41 0.28 0.07 0.03 0.00 0.00 0.00 0.00 0.00 0.00 0.00 0.00 0.00 0.00 0.00 0.00 0.00 0.00 0.00 0.00 0.00
0.02 0.02 0.02 0.01 0.01 0.01 0.03 0.06 0.10 0.08 0.19 0.29 0.21 0.15 0.19 0.15 0.05 0.07 0.14 0.36 0.18 0.36 0.31 0.24 0.16 0.28 0.26 0.09 0.12 0.15 0.04 0.02 0.03 0.02 0.04 0.01 0.00 0.00 0.00 0.00 0.00 0.00 0.00 0.00 0.00 0.00 0.00 0.00 0.00 0.00 0.00 0.00 0.00 0.00
0.03 0.05 0.06 0.05 0.05 0.04 0.03 0.08 0.10 0.25 0.34 0.36 0.26 0.24 0.04 0.15 0.06 0.03 0.02 0.01 0.00 0.15 0.41 0.20 0.12 0.17 0.08 0.01 0.03 0.01 0.00 0.00 0.00 0.01 0.02 0.00 0.00 0.00 0.00 0.00 0.00 0.00 0.00 0.00 0.00 0.00 0.00 0.00 0.00 0.01 0.01 0.01 0.01 0.02
0.02 0.03 0.04 0.04 0.04 0.03 0.03 0.08 0.22 0.47 0.41 0.22 0.08 0.03 0.02 0.06 0.05 0.01 0.01 0.00 0.00 0.15 0.17 0.04 0.01 0.01 0.00 0.00 0.00 0.00 0.00 0.00 0.01 0.01 0.01 0.00 0.00 0.00 0.00 0.00 0.00 0.00 0.00 0.00 0.00 0.00 0.00 0.00 0.00 0.01 0.01 0.01 0.01 0.02
0.01 0.01 0.00 0.00 0.00 0.00 0.05 0.28 0.39 0.24 0.07 0.01 0.03 0.01 0.01 0.06 0.04 0.01 0.00 0.01 0.01 0.08 0.04 0.00 0.00 0.00 0.00 0.00 0.00 0.00 0.00 0.01 0.01 0.02 0.01 0.01 0.00 0.00 0.00 0.00 0.00 0.00 0.00 0.00 0.00 0.00 0.00 0.00 0.00 0.01 0.01 0.01 0.01 0.02
0.01 0.00 0.00 0.00 0.01 0.01 0.06 0.10 0.12 0.04 0.01 0.01 0.03 0.03 0.01 0.01 0.01 0.01 0.00 0.01 0.07 0.08 0.02 0.01 0.00 0.00 0.00 0.00 0.01 0.00 0.01 0.01 0.01 0.01 0.01 0.01 0.00 0.00 0.00 0.00 0.00 0.00 0.00 0.00 0.00 0.00 0.00 0.00 0.00 0.00 0.00 0.00 0.01 0.02
0.00 0.00 0.00 0.00 0.01 0.09 0.15 0.04 0.01 0.01 0.00 0.00 0.01 0.01 0.01 0.01 0.00 0.00 0.00 0.01 0.04 0.02 0.01 0.00 0.00 0.00 0.00 0.00 0.01 0.01 0.00 0.01 0.01 0.01 0.02 0.01 0.01 0.01 0.01 0.01 0.00 0.00 0.00 0.00 0.00 0.00 0.00 0.00 0.00 0.00 0.00 0.00 0.01 0.01
0.00 0.00 0.00 0.00 0.00 0.02 0.01 0.00 0.00 0.01 0.00 0.01 0.01 0.01 0.01 0.01 0.00 0.00 0.00 0.01 0.01 0.00 0.00 0.00 0.00 0.00 0.00 0.00 0.00 0.01 0.01 0.01 0.00 0.01 0.02 0.03 0.03 0.01 0.01 0.01 0.00 0.00 0.00 0.00 0.00 0.00 0.00 0.00 0.00 0.00 0.00 0.00 0.01 0.01
0.00 0.00 0.00 0.00 0.01 0.01 0.01 0.00 0.00 0.00 0.00 0.00 0.00 0.00 0.01 0.00 0.01 0.01 0.01 0.00 0.01 0.01 0.01 0.00 0.00 0.00 0.00 0.00 0.00 0.00 0.00 0.00 0.00 0.00 0.01 0.01 0.02 0.01 0.01 0.01 0.00 0.00 0.00 0.00 0.01 0.01 0.00 0.00 0.00 0.00 0.00 0.01 0.02 0.01
0.00 0.00 0.00 0.00 0.00 0.01 0.00 0.00 0.00 0.00 0.00 0.00 0.00 0.00 0.01 0.01 0.01 0.01 0.00 0.00 0.01 0.00 0.00 0.00 0.00 0.00 0.00 0.00 0.00 0.00 0.00 0.00 0.00 0.00 0.00 0.00 0.00 0.02 0.02 0.01 0.01 0.01 0.01 0.00 0.00 0.00 0.00 0.01 0.00 0.01 0.02 0.03 0.04 0.03
0.00 0.00 0.00 0.00 0.00 0.00 0.00 0.00 0.00 0.00 0.00 0.00 0.00 0.00 0.01 0.01 0.00 0.00 0.00 0.00 0.00 0.00 0.00 0.00 0.00 0.00 0.00 0.00 0.00 0.00 0.00 0.00 0.00 0.00 0.00 0.00 0.00 0.00 0.00 0.00 0.00 0.01 0.01 0.00 0.00 0.00 0.01 0.01 0.01 0.02 0.03 0.05 0.07 0.07
0.00 0.00 0.00 0.00 0.00 0.00 0.00 0.00 0.00 0.00 0.00 0.00 0.00 0.00 0.00 0.00 0.00 0.00 0.00 0.00 0.00 0.00 0.00 0.00 0.00 0.00 0.00 0.00 0.00 0.00 0.00 0.00 0.00 0.00 0.00 0.00 0.00 0.00 0.00 0.00 0.00 0.00 0.00 0.00 0.00 0.01 0.01 0.01 0.02 0.03 0.04 0.05 0.06 0.05
0.00 0.00 0.00 0.00 0.00 0.00 0.00 0.00 0.00 0.00 0.00 0.00 0.00 0.00 0.00 0.00 0.01 0.00 0.00 0.00 0.00 0.00 0.00 0.00 0.00 0.01 0.01 0.01 0.01 0.00 0.00 0.00 0.00 0.00 0.00 0.00 0.00 0.00 0.00 0.00 0.00 0.00 0.00 0.01 0.01 0.01 0.02 0.02 0.02 0.03 0.04 0.04 0.04 0.04
0.00 0.00 0.00 0.00 0.00 0.00 0.00 0.01 0.01 0.00 0.01 0.01 0.01 0.01 0.00 0.01 0.00 0.00 0.00 0.01 0.01 0.01 0.01 0.01 0.01 0.01 0.01 0.01 0.01 0.00 0.00 0.00 0.00 0.00 0.00 0.00 0.00 0.00 0.00 0.00 0.00 0.00 0.00 0.00 0.01 0.01 0.01 0.01 0.02 0.03 0.03 0.04 0.04 0.04
0.00 0.00 0.00 0.00 0.00 0.00 0.00 0.01 0.01 0.01 0.01 0.01 0.02 0.01 0.01 0.01 0.00 0.00 0.00 0.00 0.01 0.01 0.01 0.00 0.01 0.01 0.01 0.01 0.00 0.00 0.00 0.00 0.00 0.00 0.00 0.00 0.00 0.00 0.00 0.00 0.00 0.00 0.00 0.00 0.00 0.00 0.01 0.01 0.01 0.02 0.03 0.04 0.04 0.03
0.00 0.00 0.00 0.00 0.00 0.00 0.01 0.01 0.01 0.01 0.01 0.01 0.01 0.01 0.01 0.00 0.00 0.00 0.00 0.00 0.00 0.00 0.00 0.00 0.00 0.00 0.00 0.01 0.00 0.00 0.00 0.00 0.00 0.00 0.01 0.01 0.00 0.00 0.00 0.00 0.00 0.00 0.00 0.00 0.00 0.00 0.00 0.00 0.01 0.01 0.02 0.03 0.04 0.04
0.00 0.00 0.00 0.00 0.00 0.00 0.00 0.00 0.01 0.00 0.00 0.00 0.01 0.01 0.01 0.00 0.00 0.00 0.00 0.00 0.00 0.00 0.00 0.00 0.00 0.00 0.00 0.01 0.01 0.00 0.00 0.00 0.01 0.02 0.02 0.02 0.01 0.01 0.00 0.00 0.00 0.00 0.00 0.00 0.00 0.00 0.00 0.00 0.01 0.01 0.02 0.02 0.03 0.05
0.01 0.00 0.00 0.00 0.00 0.00 0.01 0.00 0.01 0.01 0.00 0.00 0.00 0.00 0.00 0.00 0.01 0.00 0.00 0.00 0.00 0.00 0.01 0.01 0.01 0.01 0.01 0.01 0.02 0.03 0.02 0.01 0.01 0.01 0.01 0.01 0.01 0.00 0.00 0.00 0.00 0.00 0.00 0.00 0.00 0.01 0.01 0.01 0.01 0.02 0.03 0.03 0.04 0.05
0.01 0.01 0.01 0.01 0.01 0.01 0.01 0.00 0.00 0.00 0.01 0.00 0.01 0.01 0.01 0.02 0.01 0.00 0.00 0.00 0.00 0.01 0.01 0.01 0.02 0.01 0.02 0.01 0.02 0.02 0.02 0.01 0.01 0.01 0.00 0.00 0.00 0.01 0.00 0.00 0.00 0.00 0.01 0.01 0.01 0.01 0.01 0.01 0.01 0.02 0.02 0.01 0.01 0.01
0.01 0.01 0.01 0.01 0.02 0.02 0.00 0.01 0.01 0.01 0.01 0.01 0.01 0.01 0.02 0.03 0.02 0.01 0.00 0.00 0.00 0.00 0.01 0.01 0.01 0.01 0.01 0.01 0.00 0.00 0.00 0.00 0.00 0.00 0.00 0.00 0.00 0.00 0.00 0.00 0.01 0.01 0.01 0.01 0.01 0.01 0.01 0.01 0.01 0.01 0.01 0.01 0.01 0.02
0.01 0.01 0.02 0.01 0.01 0.01 0.02 0.01 0.01 0.00 0.00 0.00 0.00 0.01 0.02 0.04 0.03 0.01 0.00 0.00 0.00 0.00 0.00 0.00 0.01 0.00 0.00 0.00 0.00 0.00 0.00 0.00 0.00 0.00 0.00 0.00 0.00 0.01 0.01 0.01 0.01 0.02 0.02 0.02 0.02 0.02 0.01 0.01 0.02 0.02 0.02 0.02 0.02 0.03

GFSWCAN_prec_precacc12_141.txt.gz
Total_Precipitation_Accumulation
0.15 0.14 0.14 0.15 0.12 0.09 0.05 0.03 0.03 0.02 0.01 0.00 0.01 0.02 0.11 0.12 0.14 0.20 0.16 0.11 0.17 0.26 0.10 0.09 0.20 0.25 0.17 0.15 0.19 0.22 0.38 0.35 0.38 0.24 0.22 0.14 0.08 0.01 0.01 0.01 0.01 0.07 0.12 0.08 0.07 0.10 0.04 0.00 0.00 0.01 0.00 0.00 0.00 0.00
0.12 0.13 0.08 0.04 0.03 0.03 0.02 0.02 0.02 0.04 0.08 0.05 0.02 0.05 0.24 0.28 0.28 0.44 0.30 0.18 0.17 0.27 0.17 0.09 0.09 0.17 0.19 0.17 0.20 0.20 0.32 0.31 0.40 0.31 0.11 0.04 0.01 0.00 0.01 0.00 0.00 0.01 0.02 0.04 0.09 0.08 0.02 0.00 0.00 0.00 0.00 0.00 0.00 0.00
0.07 0.06 0.05 0.04 0.02 0.01 0.01 0.00 0.00 0.04 0.18 0.28 0.15 0.14 0.40 0.47 0.38 0.44 0.27 0.17 0.28 0.44 0.28 0.17 0.21 0.16 0.18 0.27 0.21 0.33 0.20 0.12 0.22 0.25 0.24 0.12 0.04 0.02 0.02 0.02 0.03 0.00 0.00 0.01 0.03 0.00 0.00 0.00 0.00 0.00 0.00 0.00 0.00 0.00
0.01 0.02 0.02 0.01 0.01 0.00 0.00 0.00 0.00 0.02 0.15 0.41 0.58 0.47 0.45 0.37 0.44 0.44 0.37 0.27 0.35 0.52 0.40 0.20 0.30 0.20 0.17 0.48 0.17 0.20 0.14 0.08 0.14 0.28 0.34 0.14 0.04 0.02 0.05 0.06 0.06 0.06 0.09 0.13 0.12 0.04 0.02 0.01 0.01 0.03 0.04 0.02 0.00 0.00
0.01 0.01 0.00 0.00 0.00 0.00 0.00 0.00 0.00 0.00 0.10 0.41 0.71 0.66 0.55 0.58 0.54 0.57 0.40 0.36 0.32 0.46 0.45 0.30 0.34 0.27 0.14 0.56 0.31 0.18 0.18 0.17 0.22 0.20 0.18 0.12 0.02 0.02 0.03 0.04 0.01 0.01 0.03 0.06 0.05 0.08 0.07 0.09 0.07 0.07 0.07 0.02 0.01 0.00
0.00 0.00 0.00 0.00 0.00 0.00 0.00 0.00 0.00 0.01 0.11 0.42 0.55 0.60 0.83 0.79 0.59 0.65 0.62 0.33 0.27 0.20 0.26 0.21 0.23 0.32 0.17 0.58 0.44 0.21 0.35 0.22 0.25 0.17 0.03 0.01 0.02 0.07 0.04 0.01 0.01 0.01 0.02 0.03 0.05 0.04 0.03 0.02 0.01 0.01 0.03 0.03 0.02 0.00
0.01 0.00 0.00 0.00 0.00 0.00 0.00 0.00 0.00 0.02 0.11 0.26 0.25 0.30 0.44 0.23 0.21 0.18 0.19 0.15 0.20 0.34 0.41 0.24 0.17 0.15 0.08 0.24 0.44 0.33 0.42 0.28 0.16 0.07 0.01 0.01 0.03 0.05 0.03 0.00 0.00 0.01 0.01 0.01 0.00 0.00 0.00 0.00 0.00 0.00 0.00 0.00 0.00 0.00
0.02 0.00 0.00 0.00 0.00 0.00 0.00 0.00 0.01 0.02 0.07 0.09 0.03 0.02 0.05 0.06 0.14 0.17 0.16 0.15 0.12 0.15 0.12 0.10 0.07 0.06 0.03 0.05 0.14 0.18 0.17 0.11 0.09 0.05 0.02 0.01 0.03 0.04 0.02 0.01 0.01 0.01 0.00 0.01 0.01 0.00 0.00 0.00 0.00 0.00 0.00 0.00 0.00 0.00
0.02 0.01 0.00 0.00 0.00 0.00 0.00 0.00 0.01 0.02 0.02 0.02 0.01 0.01 0.02 0.03 0.02 0.03 0.00 0.01 0.01 0.03 0.02 0.00 0.02 0.09 0.05 0.03 0.05 0.04 0.03 0.07 0.05 0.02 0.01 0.03 0.03 0.05 0.01 0.03 0.04 0.02 0.02 0.02 0.02 0.03 0.02 0.01 0.01 0.01 0.00 0.00 0.00 0.00
0.04 0.02 0.00 0.00 0.00 0.00 0.00 0.00 0.00 0.00 0.02 0.02 0.01 0.01 0.02 0.01 0.01 0.00 0.01 0.00 0.01 0.01 0.01 0.01 0.01 0.06 0.11 0.09 0.03 0.04 0.04 0.05 0.05 0.01 0.01 0.04 0.03 0.01 0.01 0.03 0.05 0.03 0.03 0.03 0.02 0.06 0.06 0.04 0.01 0.00 0.00 0.00 0.00 0.00
0.01 0.01 0.01 0.00 0.00 0.00 0.00 0.00 0.01 0.02 0.05 0.05 0.07 0.05 0.06 0.01 0.01 0.01 0.01 0.00 0.02 0.02 0.01 0.00 0.00 0.03 0.07 0.18 0.09 0.07 0.10 0.06 0.08 0.04 0.02 0.03 0.01 0.03 0.01 0.01 0.02 0.01 0.02 0.01 0.01 0.01 0.00 0.00 0.00 0.00 0.00 0.00 0.00 0.00
0.01 0.02 0.01 0.00 0.00 0.00 0.00 0.00 0.02 0.05 0.06 0.07 0.04 0.02 0.02 0.01 0.03 0.02 0.03 0.03 0.02 0.07 0.04 0.02 0.03 0.12 0.15 0.16 0.17 0.09 0.14 0.16 0.14 0.13 0.06 0.08 0.04 0.02 0.02 0.00 0.01 0.00 0.00 0.00 0.00 0.00 0.00 0.00 0.00 0.00 0.00 0.00 0.00 0.00
0.02 0.02 0.01 0.00 0.00 0.00 0.00 0.00 0.02 0.06 0.05 0.07 0.09 0.02 0.05 0.02 0.08 0.02 0.03 0.02 0.12 0.15 0.06 0.06 0.14 0.13 0.19 0.25 0.26 0.19 0.04 0.15 0.16 0.43 0.30 0.07 0.03 0.00 0.00 0.00 0.00 0.00 0.00 0.00 0.00 0.00 0.00 0.00 0.00 0.00 0.00 0.00 0.00 0.00
0.02 0.01 0.01 0.01 0.00 0.00 0.01 0.04 0.08 0.07 0.17 0.27 0.19 0.14 0.18 0.15 0.04 0.07 0.13 0.36 0.19 0.40 0.35 0.24 0.16 0.26 0.25 0.09 0.12 0.15 0.06 0.02 0.04 0.06 0.05 0.01 0.00 0.00 0.00 0.00 0.00 0.00 0.01 0.01 0.00 0.00 0.00 0.00 0.00 0.00 0.00 0.00 0.00 0.00
0.02 0.02 0.04 0.04 0.04 0.03 0.03 0.08 0.10 0.25 0.34 0.36 0.27 0.28 0.07 0.20 0.12 0.06 0.03 0.01 0.01 0.27 0.64 0.41 0.23 0.26 0.12 0.03 0.05 0.01 0.04 0.02 0.00 0.01 0.02 0.00 0.00 0.00 0.00 0.00 0.00 0.00 0.00 0.00 0.00 0.00 0.00 0.00 0.00 0.00 0.00 0.00 0.00 0.00
0.01 0.01 0.03 0.04 0.03 0.03 0.03 0.09 0.22 0.52 0.47 0.32 0.20 0.13 0.04 0.05 0.07 0.02 0.00 0.00 0.02 0.44 0.47 0.19 0.05 0.06 0.03 0.00 0.00 0.00 0.00 0.00 0.00 0.00 0.00 0.00 0.00 0.00 0.00 0.00 0.00 0.00 0.00 0.00 0.00 0.00 0.00 0.00 0.00 0.00 0.01 0.01 0.00 0.00
0.01 0.01 0.00 0.00 0.00 0.01 0.06 0.29 0.44 0.34 0.16 0.09 0.05 0.01 0.01 0.05 0.03 0.00 0.00 0.01 0.01 0.12 0.04 0.00 0.00 0.00 0.00 0.00 0.00 0.00 0.00 0.01 0.01 0.01 0.00 0.00 0.00 0.00 0.00 0.00 0.00 0.00 0.00 0.00 0.00 0.00 0.00 0.00 0.00 0.00 0.01 0.01 0.01 0.01
0.01 0.00 0.00 0.00 0.01 0.02 0.07 0.12 0.16 0.11 0.03 0.00 0.02 0.02 0.01 0.01 0.01 0.01 0.00 0.01 0.06 0.08 0.02 0.01 0.00 0.00 0.00 0.00 0.01 0.00 0.00 0.01 0.01 0.00 0.01 0.00 0.00 0.00 0.00 0.00 0.00 0.00 0.00 0.00 0.00 0.00 0.00 0.00 0.00 0.00 0.00 0.00 0.01 0.02
0.00 0.00 0.00 0.00 0.01 0.13 0.21 0.14 0.04 0.04 0.00 0.00 0.01 0.01 0.01 0.01 0.00 0.00 0.00 0.01 0.04 0.02 0.01 0.00 0.00 0.00 0.00 0.00 0.00 0.00 0.00 0.00 0.00 0.00 0.02 0.01 0.00 0.00 0.00 0.00 0.00 0.00 0.00 0.00 0.00 0.00 0.00 0.00 0.00 0.00 0.00 0.00 0.00 0.01
0.00 0.00 0.00 0.00 0.00 0.02 0.05 0.02 0.01 0.01 0.00 0.01 0.01 0.00 0.01 0.00 0.00 0.00 0.00 0.01 0.01 0.01 0.00 0.00 0.00 0.00 0.00 0.00 0.00 0.00 0.00 0.01 0.00 0.01 0.02 0.04 0.04 0.01 0.01 0.01 0.00 0.00 0.00 0.00 0.00 0.00 0.00 0.00 0.00 0.00 0.00 0.00 0.00 0.00
0.00 0.00 0.00 0.00 0.01 0.01 0.02 0.00 0.00 0.00 0.00 0.00 0.00 0.00 0.01 0.00 0.01 0.01 0.01 0.00 0.01 0.02 0.01 0.00 0.00 0.00 0.00 0.00 0.00 0.00 0.00 0.00 0.00 0.00 0.00 0.01 0.03 0.02 0.01 0.01 0.00 0.00 0.00 0.01 0.01 0.01 0.00 0.00 0.00 0.00 0.00 0.00 0.01 0.00
0.00 0.00 0.00 0.00 0.00 0.02 0.01 0.00 0.00 0.00 0.00 0.00 0.00 0.00 0.01 0.01 0.01 0.01 0.00 0.00 0.01 0.00 0.00 0.00 0.00 0.00 0.00 0.00 0.00 0.00 0.00 0.00 0.00 0.00 0.00 0.00 0.01 0.03 0.03 0.02 0.01 0.01 0.01 0.00 0.00 0.00 0.00 0.00 0.00 0.00 0.01 0.02 0.03 0.02
0.00 0.00 0.00 0.00 0.00 0.00 0.00 0.00 0.00 0.00 0.00 0.00 0.00 0.00 0.01 0.01 0.00 0.00 0.00 0.00 0.00 0.00 0.00 0.00 0.00 0.00 0.00 0.00 0.00 0.00 0.00 0.00 0.00 0.00 0.00 0.00 0.00 0.00 0.00 0.00 0.00 0.00 0.01 0.00 0.00 0.00 0.00 0.01 0.00 0.01 0.02 0.04 0.05 0.05
0.00 0.00 0.00 0.00 0.00 0.00 0.00 0.00 0.00 0.00 0.00 0.00 0.00 0.00 0.00 0.00 0.00 0.00 0.00 0.00 0.00 0.00 0.00 0.00 0.00 0.00 0.00 0.00 0.00 0.00 0.00 0.00 0.00 0.00 0.00 0.00 0.00 0.01 0.00 0.00 0.00 0.00 0.00 0.00 0.00 0.00 0.01 0.01 0.01 0.03 0.04 0.04 0.05 0.04
0.00 0.00 0.00 0.00 0.00 0.00 0.00 0.00 0.00 0.00 0.00 0.00 0.00 0.00 0.00 0.00 0.00 0.00 0.00 0.00 0.00 0.00 0.00 0.00 0.00 0.00 0.00 0.00 0.00 0.00 0.00 0.00 0.00 0.00 0.00 0.00 0.00 0.01 0.01 0.01 0.01 0.00 0.00 0.01 0.02 0.02 0.02 0.02 0.02 0.03 0.04 0.04 0.04 0.03
0.00 0.00 0.00 0.00 0.00 0.00 0.00 0.00 0.00 0.00 0.00 0.01 0.01 0.00 0.00 0.00 0.00 0.00 0.00 0.00 0.00 0.00 0.00 0.00 0.00 0.00 0.01 0.01 0.01 0.00 0.00 0.00 0.00 0.00 0.00 0.00 0.00 0.00 0.01 0.01 0.01 0.00 0.00 0.00 0.00 0.01 0.01 0.01 0.02 0.03 0.03 0.04 0.04 0.03
0.00 0.00 0.00 0.00 0.00 0.00 0.00 0.00 0.01 0.01 0.01 0.01 0.02 0.01 0.01 0.01 0.00 0.00 0.00 0.00 0.00 0.01 0.00 0.00 0.00 0.01 0.01 0.00 0.00 0.00 0.00 0.00 0.00 0.00 0.00 0.00 0.00 0.00 0.00 0.00 0.00 0.00 0.00 0.00 0.00 0.00 0.01 0.01 0.01 0.02 0.03 0.04 0.03 0.02
0.00 0.00 0.00 0.00 0.00 0.00 0.01 0.00 0.01 0.01 0.01 0.01 0.01 0.01 0.01 0.00 0.00 0.00 0.00 0.00 0.00 0.00 0.00 0.00 0.00 0.00 0.00 0.00 0.00 0.00 0.00 0.00 0.00 0.00 0.01 0.01 0.00 0.00 0.00 0.00 0.00 0.00 0.00 0.00 0.00 0.00 0.00 0.00 0.01 0.01 0.02 0.02 0.03 0.03
0.00 0.00 0.00 0.00 0.00 0.00 0.00 0.00 0.00 0.00 0.00 0.00 0.00 0.01 0.01 0.00 0.00 0.00 0.00 0.00 0.00 0.00 0.00 0.00 0.00 0.00 0.00 0.00 0.01 0.00 0.01 0.00 0.01 0.01 0.02 0.02 0.01 0.00 0.00 0.00 0.00 0.00 0.00 0.00 0.00 0.00 0.00 0.00 0.00 0.01 0.01 0.01 0.01 0.03
0.01 0.00 0.01 0.00 0.00 0.00 0.01 0.00 0.01 0.00 0.00 0.00 0.00 0.00 0.00 0.00 0.01 0.00 0.00 0.00 0.00 0.00 0.00 0.00 0.01 0.00 0.01 0.02 0.02 0.03 0.02 0.01 0.01 0.01 0.00 0.01 0.00 0.00 0.00 0.00 0.00 0.00 0.00 0.00 0.00 0.01 0.02 0.01 0.01 0.02 0.02 0.02 0.03 0.04
0.01 0.00 0.01 0.01 0.01 0.01 0.01 0.00 0.00 0.00 0.00 0.00 0.00 0.01 0.00 0.01 0.01 0.00 0.00 0.00 0.00 0.00 0.00 0.01 0.01 0.01 0.01 0.01 0.02 0.02 0.02 0.01 0.02 0.02 0.02 0.02 0.01 0.01 0.00 0.00 0.00 0.00 0.00 0.00 0.01 0.01 0.01 0.01 0.01 0.01 0.01 0.01 0.01 0.01
0.01 0.01 0.01 0.01 0.02 0.02 0.00 0.00 0.00 0.01 0.00 0.01 0.00 0.01 0.01 0.02 0.01 0.00 0.00 0.00 0.00 0.00 0.00 0.01 0.00 0.00 0.00 0.00 0.00 0.00 0.00 0.00 0.00 0.00 0.01 0.01 0.01 0.01 0.01 0.01 0.01 0.01 0.01 0.01 0.01 0.01 0.01 0.01 0.01 0.01 0.01 0.01 0.01 0.01
0.01 0.01 0.02 0.02 0.01 0.01 0.01 0.01 0.01 0.00 0.00 0.00 0.00 0.00 0.01 0.03 0.02 0.00 0.00 0.00 0.00 0.00 0.00 0.00 0.00 0.00 0.00 0.00 0.00 0.00 0.00 0.00 0.00 0.00 0.01 0.01 0.01 0.01 0.02 0.02 0.02 0.02 0.02 0.02 0.01 0.01 0.01 0.01 0.01 0.01 0.01 0.01 0.01 0.01